GEFSGL_prec_meanprecacc_012.txt.gz
Total_Precipitation_Accumulation
0.00 0.00 0.00 0.00 0.00 0.00 0.01 0.01 0.01 0.01 0.01 0.01 0.02 0.03 0.04 0.05 0.05 0.05 0.08 0.11 0.13 0.13 0.15 0.16 0.17 0.16 0.16 0.14 0.11 0.08 0.06 0.06 0.05 0.02 0.01 0.01 0.03 0.06 0.08 0.07 0.08 0.05 0.04
0.00 0.00 0.00 0.00 0.00 0.00 0.01 0.01 0.01 0.01 0.01 0.01 0.05 0.08 0.09 0.09 0.08 0.08 0.12 0.21 0.30 0.30 0.26 0.23 0.22 0.23 0.24 0.22 0.19 0.14 0.09 0.07 0.06 0.04 0.02 0.01 0.02 0.05 0.07 0.06 0.05 0.03 0.02
0.00 0.00 0.00 0.00 0.00 0.00 0.00 0.00 0.00 0.01 0.01 0.02 0.07 0.14 0.16 0.16 0.16 0.16 0.17 0.23 0.37 0.48 0.49 0.44 0.37 0.30 0.29 0.29 0.29 0.25 0.18 0.12 0.09 0.07 0.04 0.02 0.02 0.05 0.07 0.06 0.03 0.02 0.01
0.00 0.00 0.00 0.00 0.00 0.00 0.00 0.00 0.00 0.01 0.02 0.04 0.07 0.14 0.18 0.20 0.25 0.30 0.29 0.31 0.37 0.49 0.57 0.58 0.53 0.45 0.36 0.33 0.32 0.33 0.30 0.23 0.15 0.11 0.07 0.04 0.02 0.04 0.07 0.07 0.04 0.02 0.01
0.00 0.00 0.00 0.00 0.00 0.00 0.00 0.00 0.00 0.00 0.02 0.04 0.05 0.07 0.11 0.17 0.29 0.32 0.24 0.27 0.31 0.34 0.38 0.42 0.46 0.48 0.49 0.42 0.36 0.33 0.33 0.32 0.25 0.17 0.10 0.06 0.04 0.04 0.07 0.08 0.08 0.07 0.04
0.00 0.00 0.00 0.00 0.00 0.00 0.00 0.00 0.00 0.00 0.01 0.03 0.03 0.04 0.06 0.13 0.24 0.24 0.11 0.11 0.14 0.18 0.22 0.24 0.26 0.32 0.38 0.42 0.42 0.35 0.32 0.32 0.30 0.24 0.15 0.08 0.04 0.04 0.04 0.07 0.09 0.11 0.08
0.00 0.00 0.00 0.00 0.00 0.00 0.00 0.00 0.00 0.00 0.01 0.03 0.02 0.01 0.02 0.07 0.15 0.17 0.06 0.01 0.03 0.05 0.08 0.10 0.12 0.16 0.19 0.22 0.25 0.25 0.25 0.26 0.27 0.24 0.20 0.14 0.07 0.04 0.03 0.04 0.07 0.11 0.11
0.00 0.00 0.00 0.00 0.00 0.00 0.00 0.00 0.00 0.00 0.01 0.02 0.02 0.00 0.01 0.03 0.10 0.16 0.09 0.01 0.00 0.00 0.01 0.02 0.03 0.06 0.10 0.13 0.14 0.15 0.16 0.18 0.21 0.21 0.22 0.20 0.15 0.10 0.06 0.05 0.06 0.08 0.11
0.00 0.00 0.00 0.00 0.00 0.00 0.00 0.00 0.00 0.00 0.00 0.00 0.01 0.00 0.00 0.00 0.06 0.17 0.16 0.02 0.00 0.00 0.02 0.04 0.02 0.01 0.03 0.04 0.06 0.08 0.09 0.13 0.16 0.18 0.16 0.15 0.14 0.13 0.11 0.09 0.10 0.10 0.11
0.00 0.00 0.00 0.00 0.00 0.00 0.00 0.00 0.00 0.00 0.00 0.00 0.00 0.00 0.00 0.00 0.02 0.15 0.26 0.06 0.01 0.01 0.01 0.04 0.06 0.03 0.02 0.01 0.02 0.03 0.04 0.07 0.07 0.07 0.06 0.04 0.03 0.04 0.06 0.09 0.13 0.14 0.14
0.00 0.00 0.00 0.00 0.00 0.00 0.00 0.00 0.00 0.00 0.00 0.00 0.00 0.00 0.00 0.00 0.01 0.09 0.26 0.19 0.04 0.02 0.02 0.05 0.07 0.04 0.02 0.01 0.00 0.01 0.02 0.02 0.01 0.02 0.02 0.01 0.01 0.01 0.02 0.05 0.08 0.10 0.11
0.00 0.00 0.00 0.00 0.00 0.00 0.00 0.00 0.00 0.00 0.00 0.00 0.00 0.00 0.00 0.00 0.01 0.05 0.12 0.19 0.11 0.02 0.03 0.05 0.07 0.03 0.01 0.01 0.00 0.00 0.00 0.00 0.00 0.00 0.00 0.00 0.00 0.00 0.01 0.02 0.04 0.05 0.06
0.00 0.00 0.00 0.00 0.00 0.00 0.00 0.00 0.00 0.00 0.00 0.00 0.00 0.00 0.00 0.00 0.02 0.05 0.05 0.06 0.08 0.08 0.12 0.11 0.03 0.00 0.00 0.00 0.00 0.00 0.00 0.00 0.00 0.00 0.00 0.00 0.00 0.00 0.00 0.00 0.01 0.01 0.01
0.00 0.00 0.00 0.00 0.00 0.00 0.00 0.00 0.00 0.01 0.01 0.03 0.03 0.01 0.00 0.01 0.06 0.13 0.07 0.02 0.04 0.06 0.11 0.09 0.02 0.00 0.00 0.00 0.00 0.00 0.00 0.00 0.00 0.00 0.00 0.00 0.00 0.00 0.00 0.00 0.00 0.00 0.00
0.00 0.00 0.00 0.00 0.00 0.00 0.00 0.00 0.01 0.02 0.05 0.09 0.05 0.02 0.03 0.08 0.13 0.15 0.10 0.07 0.10 0.12 0.06 0.02 0.00 0.00 0.00 0.00 0.00 0.00 0.00 0.00 0.00 0.00 0.00 0.00 0.00 0.00 0.00 0.00 0.00 0.00 0.00
0.00 0.00 0.00 0.00 0.00 0.00 0.00 0.00 0.01 0.02 0.04 0.04 0.03 0.03 0.04 0.11 0.12 0.07 0.04 0.04 0.10 0.12 0.04 0.01 0.00 0.00 0.00 0.00 0.00 0.00 0.00 0.00 0.00 0.00 0.00 0.00 0.00 0.00 0.00 0.00 0.00 0.00 0.00
0.00 0.01 0.01 0.01 0.01 0.01 0.01 0.01 0.01 0.01 0.01 0.01 0.01 0.02 0.03 0.08 0.07 0.04 0.01 0.01 0.02 0.02 0.00 0.00 0.00 0.00 0.00 0.00 0.00 0.00 0.00 0.00 0.00 0.00 0.00 0.00 0.00 0.00 0.00 0.00 0.00 0.00 0.00
0.00 0.01 0.01 0.01 0.02 0.02 0.03 0.03 0.03 0.02 0.01 0.00 0.00 0.00 0.01 0.04 0.04 0.02 0.00 0.00 0.00 0.00 0.00 0.00 0.00 0.00 0.00 0.00 0.00 0.00 0.00 0.00 0.00 0.00 0.00 0.00 0.00 0.00 0.00 0.00 0.00 0.00 0.00
0.00 0.01 0.02 0.03 0.03 0.03 0.04 0.03 0.03 0.03 0.02 0.01 0.00 0.00 0.00 0.01 0.01 0.00 0.00 0.00 0.00 0.00 0.00 0.00 0.00 0.00 0.00 0.00 0.00 0.00 0.00 0.00 0.00 0.00 0.00 0.00 0.00 0.00 0.00 0.00 0.00 0.00 0.00
0.00 0.01 0.02 0.03 0.03 0.03 0.04 0.03 0.03 0.03 0.02 0.01 0.01 0.00 0.00 0.00 0.00 0.00 0.00 0.00 0.00 0.00 0.00 0.00 0.00 0.00 0.00 0.00 0.00 0.00 0.00 0.00 0.00 0.00 0.00 0.00 0.00 0.00 0.00 0.00 0.00 0.00 0.00
0.02 0.01 0.01 0.02 0.02 0.03 0.04 0.03 0.03 0.03 0.03 0.02 0.01 0.01 0.04 0.03 0.01 0.00 0.00 0.00 0.00 0.00 0.00 0.00 0.00 0.00 0.00 0.00 0.00 0.00 0.00 0.00 0.00 0.00 0.00 0.00 0.00 0.00 0.00 0.00 0.00 0.00 0.00
0.03 0.02 0.02 0.02 0.03 0.03 0.04 0.04 0.04 0.04 0.03 0.02 0.01 0.01 0.02 0.01 0.00 0.00 0.00 0.00 0.00 0.00 0.00 0.00 0.00 0.00 0.00 0.00 0.00 0.00 0.00 0.00 0.00 0.00 0.00 0.00 0.00 0.00 0.00 0.00 0.00 0.00 0.00
0.02 0.02 0.01 0.01 0.01 0.02 0.02 0.02 0.03 0.03 0.03 0.02 0.01 0.01 0.01 0.00 0.00 0.00 0.00 0.00 0.00 0.00 0.00 0.00 0.00 0.00 0.00 0.00 0.00 0.00 0.00 0.00 0.00 0.00 0.00 0.00 0.00 0.00 0.00 0.00 0.00 0.00 0.00
0.01 0.01 0.01 0.01 0.01 0.01 0.01 0.02 0.02 0.03 0.03 0.02 0.02 0.01 0.01 0.01 0.00 0.00 0.00 0.00 0.00 0.00 0.00 0.00 0.00 0.00 0.00 0.00 0.00 0.00 0.00 0.00 0.00 0.00 0.00 0.00 0.00 0.00 0.01 0.01 0.01 0.00 0.00
0.00 0.01 0.01 0.02 0.02 0.02 0.01 0.01 0.02 0.02 0.02 0.02 0.01 0.01 0.01 0.01 0.00 0.00 0.00 0.00 0.00 0.00 0.00 0.00 0.00 0.00 0.00 0.00 0.00 0.00 0.00 0.00 0.02 0.05 0.06 0.05 0.03 0.02 0.02 0.02 0.01 0.01 0.01
0.00 0.00 0.01 0.02 0.02 0.02 0.01 0.02 0.02 0.02 0.02 0.01 0.01 0.00 0.00 0.01 0.00 0.00 0.00 0.00 0.00 0.00 0.00 0.00 0.00 0.00 0.00 0.00 0.00 0.00 0.01 0.03 0.06 0.07 0.08 0.08 0.05 0.03 0.03 0.02 0.01 0.01 0.01

GEFSGL_prec_meanprecacc_018.txt.gz
Total_Precipitation_Accumulation
0.00 0.00 0.00 0.00 0.00 0.00 0.01 0.01 0.01 0.01 0.01 0.01 0.02 0.04 0.05 0.07 0.07 0.07 0.09 0.13 0.14 0.15 0.19 0.25 0.28 0.29 0.30 0.27 0.22 0.16 0.12 0.10 0.08 0.04 0.02 0.02 0.06 0.10 0.13 0.13 0.13 0.09 0.05
0.00 0.00 0.00 0.00 0.00 0.00 0.01 0.01 0.01 0.01 0.01 0.01 0.05 0.08 0.10 0.11 0.10 0.11 0.15 0.23 0.32 0.32 0.30 0.30 0.31 0.33 0.34 0.33 0.30 0.23 0.15 0.11 0.10 0.07 0.03 0.02 0.04 0.09 0.13 0.14 0.14 0.10 0.06
0.00 0.00 0.00 0.00 0.00 0.00 0.00 0.00 0.00 0.01 0.01 0.02 0.07 0.14 0.16 0.17 0.18 0.19 0.22 0.27 0.39 0.50 0.52 0.49 0.43 0.36 0.34 0.34 0.34 0.30 0.22 0.15 0.12 0.10 0.06 0.03 0.04 0.10 0.15 0.17 0.16 0.13 0.09
0.00 0.00 0.00 0.00 0.00 0.00 0.00 0.00 0.00 0.01 0.02 0.04 0.07 0.14 0.18 0.20 0.26 0.35 0.39 0.36 0.39 0.50 0.59 0.62 0.60 0.54 0.45 0.40 0.37 0.37 0.33 0.25 0.18 0.14 0.12 0.08 0.06 0.11 0.19 0.20 0.17 0.14 0.11
0.00 0.00 0.00 0.00 0.00 0.00 0.00 0.00 0.00 0.00 0.02 0.04 0.05 0.07 0.11 0.17 0.29 0.40 0.39 0.34 0.32 0.35 0.40 0.45 0.52 0.60 0.63 0.56 0.49 0.42 0.38 0.35 0.29 0.22 0.17 0.13 0.11 0.14 0.22 0.24 0.22 0.19 0.15
0.00 0.00 0.00 0.00 0.00 0.00 0.00 0.00 0.00 0.00 0.02 0.03 0.03 0.04 0.06 0.13 0.24 0.31 0.24 0.16 0.15 0.19 0.24 0.27 0.31 0.41 0.49 0.55 0.57 0.50 0.45 0.43 0.41 0.36 0.28 0.20 0.16 0.17 0.24 0.30 0.28 0.26 0.21
0.00 0.00 0.00 0.00 0.00 0.00 0.00 0.00 0.00 0.00 0.01 0.03 0.02 0.01 0.02 0.07 0.17 0.26 0.19 0.06 0.04 0.07 0.11 0.14 0.16 0.22 0.27 0.30 0.36 0.38 0.42 0.48 0.53 0.52 0.48 0.38 0.25 0.20 0.25 0.32 0.31 0.26 0.24
0.00 0.00 0.00 0.00 0.00 0.00 0.00 0.00 0.00 0.00 0.01 0.02 0.02 0.00 0.01 0.03 0.14 0.28 0.20 0.04 0.02 0.04 0.07 0.07 0.06 0.10 0.16 0.19 0.21 0.26 0.32 0.42 0.55 0.62 0.65 0.60 0.46 0.34 0.30 0.39 0.43 0.33 0.29
0.00 0.00 0.00 0.00 0.00 0.00 0.00 0.00 0.00 0.00 0.00 0.00 0.01 0.00 0.00 0.01 0.10 0.31 0.26 0.04 0.03 0.05 0.09 0.10 0.05 0.03 0.07 0.06 0.09 0.14 0.18 0.29 0.41 0.51 0.54 0.54 0.53 0.51 0.48 0.49 0.54 0.44 0.41
0.00 0.00 0.00 0.00 0.00 0.00 0.00 0.00 0.00 0.00 0.00 0.00 0.00 0.00 0.00 0.00 0.06 0.28 0.36 0.08 0.03 0.05 0.07 0.08 0.10 0.05 0.04 0.02 0.03 0.05 0.08 0.15 0.20 0.24 0.29 0.33 0.37 0.43 0.51 0.58 0.66 0.57 0.52
0.00 0.00 0.00 0.00 0.00 0.00 0.00 0.00 0.00 0.00 0.00 0.00 0.00 0.00 0.00 0.00 0.02 0.17 0.37 0.24 0.07 0.05 0.07 0.09 0.10 0.06 0.03 0.01 0.01 0.01 0.03 0.04 0.06 0.10 0.15 0.22 0.30 0.37 0.47 0.59 0.66 0.61 0.53
0.00 0.00 0.00 0.00 0.00 0.00 0.00 0.00 0.00 0.00 0.00 0.00 0.00 0.00 0.00 0.00 0.02 0.09 0.19 0.27 0.16 0.06 0.07 0.08 0.08 0.03 0.02 0.01 0.00 0.00 0.00 0.00 0.01 0.03 0.06 0.11 0.19 0.28 0.38 0.50 0.60 0.60 0.53
0.00 0.00 0.00 0.00 0.00 0.00 0.00 0.00 0.00 0.00 0.01 0.02 0.02 0.01 0.01 0.01 0.04 0.07 0.07 0.10 0.12 0.11 0.16 0.12 0.03 0.00 0.00 0.00 0.00 0.00 0.00 0.00 0.00 0.00 0.02 0.04 0.08 0.15 0.21 0.27 0.37 0.43 0.38
0.00 0.00 0.00 0.00 0.00 0.00 0.00 0.00 0.01 0.02 0.04 0.06 0.05 0.02 0.01 0.04 0.09 0.13 0.07 0.03 0.05 0.07 0.11 0.09 0.02 0.00 0.00 0.00 0.00 0.00 0.00 0.00 0.00 0.00 0.00 0.01 0.02 0.05 0.09 0.13 0.17 0.22 0.22
0.00 0.00 0.00 0.00 0.00 0.00 0.00 0.00 0.02 0.04 0.09 0.13 0.07 0.04 0.06 0.14 0.18 0.16 0.10 0.08 0.11 0.12 0.06 0.02 0.00 0.00 0.00 0.00 0.00 0.00 0.00 0.00 0.00 0.00 0.00 0.00 0.01 0.01 0.03 0.05 0.07 0.10 0.10
0.00 0.00 0.00 0.00 0.01 0.00 0.00 0.00 0.01 0.03 0.06 0.06 0.05 0.05 0.06 0.17 0.16 0.08 0.04 0.05 0.11 0.12 0.04 0.01 0.00 0.00 0.00 0.00 0.00 0.00 0.00 0.00 0.00 0.00 0.00 0.00 0.00 0.00 0.01 0.01 0.02 0.03 0.04
0.00 0.01 0.01 0.01 0.01 0.01 0.01 0.02 0.01 0.01 0.02 0.02 0.02 0.02 0.05 0.11 0.09 0.04 0.02 0.01 0.02 0.02 0.00 0.00 0.00 0.00 0.00 0.00 0.00 0.00 0.00 0.00 0.00 0.00 0.00 0.00 0.00 0.00 0.00 0.00 0.00 0.00 0.01
0.00 0.01 0.01 0.01 0.02 0.02 0.03 0.03 0.03 0.03 0.02 0.01 0.00 0.01 0.02 0.04 0.04 0.02 0.00 0.00 0.00 0.00 0.00 0.00 0.00 0.00 0.00 0.00 0.00 0.00 0.00 0.00 0.00 0.00 0.00 0.00 0.00 0.00 0.00 0.00 0.00 0.00 0.00
0.00 0.01 0.02 0.03 0.03 0.03 0.04 0.03 0.03 0.03 0.02 0.01 0.00 0.00 0.00 0.01 0.01 0.00 0.00 0.00 0.00 0.00 0.00 0.00 0.00 0.00 0.00 0.00 0.00 0.00 0.00 0.00 0.00 0.00 0.00 0.00 0.00 0.00 0.00 0.00 0.00 0.00 0.00
0.00 0.01 0.02 0.03 0.03 0.03 0.04 0.03 0.03 0.03 0.02 0.01 0.01 0.00 0.01 0.01 0.00 0.00 0.00 0.00 0.00 0.00 0.00 0.00 0.00 0.00 0.00 0.00 0.00 0.00 0.00 0.00 0.00 0.00 0.00 0.00 0.00 0.00 0.00 0.00 0.00 0.00 0.00
0.02 0.01 0.01 0.02 0.02 0.03 0.04 0.03 0.03 0.03 0.03 0.02 0.01 0.01 0.05 0.04 0.01 0.00 0.00 0.00 0.00 0.00 0.00 0.00 0.00 0.00 0.00 0.00 0.00 0.00 0.00 0.00 0.00 0.00 0.00 0.00 0.00 0.00 0.00 0.00 0.00 0.00 0.00
0.03 0.02 0.02 0.02 0.03 0.03 0.04 0.04 0.04 0.04 0.03 0.03 0.01 0.01 0.02 0.01 0.00 0.00 0.00 0.00 0.00 0.00 0.00 0.00 0.00 0.00 0.00 0.00 0.00 0.00 0.00 0.00 0.00 0.00 0.00 0.00 0.00 0.00 0.00 0.00 0.00 0.00 0.00
0.02 0.02 0.01 0.01 0.01 0.02 0.02 0.02 0.03 0.03 0.03 0.02 0.01 0.01 0.01 0.00 0.00 0.00 0.00 0.00 0.00 0.00 0.00 0.00 0.00 0.00 0.00 0.00 0.00 0.00 0.00 0.00 0.00 0.00 0.00 0.00 0.00 0.00 0.00 0.00 0.00 0.00 0.00
0.01 0.01 0.01 0.01 0.01 0.01 0.02 0.02 0.03 0.04 0.04 0.03 0.03 0.02 0.02 0.01 0.01 0.00 0.00 0.00 0.00 0.00 0.00 0.00 0.00 0.00 0.00 0.00 0.00 0.00 0.00 0.00 0.00 0.00 0.01 0.01 0.01 0.01 0.01 0.01 0.01 0.00 0.00
0.00 0.01 0.01 0.02 0.02 0.02 0.02 0.02 0.02 0.03 0.03 0.03 0.03 0.03 0.03 0.03 0.02 0.02 0.01 0.01 0.00 0.00 0.00 0.00 0.00 0.00 0.00 0.00 0.00 0.00 0.00 0.00 0.02 0.06 0.08 0.07 0.04 0.03 0.03 0.03 0.02 0.01 0.01
0.00 0.00 0.01 0.02 0.02 0.02 0.02 0.02 0.03 0.03 0.04 0.04 0.04 0.04 0.04 0.04 0.04 0.03 0.03 0.03 0.02 0.01 0.01 0.01 0.00 0.00 0.00 0.00 0.00 0.00 0.01 0.03 0.07 0.09 0.10 0.09 0.07 0.04 0.03 0.03 0.02 0.02 0.02

GEFSGL_prec_meanprecacc_024.txt.gz
Total_Precipitation_Accumulation
0.00 0.00 0.00 0.00 0.00 0.00 0.01 0.01 0.01 0.01 0.01 0.01 0.02 0.04 0.05 0.07 0.07 0.08 0.10 0.14 0.16 0.16 0.20 0.26 0.30 0.32 0.35 0.33 0.29 0.24 0.19 0.16 0.11 0.04 0.02 0.05 0.13 0.18 0.19 0.18 0.19 0.15 0.11
0.00 0.00 0.00 0.00 0.00 0.00 0.01 0.01 0.01 0.01 0.01 0.01 0.05 0.08 0.10 0.11 0.11 0.12 0.15 0.24 0.34 0.34 0.32 0.33 0.34 0.38 0.41 0.41 0.41 0.36 0.26 0.19 0.14 0.09 0.04 0.04 0.09 0.19 0.23 0.21 0.20 0.16 0.11
0.00 0.00 0.00 0.00 0.00 0.00 0.00 0.00 0.00 0.01 0.01 0.02 0.07 0.14 0.16 0.17 0.18 0.20 0.23 0.29 0.42 0.54 0.56 0.54 0.49 0.45 0.44 0.44 0.46 0.43 0.35 0.26 0.19 0.14 0.08 0.05 0.07 0.16 0.25 0.26 0.23 0.18 0.13
0.00 0.00 0.00 0.00 0.00 0.00 0.00 0.00 0.00 0.01 0.02 0.04 0.07 0.15 0.19 0.22 0.29 0.40 0.48 0.44 0.44 0.54 0.63 0.67 0.67 0.67 0.60 0.53 0.49 0.46 0.43 0.35 0.26 0.20 0.14 0.09 0.09 0.15 0.27 0.29 0.24 0.19 0.15
0.00 0.00 0.00 0.00 0.00 0.00 0.00 0.00 0.00 0.01 0.02 0.04 0.05 0.08 0.14 0.22 0.43 0.62 0.65 0.51 0.39 0.37 0.42 0.49 0.59 0.71 0.73 0.69 0.63 0.52 0.46 0.42 0.36 0.28 0.22 0.17 0.14 0.18 0.27 0.32 0.31 0.26 0.20
0.00 0.00 0.00 0.00 0.00 0.00 0.00 0.00 0.00 0.00 0.02 0.03 0.03 0.04 0.09 0.23 0.50 0.64 0.51 0.30 0.20 0.22 0.27 0.30 0.34 0.48 0.54 0.60 0.66 0.59 0.54 0.52 0.50 0.45 0.34 0.26 0.20 0.21 0.27 0.35 0.36 0.33 0.27
0.00 0.00 0.00 0.00 0.00 0.00 0.00 0.00 0.00 0.00 0.01 0.03 0.02 0.01 0.04 0.18 0.43 0.53 0.33 0.12 0.09 0.12 0.16 0.17 0.18 0.27 0.31 0.33 0.41 0.43 0.48 0.55 0.62 0.63 0.59 0.47 0.32 0.24 0.27 0.35 0.37 0.33 0.28
0.00 0.00 0.00 0.00 0.00 0.00 0.00 0.00 0.00 0.00 0.01 0.02 0.02 0.00 0.01 0.08 0.34 0.47 0.27 0.06 0.06 0.09 0.12 0.10 0.07 0.13 0.20 0.21 0.24 0.30 0.37 0.49 0.65 0.73 0.77 0.71 0.54 0.38 0.32 0.41 0.46 0.38 0.35
0.00 0.00 0.00 0.00 0.00 0.00 0.00 0.00 0.00 0.00 0.00 0.00 0.01 0.00 0.00 0.02 0.23 0.45 0.29 0.06 0.05 0.07 0.11 0.13 0.07 0.04 0.10 0.07 0.10 0.16 0.21 0.33 0.46 0.59 0.63 0.62 0.58 0.55 0.50 0.50 0.57 0.51 0.53
0.00 0.00 0.00 0.00 0.00 0.00 0.00 0.00 0.00 0.00 0.00 0.00 0.00 0.00 0.00 0.01 0.12 0.40 0.40 0.09 0.04 0.06 0.07 0.09 0.12 0.07 0.06 0.03 0.03 0.06 0.10 0.17 0.23 0.29 0.35 0.39 0.43 0.47 0.54 0.61 0.70 0.68 0.68
0.00 0.00 0.00 0.00 0.00 0.00 0.00 0.00 0.00 0.00 0.00 0.00 0.00 0.00 0.00 0.00 0.03 0.23 0.44 0.26 0.08 0.06 0.07 0.09 0.10 0.07 0.04 0.02 0.01 0.02 0.05 0.05 0.08 0.15 0.21 0.28 0.36 0.43 0.53 0.66 0.74 0.75 0.72
0.00 0.00 0.00 0.00 0.00 0.00 0.00 0.00 0.00 0.00 0.00 0.00 0.00 0.00 0.00 0.00 0.03 0.10 0.22 0.30 0.18 0.06 0.07 0.08 0.08 0.04 0.02 0.01 0.01 0.01 0.01 0.01 0.02 0.05 0.09 0.16 0.27 0.39 0.50 0.63 0.75 0.79 0.78
0.00 0.00 0.00 0.00 0.00 0.00 0.00 0.00 0.00 0.01 0.02 0.02 0.02 0.01 0.01 0.01 0.04 0.08 0.08 0.11 0.13 0.11 0.16 0.12 0.04 0.00 0.00 0.00 0.00 0.00 0.00 0.00 0.01 0.02 0.05 0.10 0.19 0.31 0.37 0.45 0.57 0.68 0.69
0.00 0.00 0.00 0.00 0.00 0.00 0.00 0.01 0.01 0.03 0.08 0.08 0.05 0.02 0.02 0.05 0.11 0.15 0.08 0.03 0.05 0.07 0.11 0.09 0.02 0.00 0.00 0.00 0.00 0.00 0.00 0.00 0.00 0.01 0.02 0.05 0.10 0.17 0.25 0.34 0.42 0.53 0.59
0.00 0.00 0.00 0.00 0.00 0.00 0.00 0.00 0.02 0.04 0.13 0.15 0.08 0.05 0.07 0.17 0.21 0.19 0.12 0.09 0.11 0.12 0.06 0.02 0.00 0.00 0.00 0.00 0.00 0.00 0.00 0.00 0.00 0.00 0.01 0.02 0.05 0.10 0.17 0.25 0.34 0.42 0.49
0.00 0.00 0.00 0.00 0.01 0.00 0.00 0.00 0.01 0.03 0.07 0.07 0.06 0.07 0.08 0.20 0.19 0.09 0.05 0.06 0.12 0.12 0.04 0.01 0.00 0.00 0.00 0.00 0.00 0.00 0.00 0.00 0.00 0.00 0.00 0.01 0.03 0.06 0.11 0.17 0.25 0.33 0.39
0.00 0.01 0.01 0.01 0.01 0.01 0.01 0.02 0.02 0.01 0.02 0.02 0.02 0.03 0.06 0.13 0.11 0.05 0.02 0.01 0.02 0.02 0.00 0.00 0.00 0.00 0.00 0.00 0.00 0.00 0.00 0.00 0.00 0.00 0.00 0.00 0.01 0.03 0.06 0.11 0.16 0.22 0.29
0.00 0.01 0.01 0.01 0.02 0.02 0.03 0.03 0.03 0.03 0.02 0.01 0.00 0.01 0.02 0.05 0.05 0.03 0.01 0.00 0.00 0.00 0.00 0.00 0.00 0.00 0.00 0.00 0.00 0.00 0.00 0.00 0.00 0.00 0.00 0.00 0.00 0.01 0.03 0.06 0.09 0.13 0.19
0.00 0.01 0.02 0.03 0.03 0.03 0.04 0.03 0.03 0.03 0.02 0.01 0.00 0.00 0.00 0.01 0.01 0.01 0.00 0.00 0.00 0.00 0.00 0.00 0.00 0.00 0.00 0.00 0.00 0.00 0.00 0.00 0.00 0.00 0.00 0.00 0.00 0.00 0.01 0.02 0.04 0.06 0.09
0.00 0.01 0.02 0.03 0.03 0.03 0.04 0.03 0.03 0.03 0.02 0.02 0.01 0.01 0.03 0.02 0.01 0.00 0.00 0.00 0.00 0.00 0.00 0.00 0.00 0.00 0.00 0.00 0.00 0.00 0.00 0.00 0.00 0.00 0.00 0.00 0.00 0.00 0.00 0.01 0.01 0.02 0.04
0.02 0.01 0.01 0.02 0.02 0.03 0.04 0.04 0.03 0.04 0.03 0.03 0.02 0.02 0.09 0.07 0.02 0.01 0.01 0.01 0.00 0.00 0.00 0.00 0.00 0.00 0.00 0.00 0.00 0.00 0.00 0.00 0.00 0.00 0.00 0.00 0.00 0.00 0.00 0.00 0.00 0.01 0.01
0.03 0.02 0.02 0.02 0.03 0.03 0.04 0.04 0.04 0.04 0.04 0.03 0.02 0.01 0.03 0.03 0.01 0.01 0.02 0.01 0.01 0.01 0.00 0.00 0.00 0.00 0.00 0.00 0.00 0.00 0.00 0.00 0.00 0.00 0.00 0.00 0.00 0.00 0.00 0.00 0.00 0.00 0.00
0.02 0.02 0.01 0.01 0.01 0.02 0.02 0.02 0.03 0.04 0.04 0.03 0.03 0.03 0.02 0.02 0.03 0.03 0.04 0.03 0.03 0.02 0.01 0.01 0.00 0.00 0.00 0.00 0.00 0.00 0.00 0.00 0.00 0.00 0.00 0.00 0.00 0.00 0.00 0.00 0.00 0.00 0.00
0.01 0.01 0.01 0.01 0.01 0.01 0.02 0.02 0.03 0.04 0.04 0.04 0.04 0.04 0.04 0.04 0.04 0.03 0.04 0.04 0.04 0.04 0.03 0.02 0.01 0.00 0.00 0.00 0.00 0.00 0.00 0.00 0.00 0.00 0.01 0.01 0.01 0.01 0.01 0.01 0.01 0.00 0.00
0.00 0.01 0.01 0.02 0.02 0.02 0.02 0.02 0.02 0.03 0.04 0.04 0.04 0.04 0.04 0.04 0.04 0.04 0.04 0.04 0.05 0.05 0.05 0.05 0.04 0.02 0.01 0.00 0.00 0.00 0.00 0.00 0.02 0.06 0.08 0.07 0.05 0.03 0.03 0.03 0.02 0.01 0.01
0.00 0.00 0.01 0.02 0.02 0.02 0.02 0.03 0.03 0.04 0.05 0.04 0.04 0.05 0.05 0.06 0.05 0.05 0.06 0.07 0.08 0.07 0.07 0.07 0.07 0.05 0.03 0.01 0.00 0.00 0.01 0.03 0.07 0.09 0.10 0.09 0.07 0.05 0.03 0.03 0.02 0.02 0.02

GEFSGL_prec_meanprecacc_030.txt.gz
Total_Precipitation_Accumulation
0.00 0.00 0.00 0.00 0.00 0.00 0.01 0.01 0.01 0.01 0.01 0.01 0.03 0.05 0.07 0.10 0.11 0.12 0.14 0.18 0.20 0.20 0.24 0.31 0.35 0.37 0.40 0.37 0.33 0.28 0.23 0.21 0.17 0.05 0.02 0.05 0.14 0.19 0.21 0.20 0.22 0.20 0.17
0.00 0.00 0.00 0.00 0.00 0.00 0.01 0.01 0.01 0.01 0.01 0.02 0.06 0.11 0.14 0.17 0.16 0.16 0.19 0.29 0.40 0.40 0.37 0.38 0.40 0.43 0.47 0.47 0.47 0.42 0.31 0.23 0.19 0.12 0.05 0.04 0.09 0.19 0.25 0.24 0.23 0.21 0.17
0.00 0.00 0.00 0.00 0.00 0.00 0.00 0.00 0.00 0.01 0.01 0.02 0.08 0.18 0.24 0.27 0.26 0.25 0.29 0.35 0.49 0.60 0.62 0.61 0.56 0.51 0.51 0.52 0.54 0.50 0.40 0.30 0.23 0.17 0.09 0.05 0.08 0.17 0.28 0.32 0.29 0.24 0.20
0.00 0.00 0.00 0.00 0.00 0.00 0.00 0.00 0.00 0.01 0.02 0.04 0.08 0.18 0.28 0.38 0.44 0.48 0.54 0.51 0.50 0.60 0.68 0.73 0.74 0.74 0.68 0.61 0.57 0.52 0.47 0.38 0.29 0.22 0.16 0.10 0.09 0.17 0.30 0.37 0.34 0.28 0.25
0.00 0.00 0.00 0.00 0.00 0.00 0.00 0.00 0.00 0.01 0.02 0.04 0.06 0.10 0.19 0.45 0.71 0.72 0.71 0.58 0.44 0.41 0.46 0.52 0.63 0.76 0.77 0.75 0.72 0.60 0.51 0.47 0.40 0.31 0.24 0.19 0.16 0.20 0.31 0.39 0.43 0.40 0.33
0.00 0.00 0.00 0.00 0.00 0.00 0.00 0.00 0.00 0.00 0.02 0.03 0.03 0.05 0.12 0.39 0.72 0.71 0.53 0.32 0.22 0.24 0.29 0.31 0.35 0.50 0.57 0.62 0.70 0.65 0.61 0.60 0.58 0.49 0.38 0.29 0.23 0.25 0.32 0.43 0.49 0.51 0.44
0.00 0.00 0.00 0.00 0.00 0.00 0.00 0.00 0.00 0.00 0.01 0.03 0.02 0.01 0.04 0.24 0.57 0.58 0.34 0.12 0.10 0.12 0.16 0.17 0.19 0.29 0.35 0.34 0.42 0.45 0.51 0.60 0.69 0.69 0.64 0.52 0.36 0.28 0.32 0.41 0.47 0.51 0.50
0.00 0.00 0.00 0.00 0.00 0.00 0.00 0.00 0.00 0.00 0.01 0.02 0.02 0.00 0.01 0.10 0.45 0.53 0.27 0.07 0.06 0.09 0.12 0.11 0.08 0.14 0.24 0.23 0.24 0.31 0.39 0.51 0.70 0.79 0.83 0.77 0.59 0.42 0.36 0.46 0.54 0.52 0.55
0.00 0.00 0.00 0.00 0.00 0.00 0.00 0.00 0.00 0.00 0.00 0.00 0.01 0.00 0.00 0.03 0.30 0.54 0.31 0.06 0.05 0.07 0.11 0.13 0.07 0.05 0.13 0.10 0.10 0.17 0.22 0.34 0.47 0.62 0.67 0.65 0.61 0.58 0.53 0.53 0.62 0.61 0.69
0.00 0.00 0.00 0.00 0.00 0.00 0.00 0.00 0.00 0.00 0.00 0.00 0.00 0.00 0.00 0.01 0.14 0.48 0.44 0.09 0.04 0.06 0.07 0.09 0.12 0.09 0.08 0.05 0.03 0.06 0.12 0.18 0.24 0.30 0.36 0.40 0.45 0.49 0.56 0.65 0.76 0.76 0.81
0.00 0.00 0.00 0.00 0.00 0.00 0.00 0.00 0.00 0.00 0.00 0.00 0.00 0.00 0.00 0.00 0.04 0.27 0.50 0.28 0.08 0.06 0.07 0.09 0.10 0.08 0.04 0.03 0.02 0.03 0.07 0.06 0.09 0.15 0.22 0.29 0.37 0.45 0.56 0.69 0.79 0.82 0.83
0.00 0.00 0.00 0.00 0.00 0.00 0.00 0.00 0.00 0.00 0.00 0.00 0.00 0.00 0.00 0.00 0.03 0.13 0.26 0.32 0.18 0.06 0.07 0.08 0.08 0.04 0.02 0.01 0.01 0.01 0.01 0.01 0.02 0.05 0.10 0.17 0.28 0.41 0.54 0.67 0.79 0.85 0.85
0.00 0.00 0.00 0.00 0.00 0.00 0.00 0.00 0.00 0.01 0.03 0.03 0.02 0.01 0.01 0.01 0.05 0.11 0.10 0.12 0.13 0.11 0.16 0.12 0.04 0.01 0.00 0.00 0.00 0.00 0.00 0.00 0.01 0.02 0.06 0.12 0.22 0.35 0.41 0.50 0.62 0.73 0.75
0.00 0.00 0.00 0.00 0.00 0.00 0.00 0.01 0.01 0.03 0.10 0.10 0.06 0.02 0.02 0.05 0.13 0.21 0.11 0.04 0.05 0.07 0.11 0.09 0.02 0.00 0.00 0.00 0.00 0.00 0.00 0.00 0.00 0.01 0.04 0.07 0.13 0.20 0.29 0.39 0.49 0.60 0.66
0.00 0.00 0.00 0.00 0.00 0.00 0.00 0.00 0.02 0.05 0.15 0.19 0.11 0.08 0.09 0.19 0.27 0.26 0.15 0.10 0.12 0.13 0.06 0.02 0.00 0.00 0.00 0.00 0.00 0.00 0.00 0.00 0.00 0.00 0.01 0.04 0.08 0.14 0.22 0.32 0.43 0.52 0.59
0.00 0.00 0.00 0.00 0.01 0.00 0.00 0.00 0.01 0.03 0.07 0.08 0.07 0.09 0.10 0.24 0.24 0.13 0.08 0.08 0.12 0.13 0.04 0.01 0.00 0.00 0.00 0.00 0.00 0.00 0.00 0.00 0.00 0.00 0.01 0.02 0.06 0.11 0.18 0.25 0.35 0.46 0.54
0.00 0.01 0.01 0.01 0.01 0.01 0.01 0.02 0.02 0.01 0.02 0.02 0.03 0.04 0.09 0.16 0.14 0.08 0.05 0.02 0.03 0.02 0.00 0.00 0.00 0.00 0.00 0.00 0.00 0.00 0.00 0.00 0.00 0.00 0.00 0.01 0.04 0.08 0.13 0.18 0.26 0.36 0.47
0.00 0.01 0.01 0.01 0.02 0.02 0.03 0.03 0.03 0.03 0.02 0.01 0.00 0.01 0.04 0.07 0.07 0.05 0.03 0.00 0.00 0.00 0.00 0.00 0.00 0.00 0.00 0.00 0.00 0.00 0.00 0.00 0.00 0.00 0.00 0.01 0.02 0.04 0.09 0.13 0.19 0.28 0.37
0.00 0.01 0.02 0.03 0.03 0.03 0.04 0.04 0.03 0.03 0.03 0.01 0.00 0.00 0.01 0.02 0.01 0.01 0.01 0.01 0.01 0.01 0.00 0.00 0.00 0.00 0.00 0.00 0.00 0.00 0.00 0.00 0.00 0.00 0.00 0.00 0.01 0.02 0.05 0.09 0.14 0.19 0.27
0.00 0.01 0.02 0.03 0.03 0.03 0.04 0.04 0.03 0.03 0.03 0.02 0.02 0.03 0.06 0.04 0.01 0.01 0.01 0.01 0.02 0.01 0.01 0.01 0.00 0.00 0.00 0.00 0.00 0.00 0.00 0.00 0.00 0.00 0.00 0.00 0.00 0.01 0.03 0.06 0.09 0.13 0.19
0.02 0.01 0.01 0.02 0.02 0.03 0.04 0.04 0.04 0.04 0.04 0.03 0.02 0.04 0.12 0.09 0.03 0.02 0.02 0.03 0.04 0.04 0.03 0.02 0.01 0.01 0.00 0.00 0.00 0.00 0.00 0.00 0.00 0.00 0.00 0.00 0.00 0.00 0.01 0.03 0.06 0.09 0.13
0.03 0.02 0.02 0.02 0.03 0.03 0.04 0.04 0.04 0.05 0.04 0.04 0.02 0.02 0.04 0.03 0.02 0.02 0.03 0.04 0.05 0.05 0.05 0.04 0.02 0.01 0.01 0.00 0.00 0.00 0.00 0.00 0.00 0.00 0.00 0.00 0.00 0.00 0.01 0.01 0.03 0.05 0.08
0.02 0.02 0.01 0.01 0.01 0.02 0.02 0.02 0.03 0.04 0.04 0.03 0.03 0.03 0.03 0.03 0.03 0.04 0.05 0.05 0.05 0.05 0.05 0.05 0.04 0.03 0.02 0.01 0.00 0.00 0.00 0.00 0.00 0.00 0.00 0.00 0.00 0.00 0.00 0.01 0.02 0.03 0.05
0.01 0.01 0.01 0.01 0.01 0.01 0.02 0.02 0.03 0.04 0.04 0.04 0.04 0.04 0.04 0.04 0.04 0.04 0.04 0.05 0.05 0.06 0.07 0.07 0.06 0.05 0.03 0.02 0.01 0.00 0.00 0.00 0.00 0.00 0.01 0.01 0.01 0.01 0.01 0.01 0.01 0.02 0.03
0.00 0.01 0.01 0.02 0.02 0.02 0.02 0.02 0.02 0.03 0.04 0.04 0.04 0.04 0.04 0.04 0.04 0.04 0.04 0.05 0.06 0.06 0.07 0.09 0.09 0.08 0.06 0.04 0.02 0.01 0.00 0.00 0.02 0.06 0.08 0.07 0.05 0.03 0.03 0.03 0.02 0.02 0.02
0.00 0.00 0.01 0.02 0.02 0.02 0.02 0.03 0.03 0.04 0.05 0.04 0.04 0.05 0.06 0.06 0.06 0.05 0.06 0.08 0.09 0.09 0.08 0.10 0.11 0.12 0.09 0.06 0.03 0.01 0.02 0.04 0.07 0.09 0.10 0.09 0.07 0.05 0.03 0.03 0.02 0.02 0.02

GEFSGL_prec_meanprecacc_036.txt.gz
Total_Precipitation_Accumulation
0.00 0.00 0.00 0.00 0.00 0.00 0.01 0.01 0.01 0.01 0.01 0.01 0.03 0.05 0.08 0.11 0.12 0.13 0.16 0.21 0.25 0.26 0.31 0.37 0.41 0.43 0.45 0.42 0.38 0.33 0.29 0.28 0.22 0.06 0.03 0.05 0.14 0.19 0.21 0.20 0.23 0.22 0.19
0.00 0.00 0.00 0.00 0.00 0.00 0.01 0.01 0.01 0.01 0.01 0.02 0.06 0.11 0.15 0.18 0.17 0.17 0.21 0.31 0.43 0.43 0.40 0.42 0.44 0.47 0.52 0.53 0.53 0.46 0.36 0.28 0.25 0.14 0.05 0.04 0.10 0.20 0.25 0.25 0.24 0.22 0.19
0.00 0.00 0.00 0.00 0.00 0.00 0.00 0.00 0.00 0.01 0.01 0.02 0.08 0.18 0.24 0.29 0.29 0.27 0.29 0.36 0.50 0.62 0.64 0.63 0.59 0.54 0.55 0.56 0.58 0.54 0.44 0.33 0.27 0.20 0.11 0.07 0.09 0.18 0.30 0.33 0.30 0.26 0.22
0.00 0.00 0.00 0.00 0.00 0.00 0.00 0.00 0.00 0.01 0.02 0.04 0.08 0.18 0.28 0.40 0.51 0.53 0.55 0.51 0.51 0.60 0.69 0.74 0.75 0.77 0.73 0.66 0.61 0.56 0.50 0.41 0.32 0.25 0.19 0.13 0.12 0.18 0.32 0.39 0.36 0.30 0.27
0.00 0.00 0.00 0.00 0.00 0.00 0.00 0.00 0.00 0.01 0.02 0.04 0.06 0.10 0.19 0.47 0.86 0.86 0.73 0.58 0.44 0.41 0.46 0.52 0.63 0.77 0.81 0.80 0.77 0.66 0.56 0.51 0.44 0.35 0.29 0.23 0.19 0.23 0.34 0.42 0.46 0.42 0.36
0.00 0.00 0.00 0.00 0.00 0.00 0.00 0.00 0.00 0.00 0.02 0.03 0.03 0.05 0.12 0.40 0.83 0.85 0.57 0.32 0.22 0.24 0.29 0.31 0.35 0.50 0.60 0.65 0.72 0.69 0.67 0.69 0.67 0.56 0.43 0.35 0.28 0.29 0.35 0.45 0.52 0.55 0.49
0.00 0.00 0.00 0.00 0.00 0.00 0.00 0.00 0.00 0.00 0.01 0.03 0.02 0.01 0.04 0.25 0.63 0.70 0.38 0.13 0.10 0.12 0.16 0.17 0.19 0.29 0.38 0.39 0.43 0.47 0.54 0.66 0.78 0.78 0.71 0.58 0.42 0.32 0.36 0.43 0.50 0.56 0.55
0.00 0.00 0.00 0.00 0.00 0.00 0.00 0.00 0.00 0.00 0.01 0.02 0.02 0.00 0.01 0.10 0.48 0.62 0.33 0.07 0.07 0.09 0.12 0.11 0.08 0.14 0.27 0.28 0.25 0.32 0.41 0.55 0.76 0.87 0.92 0.84 0.65 0.46 0.40 0.48 0.57 0.56 0.61
0.00 0.00 0.00 0.00 0.00 0.00 0.00 0.00 0.00 0.00 0.00 0.00 0.01 0.00 0.00 0.03 0.30 0.60 0.39 0.09 0.06 0.07 0.11 0.13 0.08 0.06 0.16 0.13 0.10 0.17 0.23 0.36 0.50 0.67 0.72 0.70 0.64 0.61 0.56 0.55 0.65 0.64 0.76
0.00 0.00 0.00 0.00 0.00 0.00 0.00 0.00 0.00 0.00 0.00 0.00 0.00 0.00 0.00 0.01 0.15 0.51 0.54 0.16 0.06 0.06 0.07 0.09 0.12 0.10 0.10 0.07 0.04 0.07 0.14 0.20 0.25 0.32 0.38 0.42 0.46 0.51 0.58 0.68 0.79 0.79 0.87
0.00 0.00 0.00 0.00 0.00 0.00 0.00 0.00 0.00 0.00 0.00 0.00 0.00 0.00 0.00 0.00 0.04 0.29 0.58 0.39 0.11 0.06 0.07 0.09 0.11 0.09 0.05 0.04 0.03 0.04 0.10 0.08 0.10 0.17 0.23 0.29 0.37 0.46 0.57 0.71 0.82 0.85 0.88
0.00 0.00 0.00 0.00 0.00 0.00 0.00 0.00 0.00 0.00 0.00 0.00 0.00 0.00 0.00 0.00 0.04 0.16 0.32 0.39 0.23 0.07 0.07 0.08 0.09 0.05 0.02 0.01 0.01 0.02 0.01 0.01 0.03 0.06 0.11 0.18 0.29 0.42 0.55 0.69 0.81 0.87 0.89
0.00 0.00 0.00 0.00 0.00 0.00 0.00 0.00 0.00 0.01 0.03 0.03 0.03 0.01 0.01 0.02 0.07 0.16 0.15 0.14 0.16 0.12 0.16 0.13 0.04 0.01 0.00 0.00 0.00 0.00 0.00 0.00 0.01 0.03 0.06 0.12 0.23 0.35 0.42 0.51 0.63 0.74 0.77
0.00 0.00 0.00 0.00 0.00 0.00 0.00 0.01 0.01 0.03 0.11 0.13 0.08 0.03 0.03 0.06 0.19 0.32 0.18 0.07 0.07 0.09 0.11 0.09 0.02 0.00 0.00 0.00 0.00 0.00 0.00 0.00 0.01 0.02 0.04 0.07 0.13 0.20 0.30 0.40 0.50 0.61 0.67
0.00 0.00 0.00 0.00 0.00 0.00 0.00 0.00 0.02 0.05 0.17 0.23 0.13 0.11 0.13 0.26 0.36 0.35 0.22 0.15 0.16 0.16 0.07 0.02 0.00 0.00 0.00 0.00 0.00 0.00 0.00 0.00 0.00 0.01 0.02 0.04 0.08 0.14 0.23 0.33 0.45 0.53 0.61
0.00 0.00 0.00 0.00 0.01 0.00 0.00 0.00 0.01 0.03 0.08 0.09 0.08 0.11 0.13 0.30 0.29 0.17 0.12 0.10 0.14 0.14 0.04 0.01 0.00 0.00 0.00 0.00 0.00 0.00 0.00 0.00 0.00 0.00 0.01 0.03 0.06 0.12 0.18 0.25 0.36 0.48 0.57
0.00 0.01 0.01 0.01 0.01 0.01 0.01 0.02 0.02 0.01 0.02 0.02 0.03 0.05 0.11 0.19 0.16 0.10 0.07 0.03 0.03 0.02 0.01 0.00 0.00 0.00 0.00 0.00 0.00 0.00 0.00 0.00 0.00 0.00 0.01 0.02 0.04 0.08 0.13 0.19 0.28 0.38 0.50
0.00 0.01 0.01 0.01 0.02 0.03 0.03 0.03 0.03 0.03 0.02 0.01 0.00 0.01 0.05 0.08 0.08 0.06 0.04 0.01 0.00 0.00 0.01 0.01 0.01 0.01 0.00 0.00 0.00 0.00 0.00 0.00 0.00 0.00 0.00 0.01 0.02 0.05 0.09 0.14 0.21 0.31 0.41
0.00 0.01 0.02 0.03 0.03 0.03 0.04 0.04 0.03 0.03 0.03 0.01 0.00 0.00 0.02 0.02 0.01 0.01 0.01 0.01 0.01 0.01 0.01 0.02 0.02 0.01 0.01 0.00 0.00 0.00 0.00 0.00 0.00 0.00 0.00 0.00 0.01 0.03 0.06 0.10 0.15 0.22 0.31
0.00 0.01 0.02 0.03 0.03 0.03 0.04 0.04 0.03 0.03 0.03 0.02 0.02 0.03 0.07 0.04 0.01 0.01 0.01 0.01 0.02 0.02 0.02 0.03 0.03 0.02 0.01 0.01 0.00 0.00 0.00 0.00 0.00 0.00 0.00 0.00 0.01 0.02 0.04 0.07 0.11 0.15 0.24
0.02 0.01 0.01 0.02 0.02 0.03 0.04 0.04 0.04 0.04 0.04 0.03 0.02 0.04 0.12 0.09 0.03 0.02 0.02 0.03 0.05 0.06 0.05 0.04 0.04 0.03 0.02 0.01 0.01 0.00 0.00 0.00 0.00 0.00 0.00 0.00 0.00 0.01 0.02 0.04 0.07 0.11 0.16
0.03 0.02 0.02 0.02 0.03 0.03 0.04 0.04 0.04 0.05 0.04 0.04 0.02 0.02 0.04 0.03 0.02 0.03 0.03 0.04 0.06 0.07 0.07 0.07 0.05 0.04 0.04 0.03 0.01 0.01 0.00 0.00 0.00 0.00 0.00 0.00 0.00 0.00 0.01 0.02 0.04 0.07 0.10
0.02 0.02 0.01 0.01 0.01 0.02 0.02 0.02 0.03 0.04 0.04 0.03 0.03 0.03 0.03 0.03 0.03 0.04 0.05 0.05 0.06 0.06 0.07 0.07 0.07 0.06 0.05 0.04 0.02 0.01 0.00 0.00 0.00 0.00 0.00 0.00 0.00 0.00 0.01 0.01 0.03 0.05 0.08
0.01 0.01 0.01 0.01 0.01 0.01 0.02 0.02 0.03 0.04 0.04 0.04 0.04 0.04 0.04 0.04 0.04 0.04 0.04 0.05 0.06 0.07 0.08 0.10 0.09 0.08 0.07 0.06 0.03 0.01 0.01 0.00 0.00 0.00 0.01 0.01 0.01 0.01 0.01 0.02 0.02 0.03 0.06
0.00 0.01 0.01 0.02 0.02 0.02 0.02 0.02 0.02 0.03 0.04 0.04 0.04 0.04 0.04 0.04 0.04 0.04 0.04 0.05 0.06 0.07 0.08 0.10 0.12 0.12 0.10 0.08 0.05 0.02 0.01 0.01 0.03 0.06 0.08 0.07 0.05 0.03 0.03 0.03 0.03 0.03 0.04
0.00 0.00 0.01 0.02 0.02 0.02 0.02 0.03 0.03 0.04 0.05 0.04 0.04 0.05 0.06 0.06 0.06 0.06 0.06 0.08 0.10 0.09 0.09 0.10 0.13 0.14 0.12 0.09 0.06 0.04 0.03 0.04 0.07 0.09 0.10 0.09 0.07 0.05 0.04 0.03 0.02 0.03 0.04

GEFSGL_prec_meanprecacc_042.txt.gz
Total_Precipitation_Accumulation
0.00 0.00 0.00 0.00 0.00 0.00 0.01 0.01 0.01 0.01 0.01 0.01 0.03 0.05 0.08 0.11 0.12 0.14 0.17 0.21 0.25 0.26 0.31 0.38 0.42 0.45 0.48 0.46 0.43 0.38 0.35 0.35 0.29 0.08 0.03 0.05 0.14 0.19 0.21 0.21 0.23 0.22 0.19
0.00 0.00 0.00 0.00 0.00 0.00 0.01 0.01 0.01 0.01 0.01 0.02 0.06 0.11 0.15 0.18 0.17 0.18 0.21 0.31 0.43 0.43 0.40 0.42 0.44 0.48 0.53 0.55 0.56 0.50 0.39 0.32 0.29 0.17 0.06 0.05 0.10 0.20 0.26 0.25 0.24 0.22 0.20
0.00 0.00 0.00 0.00 0.00 0.00 0.00 0.00 0.00 0.01 0.01 0.02 0.08 0.18 0.24 0.29 0.29 0.27 0.30 0.36 0.50 0.62 0.64 0.63 0.59 0.54 0.56 0.57 0.61 0.57 0.47 0.36 0.29 0.23 0.12 0.08 0.10 0.20 0.31 0.34 0.30 0.27 0.23
0.00 0.00 0.00 0.00 0.00 0.00 0.00 0.00 0.00 0.01 0.02 0.04 0.08 0.18 0.28 0.40 0.52 0.54 0.56 0.52 0.52 0.60 0.69 0.74 0.76 0.78 0.74 0.68 0.64 0.59 0.53 0.43 0.34 0.27 0.21 0.15 0.13 0.19 0.33 0.40 0.37 0.31 0.28
0.00 0.00 0.00 0.00 0.00 0.00 0.00 0.00 0.00 0.01 0.02 0.04 0.06 0.10 0.19 0.47 0.87 0.89 0.79 0.63 0.47 0.43 0.47 0.53 0.63 0.78 0.83 0.83 0.81 0.70 0.60 0.55 0.47 0.38 0.31 0.24 0.20 0.25 0.36 0.44 0.48 0.43 0.37
0.00 0.00 0.00 0.00 0.00 0.00 0.00 0.00 0.00 0.00 0.02 0.03 0.03 0.05 0.12 0.40 0.83 0.88 0.64 0.38 0.26 0.28 0.32 0.33 0.36 0.51 0.60 0.67 0.76 0.73 0.71 0.74 0.72 0.61 0.46 0.37 0.30 0.31 0.37 0.47 0.55 0.58 0.51
0.00 0.00 0.00 0.00 0.00 0.00 0.00 0.00 0.00 0.00 0.01 0.03 0.02 0.01 0.04 0.25 0.63 0.72 0.45 0.19 0.14 0.16 0.18 0.18 0.19 0.29 0.38 0.42 0.47 0.48 0.54 0.68 0.83 0.85 0.76 0.61 0.45 0.35 0.39 0.46 0.54 0.60 0.58
0.00 0.00 0.00 0.00 0.00 0.00 0.00 0.00 0.00 0.00 0.01 0.02 0.02 0.00 0.01 0.10 0.48 0.64 0.41 0.14 0.11 0.11 0.13 0.11 0.09 0.15 0.28 0.33 0.28 0.32 0.42 0.56 0.79 0.92 0.98 0.89 0.69 0.50 0.44 0.52 0.60 0.59 0.63
0.00 0.00 0.00 0.00 0.00 0.00 0.00 0.00 0.00 0.00 0.00 0.00 0.01 0.00 0.00 0.03 0.31 0.63 0.48 0.16 0.09 0.09 0.12 0.13 0.08 0.07 0.18 0.17 0.12 0.18 0.24 0.37 0.53 0.71 0.77 0.75 0.69 0.65 0.61 0.60 0.69 0.69 0.82
0.00 0.00 0.00 0.00 0.00 0.00 0.00 0.00 0.00 0.00 0.00 0.00 0.00 0.00 0.00 0.01 0.15 0.55 0.64 0.23 0.08 0.07 0.08 0.09 0.13 0.11 0.12 0.09 0.05 0.08 0.16 0.23 0.27 0.34 0.40 0.44 0.48 0.53 0.61 0.72 0.85 0.85 0.98
0.00 0.00 0.00 0.00 0.00 0.00 0.00 0.00 0.00 0.00 0.00 0.00 0.00 0.00 0.00 0.01 0.05 0.32 0.66 0.44 0.15 0.08 0.08 0.10 0.11 0.10 0.07 0.05 0.04 0.05 0.13 0.12 0.12 0.19 0.26 0.32 0.40 0.48 0.60 0.74 0.87 0.92 0.99
0.00 0.00 0.00 0.00 0.00 0.00 0.00 0.00 0.00 0.00 0.00 0.00 0.00 0.00 0.00 0.00 0.05 0.20 0.37 0.42 0.26 0.09 0.08 0.08 0.09 0.06 0.03 0.02 0.01 0.03 0.03 0.02 0.05 0.09 0.14 0.21 0.32 0.45 0.58 0.72 0.85 0.92 0.97
0.00 0.00 0.00 0.00 0.00 0.00 0.00 0.00 0.00 0.01 0.03 0.03 0.03 0.02 0.01 0.02 0.08 0.19 0.18 0.17 0.18 0.14 0.17 0.13 0.04 0.01 0.00 0.00 0.00 0.00 0.00 0.01 0.03 0.06 0.10 0.16 0.26 0.39 0.45 0.54 0.66 0.78 0.84
0.00 0.00 0.00 0.00 0.00 0.00 0.00 0.01 0.01 0.03 0.11 0.13 0.08 0.04 0.03 0.07 0.21 0.35 0.20 0.08 0.08 0.10 0.11 0.09 0.02 0.00 0.00 0.00 0.00 0.00 0.00 0.01 0.02 0.05 0.08 0.11 0.15 0.23 0.33 0.44 0.55 0.66 0.74
0.00 0.00 0.00 0.00 0.00 0.00 0.00 0.00 0.02 0.05 0.17 0.23 0.13 0.11 0.14 0.27 0.37 0.38 0.24 0.16 0.17 0.17 0.07 0.02 0.00 0.00 0.00 0.00 0.00 0.00 0.00 0.00 0.01 0.02 0.04 0.06 0.10 0.16 0.26 0.36 0.49 0.58 0.68
0.00 0.00 0.00 0.00 0.01 0.00 0.00 0.00 0.01 0.03 0.08 0.09 0.08 0.12 0.14 0.31 0.30 0.18 0.13 0.10 0.15 0.15 0.04 0.01 0.00 0.00 0.00 0.00 0.00 0.00 0.00 0.00 0.01 0.01 0.03 0.05 0.09 0.15 0.21 0.28 0.40 0.53 0.64
0.00 0.01 0.01 0.01 0.01 0.01 0.01 0.02 0.02 0.01 0.02 0.02 0.03 0.05 0.11 0.19 0.17 0.11 0.08 0.03 0.03 0.02 0.01 0.01 0.01 0.01 0.01 0.00 0.00 0.00 0.00 0.00 0.00 0.01 0.02 0.04 0.06 0.10 0.16 0.22 0.31 0.42 0.55
0.00 0.01 0.01 0.01 0.02 0.03 0.03 0.03 0.03 0.03 0.02 0.01 0.00 0.01 0.05 0.08 0.09 0.07 0.04 0.01 0.00 0.00 0.01 0.02 0.02 0.02 0.01 0.01 0.01 0.00 0.00 0.00 0.00 0.00 0.01 0.02 0.04 0.07 0.11 0.17 0.24 0.35 0.46
0.00 0.01 0.02 0.03 0.03 0.03 0.04 0.04 0.03 0.03 0.03 0.01 0.00 0.00 0.02 0.02 0.01 0.01 0.01 0.01 0.01 0.01 0.02 0.02 0.03 0.03 0.02 0.01 0.01 0.00 0.00 0.00 0.00 0.00 0.00 0.01 0.02 0.04 0.08 0.12 0.17 0.25 0.35
0.00 0.01 0.02 0.03 0.03 0.03 0.04 0.04 0.03 0.03 0.03 0.02 0.02 0.03 0.07 0.04 0.01 0.01 0.01 0.01 0.02 0.02 0.03 0.03 0.03 0.03 0.03 0.02 0.01 0.01 0.00 0.00 0.00 0.00 0.00 0.00 0.01 0.02 0.05 0.08 0.12 0.18 0.27
0.02 0.01 0.01 0.02 0.02 0.03 0.04 0.04 0.04 0.04 0.04 0.03 0.02 0.04 0.12 0.09 0.03 0.02 0.02 0.03 0.05 0.06 0.05 0.05 0.05 0.05 0.04 0.03 0.02 0.01 0.01 0.00 0.00 0.00 0.00 0.00 0.00 0.01 0.03 0.05 0.08 0.12 0.18
0.03 0.02 0.02 0.02 0.03 0.03 0.04 0.04 0.04 0.05 0.04 0.04 0.02 0.02 0.04 0.03 0.02 0.03 0.03 0.04 0.06 0.07 0.08 0.08 0.07 0.06 0.06 0.05 0.04 0.02 0.01 0.01 0.00 0.00 0.00 0.00 0.00 0.01 0.01 0.02 0.05 0.08 0.12
0.02 0.02 0.01 0.01 0.01 0.02 0.02 0.02 0.03 0.04 0.04 0.03 0.03 0.03 0.03 0.03 0.03 0.04 0.05 0.05 0.06 0.07 0.07 0.08 0.08 0.08 0.07 0.06 0.04 0.03 0.02 0.01 0.00 0.00 0.00 0.00 0.00 0.00 0.01 0.02 0.03 0.06 0.10
0.01 0.01 0.01 0.01 0.01 0.01 0.02 0.02 0.03 0.04 0.04 0.04 0.04 0.04 0.04 0.04 0.04 0.04 0.04 0.05 0.06 0.07 0.08 0.10 0.10 0.10 0.09 0.08 0.05 0.03 0.02 0.01 0.01 0.01 0.01 0.01 0.01 0.01 0.01 0.02 0.02 0.04 0.07
0.00 0.01 0.01 0.02 0.02 0.02 0.02 0.02 0.02 0.03 0.04 0.04 0.04 0.04 0.04 0.04 0.04 0.04 0.04 0.05 0.06 0.07 0.08 0.10 0.12 0.13 0.12 0.09 0.07 0.05 0.03 0.02 0.03 0.06 0.08 0.07 0.05 0.03 0.03 0.03 0.03 0.03 0.05
0.00 0.01 0.01 0.02 0.03 0.02 0.02 0.03 0.03 0.04 0.05 0.04 0.04 0.05 0.06 0.06 0.06 0.06 0.06 0.08 0.10 0.09 0.09 0.11 0.13 0.16 0.13 0.10 0.09 0.06 0.04 0.05 0.08 0.09 0.10 0.10 0.07 0.05 0.04 0.03 0.03 0.03 0.04

GEFSGL_prec_meanprecacc_048.txt.gz
Total_Precipitation_Accumulation
0.00 0.00 0.00 0.00 0.00 0.00 0.01 0.01 0.01 0.01 0.01 0.01 0.03 0.05 0.08 0.11 0.12 0.14 0.17 0.21 0.25 0.26 0.31 0.38 0.42 0.45 0.49 0.46 0.44 0.39 0.35 0.38 0.34 0.09 0.03 0.05 0.14 0.19 0.21 0.21 0.23 0.22 0.19
0.00 0.00 0.00 0.00 0.00 0.00 0.01 0.01 0.01 0.01 0.01 0.02 0.06 0.11 0.15 0.18 0.17 0.18 0.21 0.31 0.43 0.44 0.41 0.43 0.45 0.49 0.54 0.56 0.57 0.50 0.40 0.34 0.33 0.19 0.06 0.05 0.10 0.21 0.26 0.25 0.24 0.22 0.20
0.00 0.00 0.00 0.00 0.00 0.00 0.00 0.00 0.00 0.01 0.01 0.02 0.08 0.18 0.24 0.29 0.29 0.27 0.30 0.36 0.51 0.64 0.67 0.66 0.61 0.57 0.58 0.58 0.61 0.57 0.48 0.38 0.32 0.25 0.14 0.08 0.10 0.20 0.31 0.34 0.31 0.27 0.23
0.00 0.00 0.00 0.00 0.00 0.00 0.00 0.00 0.00 0.01 0.02 0.04 0.08 0.18 0.28 0.40 0.52 0.54 0.56 0.54 0.57 0.66 0.72 0.77 0.78 0.80 0.75 0.69 0.66 0.61 0.55 0.47 0.37 0.31 0.22 0.15 0.13 0.19 0.33 0.41 0.37 0.31 0.28
0.00 0.00 0.00 0.00 0.00 0.00 0.00 0.00 0.00 0.01 0.02 0.04 0.06 0.10 0.19 0.47 0.87 0.90 0.81 0.73 0.60 0.51 0.51 0.55 0.65 0.80 0.86 0.87 0.86 0.75 0.66 0.62 0.52 0.41 0.33 0.25 0.21 0.25 0.36 0.44 0.48 0.43 0.37
0.00 0.00 0.00 0.00 0.00 0.00 0.00 0.00 0.00 0.00 0.02 0.03 0.03 0.05 0.12 0.40 0.83 0.89 0.68 0.50 0.35 0.32 0.34 0.34 0.37 0.52 0.62 0.69 0.78 0.77 0.77 0.80 0.77 0.65 0.50 0.39 0.31 0.31 0.37 0.48 0.56 0.59 0.52
0.00 0.00 0.00 0.00 0.00 0.00 0.00 0.00 0.00 0.00 0.01 0.03 0.02 0.01 0.04 0.25 0.63 0.73 0.51 0.28 0.18 0.17 0.19 0.19 0.20 0.29 0.39 0.43 0.49 0.52 0.57 0.69 0.86 0.90 0.81 0.63 0.46 0.36 0.41 0.48 0.55 0.61 0.59
0.00 0.00 0.00 0.00 0.00 0.00 0.00 0.00 0.00 0.00 0.01 0.02 0.02 0.00 0.01 0.10 0.48 0.65 0.46 0.20 0.12 0.12 0.14 0.12 0.09 0.15 0.28 0.36 0.37 0.37 0.43 0.57 0.81 0.96 1.03 0.93 0.73 0.55 0.50 0.57 0.63 0.61 0.64
0.00 0.00 0.00 0.00 0.00 0.00 0.00 0.00 0.00 0.00 0.00 0.00 0.01 0.00 0.00 0.03 0.31 0.64 0.53 0.22 0.11 0.09 0.12 0.13 0.08 0.07 0.20 0.24 0.17 0.20 0.25 0.38 0.54 0.73 0.81 0.79 0.73 0.70 0.67 0.68 0.73 0.71 0.83
0.00 0.00 0.00 0.00 0.00 0.00 0.00 0.00 0.00 0.00 0.00 0.00 0.00 0.00 0.00 0.01 0.15 0.55 0.68 0.28 0.11 0.08 0.08 0.09 0.13 0.13 0.17 0.14 0.08 0.09 0.18 0.27 0.29 0.35 0.41 0.45 0.49 0.54 0.63 0.76 0.88 0.88 1.00
0.00 0.00 0.00 0.00 0.00 0.00 0.00 0.00 0.00 0.00 0.00 0.00 0.00 0.00 0.00 0.01 0.05 0.33 0.69 0.48 0.20 0.10 0.09 0.10 0.11 0.13 0.11 0.08 0.05 0.06 0.17 0.16 0.14 0.21 0.28 0.33 0.41 0.49 0.61 0.76 0.90 0.96 1.03
0.00 0.00 0.00 0.00 0.00 0.00 0.01 0.01 0.01 0.00 0.00 0.00 0.00 0.00 0.00 0.00 0.05 0.20 0.39 0.45 0.29 0.10 0.09 0.09 0.10 0.08 0.05 0.03 0.02 0.04 0.04 0.04 0.06 0.12 0.17 0.23 0.34 0.47 0.60 0.74 0.87 0.95 1.02
0.00 0.00 0.00 0.00 0.00 0.01 0.01 0.01 0.01 0.01 0.03 0.03 0.03 0.02 0.01 0.02 0.08 0.19 0.19 0.18 0.19 0.15 0.17 0.14 0.05 0.02 0.01 0.00 0.01 0.01 0.01 0.02 0.04 0.08 0.13 0.19 0.30 0.42 0.49 0.57 0.69 0.82 0.90
0.00 0.00 0.00 0.00 0.01 0.01 0.02 0.02 0.02 0.04 0.12 0.13 0.08 0.04 0.03 0.07 0.21 0.36 0.22 0.09 0.09 0.11 0.12 0.09 0.02 0.00 0.00 0.00 0.00 0.00 0.00 0.01 0.04 0.07 0.11 0.15 0.19 0.28 0.37 0.48 0.59 0.72 0.82
0.00 0.00 0.00 0.01 0.02 0.02 0.02 0.02 0.03 0.05 0.17 0.23 0.13 0.11 0.14 0.27 0.38 0.39 0.26 0.17 0.18 0.19 0.08 0.02 0.00 0.00 0.00 0.00 0.00 0.00 0.00 0.01 0.01 0.03 0.07 0.10 0.14 0.21 0.30 0.41 0.55 0.65 0.77
0.00 0.00 0.01 0.02 0.02 0.02 0.02 0.02 0.02 0.04 0.08 0.09 0.08 0.12 0.14 0.31 0.30 0.19 0.14 0.11 0.15 0.15 0.04 0.01 0.00 0.00 0.01 0.01 0.01 0.00 0.00 0.01 0.01 0.02 0.04 0.08 0.13 0.20 0.27 0.34 0.46 0.60 0.73
0.01 0.01 0.02 0.02 0.02 0.02 0.02 0.03 0.03 0.02 0.02 0.02 0.03 0.05 0.11 0.19 0.17 0.11 0.08 0.03 0.03 0.02 0.01 0.01 0.01 0.02 0.02 0.02 0.01 0.01 0.01 0.01 0.01 0.02 0.03 0.06 0.09 0.15 0.21 0.27 0.37 0.49 0.64
0.01 0.01 0.02 0.03 0.04 0.04 0.04 0.05 0.05 0.05 0.03 0.01 0.00 0.01 0.05 0.08 0.09 0.07 0.04 0.01 0.00 0.00 0.01 0.02 0.03 0.03 0.02 0.02 0.02 0.01 0.01 0.01 0.01 0.01 0.02 0.03 0.06 0.10 0.16 0.22 0.30 0.42 0.54
0.01 0.02 0.03 0.04 0.05 0.05 0.05 0.05 0.05 0.05 0.03 0.02 0.00 0.00 0.02 0.02 0.01 0.01 0.01 0.01 0.01 0.01 0.02 0.02 0.03 0.04 0.03 0.03 0.02 0.01 0.01 0.01 0.01 0.01 0.01 0.02 0.03 0.07 0.11 0.17 0.23 0.31 0.42
0.01 0.02 0.03 0.04 0.05 0.05 0.05 0.06 0.05 0.05 0.04 0.03 0.02 0.03 0.07 0.04 0.01 0.01 0.01 0.01 0.02 0.02 0.03 0.03 0.04 0.04 0.04 0.04 0.03 0.02 0.01 0.01 0.01 0.01 0.01 0.01 0.02 0.04 0.08 0.12 0.17 0.23 0.33
0.02 0.02 0.02 0.03 0.04 0.05 0.06 0.06 0.06 0.05 0.05 0.03 0.02 0.04 0.12 0.09 0.03 0.02 0.02 0.03 0.05 0.06 0.06 0.05 0.06 0.06 0.05 0.04 0.03 0.02 0.02 0.01 0.01 0.01 0.01 0.01 0.01 0.02 0.04 0.07 0.11 0.17 0.24
0.03 0.03 0.02 0.03 0.04 0.06 0.06 0.06 0.06 0.06 0.05 0.04 0.03 0.02 0.04 0.03 0.02 0.03 0.03 0.04 0.06 0.07 0.08 0.08 0.08 0.08 0.08 0.07 0.06 0.04 0.03 0.02 0.01 0.01 0.01 0.01 0.00 0.01 0.02 0.04 0.07 0.11 0.16
0.03 0.02 0.02 0.02 0.03 0.04 0.04 0.04 0.05 0.05 0.04 0.03 0.03 0.03 0.03 0.03 0.03 0.04 0.05 0.05 0.06 0.07 0.07 0.08 0.09 0.09 0.09 0.07 0.06 0.05 0.04 0.03 0.02 0.01 0.01 0.01 0.01 0.01 0.01 0.02 0.05 0.08 0.13
0.01 0.01 0.02 0.03 0.03 0.04 0.04 0.05 0.05 0.06 0.05 0.04 0.04 0.04 0.04 0.04 0.04 0.04 0.04 0.05 0.06 0.07 0.08 0.10 0.11 0.11 0.11 0.09 0.07 0.05 0.04 0.03 0.02 0.02 0.01 0.01 0.01 0.01 0.02 0.02 0.03 0.05 0.10
0.01 0.01 0.02 0.04 0.04 0.04 0.04 0.05 0.05 0.05 0.05 0.04 0.04 0.04 0.04 0.04 0.04 0.04 0.04 0.05 0.06 0.07 0.08 0.11 0.13 0.14 0.13 0.10 0.08 0.07 0.05 0.03 0.04 0.07 0.08 0.07 0.05 0.03 0.03 0.04 0.04 0.05 0.07
0.01 0.02 0.03 0.04 0.05 0.05 0.05 0.06 0.05 0.05 0.05 0.04 0.05 0.05 0.06 0.06 0.06 0.06 0.06 0.08 0.10 0.09 0.09 0.11 0.14 0.16 0.14 0.12 0.10 0.08 0.05 0.06 0.08 0.09 0.10 0.10 0.07 0.05 0.04 0.04 0.03 0.04 0.06

GEFSGL_prec_meanprecacc_054.txt.gz
Total_Precipitation_Accumulation
0.00 0.00 0.00 0.00 0.00 0.00 0.01 0.01 0.01 0.01 0.01 0.01 0.03 0.06 0.08 0.11 0.12 0.14 0.17 0.21 0.25 0.26 0.31 0.38 0.42 0.45 0.50 0.48 0.45 0.41 0.38 0.41 0.37 0.10 0.03 0.05 0.14 0.20 0.21 0.21 0.23 0.22 0.19
0.00 0.00 0.00 0.00 0.00 0.00 0.01 0.01 0.01 0.01 0.01 0.02 0.06 0.11 0.15 0.18 0.17 0.18 0.21 0.31 0.43 0.44 0.41 0.43 0.46 0.49 0.55 0.57 0.58 0.52 0.42 0.35 0.36 0.22 0.06 0.05 0.10 0.21 0.26 0.26 0.24 0.23 0.20
0.00 0.00 0.00 0.00 0.00 0.00 0.00 0.00 0.00 0.01 0.01 0.02 0.08 0.19 0.25 0.29 0.29 0.27 0.30 0.36 0.51 0.64 0.67 0.67 0.62 0.57 0.59 0.59 0.62 0.59 0.49 0.39 0.33 0.28 0.15 0.08 0.10 0.20 0.32 0.34 0.31 0.27 0.23
0.00 0.00 0.00 0.00 0.00 0.00 0.00 0.00 0.00 0.01 0.02 0.04 0.08 0.18 0.29 0.40 0.52 0.54 0.56 0.54 0.57 0.66 0.73 0.78 0.79 0.81 0.76 0.70 0.68 0.63 0.57 0.50 0.40 0.34 0.25 0.16 0.14 0.20 0.34 0.41 0.37 0.31 0.28
0.00 0.00 0.00 0.00 0.00 0.00 0.00 0.00 0.00 0.01 0.02 0.05 0.06 0.10 0.20 0.47 0.87 0.90 0.81 0.73 0.60 0.53 0.52 0.56 0.66 0.81 0.87 0.90 0.91 0.80 0.72 0.69 0.58 0.47 0.38 0.28 0.22 0.26 0.38 0.45 0.49 0.44 0.37
0.00 0.00 0.00 0.00 0.00 0.00 0.00 0.00 0.00 0.01 0.02 0.03 0.04 0.05 0.13 0.41 0.83 0.89 0.68 0.50 0.37 0.34 0.35 0.34 0.37 0.52 0.62 0.70 0.80 0.79 0.81 0.89 0.88 0.74 0.56 0.43 0.33 0.33 0.40 0.50 0.58 0.61 0.53
0.00 0.00 0.00 0.00 0.00 0.00 0.00 0.00 0.00 0.01 0.02 0.04 0.03 0.02 0.05 0.25 0.64 0.73 0.51 0.29 0.19 0.18 0.19 0.19 0.20 0.29 0.39 0.43 0.50 0.55 0.60 0.72 0.89 0.94 0.85 0.65 0.48 0.38 0.43 0.50 0.56 0.63 0.60
0.00 0.00 0.00 0.00 0.00 0.00 0.00 0.00 0.01 0.01 0.01 0.03 0.03 0.01 0.02 0.11 0.48 0.65 0.46 0.20 0.13 0.12 0.14 0.12 0.09 0.15 0.28 0.38 0.46 0.45 0.45 0.57 0.82 0.98 1.08 0.98 0.77 0.61 0.59 0.66 0.69 0.64 0.65
0.00 0.00 0.00 0.00 0.00 0.00 0.00 0.01 0.01 0.01 0.01 0.02 0.02 0.01 0.01 0.03 0.31 0.64 0.53 0.22 0.11 0.09 0.12 0.14 0.09 0.07 0.20 0.29 0.26 0.23 0.25 0.38 0.55 0.75 0.84 0.83 0.78 0.76 0.75 0.78 0.80 0.74 0.85
0.00 0.00 0.00 0.00 0.00 0.00 0.00 0.01 0.01 0.01 0.01 0.01 0.01 0.01 0.01 0.01 0.16 0.55 0.68 0.28 0.12 0.09 0.08 0.10 0.13 0.14 0.19 0.18 0.11 0.11 0.19 0.28 0.31 0.35 0.41 0.45 0.50 0.55 0.65 0.81 0.93 0.92 1.02
0.00 0.00 0.00 0.00 0.00 0.00 0.01 0.01 0.01 0.01 0.01 0.01 0.01 0.01 0.01 0.01 0.05 0.33 0.69 0.49 0.21 0.12 0.09 0.10 0.11 0.14 0.13 0.10 0.06 0.07 0.19 0.19 0.15 0.22 0.28 0.34 0.41 0.50 0.62 0.78 0.93 1.00 1.06
0.00 0.00 0.00 0.00 0.00 0.01 0.01 0.01 0.01 0.02 0.02 0.02 0.01 0.01 0.01 0.01 0.05 0.20 0.39 0.45 0.30 0.12 0.09 0.09 0.10 0.09 0.06 0.04 0.03 0.05 0.06 0.04 0.07 0.12 0.18 0.24 0.35 0.48 0.61 0.76 0.90 0.98 1.04
0.00 0.00 0.00 0.00 0.00 0.01 0.02 0.02 0.02 0.02 0.04 0.04 0.04 0.02 0.01 0.02 0.08 0.19 0.19 0.18 0.20 0.15 0.18 0.14 0.05 0.02 0.01 0.01 0.01 0.02 0.01 0.02 0.05 0.09 0.14 0.21 0.31 0.45 0.51 0.59 0.70 0.84 0.92
0.00 0.00 0.00 0.01 0.01 0.02 0.02 0.02 0.03 0.05 0.13 0.14 0.09 0.05 0.04 0.07 0.21 0.36 0.22 0.09 0.09 0.11 0.12 0.09 0.02 0.00 0.00 0.00 0.00 0.00 0.00 0.02 0.05 0.08 0.13 0.16 0.21 0.30 0.39 0.51 0.62 0.74 0.84
0.00 0.00 0.00 0.01 0.02 0.02 0.02 0.03 0.04 0.07 0.18 0.24 0.14 0.12 0.14 0.28 0.38 0.39 0.26 0.18 0.18 0.19 0.09 0.02 0.00 0.00 0.00 0.00 0.00 0.00 0.00 0.01 0.02 0.04 0.07 0.11 0.16 0.24 0.33 0.45 0.59 0.69 0.80
0.00 0.00 0.01 0.02 0.02 0.02 0.03 0.02 0.03 0.05 0.09 0.10 0.09 0.12 0.14 0.31 0.30 0.19 0.14 0.11 0.16 0.16 0.05 0.01 0.00 0.01 0.01 0.01 0.01 0.01 0.00 0.01 0.01 0.03 0.05 0.10 0.15 0.23 0.31 0.38 0.50 0.64 0.77
0.01 0.01 0.02 0.02 0.03 0.03 0.03 0.04 0.05 0.04 0.04 0.03 0.04 0.06 0.11 0.20 0.17 0.11 0.08 0.03 0.03 0.02 0.01 0.01 0.01 0.02 0.02 0.02 0.02 0.01 0.01 0.01 0.01 0.02 0.04 0.08 0.12 0.17 0.24 0.32 0.41 0.53 0.69
0.01 0.01 0.02 0.03 0.04 0.04 0.05 0.06 0.06 0.06 0.05 0.03 0.02 0.02 0.06 0.09 0.09 0.07 0.04 0.01 0.00 0.00 0.01 0.02 0.03 0.03 0.03 0.03 0.02 0.02 0.01 0.01 0.01 0.01 0.02 0.05 0.08 0.13 0.19 0.26 0.34 0.47 0.60
0.01 0.02 0.03 0.04 0.05 0.05 0.06 0.06 0.06 0.06 0.05 0.04 0.02 0.02 0.02 0.03 0.02 0.01 0.01 0.01 0.01 0.01 0.02 0.02 0.03 0.04 0.04 0.04 0.03 0.02 0.02 0.02 0.01 0.02 0.02 0.03 0.06 0.10 0.15 0.22 0.29 0.38 0.49
0.01 0.02 0.03 0.04 0.05 0.05 0.06 0.07 0.07 0.06 0.05 0.04 0.04 0.04 0.08 0.05 0.02 0.01 0.01 0.02 0.02 0.03 0.03 0.04 0.04 0.05 0.05 0.04 0.04 0.03 0.02 0.02 0.02 0.02 0.01 0.02 0.03 0.07 0.12 0.17 0.23 0.29 0.40
0.02 0.02 0.02 0.03 0.04 0.06 0.07 0.07 0.07 0.07 0.06 0.05 0.03 0.05 0.13 0.09 0.03 0.02 0.02 0.03 0.05 0.06 0.06 0.06 0.06 0.06 0.05 0.05 0.04 0.03 0.03 0.02 0.02 0.02 0.02 0.02 0.02 0.04 0.07 0.11 0.17 0.24 0.32
0.03 0.03 0.02 0.04 0.05 0.06 0.07 0.07 0.08 0.08 0.07 0.06 0.04 0.03 0.05 0.03 0.02 0.03 0.03 0.04 0.06 0.07 0.08 0.08 0.08 0.08 0.09 0.08 0.07 0.05 0.04 0.03 0.02 0.02 0.02 0.01 0.01 0.02 0.04 0.06 0.11 0.17 0.24
0.03 0.02 0.03 0.03 0.05 0.06 0.07 0.07 0.08 0.08 0.06 0.05 0.05 0.04 0.04 0.03 0.04 0.04 0.05 0.05 0.06 0.07 0.07 0.08 0.09 0.09 0.09 0.08 0.07 0.07 0.06 0.05 0.04 0.03 0.02 0.01 0.01 0.01 0.03 0.05 0.08 0.13 0.21
0.01 0.02 0.03 0.04 0.05 0.06 0.07 0.08 0.08 0.08 0.07 0.06 0.06 0.05 0.05 0.05 0.04 0.04 0.04 0.05 0.06 0.07 0.08 0.11 0.11 0.11 0.11 0.10 0.07 0.06 0.06 0.05 0.04 0.03 0.02 0.02 0.02 0.02 0.03 0.04 0.06 0.10 0.17
0.02 0.03 0.04 0.06 0.08 0.08 0.08 0.08 0.08 0.07 0.07 0.06 0.06 0.06 0.05 0.05 0.04 0.04 0.04 0.05 0.06 0.07 0.08 0.11 0.13 0.14 0.13 0.11 0.09 0.08 0.06 0.05 0.05 0.08 0.08 0.07 0.05 0.04 0.04 0.05 0.07 0.09 0.14
0.03 0.04 0.06 0.08 0.10 0.10 0.10 0.10 0.09 0.08 0.08 0.06 0.06 0.07 0.07 0.07 0.06 0.06 0.06 0.08 0.10 0.09 0.09 0.11 0.14 0.16 0.14 0.12 0.11 0.09 0.07 0.07 0.09 0.10 0.10 0.10 0.07 0.05 0.05 0.05 0.06 0.08 0.11

GEFSGL_prec_meanprecacc_060.txt.gz
Total_Precipitation_Accumulation
0.00 0.00 0.00 0.00 0.00 0.00 0.01 0.01 0.01 0.01 0.01 0.01 0.03 0.06 0.08 0.11 0.13 0.14 0.17 0.22 0.25 0.27 0.31 0.38 0.42 0.45 0.50 0.48 0.45 0.42 0.39 0.44 0.41 0.10 0.03 0.05 0.14 0.20 0.21 0.21 0.23 0.22 0.19
0.00 0.00 0.00 0.00 0.00 0.00 0.01 0.01 0.01 0.01 0.01 0.02 0.06 0.12 0.15 0.18 0.18 0.19 0.22 0.32 0.43 0.44 0.41 0.43 0.46 0.49 0.55 0.57 0.59 0.53 0.43 0.36 0.39 0.24 0.06 0.05 0.10 0.21 0.26 0.26 0.25 0.23 0.20
0.00 0.00 0.00 0.00 0.00 0.00 0.00 0.00 0.00 0.01 0.01 0.02 0.08 0.19 0.25 0.30 0.30 0.28 0.31 0.37 0.52 0.65 0.67 0.67 0.62 0.58 0.59 0.59 0.62 0.59 0.50 0.39 0.35 0.31 0.16 0.08 0.10 0.20 0.32 0.35 0.31 0.27 0.23
0.00 0.00 0.00 0.00 0.00 0.00 0.00 0.00 0.00 0.01 0.02 0.04 0.09 0.19 0.29 0.41 0.53 0.55 0.57 0.55 0.58 0.67 0.74 0.79 0.79 0.81 0.76 0.71 0.69 0.64 0.58 0.52 0.43 0.38 0.27 0.17 0.14 0.20 0.35 0.43 0.38 0.32 0.28
0.00 0.00 0.00 0.00 0.00 0.00 0.00 0.00 0.00 0.01 0.02 0.05 0.06 0.11 0.21 0.48 0.88 0.91 0.82 0.74 0.61 0.53 0.52 0.56 0.66 0.81 0.88 0.91 0.93 0.83 0.76 0.75 0.63 0.52 0.42 0.32 0.25 0.28 0.40 0.47 0.51 0.45 0.38
0.00 0.00 0.00 0.00 0.00 0.00 0.00 0.00 0.00 0.01 0.02 0.04 0.04 0.06 0.14 0.42 0.84 0.90 0.69 0.51 0.37 0.34 0.35 0.34 0.37 0.52 0.63 0.71 0.81 0.81 0.84 0.94 0.95 0.81 0.61 0.47 0.35 0.35 0.41 0.52 0.61 0.63 0.54
0.00 0.00 0.00 0.00 0.00 0.00 0.00 0.00 0.00 0.01 0.02 0.04 0.03 0.03 0.06 0.26 0.65 0.74 0.51 0.29 0.20 0.18 0.20 0.19 0.20 0.30 0.39 0.43 0.51 0.55 0.61 0.74 0.92 0.98 0.89 0.67 0.50 0.39 0.46 0.54 0.59 0.66 0.62
0.00 0.00 0.00 0.00 0.00 0.00 0.00 0.00 0.01 0.01 0.02 0.03 0.03 0.02 0.03 0.12 0.49 0.66 0.47 0.21 0.13 0.12 0.14 0.12 0.10 0.15 0.28 0.38 0.46 0.47 0.47 0.58 0.82 0.99 1.09 1.00 0.80 0.65 0.67 0.74 0.76 0.69 0.67
0.00 0.00 0.00 0.00 0.00 0.00 0.01 0.01 0.01 0.01 0.01 0.02 0.02 0.02 0.01 0.04 0.32 0.65 0.55 0.23 0.12 0.10 0.13 0.14 0.09 0.07 0.21 0.29 0.28 0.26 0.27 0.39 0.55 0.76 0.85 0.85 0.81 0.79 0.80 0.86 0.86 0.78 0.87
0.00 0.00 0.00 0.00 0.00 0.01 0.01 0.01 0.01 0.01 0.02 0.02 0.01 0.01 0.01 0.02 0.17 0.57 0.69 0.29 0.12 0.09 0.08 0.10 0.13 0.14 0.20 0.19 0.13 0.14 0.21 0.29 0.32 0.36 0.42 0.46 0.50 0.55 0.67 0.84 0.97 0.96 1.04
0.00 0.00 0.00 0.00 0.00 0.01 0.01 0.01 0.01 0.01 0.02 0.01 0.01 0.01 0.01 0.02 0.06 0.34 0.70 0.50 0.22 0.12 0.09 0.10 0.11 0.14 0.14 0.11 0.08 0.09 0.20 0.21 0.18 0.23 0.29 0.34 0.42 0.51 0.63 0.79 0.96 1.06 1.10
0.00 0.00 0.00 0.00 0.01 0.01 0.01 0.02 0.02 0.02 0.02 0.02 0.02 0.02 0.02 0.02 0.06 0.22 0.41 0.47 0.31 0.12 0.10 0.09 0.10 0.09 0.07 0.05 0.04 0.06 0.07 0.06 0.07 0.13 0.18 0.25 0.35 0.48 0.62 0.78 0.92 1.02 1.08
0.00 0.00 0.00 0.00 0.00 0.01 0.02 0.02 0.02 0.02 0.04 0.05 0.05 0.03 0.02 0.03 0.09 0.20 0.20 0.20 0.21 0.16 0.18 0.14 0.06 0.03 0.02 0.01 0.01 0.02 0.01 0.02 0.05 0.09 0.14 0.21 0.32 0.45 0.52 0.60 0.72 0.86 0.94
0.00 0.00 0.00 0.01 0.01 0.02 0.02 0.02 0.03 0.05 0.13 0.15 0.10 0.06 0.05 0.09 0.22 0.37 0.23 0.10 0.11 0.13 0.13 0.09 0.02 0.01 0.00 0.00 0.00 0.00 0.00 0.02 0.05 0.08 0.13 0.17 0.21 0.30 0.40 0.53 0.64 0.76 0.86
0.00 0.00 0.00 0.01 0.02 0.02 0.02 0.03 0.04 0.07 0.19 0.25 0.15 0.13 0.16 0.29 0.39 0.40 0.27 0.19 0.19 0.20 0.09 0.02 0.00 0.00 0.00 0.00 0.00 0.00 0.00 0.01 0.02 0.04 0.08 0.12 0.16 0.24 0.34 0.46 0.61 0.71 0.83
0.00 0.00 0.01 0.02 0.02 0.03 0.03 0.03 0.03 0.06 0.10 0.11 0.10 0.14 0.16 0.32 0.31 0.20 0.15 0.12 0.16 0.16 0.05 0.02 0.01 0.01 0.01 0.01 0.01 0.01 0.00 0.01 0.02 0.03 0.06 0.10 0.16 0.24 0.31 0.39 0.52 0.67 0.80
0.01 0.01 0.02 0.03 0.03 0.03 0.03 0.05 0.05 0.04 0.04 0.04 0.05 0.07 0.13 0.21 0.18 0.12 0.09 0.04 0.04 0.03 0.01 0.01 0.01 0.02 0.02 0.02 0.02 0.01 0.01 0.01 0.01 0.03 0.05 0.08 0.12 0.18 0.25 0.33 0.43 0.56 0.72
0.01 0.01 0.02 0.03 0.04 0.04 0.05 0.06 0.07 0.07 0.06 0.03 0.03 0.04 0.07 0.11 0.11 0.08 0.05 0.03 0.02 0.01 0.01 0.02 0.03 0.03 0.03 0.03 0.03 0.02 0.02 0.01 0.01 0.02 0.03 0.05 0.09 0.15 0.21 0.28 0.36 0.50 0.63
0.01 0.02 0.03 0.04 0.05 0.05 0.06 0.07 0.07 0.07 0.06 0.04 0.03 0.03 0.05 0.06 0.05 0.05 0.04 0.04 0.03 0.02 0.02 0.03 0.03 0.04 0.04 0.04 0.03 0.02 0.02 0.02 0.02 0.02 0.02 0.03 0.07 0.11 0.17 0.23 0.31 0.41 0.52
0.01 0.02 0.03 0.04 0.05 0.06 0.07 0.07 0.08 0.07 0.07 0.06 0.05 0.06 0.11 0.10 0.08 0.06 0.05 0.04 0.03 0.03 0.03 0.04 0.04 0.05 0.05 0.04 0.04 0.03 0.03 0.02 0.02 0.02 0.02 0.03 0.04 0.08 0.13 0.19 0.25 0.32 0.43
0.02 0.02 0.02 0.03 0.04 0.06 0.08 0.08 0.08 0.09 0.08 0.07 0.05 0.06 0.16 0.14 0.08 0.06 0.05 0.05 0.07 0.07 0.06 0.06 0.06 0.06 0.05 0.05 0.04 0.03 0.03 0.02 0.02 0.03 0.03 0.03 0.03 0.05 0.08 0.13 0.19 0.27 0.36
0.04 0.03 0.03 0.04 0.06 0.07 0.09 0.09 0.10 0.10 0.09 0.08 0.06 0.05 0.09 0.09 0.07 0.07 0.06 0.06 0.07 0.08 0.08 0.08 0.08 0.08 0.09 0.08 0.07 0.06 0.04 0.03 0.03 0.03 0.03 0.02 0.02 0.03 0.05 0.08 0.14 0.21 0.28
0.03 0.03 0.04 0.05 0.06 0.08 0.09 0.09 0.10 0.11 0.09 0.08 0.07 0.07 0.07 0.08 0.07 0.07 0.08 0.07 0.07 0.07 0.07 0.08 0.09 0.09 0.09 0.08 0.08 0.08 0.07 0.06 0.05 0.04 0.04 0.03 0.02 0.03 0.04 0.07 0.10 0.17 0.26
0.03 0.04 0.06 0.07 0.08 0.09 0.11 0.11 0.11 0.11 0.10 0.09 0.08 0.08 0.08 0.08 0.07 0.07 0.07 0.07 0.07 0.07 0.08 0.11 0.11 0.11 0.11 0.10 0.08 0.06 0.06 0.06 0.06 0.05 0.04 0.04 0.03 0.03 0.04 0.06 0.09 0.14 0.23
0.04 0.06 0.08 0.10 0.12 0.13 0.13 0.12 0.12 0.11 0.10 0.09 0.09 0.09 0.08 0.08 0.07 0.07 0.06 0.06 0.07 0.07 0.08 0.11 0.13 0.14 0.13 0.11 0.10 0.08 0.07 0.06 0.07 0.10 0.10 0.08 0.06 0.05 0.06 0.08 0.10 0.14 0.20
0.06 0.08 0.10 0.13 0.15 0.15 0.15 0.15 0.13 0.12 0.11 0.10 0.09 0.09 0.09 0.09 0.09 0.08 0.08 0.09 0.10 0.09 0.09 0.11 0.14 0.16 0.15 0.13 0.11 0.10 0.08 0.08 0.11 0.11 0.12 0.11 0.08 0.07 0.07 0.08 0.09 0.12 0.18

GEFSGL_prec_meanprecacc_066.txt.gz
Total_Precipitation_Accumulation
0.00 0.00 0.00 0.00 0.00 0.00 0.01 0.01 0.01 0.01 0.01 0.01 0.03 0.06 0.08 0.11 0.13 0.14 0.17 0.22 0.25 0.27 0.32 0.39 0.43 0.46 0.50 0.48 0.45 0.42 0.40 0.44 0.42 0.10 0.03 0.05 0.14 0.20 0.21 0.21 0.23 0.22 0.19
0.00 0.00 0.00 0.00 0.00 0.00 0.01 0.01 0.01 0.01 0.01 0.02 0.06 0.12 0.15 0.18 0.18 0.19 0.22 0.32 0.44 0.44 0.42 0.43 0.46 0.50 0.56 0.58 0.59 0.53 0.43 0.36 0.39 0.24 0.07 0.05 0.10 0.21 0.26 0.26 0.25 0.23 0.20
0.00 0.00 0.00 0.00 0.00 0.00 0.00 0.00 0.00 0.01 0.01 0.02 0.08 0.19 0.25 0.30 0.30 0.28 0.31 0.37 0.52 0.65 0.68 0.68 0.63 0.58 0.60 0.59 0.63 0.60 0.50 0.40 0.35 0.31 0.16 0.08 0.10 0.20 0.32 0.35 0.31 0.27 0.23
0.00 0.00 0.00 0.00 0.00 0.00 0.00 0.00 0.00 0.01 0.02 0.04 0.09 0.19 0.29 0.41 0.53 0.55 0.58 0.55 0.58 0.67 0.74 0.79 0.80 0.82 0.77 0.71 0.69 0.64 0.59 0.53 0.43 0.38 0.27 0.17 0.15 0.20 0.36 0.44 0.39 0.32 0.29
0.00 0.00 0.00 0.00 0.00 0.00 0.00 0.00 0.00 0.01 0.02 0.05 0.06 0.11 0.21 0.48 0.88 0.91 0.82 0.74 0.61 0.54 0.53 0.57 0.66 0.82 0.89 0.92 0.94 0.84 0.77 0.76 0.64 0.54 0.43 0.32 0.25 0.29 0.41 0.48 0.52 0.45 0.38
0.00 0.00 0.00 0.00 0.00 0.00 0.00 0.00 0.00 0.01 0.02 0.04 0.04 0.06 0.14 0.42 0.84 0.91 0.69 0.51 0.38 0.35 0.36 0.35 0.38 0.53 0.64 0.72 0.83 0.83 0.86 0.96 0.98 0.84 0.64 0.48 0.36 0.35 0.42 0.53 0.62 0.64 0.55
0.00 0.00 0.00 0.00 0.00 0.00 0.00 0.00 0.00 0.01 0.02 0.04 0.03 0.03 0.06 0.26 0.65 0.74 0.52 0.30 0.20 0.19 0.20 0.20 0.21 0.31 0.40 0.44 0.52 0.57 0.63 0.76 0.95 1.01 0.93 0.69 0.51 0.39 0.47 0.55 0.61 0.68 0.63
0.00 0.00 0.00 0.00 0.00 0.00 0.00 0.00 0.01 0.01 0.02 0.03 0.03 0.02 0.03 0.12 0.49 0.67 0.48 0.23 0.14 0.13 0.15 0.13 0.11 0.16 0.29 0.40 0.48 0.49 0.49 0.59 0.83 1.01 1.11 1.00 0.81 0.66 0.69 0.78 0.81 0.73 0.69
0.00 0.00 0.00 0.00 0.00 0.00 0.01 0.01 0.01 0.01 0.01 0.02 0.02 0.02 0.02 0.04 0.32 0.66 0.56 0.25 0.13 0.11 0.13 0.15 0.10 0.08 0.22 0.31 0.31 0.29 0.28 0.40 0.56 0.76 0.86 0.86 0.82 0.82 0.84 0.92 0.93 0.83 0.89
0.00 0.00 0.00 0.00 0.00 0.01 0.01 0.01 0.01 0.02 0.02 0.02 0.01 0.01 0.01 0.02 0.17 0.57 0.70 0.31 0.14 0.11 0.10 0.11 0.15 0.15 0.21 0.22 0.17 0.17 0.22 0.30 0.32 0.37 0.42 0.46 0.51 0.56 0.68 0.86 0.99 0.98 1.06
0.00 0.00 0.00 0.00 0.00 0.01 0.01 0.01 0.01 0.01 0.02 0.01 0.01 0.01 0.01 0.02 0.06 0.34 0.71 0.52 0.24 0.14 0.12 0.12 0.13 0.16 0.16 0.14 0.12 0.12 0.22 0.22 0.19 0.24 0.30 0.35 0.42 0.51 0.63 0.79 0.96 1.07 1.13
0.00 0.00 0.00 0.00 0.01 0.01 0.01 0.02 0.02 0.02 0.02 0.02 0.02 0.02 0.02 0.02 0.06 0.22 0.41 0.48 0.33 0.15 0.12 0.11 0.12 0.11 0.09 0.08 0.07 0.09 0.09 0.08 0.10 0.15 0.19 0.25 0.36 0.49 0.62 0.78 0.92 1.02 1.09
0.00 0.00 0.00 0.00 0.00 0.01 0.02 0.02 0.02 0.02 0.04 0.05 0.05 0.03 0.02 0.03 0.10 0.21 0.20 0.21 0.24 0.20 0.21 0.16 0.08 0.05 0.04 0.04 0.04 0.05 0.04 0.04 0.07 0.11 0.15 0.21 0.32 0.45 0.52 0.60 0.72 0.87 0.95
0.00 0.00 0.00 0.01 0.01 0.02 0.02 0.02 0.03 0.05 0.13 0.15 0.10 0.06 0.05 0.09 0.22 0.37 0.23 0.11 0.12 0.16 0.17 0.13 0.06 0.04 0.03 0.02 0.01 0.02 0.02 0.03 0.06 0.09 0.13 0.17 0.21 0.30 0.40 0.53 0.64 0.77 0.87
0.00 0.00 0.00 0.01 0.02 0.02 0.02 0.03 0.04 0.07 0.19 0.25 0.15 0.14 0.16 0.30 0.39 0.41 0.28 0.20 0.20 0.22 0.15 0.10 0.07 0.05 0.05 0.03 0.02 0.01 0.01 0.02 0.03 0.04 0.08 0.12 0.17 0.24 0.34 0.46 0.61 0.72 0.85
0.00 0.00 0.01 0.02 0.02 0.03 0.03 0.03 0.04 0.06 0.10 0.11 0.11 0.14 0.16 0.33 0.32 0.21 0.17 0.14 0.18 0.19 0.13 0.10 0.07 0.04 0.04 0.03 0.02 0.02 0.01 0.01 0.02 0.03 0.06 0.10 0.16 0.24 0.32 0.39 0.53 0.69 0.82
0.01 0.01 0.02 0.03 0.03 0.03 0.03 0.05 0.05 0.04 0.05 0.05 0.05 0.08 0.14 0.22 0.19 0.14 0.11 0.06 0.07 0.08 0.09 0.07 0.05 0.04 0.04 0.03 0.03 0.02 0.02 0.01 0.02 0.03 0.05 0.08 0.13 0.18 0.26 0.34 0.44 0.57 0.73
0.01 0.01 0.03 0.03 0.04 0.05 0.05 0.06 0.07 0.08 0.06 0.04 0.03 0.04 0.08 0.12 0.12 0.10 0.08 0.08 0.08 0.07 0.07 0.06 0.06 0.05 0.05 0.05 0.04 0.03 0.02 0.02 0.01 0.02 0.03 0.05 0.10 0.15 0.21 0.28 0.37 0.51 0.65
0.01 0.02 0.03 0.05 0.05 0.06 0.06 0.07 0.08 0.08 0.07 0.05 0.04 0.04 0.05 0.06 0.06 0.07 0.08 0.11 0.08 0.06 0.05 0.05 0.05 0.06 0.06 0.05 0.04 0.03 0.03 0.03 0.02 0.02 0.02 0.04 0.07 0.12 0.18 0.24 0.32 0.42 0.54
0.01 0.03 0.04 0.05 0.06 0.06 0.08 0.09 0.09 0.09 0.08 0.07 0.07 0.07 0.12 0.12 0.10 0.08 0.08 0.09 0.08 0.06 0.05 0.06 0.06 0.06 0.07 0.06 0.05 0.04 0.03 0.02 0.02 0.02 0.02 0.03 0.05 0.09 0.14 0.20 0.26 0.34 0.45
0.02 0.03 0.04 0.04 0.06 0.07 0.09 0.10 0.11 0.11 0.11 0.09 0.07 0.08 0.18 0.17 0.11 0.08 0.08 0.09 0.10 0.10 0.08 0.08 0.07 0.08 0.07 0.06 0.05 0.04 0.03 0.03 0.02 0.03 0.03 0.03 0.04 0.06 0.09 0.15 0.21 0.29 0.38
0.04 0.04 0.04 0.05 0.08 0.09 0.12 0.12 0.13 0.14 0.12 0.11 0.08 0.06 0.10 0.12 0.10 0.10 0.10 0.10 0.10 0.11 0.11 0.11 0.10 0.09 0.10 0.09 0.08 0.06 0.04 0.03 0.03 0.03 0.03 0.03 0.04 0.05 0.07 0.10 0.16 0.23 0.30
0.04 0.04 0.05 0.07 0.09 0.11 0.13 0.12 0.14 0.15 0.13 0.11 0.10 0.09 0.09 0.09 0.09 0.10 0.11 0.11 0.12 0.11 0.10 0.11 0.12 0.10 0.10 0.09 0.08 0.08 0.07 0.06 0.05 0.05 0.05 0.04 0.04 0.04 0.06 0.08 0.12 0.19 0.28
0.04 0.06 0.09 0.11 0.12 0.13 0.14 0.15 0.15 0.16 0.14 0.13 0.11 0.10 0.10 0.09 0.09 0.10 0.10 0.10 0.11 0.11 0.11 0.13 0.13 0.12 0.11 0.10 0.08 0.06 0.07 0.07 0.07 0.07 0.06 0.06 0.05 0.05 0.06 0.08 0.11 0.16 0.26
0.06 0.09 0.11 0.13 0.16 0.17 0.17 0.17 0.16 0.15 0.14 0.13 0.12 0.11 0.10 0.10 0.09 0.09 0.09 0.09 0.09 0.09 0.10 0.12 0.14 0.15 0.13 0.11 0.10 0.08 0.07 0.06 0.08 0.12 0.13 0.11 0.09 0.07 0.08 0.10 0.12 0.16 0.23
0.08 0.11 0.13 0.16 0.19 0.19 0.20 0.20 0.18 0.16 0.16 0.13 0.12 0.12 0.11 0.11 0.11 0.10 0.10 0.11 0.12 0.10 0.10 0.12 0.14 0.17 0.15 0.13 0.12 0.10 0.08 0.09 0.12 0.13 0.14 0.13 0.10 0.09 0.09 0.11 0.12 0.15 0.20

GEFSGL_prec_meanprecacc_072.txt.gz
Total_Precipitation_Accumulation
0.00 0.00 0.00 0.00 0.00 0.00 0.01 0.01 0.01 0.01 0.01 0.01 0.03 0.06 0.08 0.11 0.13 0.14 0.17 0.22 0.25 0.27 0.32 0.39 0.43 0.46 0.50 0.48 0.46 0.42 0.40 0.44 0.42 0.11 0.03 0.05 0.14 0.20 0.21 0.21 0.23 0.22 0.19
0.00 0.00 0.00 0.00 0.00 0.00 0.01 0.01 0.01 0.01 0.01 0.02 0.06 0.12 0.15 0.18 0.18 0.19 0.22 0.32 0.44 0.44 0.42 0.43 0.46 0.50 0.56 0.58 0.59 0.53 0.43 0.37 0.39 0.24 0.07 0.05 0.10 0.21 0.27 0.26 0.25 0.23 0.20
0.00 0.00 0.00 0.00 0.00 0.00 0.00 0.00 0.00 0.01 0.01 0.02 0.08 0.19 0.25 0.30 0.30 0.28 0.31 0.37 0.52 0.65 0.68 0.68 0.63 0.58 0.60 0.59 0.63 0.60 0.50 0.40 0.36 0.32 0.17 0.08 0.10 0.20 0.32 0.35 0.31 0.27 0.23
0.00 0.00 0.00 0.00 0.00 0.00 0.00 0.00 0.00 0.01 0.02 0.04 0.09 0.19 0.29 0.41 0.53 0.55 0.58 0.55 0.58 0.67 0.74 0.79 0.80 0.82 0.77 0.72 0.70 0.65 0.60 0.54 0.45 0.40 0.29 0.18 0.15 0.21 0.36 0.44 0.39 0.32 0.29
0.00 0.00 0.00 0.00 0.00 0.00 0.00 0.00 0.00 0.01 0.02 0.05 0.06 0.11 0.21 0.48 0.88 0.91 0.82 0.74 0.61 0.54 0.53 0.57 0.66 0.82 0.89 0.93 0.95 0.85 0.79 0.78 0.67 0.56 0.45 0.34 0.26 0.30 0.41 0.48 0.53 0.45 0.38
0.00 0.00 0.00 0.00 0.00 0.00 0.00 0.00 0.00 0.01 0.02 0.04 0.04 0.06 0.14 0.42 0.84 0.91 0.69 0.51 0.38 0.35 0.36 0.35 0.38 0.54 0.64 0.73 0.84 0.85 0.88 0.99 1.00 0.87 0.66 0.50 0.36 0.36 0.43 0.54 0.64 0.66 0.56
0.00 0.00 0.00 0.00 0.00 0.00 0.00 0.00 0.00 0.01 0.02 0.04 0.03 0.03 0.06 0.26 0.65 0.74 0.52 0.30 0.20 0.19 0.20 0.20 0.21 0.31 0.41 0.45 0.54 0.61 0.70 0.83 0.99 1.05 0.96 0.71 0.51 0.40 0.48 0.58 0.63 0.69 0.64
0.00 0.00 0.00 0.00 0.00 0.00 0.00 0.00 0.01 0.01 0.02 0.03 0.03 0.02 0.03 0.12 0.49 0.67 0.48 0.23 0.14 0.13 0.15 0.13 0.11 0.16 0.29 0.41 0.50 0.52 0.53 0.64 0.90 1.09 1.19 1.04 0.81 0.66 0.70 0.80 0.83 0.76 0.71
0.00 0.00 0.00 0.00 0.00 0.00 0.01 0.01 0.01 0.01 0.01 0.02 0.02 0.02 0.02 0.04 0.32 0.66 0.56 0.25 0.13 0.11 0.13 0.15 0.10 0.09 0.22 0.32 0.35 0.33 0.31 0.41 0.57 0.81 0.96 0.95 0.87 0.84 0.87 0.99 1.02 0.91 0.93
0.00 0.00 0.00 0.00 0.00 0.01 0.01 0.01 0.01 0.02 0.02 0.02 0.01 0.01 0.01 0.02 0.17 0.57 0.70 0.31 0.15 0.11 0.10 0.11 0.15 0.16 0.22 0.23 0.22 0.22 0.26 0.30 0.33 0.39 0.47 0.54 0.59 0.63 0.74 0.94 1.08 1.06 1.11
0.00 0.00 0.00 0.00 0.00 0.01 0.01 0.01 0.01 0.01 0.02 0.01 0.01 0.01 0.01 0.02 0.06 0.35 0.71 0.52 0.24 0.14 0.12 0.13 0.13 0.16 0.18 0.17 0.16 0.17 0.24 0.22 0.20 0.27 0.33 0.37 0.45 0.55 0.67 0.83 1.00 1.11 1.16
0.00 0.00 0.00 0.00 0.01 0.01 0.01 0.02 0.02 0.02 0.02 0.02 0.02 0.02 0.02 0.02 0.06 0.22 0.41 0.48 0.33 0.16 0.13 0.12 0.12 0.11 0.11 0.11 0.12 0.16 0.14 0.12 0.18 0.22 0.23 0.27 0.37 0.50 0.63 0.79 0.94 1.04 1.11
0.00 0.00 0.00 0.00 0.00 0.01 0.02 0.02 0.02 0.02 0.04 0.05 0.05 0.04 0.03 0.04 0.10 0.21 0.20 0.21 0.24 0.21 0.22 0.17 0.09 0.07 0.07 0.07 0.09 0.12 0.13 0.15 0.20 0.20 0.19 0.22 0.32 0.45 0.52 0.61 0.73 0.88 0.96
0.00 0.00 0.00 0.01 0.01 0.02 0.02 0.02 0.03 0.05 0.13 0.15 0.11 0.06 0.06 0.09 0.23 0.37 0.24 0.11 0.13 0.17 0.18 0.14 0.08 0.08 0.08 0.06 0.05 0.06 0.09 0.13 0.15 0.16 0.16 0.18 0.22 0.32 0.42 0.54 0.65 0.78 0.89
0.00 0.00 0.00 0.01 0.02 0.02 0.02 0.03 0.04 0.07 0.19 0.26 0.17 0.15 0.17 0.31 0.40 0.42 0.29 0.21 0.22 0.24 0.17 0.13 0.10 0.09 0.10 0.09 0.07 0.05 0.05 0.08 0.10 0.11 0.12 0.15 0.19 0.26 0.36 0.47 0.62 0.73 0.86
0.00 0.00 0.01 0.02 0.02 0.03 0.03 0.03 0.04 0.06 0.11 0.12 0.12 0.16 0.18 0.34 0.33 0.23 0.19 0.16 0.21 0.23 0.18 0.17 0.11 0.08 0.08 0.08 0.07 0.06 0.04 0.05 0.06 0.08 0.11 0.14 0.18 0.26 0.33 0.40 0.54 0.70 0.83
0.01 0.01 0.02 0.03 0.03 0.03 0.04 0.06 0.06 0.05 0.05 0.05 0.06 0.09 0.15 0.23 0.21 0.15 0.13 0.09 0.10 0.12 0.16 0.13 0.09 0.08 0.07 0.07 0.06 0.06 0.05 0.03 0.04 0.06 0.08 0.11 0.15 0.20 0.27 0.35 0.45 0.58 0.74
0.01 0.01 0.03 0.03 0.04 0.05 0.06 0.08 0.09 0.10 0.08 0.05 0.03 0.04 0.09 0.13 0.13 0.12 0.10 0.10 0.11 0.09 0.11 0.10 0.09 0.08 0.08 0.08 0.07 0.06 0.05 0.05 0.05 0.05 0.05 0.07 0.11 0.17 0.23 0.29 0.38 0.52 0.66
0.01 0.02 0.04 0.05 0.06 0.06 0.07 0.09 0.10 0.10 0.09 0.07 0.05 0.05 0.06 0.07 0.07 0.08 0.10 0.13 0.10 0.08 0.07 0.07 0.08 0.09 0.09 0.08 0.07 0.07 0.06 0.06 0.05 0.04 0.04 0.05 0.08 0.13 0.19 0.25 0.32 0.43 0.56
0.01 0.03 0.05 0.06 0.06 0.07 0.09 0.11 0.12 0.12 0.11 0.09 0.08 0.08 0.13 0.14 0.12 0.09 0.10 0.11 0.10 0.08 0.07 0.08 0.08 0.09 0.09 0.09 0.08 0.07 0.07 0.05 0.04 0.04 0.04 0.04 0.06 0.10 0.15 0.20 0.27 0.35 0.46
0.03 0.03 0.04 0.05 0.07 0.09 0.12 0.13 0.14 0.15 0.14 0.12 0.09 0.09 0.21 0.22 0.15 0.10 0.10 0.10 0.12 0.12 0.10 0.10 0.10 0.10 0.09 0.09 0.08 0.07 0.06 0.04 0.04 0.04 0.04 0.04 0.05 0.07 0.10 0.15 0.22 0.30 0.39
0.05 0.05 0.05 0.07 0.09 0.12 0.15 0.15 0.16 0.17 0.16 0.14 0.10 0.08 0.13 0.15 0.13 0.13 0.12 0.11 0.11 0.12 0.12 0.13 0.12 0.11 0.12 0.11 0.10 0.08 0.06 0.04 0.04 0.04 0.04 0.04 0.04 0.05 0.07 0.11 0.17 0.24 0.32
0.05 0.06 0.07 0.09 0.11 0.14 0.16 0.15 0.17 0.18 0.17 0.14 0.13 0.12 0.12 0.12 0.11 0.13 0.13 0.13 0.13 0.13 0.12 0.13 0.14 0.13 0.12 0.11 0.09 0.09 0.08 0.07 0.06 0.06 0.06 0.05 0.05 0.05 0.07 0.10 0.14 0.21 0.30
0.06 0.09 0.11 0.13 0.14 0.16 0.18 0.18 0.18 0.19 0.18 0.17 0.15 0.13 0.13 0.12 0.12 0.12 0.12 0.12 0.13 0.13 0.13 0.15 0.15 0.14 0.13 0.12 0.09 0.07 0.07 0.07 0.07 0.07 0.07 0.07 0.07 0.06 0.08 0.10 0.13 0.18 0.27
0.08 0.11 0.14 0.17 0.20 0.21 0.21 0.20 0.19 0.18 0.18 0.16 0.15 0.14 0.13 0.12 0.11 0.11 0.10 0.10 0.11 0.11 0.11 0.14 0.16 0.17 0.15 0.12 0.10 0.09 0.07 0.07 0.09 0.13 0.15 0.14 0.11 0.09 0.10 0.12 0.13 0.17 0.24
0.10 0.13 0.16 0.20 0.23 0.23 0.24 0.24 0.21 0.20 0.19 0.17 0.15 0.15 0.14 0.13 0.12 0.11 0.11 0.12 0.13 0.11 0.11 0.13 0.15 0.18 0.15 0.13 0.12 0.10 0.09 0.10 0.13 0.15 0.17 0.17 0.13 0.10 0.11 0.13 0.13 0.17 0.22

GEFSGL_prec_meanprecacc_078.txt.gz
Total_Precipitation_Accumulation
0.00 0.00 0.00 0.00 0.00 0.00 0.01 0.01 0.01 0.01 0.01 0.01 0.03 0.06 0.08 0.11 0.13 0.14 0.17 0.22 0.25 0.27 0.32 0.39 0.43 0.46 0.50 0.48 0.46 0.42 0.40 0.44 0.42 0.11 0.03 0.05 0.14 0.20 0.21 0.21 0.23 0.22 0.19
0.00 0.00 0.00 0.00 0.00 0.00 0.01 0.01 0.01 0.01 0.01 0.02 0.06 0.12 0.15 0.18 0.18 0.19 0.22 0.32 0.44 0.44 0.42 0.43 0.46 0.50 0.56 0.58 0.59 0.53 0.43 0.37 0.39 0.24 0.07 0.05 0.11 0.21 0.27 0.26 0.25 0.23 0.20
0.00 0.00 0.00 0.00 0.00 0.00 0.00 0.00 0.00 0.01 0.01 0.02 0.08 0.19 0.25 0.30 0.30 0.28 0.31 0.37 0.52 0.65 0.68 0.68 0.63 0.58 0.60 0.59 0.63 0.60 0.50 0.40 0.36 0.33 0.17 0.09 0.11 0.20 0.32 0.35 0.31 0.27 0.23
0.00 0.00 0.00 0.00 0.00 0.00 0.00 0.00 0.00 0.01 0.02 0.04 0.09 0.19 0.29 0.41 0.53 0.55 0.58 0.55 0.58 0.67 0.74 0.79 0.80 0.82 0.77 0.72 0.70 0.65 0.60 0.55 0.46 0.42 0.30 0.18 0.15 0.21 0.37 0.45 0.39 0.33 0.29
0.00 0.00 0.00 0.00 0.00 0.00 0.00 0.00 0.00 0.01 0.02 0.05 0.06 0.11 0.21 0.48 0.88 0.91 0.82 0.74 0.62 0.54 0.53 0.57 0.67 0.82 0.89 0.93 0.96 0.86 0.80 0.80 0.69 0.58 0.47 0.34 0.27 0.31 0.43 0.49 0.54 0.47 0.39
0.00 0.00 0.00 0.00 0.00 0.00 0.00 0.00 0.00 0.01 0.02 0.04 0.04 0.06 0.14 0.42 0.84 0.91 0.69 0.51 0.38 0.35 0.36 0.35 0.38 0.54 0.65 0.74 0.86 0.87 0.90 1.02 1.03 0.89 0.67 0.51 0.37 0.36 0.43 0.56 0.66 0.69 0.58
0.00 0.00 0.00 0.00 0.00 0.00 0.00 0.00 0.00 0.01 0.02 0.04 0.03 0.03 0.06 0.26 0.65 0.75 0.52 0.30 0.20 0.19 0.20 0.20 0.22 0.31 0.41 0.46 0.55 0.63 0.72 0.86 1.03 1.08 0.98 0.71 0.51 0.40 0.50 0.61 0.66 0.71 0.64
0.00 0.00 0.00 0.00 0.00 0.00 0.00 0.00 0.01 0.01 0.02 0.03 0.03 0.02 0.03 0.12 0.49 0.67 0.49 0.23 0.15 0.13 0.15 0.14 0.11 0.16 0.29 0.41 0.51 0.53 0.53 0.65 0.92 1.13 1.25 1.07 0.83 0.67 0.71 0.82 0.85 0.79 0.73
0.00 0.00 0.00 0.00 0.00 0.00 0.01 0.01 0.01 0.01 0.01 0.02 0.02 0.02 0.02 0.04 0.32 0.66 0.56 0.25 0.14 0.11 0.14 0.15 0.10 0.09 0.22 0.33 0.36 0.34 0.32 0.42 0.58 0.83 0.99 1.01 0.92 0.88 0.90 1.05 1.10 1.00 0.99
0.00 0.00 0.00 0.00 0.00 0.01 0.01 0.01 0.01 0.02 0.02 0.02 0.01 0.01 0.01 0.02 0.17 0.57 0.71 0.32 0.15 0.11 0.10 0.11 0.15 0.16 0.22 0.24 0.23 0.23 0.27 0.31 0.33 0.40 0.49 0.58 0.66 0.72 0.86 1.06 1.16 1.11 1.14
0.00 0.00 0.00 0.00 0.00 0.01 0.01 0.01 0.01 0.01 0.02 0.01 0.01 0.01 0.01 0.02 0.06 0.35 0.72 0.53 0.25 0.15 0.13 0.13 0.13 0.17 0.19 0.18 0.18 0.20 0.26 0.24 0.22 0.29 0.34 0.39 0.48 0.61 0.75 0.96 1.16 1.21 1.22
0.00 0.00 0.00 0.00 0.01 0.01 0.01 0.02 0.02 0.02 0.02 0.02 0.02 0.02 0.02 0.02 0.06 0.22 0.42 0.50 0.35 0.18 0.14 0.12 0.13 0.12 0.12 0.13 0.14 0.18 0.17 0.17 0.24 0.27 0.27 0.30 0.39 0.52 0.66 0.83 1.02 1.14 1.18
0.00 0.00 0.00 0.00 0.00 0.01 0.02 0.02 0.02 0.02 0.04 0.05 0.05 0.04 0.03 0.04 0.10 0.21 0.21 0.22 0.26 0.22 0.23 0.19 0.11 0.09 0.09 0.09 0.11 0.15 0.16 0.20 0.27 0.28 0.24 0.25 0.33 0.47 0.55 0.65 0.78 0.94 1.04
0.00 0.00 0.00 0.01 0.01 0.02 0.02 0.02 0.03 0.05 0.14 0.16 0.12 0.07 0.06 0.10 0.23 0.38 0.24 0.12 0.14 0.18 0.20 0.15 0.09 0.09 0.09 0.08 0.06 0.08 0.12 0.17 0.21 0.23 0.21 0.21 0.24 0.34 0.46 0.58 0.70 0.82 0.95
0.00 0.00 0.00 0.01 0.02 0.02 0.02 0.03 0.05 0.07 0.20 0.28 0.19 0.18 0.21 0.34 0.42 0.44 0.32 0.24 0.25 0.27 0.21 0.16 0.12 0.12 0.12 0.11 0.08 0.06 0.07 0.11 0.15 0.17 0.18 0.20 0.24 0.30 0.39 0.50 0.66 0.78 0.90
0.00 0.00 0.01 0.02 0.02 0.03 0.03 0.03 0.04 0.06 0.11 0.13 0.13 0.18 0.20 0.37 0.36 0.26 0.22 0.20 0.25 0.27 0.22 0.21 0.14 0.11 0.10 0.09 0.09 0.07 0.06 0.07 0.09 0.12 0.16 0.20 0.23 0.30 0.36 0.44 0.58 0.74 0.86
0.01 0.01 0.02 0.03 0.03 0.03 0.04 0.06 0.07 0.06 0.05 0.05 0.07 0.10 0.17 0.25 0.23 0.18 0.15 0.12 0.13 0.15 0.19 0.16 0.12 0.10 0.09 0.09 0.08 0.07 0.06 0.05 0.07 0.10 0.13 0.16 0.20 0.25 0.31 0.38 0.48 0.62 0.77
0.01 0.02 0.03 0.03 0.05 0.06 0.07 0.09 0.11 0.12 0.10 0.05 0.04 0.05 0.10 0.14 0.15 0.14 0.12 0.13 0.13 0.11 0.12 0.12 0.11 0.10 0.10 0.10 0.09 0.08 0.07 0.08 0.09 0.09 0.10 0.12 0.16 0.21 0.27 0.33 0.41 0.54 0.68
0.01 0.02 0.04 0.05 0.06 0.07 0.09 0.10 0.11 0.12 0.11 0.08 0.06 0.05 0.06 0.08 0.08 0.09 0.11 0.15 0.13 0.10 0.09 0.09 0.10 0.11 0.11 0.10 0.09 0.09 0.09 0.08 0.08 0.08 0.08 0.09 0.12 0.17 0.22 0.27 0.35 0.45 0.58
0.01 0.03 0.05 0.06 0.07 0.08 0.10 0.12 0.14 0.15 0.14 0.11 0.10 0.09 0.14 0.16 0.14 0.11 0.11 0.13 0.13 0.10 0.08 0.09 0.10 0.10 0.11 0.11 0.10 0.10 0.09 0.08 0.08 0.08 0.08 0.08 0.09 0.13 0.18 0.23 0.30 0.37 0.48
0.03 0.03 0.05 0.06 0.08 0.10 0.14 0.16 0.17 0.19 0.17 0.14 0.10 0.10 0.24 0.27 0.18 0.12 0.12 0.13 0.14 0.14 0.12 0.11 0.11 0.11 0.11 0.11 0.10 0.09 0.08 0.07 0.06 0.06 0.07 0.07 0.08 0.10 0.13 0.18 0.24 0.32 0.41
0.05 0.06 0.06 0.08 0.11 0.14 0.17 0.18 0.19 0.20 0.18 0.16 0.12 0.09 0.14 0.16 0.15 0.15 0.14 0.13 0.13 0.14 0.14 0.15 0.14 0.13 0.14 0.13 0.12 0.10 0.08 0.06 0.06 0.06 0.06 0.06 0.06 0.07 0.09 0.13 0.18 0.26 0.33
0.07 0.08 0.09 0.10 0.12 0.15 0.17 0.17 0.19 0.20 0.19 0.16 0.15 0.14 0.13 0.14 0.14 0.15 0.15 0.14 0.14 0.14 0.14 0.15 0.16 0.15 0.14 0.13 0.11 0.11 0.10 0.08 0.07 0.07 0.07 0.07 0.06 0.06 0.08 0.11 0.15 0.22 0.31
0.08 0.10 0.13 0.14 0.15 0.18 0.20 0.20 0.20 0.20 0.20 0.19 0.17 0.15 0.15 0.14 0.13 0.13 0.13 0.13 0.14 0.14 0.14 0.16 0.16 0.16 0.15 0.13 0.10 0.09 0.09 0.08 0.09 0.09 0.08 0.09 0.08 0.08 0.09 0.12 0.14 0.20 0.29
0.10 0.12 0.15 0.18 0.21 0.23 0.23 0.22 0.21 0.20 0.20 0.18 0.17 0.16 0.15 0.14 0.13 0.12 0.11 0.11 0.12 0.12 0.12 0.15 0.17 0.18 0.16 0.13 0.11 0.10 0.09 0.08 0.10 0.14 0.17 0.16 0.13 0.10 0.11 0.13 0.15 0.19 0.26
0.11 0.14 0.18 0.22 0.25 0.26 0.27 0.27 0.24 0.22 0.21 0.18 0.17 0.16 0.16 0.15 0.14 0.12 0.12 0.13 0.14 0.12 0.12 0.14 0.16 0.18 0.16 0.14 0.13 0.11 0.10 0.11 0.14 0.17 0.19 0.19 0.15 0.12 0.12 0.15 0.15 0.18 0.24

GEFSGL_prec_meanprecacc_084.txt.gz
Total_Precipitation_Accumulation
0.00 0.00 0.00 0.00 0.00 0.00 0.01 0.01 0.01 0.01 0.01 0.01 0.03 0.06 0.08 0.11 0.13 0.14 0.17 0.22 0.25 0.27 0.32 0.39 0.43 0.46 0.50 0.48 0.46 0.42 0.40 0.44 0.42 0.11 0.03 0.05 0.14 0.20 0.21 0.21 0.23 0.22 0.19
0.00 0.00 0.00 0.00 0.00 0.00 0.01 0.01 0.01 0.01 0.01 0.02 0.06 0.12 0.15 0.18 0.18 0.19 0.22 0.32 0.44 0.44 0.42 0.43 0.46 0.50 0.56 0.58 0.59 0.53 0.43 0.37 0.39 0.25 0.07 0.05 0.11 0.21 0.27 0.26 0.25 0.23 0.20
0.00 0.00 0.00 0.00 0.00 0.00 0.00 0.00 0.00 0.01 0.01 0.02 0.08 0.19 0.25 0.30 0.30 0.28 0.31 0.37 0.52 0.65 0.68 0.68 0.63 0.58 0.60 0.60 0.63 0.60 0.51 0.41 0.37 0.33 0.17 0.09 0.11 0.20 0.33 0.36 0.32 0.28 0.23
0.00 0.00 0.00 0.00 0.00 0.00 0.00 0.00 0.00 0.01 0.02 0.04 0.09 0.19 0.29 0.41 0.53 0.55 0.58 0.55 0.58 0.67 0.74 0.79 0.80 0.82 0.77 0.72 0.70 0.66 0.61 0.56 0.47 0.43 0.30 0.18 0.16 0.21 0.38 0.46 0.40 0.33 0.30
0.00 0.00 0.00 0.00 0.00 0.00 0.00 0.00 0.00 0.01 0.02 0.05 0.06 0.11 0.21 0.48 0.88 0.91 0.82 0.74 0.62 0.54 0.53 0.57 0.67 0.82 0.90 0.94 0.98 0.88 0.81 0.82 0.72 0.61 0.49 0.35 0.28 0.32 0.44 0.50 0.56 0.49 0.42
0.00 0.00 0.00 0.00 0.00 0.00 0.00 0.00 0.00 0.01 0.02 0.04 0.04 0.06 0.14 0.42 0.84 0.91 0.70 0.52 0.38 0.35 0.36 0.36 0.39 0.55 0.66 0.76 0.89 0.90 0.95 1.07 1.09 0.95 0.72 0.54 0.38 0.37 0.45 0.58 0.70 0.74 0.62
0.00 0.00 0.00 0.00 0.00 0.00 0.00 0.00 0.00 0.01 0.02 0.04 0.03 0.03 0.06 0.26 0.65 0.75 0.53 0.31 0.21 0.20 0.21 0.21 0.23 0.32 0.42 0.47 0.56 0.65 0.75 0.90 1.08 1.14 1.05 0.76 0.54 0.42 0.53 0.65 0.69 0.74 0.66
0.00 0.00 0.00 0.00 0.00 0.00 0.00 0.00 0.01 0.01 0.02 0.03 0.03 0.02 0.03 0.12 0.49 0.67 0.49 0.24 0.15 0.14 0.15 0.14 0.12 0.17 0.30 0.42 0.52 0.54 0.54 0.66 0.94 1.16 1.29 1.11 0.86 0.71 0.77 0.87 0.89 0.84 0.77
0.00 0.00 0.00 0.00 0.00 0.00 0.01 0.01 0.01 0.01 0.01 0.02 0.02 0.02 0.02 0.04 0.32 0.66 0.57 0.26 0.14 0.11 0.14 0.15 0.11 0.09 0.23 0.35 0.38 0.36 0.33 0.42 0.58 0.84 1.02 1.04 0.96 0.95 0.98 1.15 1.21 1.12 1.07
0.00 0.00 0.00 0.00 0.00 0.01 0.01 0.01 0.01 0.02 0.02 0.02 0.01 0.01 0.01 0.02 0.17 0.58 0.72 0.33 0.16 0.12 0.11 0.12 0.16 0.18 0.25 0.28 0.26 0.27 0.30 0.33 0.34 0.41 0.50 0.59 0.69 0.77 0.95 1.19 1.28 1.21 1.20
0.00 0.00 0.00 0.00 0.00 0.01 0.01 0.01 0.01 0.01 0.02 0.01 0.01 0.01 0.01 0.02 0.06 0.35 0.73 0.54 0.27 0.17 0.15 0.15 0.15 0.19 0.21 0.21 0.22 0.23 0.30 0.28 0.25 0.32 0.37 0.41 0.50 0.63 0.78 1.02 1.25 1.32 1.30
0.00 0.00 0.00 0.00 0.01 0.01 0.01 0.02 0.02 0.02 0.02 0.02 0.02 0.02 0.02 0.02 0.06 0.22 0.43 0.52 0.38 0.20 0.17 0.14 0.14 0.14 0.15 0.16 0.18 0.22 0.22 0.22 0.29 0.32 0.31 0.34 0.42 0.54 0.67 0.86 1.07 1.22 1.25
0.00 0.00 0.00 0.00 0.00 0.01 0.02 0.02 0.02 0.02 0.04 0.05 0.05 0.04 0.03 0.04 0.10 0.22 0.23 0.24 0.28 0.24 0.25 0.21 0.13 0.12 0.13 0.12 0.14 0.18 0.20 0.24 0.32 0.33 0.28 0.27 0.35 0.48 0.57 0.68 0.82 1.00 1.12
0.00 0.00 0.00 0.01 0.01 0.02 0.02 0.02 0.03 0.05 0.14 0.17 0.13 0.09 0.08 0.11 0.24 0.39 0.26 0.14 0.16 0.21 0.22 0.18 0.12 0.12 0.11 0.09 0.08 0.10 0.14 0.20 0.24 0.26 0.24 0.23 0.26 0.37 0.49 0.61 0.74 0.88 1.03
0.00 0.00 0.00 0.01 0.02 0.02 0.02 0.03 0.05 0.07 0.20 0.29 0.21 0.20 0.25 0.38 0.44 0.47 0.35 0.27 0.29 0.30 0.24 0.19 0.14 0.13 0.14 0.13 0.10 0.07 0.08 0.13 0.17 0.19 0.21 0.23 0.26 0.33 0.42 0.53 0.71 0.83 0.96
0.00 0.00 0.01 0.02 0.02 0.03 0.03 0.03 0.04 0.06 0.11 0.13 0.14 0.19 0.22 0.39 0.38 0.29 0.25 0.23 0.27 0.30 0.26 0.24 0.17 0.13 0.12 0.11 0.10 0.08 0.07 0.09 0.11 0.14 0.19 0.23 0.26 0.33 0.39 0.47 0.62 0.79 0.90
0.01 0.01 0.02 0.03 0.03 0.03 0.04 0.07 0.08 0.06 0.05 0.06 0.07 0.10 0.18 0.26 0.25 0.20 0.18 0.14 0.14 0.16 0.21 0.18 0.13 0.11 0.10 0.10 0.09 0.09 0.07 0.06 0.09 0.13 0.16 0.19 0.23 0.28 0.35 0.42 0.52 0.66 0.81
0.01 0.02 0.03 0.04 0.05 0.06 0.08 0.10 0.12 0.13 0.11 0.06 0.04 0.05 0.10 0.15 0.16 0.15 0.14 0.14 0.13 0.11 0.13 0.13 0.12 0.11 0.11 0.11 0.10 0.09 0.09 0.09 0.11 0.12 0.12 0.14 0.19 0.24 0.30 0.35 0.43 0.57 0.71
0.01 0.02 0.04 0.05 0.06 0.08 0.09 0.11 0.12 0.13 0.12 0.09 0.06 0.05 0.06 0.08 0.09 0.09 0.12 0.16 0.15 0.11 0.10 0.10 0.11 0.12 0.12 0.11 0.11 0.10 0.10 0.10 0.09 0.10 0.11 0.12 0.15 0.20 0.25 0.30 0.37 0.47 0.62
0.01 0.03 0.05 0.07 0.08 0.09 0.11 0.13 0.15 0.16 0.15 0.13 0.10 0.10 0.15 0.18 0.15 0.11 0.11 0.14 0.14 0.12 0.10 0.10 0.11 0.11 0.12 0.12 0.12 0.11 0.11 0.10 0.09 0.10 0.09 0.09 0.11 0.16 0.21 0.26 0.33 0.40 0.51
0.03 0.03 0.05 0.06 0.08 0.11 0.15 0.17 0.19 0.20 0.19 0.15 0.11 0.10 0.25 0.30 0.20 0.14 0.13 0.14 0.16 0.15 0.13 0.12 0.12 0.12 0.12 0.12 0.12 0.11 0.10 0.08 0.07 0.08 0.08 0.08 0.09 0.12 0.15 0.20 0.26 0.34 0.43
0.05 0.06 0.07 0.09 0.12 0.14 0.18 0.19 0.21 0.22 0.20 0.17 0.13 0.10 0.15 0.18 0.16 0.16 0.15 0.14 0.14 0.15 0.16 0.16 0.15 0.14 0.15 0.15 0.13 0.12 0.09 0.08 0.07 0.08 0.08 0.07 0.08 0.09 0.11 0.15 0.20 0.27 0.35
0.07 0.09 0.10 0.11 0.13 0.16 0.18 0.18 0.20 0.21 0.20 0.17 0.16 0.15 0.14 0.15 0.15 0.16 0.16 0.15 0.15 0.15 0.14 0.16 0.17 0.15 0.14 0.14 0.12 0.12 0.12 0.09 0.08 0.08 0.09 0.08 0.07 0.07 0.09 0.12 0.16 0.23 0.32
0.09 0.12 0.14 0.15 0.16 0.18 0.20 0.21 0.21 0.21 0.21 0.20 0.18 0.16 0.16 0.15 0.15 0.14 0.14 0.14 0.15 0.15 0.15 0.17 0.17 0.16 0.15 0.14 0.11 0.09 0.09 0.10 0.10 0.10 0.10 0.10 0.10 0.09 0.10 0.13 0.15 0.21 0.30
0.11 0.13 0.16 0.19 0.22 0.24 0.24 0.23 0.22 0.21 0.21 0.19 0.18 0.17 0.16 0.15 0.14 0.12 0.11 0.12 0.12 0.12 0.12 0.15 0.18 0.18 0.16 0.14 0.12 0.11 0.09 0.09 0.12 0.16 0.19 0.18 0.15 0.12 0.13 0.15 0.17 0.20 0.27
0.11 0.14 0.18 0.22 0.26 0.27 0.29 0.28 0.25 0.23 0.22 0.20 0.18 0.18 0.17 0.16 0.14 0.13 0.12 0.13 0.14 0.13 0.13 0.14 0.17 0.19 0.17 0.14 0.13 0.12 0.11 0.12 0.16 0.19 0.22 0.23 0.18 0.14 0.14 0.17 0.17 0.20 0.26

GEFSGL_prec_meanprecacc_090.txt.gz
Total_Precipitation_Accumulation
0.00 0.00 0.00 0.00 0.00 0.00 0.01 0.01 0.01 0.01 0.01 0.01 0.03 0.06 0.08 0.11 0.13 0.14 0.17 0.22 0.25 0.27 0.32 0.39 0.43 0.46 0.50 0.48 0.46 0.42 0.40 0.45 0.42 0.11 0.03 0.05 0.14 0.20 0.21 0.21 0.23 0.22 0.19
0.00 0.00 0.00 0.00 0.00 0.00 0.01 0.01 0.01 0.01 0.01 0.02 0.06 0.12 0.15 0.18 0.18 0.19 0.22 0.32 0.44 0.44 0.42 0.44 0.46 0.50 0.56 0.58 0.59 0.53 0.43 0.37 0.40 0.25 0.07 0.05 0.11 0.21 0.27 0.26 0.25 0.23 0.20
0.00 0.00 0.00 0.00 0.00 0.00 0.00 0.00 0.00 0.01 0.01 0.02 0.08 0.19 0.25 0.30 0.30 0.28 0.31 0.37 0.52 0.65 0.68 0.68 0.63 0.58 0.60 0.60 0.63 0.60 0.51 0.41 0.37 0.34 0.18 0.09 0.11 0.21 0.33 0.36 0.32 0.28 0.24
0.00 0.00 0.00 0.00 0.00 0.00 0.00 0.00 0.00 0.01 0.02 0.04 0.09 0.19 0.29 0.41 0.53 0.55 0.58 0.55 0.58 0.67 0.74 0.79 0.80 0.82 0.78 0.72 0.71 0.66 0.61 0.57 0.49 0.44 0.32 0.20 0.17 0.22 0.38 0.46 0.41 0.34 0.30
0.00 0.00 0.00 0.00 0.00 0.00 0.00 0.00 0.00 0.01 0.02 0.05 0.06 0.11 0.21 0.48 0.88 0.91 0.82 0.74 0.62 0.54 0.54 0.57 0.67 0.83 0.91 0.96 1.00 0.90 0.84 0.86 0.76 0.66 0.53 0.39 0.30 0.34 0.45 0.51 0.57 0.50 0.42
0.00 0.00 0.00 0.00 0.00 0.00 0.00 0.00 0.00 0.01 0.02 0.04 0.04 0.06 0.14 0.42 0.84 0.91 0.70 0.52 0.38 0.36 0.37 0.36 0.39 0.55 0.67 0.78 0.92 0.94 0.99 1.13 1.15 1.02 0.80 0.61 0.43 0.40 0.47 0.61 0.73 0.77 0.64
0.00 0.00 0.00 0.00 0.00 0.00 0.00 0.00 0.00 0.01 0.02 0.04 0.03 0.03 0.06 0.26 0.65 0.75 0.53 0.31 0.21 0.20 0.21 0.22 0.23 0.32 0.43 0.48 0.58 0.67 0.77 0.93 1.12 1.19 1.11 0.81 0.58 0.45 0.57 0.71 0.74 0.78 0.69
0.00 0.00 0.00 0.00 0.00 0.00 0.00 0.00 0.01 0.01 0.02 0.03 0.03 0.02 0.03 0.12 0.50 0.67 0.49 0.24 0.15 0.14 0.16 0.15 0.12 0.17 0.30 0.43 0.53 0.55 0.55 0.67 0.95 1.18 1.31 1.13 0.88 0.73 0.79 0.91 0.94 0.89 0.82
0.00 0.00 0.00 0.00 0.00 0.00 0.01 0.01 0.01 0.01 0.01 0.02 0.02 0.02 0.02 0.04 0.32 0.66 0.57 0.26 0.15 0.12 0.14 0.16 0.11 0.10 0.24 0.38 0.41 0.39 0.35 0.44 0.60 0.87 1.05 1.07 1.00 1.00 1.05 1.25 1.33 1.25 1.18
0.00 0.00 0.00 0.00 0.00 0.01 0.01 0.01 0.01 0.02 0.02 0.02 0.01 0.01 0.01 0.02 0.17 0.58 0.72 0.33 0.17 0.13 0.12 0.13 0.17 0.20 0.27 0.32 0.30 0.31 0.35 0.35 0.36 0.42 0.52 0.61 0.71 0.79 0.99 1.25 1.37 1.34 1.34
0.00 0.00 0.00 0.00 0.00 0.01 0.01 0.01 0.01 0.01 0.02 0.01 0.01 0.01 0.01 0.02 0.06 0.35 0.73 0.55 0.28 0.19 0.17 0.16 0.16 0.21 0.24 0.25 0.26 0.27 0.34 0.32 0.29 0.36 0.40 0.44 0.52 0.65 0.79 1.03 1.28 1.37 1.40
0.00 0.00 0.00 0.00 0.01 0.01 0.01 0.02 0.02 0.02 0.02 0.02 0.02 0.02 0.02 0.02 0.06 0.23 0.44 0.54 0.40 0.23 0.19 0.15 0.15 0.16 0.18 0.20 0.22 0.26 0.26 0.27 0.33 0.36 0.35 0.38 0.45 0.57 0.69 0.87 1.09 1.24 1.28
0.00 0.00 0.00 0.00 0.00 0.01 0.02 0.02 0.02 0.02 0.04 0.05 0.05 0.04 0.03 0.04 0.10 0.22 0.24 0.26 0.30 0.26 0.26 0.23 0.16 0.15 0.15 0.14 0.15 0.20 0.23 0.26 0.34 0.36 0.32 0.30 0.38 0.51 0.59 0.70 0.85 1.03 1.15
0.00 0.00 0.00 0.01 0.01 0.02 0.02 0.02 0.03 0.05 0.14 0.17 0.14 0.10 0.09 0.11 0.24 0.40 0.27 0.15 0.18 0.23 0.23 0.19 0.14 0.13 0.12 0.10 0.09 0.11 0.15 0.21 0.27 0.30 0.27 0.25 0.28 0.39 0.51 0.64 0.78 0.92 1.08
0.00 0.00 0.00 0.01 0.02 0.02 0.02 0.03 0.05 0.07 0.20 0.30 0.22 0.22 0.27 0.40 0.45 0.49 0.38 0.30 0.31 0.33 0.27 0.21 0.16 0.14 0.15 0.13 0.10 0.08 0.09 0.13 0.18 0.21 0.23 0.25 0.28 0.36 0.44 0.56 0.75 0.88 1.02
0.00 0.00 0.01 0.02 0.02 0.03 0.03 0.03 0.04 0.06 0.11 0.13 0.14 0.20 0.23 0.40 0.40 0.31 0.27 0.25 0.30 0.32 0.29 0.27 0.18 0.14 0.13 0.12 0.11 0.09 0.07 0.09 0.12 0.16 0.21 0.25 0.29 0.36 0.43 0.50 0.66 0.84 0.95
0.01 0.01 0.02 0.03 0.03 0.03 0.04 0.07 0.08 0.06 0.05 0.06 0.07 0.11 0.18 0.27 0.26 0.21 0.20 0.16 0.16 0.18 0.22 0.19 0.14 0.12 0.12 0.11 0.10 0.10 0.09 0.07 0.10 0.15 0.18 0.21 0.26 0.31 0.38 0.46 0.56 0.70 0.84
0.01 0.02 0.03 0.04 0.05 0.06 0.08 0.10 0.13 0.13 0.11 0.06 0.04 0.05 0.11 0.16 0.17 0.16 0.15 0.16 0.14 0.11 0.14 0.14 0.14 0.12 0.12 0.12 0.11 0.11 0.10 0.10 0.12 0.13 0.14 0.16 0.21 0.27 0.33 0.38 0.46 0.60 0.74
0.01 0.02 0.04 0.05 0.07 0.08 0.09 0.11 0.12 0.13 0.13 0.10 0.06 0.05 0.07 0.09 0.09 0.10 0.12 0.17 0.16 0.12 0.10 0.11 0.12 0.13 0.13 0.12 0.12 0.11 0.11 0.11 0.10 0.11 0.12 0.13 0.16 0.23 0.28 0.32 0.39 0.50 0.65
0.01 0.03 0.05 0.07 0.08 0.09 0.11 0.14 0.16 0.17 0.16 0.13 0.11 0.10 0.15 0.18 0.16 0.11 0.11 0.14 0.15 0.13 0.10 0.11 0.11 0.12 0.13 0.13 0.13 0.12 0.12 0.10 0.10 0.11 0.11 0.11 0.13 0.18 0.23 0.28 0.35 0.43 0.54
0.03 0.04 0.05 0.07 0.08 0.12 0.15 0.18 0.20 0.22 0.21 0.16 0.11 0.11 0.26 0.32 0.22 0.14 0.13 0.14 0.17 0.16 0.14 0.13 0.13 0.13 0.13 0.13 0.12 0.12 0.11 0.09 0.08 0.09 0.09 0.09 0.11 0.13 0.16 0.22 0.28 0.36 0.45
0.05 0.06 0.07 0.09 0.12 0.15 0.19 0.20 0.22 0.23 0.21 0.18 0.13 0.10 0.16 0.18 0.17 0.17 0.16 0.14 0.15 0.16 0.17 0.18 0.16 0.15 0.15 0.15 0.15 0.13 0.11 0.09 0.08 0.09 0.09 0.09 0.09 0.10 0.13 0.16 0.22 0.29 0.37
0.07 0.09 0.11 0.11 0.14 0.17 0.19 0.18 0.21 0.22 0.21 0.18 0.17 0.16 0.15 0.16 0.15 0.16 0.17 0.16 0.16 0.16 0.15 0.17 0.18 0.16 0.15 0.14 0.13 0.14 0.13 0.11 0.09 0.10 0.11 0.10 0.09 0.09 0.10 0.14 0.18 0.25 0.34
0.10 0.12 0.15 0.16 0.17 0.19 0.21 0.21 0.21 0.22 0.22 0.21 0.18 0.17 0.17 0.16 0.15 0.15 0.15 0.15 0.15 0.15 0.15 0.18 0.18 0.17 0.16 0.14 0.12 0.10 0.10 0.11 0.12 0.13 0.12 0.13 0.12 0.11 0.12 0.15 0.17 0.22 0.31
0.11 0.14 0.17 0.20 0.23 0.25 0.25 0.24 0.22 0.22 0.21 0.20 0.18 0.18 0.17 0.16 0.14 0.13 0.12 0.12 0.13 0.13 0.13 0.16 0.18 0.19 0.17 0.15 0.13 0.11 0.10 0.10 0.13 0.19 0.23 0.22 0.18 0.14 0.15 0.17 0.19 0.22 0.29
0.12 0.15 0.19 0.23 0.26 0.28 0.30 0.29 0.26 0.23 0.23 0.20 0.19 0.19 0.18 0.17 0.15 0.14 0.13 0.14 0.15 0.14 0.13 0.14 0.17 0.19 0.17 0.15 0.14 0.13 0.12 0.13 0.17 0.21 0.26 0.28 0.23 0.17 0.17 0.20 0.20 0.23 0.28

GEFSGL_prec_meanprecacc_096.txt.gz
Total_Precipitation_Accumulation
0.00 0.00 0.00 0.00 0.00 0.00 0.01 0.01 0.01 0.01 0.01 0.01 0.03 0.06 0.08 0.11 0.13 0.14 0.17 0.22 0.25 0.27 0.32 0.39 0.43 0.46 0.50 0.48 0.46 0.42 0.40 0.45 0.43 0.11 0.03 0.06 0.14 0.20 0.21 0.21 0.23 0.22 0.19
0.00 0.00 0.00 0.00 0.00 0.00 0.01 0.01 0.01 0.01 0.01 0.02 0.06 0.12 0.15 0.18 0.18 0.19 0.22 0.32 0.44 0.44 0.42 0.44 0.46 0.50 0.56 0.58 0.59 0.53 0.43 0.37 0.41 0.26 0.07 0.05 0.11 0.21 0.27 0.26 0.25 0.23 0.20
0.00 0.00 0.00 0.00 0.00 0.00 0.00 0.00 0.00 0.01 0.01 0.02 0.08 0.19 0.25 0.30 0.30 0.28 0.31 0.37 0.52 0.65 0.68 0.68 0.63 0.58 0.60 0.60 0.63 0.61 0.51 0.41 0.38 0.35 0.19 0.09 0.11 0.21 0.33 0.36 0.32 0.28 0.24
0.00 0.00 0.00 0.00 0.00 0.00 0.00 0.00 0.00 0.01 0.02 0.04 0.09 0.19 0.29 0.41 0.53 0.55 0.58 0.55 0.58 0.67 0.74 0.79 0.80 0.82 0.78 0.73 0.71 0.66 0.62 0.57 0.49 0.46 0.33 0.20 0.17 0.23 0.39 0.47 0.41 0.34 0.31
0.00 0.00 0.00 0.00 0.00 0.00 0.00 0.00 0.00 0.01 0.02 0.05 0.06 0.11 0.21 0.48 0.88 0.91 0.82 0.74 0.62 0.54 0.54 0.57 0.67 0.83 0.92 0.97 1.01 0.91 0.85 0.88 0.79 0.69 0.57 0.42 0.33 0.36 0.47 0.53 0.59 0.51 0.43
0.00 0.00 0.00 0.00 0.00 0.00 0.00 0.00 0.00 0.01 0.02 0.04 0.04 0.06 0.14 0.42 0.84 0.91 0.70 0.52 0.38 0.36 0.37 0.36 0.39 0.56 0.67 0.78 0.93 0.96 1.01 1.16 1.19 1.07 0.85 0.66 0.46 0.42 0.49 0.63 0.75 0.80 0.67
0.00 0.00 0.00 0.00 0.00 0.00 0.00 0.00 0.00 0.01 0.02 0.04 0.03 0.03 0.06 0.26 0.65 0.75 0.53 0.31 0.21 0.20 0.21 0.22 0.23 0.32 0.43 0.48 0.58 0.68 0.78 0.95 1.15 1.23 1.15 0.84 0.60 0.47 0.59 0.73 0.77 0.81 0.71
0.00 0.00 0.00 0.00 0.00 0.00 0.00 0.00 0.01 0.01 0.02 0.03 0.03 0.02 0.03 0.12 0.50 0.67 0.49 0.24 0.15 0.14 0.16 0.15 0.12 0.17 0.31 0.43 0.53 0.56 0.56 0.68 0.96 1.20 1.33 1.14 0.89 0.75 0.82 0.95 0.99 0.96 0.87
0.00 0.00 0.00 0.00 0.00 0.00 0.01 0.01 0.01 0.01 0.01 0.02 0.02 0.02 0.02 0.04 0.32 0.66 0.58 0.26 0.15 0.12 0.14 0.16 0.12 0.10 0.25 0.40 0.44 0.41 0.37 0.45 0.61 0.88 1.08 1.10 1.05 1.05 1.12 1.33 1.44 1.37 1.29
0.00 0.00 0.00 0.00 0.00 0.01 0.01 0.01 0.01 0.02 0.02 0.02 0.01 0.01 0.01 0.02 0.17 0.58 0.72 0.34 0.17 0.13 0.12 0.13 0.18 0.21 0.30 0.35 0.33 0.33 0.38 0.37 0.37 0.44 0.54 0.63 0.73 0.81 1.01 1.28 1.42 1.43 1.43
0.00 0.00 0.00 0.00 0.00 0.01 0.01 0.01 0.01 0.01 0.02 0.01 0.01 0.01 0.01 0.02 0.06 0.35 0.73 0.56 0.28 0.20 0.18 0.17 0.17 0.22 0.27 0.28 0.30 0.30 0.37 0.35 0.33 0.40 0.43 0.46 0.53 0.65 0.79 1.04 1.30 1.42 1.48
0.00 0.00 0.00 0.00 0.01 0.01 0.01 0.02 0.02 0.02 0.02 0.02 0.02 0.02 0.02 0.02 0.06 0.23 0.45 0.55 0.42 0.24 0.20 0.16 0.16 0.18 0.21 0.24 0.25 0.28 0.29 0.31 0.36 0.38 0.37 0.39 0.46 0.57 0.70 0.88 1.10 1.26 1.32
0.00 0.00 0.00 0.00 0.00 0.01 0.02 0.02 0.02 0.02 0.04 0.05 0.05 0.04 0.03 0.04 0.10 0.22 0.24 0.26 0.31 0.28 0.27 0.24 0.18 0.18 0.18 0.15 0.16 0.21 0.25 0.28 0.36 0.38 0.33 0.31 0.38 0.51 0.60 0.71 0.85 1.04 1.16
0.00 0.00 0.00 0.01 0.01 0.02 0.02 0.02 0.03 0.05 0.14 0.17 0.14 0.10 0.09 0.11 0.25 0.40 0.27 0.16 0.20 0.25 0.25 0.21 0.17 0.16 0.14 0.11 0.10 0.12 0.16 0.22 0.28 0.32 0.28 0.25 0.29 0.39 0.52 0.65 0.79 0.94 1.11
0.00 0.00 0.00 0.01 0.02 0.02 0.02 0.03 0.05 0.07 0.20 0.30 0.22 0.22 0.28 0.41 0.45 0.50 0.41 0.33 0.34 0.37 0.32 0.26 0.19 0.16 0.16 0.14 0.10 0.08 0.09 0.14 0.19 0.22 0.24 0.26 0.29 0.37 0.45 0.57 0.77 0.91 1.06
0.00 0.00 0.01 0.02 0.02 0.03 0.03 0.03 0.04 0.06 0.12 0.14 0.15 0.20 0.24 0.41 0.42 0.33 0.30 0.28 0.34 0.36 0.34 0.31 0.19 0.14 0.14 0.13 0.12 0.09 0.08 0.10 0.12 0.17 0.23 0.26 0.30 0.37 0.44 0.51 0.68 0.86 0.98
0.01 0.01 0.02 0.03 0.03 0.03 0.04 0.07 0.08 0.06 0.06 0.06 0.07 0.11 0.19 0.28 0.28 0.23 0.22 0.18 0.19 0.20 0.24 0.20 0.15 0.13 0.12 0.12 0.11 0.10 0.09 0.08 0.11 0.16 0.19 0.22 0.27 0.32 0.39 0.47 0.57 0.71 0.86
0.01 0.02 0.03 0.04 0.05 0.06 0.08 0.10 0.13 0.14 0.11 0.06 0.04 0.05 0.11 0.17 0.18 0.18 0.17 0.18 0.15 0.12 0.14 0.15 0.14 0.13 0.13 0.13 0.12 0.11 0.11 0.11 0.12 0.13 0.14 0.17 0.22 0.28 0.34 0.39 0.47 0.61 0.75
0.01 0.02 0.04 0.05 0.07 0.08 0.09 0.12 0.13 0.14 0.13 0.10 0.07 0.05 0.07 0.09 0.10 0.11 0.13 0.18 0.17 0.12 0.11 0.12 0.12 0.14 0.14 0.14 0.13 0.12 0.12 0.12 0.10 0.12 0.13 0.14 0.17 0.24 0.29 0.33 0.40 0.51 0.66
0.01 0.03 0.05 0.07 0.08 0.09 0.11 0.14 0.16 0.17 0.16 0.14 0.12 0.11 0.16 0.19 0.17 0.12 0.12 0.15 0.16 0.14 0.11 0.12 0.12 0.13 0.15 0.15 0.14 0.13 0.13 0.11 0.10 0.11 0.11 0.12 0.14 0.19 0.25 0.29 0.36 0.44 0.55
0.03 0.04 0.05 0.07 0.09 0.12 0.16 0.18 0.21 0.23 0.22 0.17 0.12 0.11 0.27 0.34 0.24 0.16 0.14 0.15 0.18 0.18 0.16 0.15 0.14 0.14 0.14 0.14 0.14 0.13 0.12 0.10 0.09 0.09 0.10 0.10 0.11 0.14 0.17 0.23 0.29 0.37 0.46
0.05 0.06 0.07 0.10 0.13 0.15 0.19 0.21 0.23 0.24 0.22 0.19 0.14 0.11 0.17 0.19 0.18 0.18 0.16 0.15 0.15 0.17 0.18 0.20 0.18 0.16 0.17 0.17 0.17 0.15 0.12 0.09 0.08 0.09 0.10 0.09 0.10 0.11 0.13 0.17 0.23 0.30 0.38
0.07 0.10 0.11 0.12 0.14 0.17 0.20 0.19 0.21 0.23 0.22 0.19 0.18 0.16 0.16 0.17 0.16 0.17 0.17 0.16 0.16 0.17 0.16 0.19 0.20 0.17 0.16 0.16 0.15 0.16 0.15 0.12 0.10 0.11 0.12 0.11 0.10 0.09 0.11 0.15 0.19 0.26 0.35
0.10 0.13 0.15 0.16 0.17 0.20 0.22 0.22 0.22 0.23 0.23 0.22 0.20 0.18 0.18 0.17 0.16 0.16 0.15 0.15 0.16 0.16 0.16 0.19 0.20 0.18 0.17 0.16 0.14 0.12 0.12 0.12 0.13 0.15 0.14 0.15 0.13 0.12 0.13 0.16 0.18 0.23 0.32
0.12 0.15 0.17 0.20 0.24 0.25 0.26 0.25 0.23 0.22 0.23 0.21 0.19 0.19 0.17 0.16 0.15 0.14 0.13 0.13 0.14 0.14 0.14 0.17 0.20 0.20 0.18 0.16 0.14 0.12 0.11 0.12 0.15 0.22 0.27 0.26 0.21 0.16 0.17 0.19 0.20 0.23 0.30
0.12 0.15 0.19 0.24 0.27 0.29 0.31 0.31 0.27 0.24 0.24 0.21 0.20 0.19 0.18 0.18 0.16 0.15 0.14 0.15 0.16 0.15 0.14 0.15 0.18 0.20 0.18 0.16 0.14 0.13 0.13 0.15 0.19 0.23 0.30 0.34 0.28 0.20 0.19 0.22 0.22 0.24 0.30

GEFSGL_prec_meanprecacc_102.txt.gz
Total_Precipitation_Accumulation
0.00 0.00 0.00 0.00 0.00 0.00 0.01 0.01 0.01 0.01 0.01 0.01 0.03 0.06 0.08 0.11 0.13 0.14 0.17 0.22 0.25 0.27 0.32 0.39 0.43 0.46 0.50 0.48 0.46 0.42 0.40 0.45 0.43 0.11 0.03 0.06 0.14 0.20 0.21 0.21 0.23 0.22 0.19
0.00 0.00 0.00 0.00 0.00 0.00 0.01 0.01 0.01 0.01 0.01 0.02 0.06 0.12 0.15 0.18 0.18 0.19 0.22 0.32 0.44 0.44 0.42 0.44 0.46 0.50 0.56 0.58 0.59 0.53 0.43 0.37 0.41 0.26 0.07 0.06 0.11 0.21 0.27 0.26 0.25 0.23 0.20
0.00 0.00 0.00 0.00 0.00 0.00 0.00 0.00 0.00 0.01 0.01 0.02 0.08 0.19 0.25 0.30 0.30 0.28 0.31 0.37 0.52 0.65 0.68 0.68 0.63 0.58 0.60 0.60 0.63 0.61 0.51 0.42 0.38 0.36 0.19 0.10 0.12 0.21 0.33 0.36 0.32 0.28 0.24
0.00 0.00 0.00 0.00 0.00 0.00 0.00 0.00 0.00 0.01 0.02 0.04 0.09 0.19 0.29 0.41 0.53 0.55 0.58 0.55 0.58 0.67 0.74 0.79 0.80 0.83 0.78 0.73 0.71 0.67 0.62 0.58 0.50 0.47 0.35 0.22 0.18 0.23 0.39 0.47 0.42 0.34 0.31
0.00 0.00 0.00 0.00 0.00 0.00 0.00 0.00 0.00 0.01 0.02 0.05 0.06 0.11 0.21 0.48 0.88 0.91 0.82 0.74 0.62 0.54 0.54 0.57 0.67 0.83 0.92 0.97 1.01 0.91 0.86 0.89 0.80 0.71 0.58 0.44 0.34 0.37 0.48 0.54 0.60 0.52 0.43
0.00 0.00 0.00 0.00 0.00 0.00 0.00 0.00 0.00 0.01 0.02 0.04 0.04 0.06 0.14 0.42 0.84 0.91 0.70 0.52 0.38 0.36 0.37 0.36 0.39 0.56 0.67 0.79 0.94 0.97 1.03 1.17 1.21 1.09 0.88 0.69 0.48 0.44 0.50 0.65 0.77 0.82 0.69
0.00 0.00 0.00 0.00 0.00 0.00 0.00 0.00 0.00 0.01 0.02 0.04 0.03 0.03 0.06 0.26 0.65 0.75 0.53 0.31 0.21 0.20 0.21 0.22 0.23 0.32 0.43 0.48 0.58 0.68 0.79 0.95 1.17 1.26 1.19 0.87 0.61 0.48 0.60 0.75 0.79 0.85 0.75
0.00 0.00 0.00 0.00 0.00 0.00 0.00 0.00 0.01 0.01 0.02 0.03 0.03 0.02 0.03 0.12 0.50 0.67 0.49 0.24 0.15 0.14 0.16 0.15 0.12 0.17 0.31 0.43 0.54 0.56 0.57 0.69 0.97 1.21 1.34 1.15 0.90 0.76 0.85 1.01 1.07 1.04 0.92
0.00 0.00 0.00 0.00 0.00 0.00 0.01 0.01 0.01 0.01 0.01 0.02 0.02 0.02 0.02 0.04 0.32 0.66 0.58 0.26 0.15 0.12 0.14 0.16 0.12 0.10 0.25 0.41 0.45 0.42 0.38 0.46 0.61 0.90 1.10 1.13 1.08 1.10 1.17 1.39 1.52 1.46 1.35
0.00 0.00 0.00 0.00 0.00 0.01 0.01 0.01 0.01 0.02 0.02 0.02 0.01 0.01 0.01 0.02 0.17 0.58 0.73 0.34 0.17 0.13 0.12 0.13 0.18 0.22 0.31 0.37 0.35 0.35 0.41 0.38 0.38 0.45 0.55 0.65 0.74 0.82 1.02 1.30 1.46 1.50 1.49
0.00 0.00 0.00 0.00 0.00 0.01 0.01 0.01 0.01 0.01 0.02 0.01 0.01 0.01 0.01 0.02 0.06 0.35 0.73 0.56 0.29 0.21 0.19 0.18 0.17 0.23 0.28 0.31 0.34 0.34 0.41 0.39 0.36 0.44 0.46 0.47 0.54 0.66 0.80 1.05 1.31 1.45 1.54
0.00 0.00 0.00 0.00 0.01 0.01 0.01 0.02 0.02 0.02 0.02 0.02 0.02 0.02 0.02 0.02 0.07 0.23 0.45 0.55 0.43 0.25 0.21 0.16 0.16 0.19 0.24 0.28 0.29 0.31 0.33 0.36 0.39 0.41 0.38 0.39 0.47 0.58 0.70 0.88 1.10 1.27 1.34
0.00 0.00 0.00 0.00 0.00 0.01 0.02 0.02 0.02 0.02 0.04 0.05 0.05 0.04 0.03 0.04 0.10 0.23 0.24 0.27 0.32 0.29 0.28 0.25 0.20 0.21 0.21 0.18 0.18 0.23 0.27 0.29 0.37 0.39 0.34 0.31 0.38 0.51 0.60 0.71 0.86 1.04 1.17
0.00 0.00 0.00 0.01 0.01 0.02 0.02 0.02 0.03 0.05 0.14 0.17 0.14 0.10 0.09 0.11 0.25 0.40 0.28 0.17 0.21 0.26 0.27 0.23 0.19 0.18 0.15 0.12 0.10 0.12 0.16 0.22 0.29 0.33 0.29 0.26 0.29 0.40 0.52 0.65 0.80 0.95 1.12
0.00 0.00 0.00 0.01 0.02 0.02 0.02 0.03 0.05 0.07 0.20 0.30 0.23 0.23 0.29 0.41 0.46 0.51 0.42 0.35 0.37 0.39 0.35 0.30 0.22 0.18 0.17 0.14 0.10 0.08 0.09 0.14 0.20 0.23 0.25 0.27 0.30 0.37 0.45 0.57 0.77 0.92 1.07
0.00 0.00 0.01 0.02 0.02 0.03 0.03 0.03 0.04 0.06 0.12 0.14 0.15 0.21 0.24 0.42 0.42 0.34 0.31 0.30 0.36 0.39 0.38 0.35 0.22 0.16 0.15 0.14 0.12 0.10 0.08 0.10 0.13 0.18 0.24 0.27 0.31 0.38 0.44 0.51 0.68 0.87 0.99
0.01 0.01 0.02 0.03 0.03 0.03 0.04 0.07 0.08 0.06 0.06 0.06 0.07 0.11 0.19 0.29 0.28 0.24 0.23 0.20 0.21 0.22 0.27 0.22 0.16 0.13 0.13 0.12 0.12 0.11 0.10 0.08 0.12 0.17 0.20 0.23 0.28 0.33 0.40 0.47 0.57 0.72 0.86
0.01 0.02 0.03 0.04 0.05 0.06 0.08 0.10 0.13 0.14 0.11 0.06 0.04 0.06 0.11 0.17 0.19 0.18 0.18 0.19 0.16 0.12 0.15 0.16 0.15 0.14 0.14 0.14 0.13 0.12 0.11 0.11 0.14 0.15 0.16 0.18 0.23 0.30 0.35 0.40 0.47 0.62 0.76
0.01 0.02 0.04 0.05 0.07 0.08 0.10 0.12 0.13 0.14 0.13 0.10 0.07 0.06 0.07 0.09 0.10 0.11 0.14 0.18 0.17 0.13 0.12 0.12 0.13 0.15 0.15 0.14 0.14 0.13 0.13 0.13 0.12 0.13 0.14 0.15 0.18 0.26 0.31 0.34 0.41 0.51 0.67
0.01 0.03 0.06 0.07 0.08 0.09 0.11 0.14 0.16 0.17 0.17 0.15 0.12 0.11 0.16 0.20 0.18 0.13 0.12 0.16 0.17 0.15 0.12 0.13 0.13 0.14 0.15 0.16 0.15 0.15 0.14 0.12 0.12 0.13 0.13 0.13 0.15 0.21 0.26 0.29 0.36 0.45 0.55
0.03 0.04 0.05 0.07 0.09 0.12 0.16 0.19 0.21 0.24 0.23 0.18 0.12 0.11 0.28 0.36 0.26 0.17 0.15 0.16 0.19 0.19 0.17 0.16 0.15 0.15 0.15 0.15 0.16 0.15 0.14 0.11 0.10 0.11 0.11 0.11 0.13 0.16 0.18 0.23 0.30 0.37 0.47
0.05 0.06 0.07 0.10 0.13 0.16 0.20 0.21 0.24 0.25 0.22 0.20 0.14 0.11 0.17 0.20 0.18 0.18 0.17 0.15 0.16 0.18 0.19 0.21 0.20 0.17 0.17 0.19 0.19 0.18 0.15 0.11 0.09 0.11 0.11 0.11 0.11 0.12 0.14 0.18 0.23 0.30 0.38
0.07 0.10 0.11 0.12 0.14 0.18 0.20 0.19 0.22 0.24 0.22 0.20 0.18 0.17 0.16 0.17 0.17 0.18 0.18 0.17 0.17 0.17 0.17 0.20 0.21 0.18 0.16 0.17 0.17 0.19 0.18 0.14 0.11 0.13 0.14 0.13 0.11 0.11 0.12 0.16 0.19 0.26 0.36
0.10 0.13 0.16 0.17 0.18 0.20 0.22 0.22 0.22 0.23 0.23 0.22 0.20 0.19 0.18 0.18 0.17 0.16 0.16 0.16 0.16 0.16 0.17 0.20 0.21 0.19 0.17 0.17 0.15 0.14 0.14 0.13 0.15 0.17 0.17 0.17 0.15 0.13 0.14 0.17 0.19 0.24 0.33
0.12 0.15 0.18 0.21 0.24 0.26 0.26 0.25 0.24 0.23 0.23 0.22 0.20 0.19 0.18 0.17 0.15 0.14 0.13 0.13 0.14 0.14 0.14 0.17 0.20 0.21 0.18 0.16 0.14 0.13 0.12 0.13 0.18 0.26 0.32 0.30 0.23 0.18 0.18 0.20 0.21 0.24 0.31
0.12 0.15 0.19 0.24 0.27 0.29 0.31 0.31 0.27 0.25 0.24 0.22 0.20 0.20 0.19 0.18 0.17 0.15 0.14 0.15 0.17 0.15 0.14 0.15 0.18 0.20 0.18 0.16 0.15 0.14 0.14 0.17 0.21 0.26 0.36 0.41 0.32 0.23 0.21 0.24 0.23 0.26 0.31

GEFSGL_prec_meanprecacc_108.txt.gz
Total_Precipitation_Accumulation
0.00 0.00 0.00 0.00 0.00 0.00 0.01 0.01 0.01 0.01 0.01 0.01 0.03 0.06 0.08 0.11 0.13 0.14 0.17 0.22 0.25 0.27 0.32 0.39 0.43 0.46 0.50 0.48 0.46 0.42 0.40 0.45 0.43 0.11 0.03 0.06 0.14 0.20 0.21 0.21 0.23 0.22 0.19
0.00 0.00 0.00 0.00 0.00 0.00 0.01 0.01 0.01 0.01 0.01 0.02 0.06 0.12 0.15 0.18 0.18 0.19 0.22 0.32 0.44 0.44 0.42 0.44 0.46 0.50 0.56 0.58 0.59 0.53 0.43 0.37 0.41 0.26 0.07 0.06 0.11 0.21 0.27 0.26 0.25 0.23 0.20
0.00 0.00 0.00 0.00 0.00 0.00 0.00 0.00 0.00 0.01 0.01 0.02 0.08 0.19 0.25 0.30 0.30 0.28 0.31 0.37 0.52 0.65 0.68 0.68 0.63 0.58 0.60 0.60 0.63 0.61 0.51 0.42 0.38 0.36 0.20 0.10 0.12 0.21 0.33 0.36 0.32 0.28 0.24
0.00 0.00 0.00 0.00 0.00 0.00 0.00 0.00 0.00 0.01 0.02 0.04 0.09 0.19 0.29 0.41 0.53 0.55 0.58 0.55 0.58 0.67 0.74 0.79 0.80 0.83 0.78 0.73 0.71 0.67 0.62 0.58 0.51 0.48 0.36 0.22 0.19 0.23 0.40 0.48 0.42 0.34 0.31
0.00 0.00 0.00 0.00 0.00 0.00 0.00 0.00 0.00 0.01 0.02 0.05 0.06 0.11 0.21 0.48 0.88 0.91 0.82 0.74 0.62 0.54 0.54 0.57 0.67 0.83 0.92 0.97 1.01 0.92 0.87 0.90 0.82 0.73 0.60 0.45 0.35 0.38 0.49 0.55 0.61 0.52 0.44
0.00 0.00 0.00 0.00 0.00 0.00 0.00 0.00 0.00 0.01 0.02 0.04 0.04 0.06 0.14 0.42 0.84 0.91 0.70 0.52 0.38 0.36 0.37 0.36 0.39 0.56 0.67 0.79 0.94 0.98 1.04 1.18 1.23 1.12 0.91 0.72 0.50 0.45 0.52 0.66 0.79 0.84 0.70
0.00 0.00 0.00 0.00 0.00 0.00 0.00 0.00 0.00 0.01 0.02 0.04 0.03 0.03 0.06 0.26 0.65 0.75 0.53 0.31 0.21 0.20 0.21 0.22 0.23 0.32 0.43 0.48 0.58 0.68 0.79 0.96 1.18 1.28 1.22 0.89 0.63 0.49 0.62 0.78 0.82 0.88 0.77
0.00 0.00 0.00 0.00 0.00 0.00 0.00 0.00 0.01 0.01 0.02 0.03 0.03 0.02 0.03 0.12 0.50 0.67 0.49 0.24 0.15 0.14 0.16 0.15 0.12 0.17 0.31 0.44 0.54 0.57 0.57 0.69 0.97 1.22 1.35 1.16 0.92 0.78 0.88 1.07 1.14 1.11 0.96
0.00 0.00 0.00 0.00 0.00 0.00 0.01 0.01 0.01 0.01 0.02 0.02 0.02 0.02 0.02 0.04 0.32 0.66 0.58 0.26 0.15 0.12 0.14 0.16 0.12 0.11 0.25 0.42 0.47 0.44 0.39 0.46 0.62 0.91 1.12 1.16 1.12 1.14 1.22 1.45 1.58 1.51 1.38
0.00 0.00 0.00 0.00 0.00 0.01 0.01 0.01 0.01 0.02 0.02 0.02 0.01 0.01 0.01 0.02 0.17 0.58 0.73 0.34 0.17 0.13 0.12 0.13 0.18 0.22 0.32 0.39 0.37 0.38 0.44 0.40 0.40 0.47 0.57 0.66 0.76 0.83 1.04 1.32 1.49 1.53 1.51
0.00 0.00 0.00 0.00 0.00 0.01 0.01 0.01 0.01 0.01 0.02 0.01 0.01 0.01 0.01 0.02 0.06 0.35 0.74 0.56 0.29 0.21 0.19 0.18 0.17 0.24 0.29 0.33 0.36 0.37 0.45 0.43 0.41 0.48 0.50 0.50 0.55 0.67 0.80 1.05 1.32 1.47 1.56
0.00 0.00 0.00 0.00 0.01 0.01 0.01 0.02 0.02 0.02 0.02 0.02 0.02 0.02 0.02 0.02 0.07 0.23 0.45 0.56 0.43 0.26 0.21 0.16 0.17 0.20 0.26 0.30 0.32 0.34 0.36 0.39 0.42 0.43 0.40 0.41 0.47 0.58 0.71 0.89 1.10 1.27 1.35
0.00 0.00 0.00 0.00 0.00 0.01 0.02 0.02 0.02 0.02 0.04 0.05 0.05 0.04 0.03 0.04 0.10 0.23 0.25 0.27 0.33 0.30 0.29 0.26 0.21 0.22 0.23 0.19 0.19 0.24 0.28 0.30 0.38 0.40 0.35 0.32 0.39 0.52 0.60 0.72 0.86 1.05 1.17
0.00 0.00 0.00 0.01 0.01 0.02 0.02 0.02 0.03 0.05 0.14 0.17 0.14 0.10 0.09 0.11 0.25 0.40 0.28 0.17 0.21 0.27 0.28 0.24 0.21 0.19 0.16 0.12 0.11 0.13 0.17 0.23 0.30 0.35 0.31 0.27 0.30 0.40 0.53 0.66 0.81 0.95 1.13
0.00 0.00 0.00 0.01 0.02 0.02 0.02 0.03 0.05 0.07 0.20 0.30 0.23 0.23 0.29 0.41 0.46 0.51 0.43 0.36 0.38 0.41 0.38 0.34 0.25 0.20 0.18 0.15 0.11 0.09 0.10 0.15 0.21 0.24 0.26 0.28 0.31 0.38 0.46 0.58 0.78 0.93 1.08
0.00 0.00 0.01 0.02 0.02 0.03 0.03 0.03 0.04 0.06 0.12 0.14 0.15 0.21 0.24 0.42 0.43 0.35 0.32 0.31 0.37 0.41 0.41 0.38 0.24 0.17 0.16 0.15 0.13 0.11 0.09 0.11 0.14 0.18 0.24 0.28 0.32 0.39 0.45 0.53 0.69 0.88 0.99
0.01 0.01 0.02 0.03 0.03 0.03 0.04 0.07 0.08 0.06 0.06 0.06 0.08 0.11 0.19 0.29 0.29 0.25 0.24 0.21 0.22 0.24 0.29 0.24 0.17 0.14 0.14 0.13 0.13 0.12 0.11 0.09 0.12 0.18 0.21 0.24 0.29 0.35 0.42 0.49 0.58 0.73 0.87
0.01 0.02 0.03 0.04 0.05 0.06 0.08 0.10 0.13 0.14 0.11 0.06 0.04 0.06 0.12 0.17 0.19 0.19 0.19 0.20 0.17 0.12 0.15 0.16 0.16 0.14 0.15 0.15 0.14 0.14 0.12 0.12 0.14 0.16 0.17 0.19 0.25 0.32 0.37 0.41 0.49 0.63 0.77
0.01 0.02 0.04 0.05 0.07 0.08 0.10 0.12 0.13 0.14 0.13 0.10 0.07 0.06 0.07 0.10 0.11 0.11 0.14 0.19 0.18 0.13 0.12 0.13 0.14 0.16 0.16 0.15 0.15 0.14 0.14 0.14 0.13 0.14 0.15 0.16 0.20 0.28 0.32 0.35 0.42 0.52 0.68
0.01 0.03 0.06 0.07 0.08 0.09 0.11 0.14 0.16 0.17 0.17 0.15 0.12 0.11 0.16 0.20 0.18 0.13 0.13 0.16 0.18 0.16 0.13 0.14 0.14 0.15 0.16 0.17 0.16 0.16 0.16 0.14 0.13 0.14 0.14 0.14 0.17 0.23 0.28 0.31 0.38 0.46 0.56
0.03 0.04 0.05 0.07 0.09 0.12 0.16 0.19 0.21 0.24 0.23 0.18 0.13 0.11 0.28 0.37 0.27 0.17 0.16 0.16 0.19 0.19 0.18 0.17 0.16 0.16 0.16 0.16 0.17 0.16 0.15 0.13 0.11 0.12 0.13 0.13 0.14 0.17 0.19 0.25 0.31 0.38 0.48
0.05 0.06 0.07 0.10 0.13 0.16 0.20 0.22 0.24 0.25 0.22 0.20 0.15 0.11 0.18 0.20 0.19 0.18 0.17 0.16 0.16 0.18 0.20 0.22 0.21 0.18 0.18 0.20 0.20 0.19 0.16 0.12 0.10 0.12 0.13 0.12 0.13 0.14 0.16 0.20 0.25 0.31 0.39
0.07 0.10 0.11 0.12 0.14 0.18 0.20 0.19 0.22 0.24 0.23 0.20 0.19 0.17 0.16 0.17 0.17 0.18 0.18 0.17 0.17 0.18 0.17 0.20 0.22 0.19 0.17 0.17 0.18 0.20 0.20 0.15 0.12 0.14 0.16 0.15 0.13 0.12 0.14 0.17 0.20 0.27 0.36
0.10 0.13 0.16 0.17 0.18 0.20 0.23 0.23 0.23 0.24 0.24 0.23 0.20 0.19 0.19 0.18 0.17 0.16 0.16 0.16 0.17 0.17 0.17 0.20 0.21 0.20 0.18 0.17 0.16 0.15 0.14 0.14 0.17 0.19 0.19 0.19 0.17 0.14 0.16 0.19 0.20 0.25 0.34
0.12 0.15 0.18 0.21 0.24 0.26 0.27 0.25 0.24 0.23 0.23 0.22 0.20 0.19 0.18 0.17 0.16 0.14 0.13 0.14 0.15 0.15 0.14 0.18 0.21 0.21 0.19 0.17 0.15 0.14 0.13 0.14 0.20 0.28 0.35 0.33 0.26 0.19 0.20 0.22 0.22 0.25 0.32
0.12 0.15 0.19 0.24 0.27 0.29 0.31 0.31 0.27 0.25 0.25 0.22 0.20 0.20 0.19 0.19 0.17 0.15 0.15 0.16 0.17 0.16 0.15 0.16 0.19 0.21 0.19 0.17 0.15 0.14 0.14 0.18 0.23 0.29 0.40 0.45 0.35 0.25 0.22 0.25 0.25 0.27 0.32

GEFSGL_prec_meanprecacc_114.txt.gz
Total_Precipitation_Accumulation
0.00 0.00 0.00 0.00 0.00 0.00 0.01 0.01 0.01 0.01 0.01 0.01 0.03 0.06 0.08 0.11 0.13 0.14 0.17 0.22 0.25 0.27 0.32 0.39 0.43 0.46 0.50 0.48 0.46 0.42 0.40 0.45 0.43 0.11 0.03 0.06 0.14 0.20 0.21 0.21 0.23 0.22 0.19
0.00 0.00 0.00 0.00 0.00 0.00 0.01 0.01 0.01 0.01 0.01 0.02 0.06 0.12 0.15 0.18 0.18 0.19 0.22 0.32 0.44 0.44 0.42 0.44 0.46 0.50 0.56 0.58 0.59 0.53 0.43 0.37 0.41 0.26 0.07 0.06 0.11 0.21 0.27 0.26 0.25 0.23 0.20
0.00 0.00 0.00 0.00 0.00 0.00 0.00 0.00 0.00 0.01 0.01 0.02 0.08 0.19 0.25 0.30 0.30 0.28 0.31 0.37 0.52 0.65 0.68 0.68 0.63 0.58 0.60 0.60 0.63 0.61 0.51 0.42 0.38 0.36 0.20 0.10 0.12 0.21 0.33 0.36 0.32 0.28 0.24
0.00 0.00 0.00 0.00 0.00 0.00 0.00 0.00 0.00 0.01 0.02 0.04 0.09 0.19 0.29 0.41 0.53 0.55 0.58 0.55 0.58 0.67 0.74 0.79 0.80 0.83 0.78 0.73 0.71 0.67 0.62 0.58 0.51 0.48 0.36 0.23 0.19 0.24 0.40 0.48 0.42 0.35 0.31
0.00 0.00 0.00 0.00 0.00 0.00 0.00 0.00 0.00 0.01 0.02 0.05 0.06 0.11 0.21 0.48 0.88 0.91 0.82 0.74 0.62 0.54 0.54 0.57 0.67 0.83 0.92 0.97 1.01 0.92 0.87 0.90 0.82 0.74 0.61 0.46 0.36 0.39 0.50 0.56 0.62 0.53 0.44
0.00 0.00 0.00 0.00 0.00 0.00 0.00 0.00 0.00 0.01 0.02 0.04 0.04 0.06 0.14 0.42 0.84 0.91 0.70 0.52 0.38 0.36 0.37 0.36 0.39 0.56 0.67 0.79 0.94 0.98 1.04 1.19 1.24 1.13 0.92 0.74 0.51 0.46 0.53 0.68 0.80 0.85 0.71
0.00 0.00 0.00 0.00 0.00 0.00 0.00 0.00 0.00 0.01 0.02 0.04 0.03 0.03 0.06 0.26 0.65 0.75 0.53 0.31 0.21 0.20 0.21 0.22 0.23 0.32 0.43 0.48 0.58 0.68 0.79 0.96 1.19 1.29 1.24 0.91 0.64 0.50 0.63 0.79 0.84 0.90 0.80
0.00 0.00 0.00 0.00 0.00 0.00 0.00 0.00 0.01 0.01 0.02 0.03 0.03 0.02 0.03 0.12 0.50 0.67 0.49 0.24 0.15 0.14 0.16 0.15 0.12 0.17 0.31 0.44 0.54 0.57 0.58 0.70 0.98 1.23 1.36 1.17 0.93 0.79 0.90 1.09 1.18 1.15 0.99
0.00 0.00 0.00 0.00 0.00 0.00 0.01 0.01 0.01 0.01 0.02 0.02 0.02 0.02 0.02 0.04 0.32 0.66 0.58 0.26 0.15 0.12 0.14 0.16 0.12 0.11 0.25 0.43 0.47 0.44 0.40 0.47 0.63 0.92 1.14 1.18 1.14 1.17 1.26 1.50 1.63 1.57 1.42
0.00 0.00 0.00 0.00 0.00 0.01 0.01 0.01 0.01 0.02 0.02 0.02 0.02 0.01 0.01 0.02 0.17 0.58 0.73 0.34 0.17 0.13 0.12 0.13 0.18 0.22 0.32 0.40 0.38 0.39 0.45 0.41 0.41 0.48 0.58 0.68 0.77 0.84 1.05 1.34 1.51 1.56 1.55
0.00 0.00 0.00 0.00 0.00 0.01 0.01 0.01 0.01 0.01 0.02 0.01 0.01 0.01 0.01 0.02 0.06 0.35 0.74 0.56 0.29 0.21 0.19 0.18 0.17 0.24 0.30 0.33 0.37 0.38 0.47 0.45 0.43 0.51 0.53 0.52 0.56 0.68 0.81 1.06 1.33 1.49 1.59
0.00 0.00 0.00 0.00 0.01 0.01 0.01 0.02 0.02 0.02 0.02 0.02 0.02 0.02 0.02 0.02 0.07 0.23 0.45 0.56 0.44 0.26 0.21 0.17 0.17 0.21 0.26 0.32 0.33 0.35 0.38 0.41 0.44 0.45 0.42 0.42 0.48 0.59 0.72 0.90 1.11 1.28 1.36
0.00 0.00 0.00 0.00 0.00 0.01 0.02 0.02 0.02 0.02 0.04 0.05 0.05 0.04 0.03 0.04 0.10 0.23 0.25 0.27 0.33 0.30 0.29 0.27 0.22 0.23 0.24 0.20 0.20 0.26 0.29 0.31 0.39 0.42 0.36 0.33 0.40 0.53 0.61 0.72 0.87 1.06 1.18
0.00 0.00 0.00 0.01 0.01 0.02 0.02 0.02 0.03 0.05 0.14 0.17 0.14 0.10 0.09 0.11 0.25 0.40 0.28 0.18 0.22 0.27 0.28 0.25 0.22 0.20 0.17 0.13 0.12 0.14 0.17 0.23 0.31 0.36 0.32 0.28 0.30 0.41 0.54 0.67 0.82 0.97 1.14
0.00 0.00 0.00 0.01 0.02 0.02 0.02 0.03 0.05 0.07 0.20 0.30 0.23 0.23 0.29 0.41 0.46 0.52 0.44 0.36 0.39 0.42 0.39 0.35 0.26 0.20 0.19 0.16 0.12 0.09 0.11 0.16 0.22 0.25 0.27 0.28 0.31 0.39 0.47 0.59 0.79 0.95 1.10
0.00 0.00 0.01 0.02 0.02 0.03 0.03 0.03 0.04 0.06 0.12 0.14 0.15 0.21 0.24 0.42 0.43 0.35 0.33 0.32 0.38 0.42 0.42 0.40 0.25 0.18 0.17 0.16 0.14 0.12 0.10 0.12 0.15 0.19 0.25 0.29 0.33 0.40 0.46 0.54 0.71 0.90 1.01
0.01 0.01 0.02 0.03 0.03 0.03 0.04 0.07 0.08 0.06 0.06 0.06 0.08 0.11 0.19 0.29 0.29 0.25 0.24 0.21 0.23 0.25 0.30 0.24 0.17 0.15 0.14 0.14 0.14 0.13 0.11 0.09 0.13 0.19 0.22 0.25 0.30 0.36 0.43 0.50 0.60 0.75 0.89
0.01 0.02 0.03 0.04 0.05 0.06 0.08 0.10 0.13 0.14 0.11 0.06 0.04 0.06 0.12 0.17 0.20 0.19 0.19 0.20 0.17 0.13 0.15 0.16 0.16 0.15 0.15 0.16 0.15 0.14 0.13 0.13 0.15 0.17 0.18 0.20 0.25 0.33 0.38 0.43 0.50 0.65 0.78
0.01 0.02 0.04 0.05 0.07 0.08 0.10 0.12 0.13 0.14 0.13 0.10 0.07 0.06 0.07 0.10 0.11 0.12 0.14 0.19 0.18 0.14 0.12 0.13 0.14 0.17 0.17 0.16 0.15 0.15 0.15 0.15 0.13 0.15 0.16 0.17 0.21 0.29 0.34 0.36 0.43 0.54 0.69
0.01 0.03 0.06 0.07 0.08 0.09 0.11 0.14 0.16 0.17 0.17 0.15 0.12 0.11 0.16 0.20 0.19 0.13 0.13 0.16 0.18 0.16 0.14 0.15 0.15 0.15 0.17 0.17 0.17 0.17 0.17 0.15 0.14 0.15 0.15 0.15 0.18 0.24 0.29 0.32 0.39 0.47 0.58
0.03 0.04 0.05 0.07 0.09 0.12 0.16 0.19 0.21 0.24 0.23 0.18 0.13 0.12 0.28 0.37 0.27 0.18 0.16 0.17 0.20 0.20 0.18 0.18 0.17 0.16 0.16 0.17 0.18 0.17 0.16 0.14 0.12 0.13 0.13 0.13 0.15 0.18 0.20 0.26 0.32 0.40 0.49
0.05 0.06 0.07 0.10 0.13 0.16 0.20 0.22 0.24 0.25 0.22 0.20 0.15 0.11 0.18 0.20 0.19 0.19 0.17 0.16 0.17 0.19 0.21 0.23 0.22 0.19 0.19 0.21 0.21 0.21 0.17 0.13 0.11 0.12 0.13 0.13 0.13 0.15 0.17 0.21 0.26 0.33 0.41
0.07 0.10 0.11 0.12 0.14 0.18 0.20 0.19 0.22 0.24 0.23 0.20 0.19 0.17 0.17 0.18 0.17 0.19 0.19 0.18 0.18 0.18 0.18 0.21 0.23 0.20 0.17 0.18 0.19 0.21 0.21 0.16 0.13 0.14 0.17 0.16 0.14 0.13 0.15 0.18 0.21 0.28 0.38
0.10 0.13 0.16 0.17 0.18 0.20 0.23 0.23 0.23 0.24 0.24 0.23 0.21 0.19 0.19 0.18 0.17 0.17 0.16 0.16 0.17 0.17 0.17 0.21 0.22 0.20 0.19 0.18 0.17 0.16 0.15 0.15 0.17 0.20 0.19 0.20 0.18 0.15 0.17 0.20 0.21 0.26 0.35
0.12 0.15 0.18 0.21 0.24 0.26 0.27 0.25 0.24 0.23 0.23 0.22 0.20 0.19 0.18 0.17 0.16 0.14 0.13 0.14 0.15 0.15 0.15 0.18 0.21 0.22 0.19 0.17 0.15 0.15 0.14 0.15 0.21 0.30 0.37 0.35 0.27 0.20 0.20 0.23 0.23 0.26 0.33
0.12 0.15 0.19 0.24 0.27 0.29 0.31 0.31 0.27 0.25 0.25 0.22 0.21 0.20 0.19 0.19 0.17 0.16 0.15 0.16 0.18 0.16 0.15 0.16 0.19 0.21 0.19 0.17 0.16 0.15 0.16 0.19 0.25 0.31 0.43 0.49 0.38 0.26 0.23 0.26 0.25 0.28 0.33

GEFSGL_prec_meanprecacc_120.txt.gz
Total_Precipitation_Accumulation
0.00 0.00 0.00 0.00 0.00 0.00 0.01 0.01 0.01 0.01 0.01 0.01 0.03 0.06 0.08 0.11 0.13 0.14 0.17 0.22 0.25 0.27 0.32 0.39 0.43 0.46 0.50 0.48 0.46 0.42 0.40 0.45 0.43 0.11 0.03 0.06 0.14 0.20 0.21 0.21 0.23 0.22 0.19
0.00 0.00 0.00 0.00 0.00 0.00 0.01 0.01 0.01 0.01 0.01 0.02 0.06 0.12 0.15 0.18 0.18 0.19 0.22 0.32 0.44 0.44 0.42 0.44 0.46 0.50 0.56 0.58 0.59 0.53 0.43 0.37 0.41 0.26 0.07 0.06 0.11 0.21 0.27 0.26 0.25 0.23 0.20
0.00 0.00 0.00 0.00 0.00 0.00 0.01 0.00 0.01 0.01 0.01 0.02 0.08 0.19 0.25 0.30 0.31 0.28 0.31 0.37 0.52 0.65 0.68 0.68 0.63 0.58 0.60 0.60 0.63 0.61 0.51 0.42 0.38 0.36 0.20 0.10 0.12 0.21 0.33 0.36 0.32 0.28 0.24
0.00 0.00 0.00 0.00 0.00 0.00 0.00 0.00 0.00 0.01 0.02 0.04 0.09 0.19 0.29 0.41 0.53 0.55 0.58 0.55 0.58 0.67 0.74 0.79 0.80 0.83 0.78 0.73 0.71 0.67 0.62 0.58 0.51 0.48 0.36 0.23 0.19 0.24 0.40 0.49 0.43 0.35 0.31
0.00 0.00 0.00 0.00 0.00 0.00 0.00 0.00 0.00 0.01 0.02 0.05 0.06 0.11 0.21 0.48 0.88 0.91 0.82 0.74 0.62 0.54 0.54 0.57 0.67 0.83 0.92 0.97 1.01 0.92 0.87 0.91 0.82 0.74 0.61 0.46 0.36 0.39 0.50 0.56 0.63 0.53 0.44
0.00 0.00 0.00 0.00 0.00 0.00 0.00 0.00 0.00 0.01 0.02 0.04 0.04 0.06 0.14 0.42 0.84 0.91 0.70 0.52 0.38 0.36 0.37 0.36 0.39 0.56 0.67 0.79 0.94 0.98 1.04 1.19 1.24 1.13 0.92 0.74 0.52 0.46 0.53 0.68 0.81 0.86 0.72
0.00 0.00 0.00 0.00 0.00 0.00 0.00 0.00 0.01 0.01 0.02 0.04 0.03 0.03 0.06 0.26 0.65 0.75 0.53 0.31 0.21 0.20 0.21 0.22 0.23 0.32 0.43 0.48 0.58 0.68 0.79 0.96 1.19 1.30 1.24 0.91 0.64 0.50 0.64 0.80 0.85 0.92 0.81
0.00 0.00 0.00 0.00 0.00 0.00 0.00 0.00 0.01 0.01 0.02 0.03 0.03 0.02 0.03 0.12 0.50 0.67 0.49 0.24 0.15 0.14 0.16 0.15 0.12 0.17 0.31 0.44 0.54 0.57 0.58 0.70 0.98 1.23 1.37 1.17 0.93 0.80 0.91 1.11 1.20 1.19 1.02
0.00 0.00 0.00 0.00 0.00 0.00 0.01 0.01 0.01 0.01 0.02 0.02 0.02 0.02 0.02 0.04 0.32 0.66 0.58 0.26 0.15 0.12 0.14 0.16 0.12 0.11 0.25 0.43 0.48 0.44 0.40 0.47 0.63 0.92 1.14 1.19 1.16 1.19 1.28 1.53 1.67 1.61 1.45
0.00 0.00 0.00 0.00 0.00 0.01 0.01 0.01 0.01 0.02 0.02 0.02 0.02 0.01 0.01 0.02 0.17 0.58 0.73 0.34 0.17 0.13 0.12 0.13 0.18 0.22 0.32 0.40 0.38 0.39 0.45 0.41 0.41 0.48 0.58 0.68 0.78 0.85 1.07 1.36 1.53 1.59 1.57
0.00 0.00 0.00 0.00 0.00 0.01 0.01 0.01 0.01 0.01 0.02 0.01 0.01 0.01 0.01 0.02 0.06 0.35 0.74 0.56 0.29 0.21 0.19 0.18 0.17 0.24 0.30 0.34 0.38 0.38 0.47 0.46 0.44 0.52 0.54 0.53 0.57 0.68 0.82 1.07 1.34 1.51 1.62
0.00 0.00 0.00 0.00 0.01 0.01 0.01 0.02 0.02 0.02 0.02 0.02 0.02 0.02 0.02 0.02 0.07 0.23 0.45 0.56 0.44 0.26 0.21 0.17 0.17 0.21 0.27 0.32 0.33 0.36 0.39 0.42 0.45 0.46 0.42 0.42 0.49 0.60 0.73 0.91 1.12 1.29 1.37
0.00 0.00 0.00 0.00 0.00 0.01 0.02 0.02 0.02 0.02 0.04 0.05 0.05 0.04 0.03 0.04 0.10 0.23 0.25 0.27 0.33 0.30 0.29 0.27 0.22 0.23 0.25 0.20 0.20 0.26 0.30 0.31 0.40 0.42 0.37 0.34 0.41 0.54 0.62 0.73 0.87 1.06 1.18
0.00 0.00 0.00 0.01 0.01 0.02 0.02 0.02 0.03 0.05 0.14 0.17 0.14 0.10 0.09 0.11 0.25 0.40 0.28 0.18 0.22 0.28 0.28 0.25 0.22 0.21 0.17 0.13 0.12 0.14 0.17 0.23 0.32 0.37 0.33 0.29 0.31 0.42 0.54 0.67 0.82 0.97 1.15
0.00 0.00 0.00 0.01 0.02 0.02 0.02 0.03 0.05 0.07 0.20 0.30 0.23 0.23 0.29 0.41 0.46 0.52 0.44 0.37 0.39 0.43 0.40 0.36 0.27 0.21 0.19 0.16 0.12 0.10 0.11 0.17 0.23 0.26 0.28 0.29 0.32 0.39 0.47 0.59 0.80 0.95 1.10
0.00 0.00 0.01 0.02 0.02 0.03 0.03 0.03 0.04 0.06 0.12 0.14 0.15 0.21 0.24 0.42 0.43 0.35 0.33 0.32 0.38 0.43 0.42 0.40 0.25 0.18 0.17 0.16 0.15 0.12 0.10 0.12 0.15 0.20 0.26 0.29 0.34 0.40 0.47 0.54 0.71 0.91 1.02
0.01 0.01 0.02 0.03 0.03 0.03 0.04 0.07 0.08 0.06 0.06 0.06 0.08 0.11 0.19 0.29 0.29 0.25 0.24 0.22 0.23 0.25 0.30 0.25 0.17 0.15 0.14 0.14 0.14 0.13 0.12 0.10 0.13 0.19 0.23 0.25 0.30 0.36 0.43 0.50 0.60 0.75 0.89
0.01 0.02 0.03 0.04 0.05 0.06 0.08 0.10 0.13 0.14 0.11 0.06 0.04 0.06 0.12 0.17 0.20 0.19 0.19 0.21 0.17 0.13 0.15 0.16 0.16 0.15 0.15 0.16 0.15 0.15 0.13 0.13 0.15 0.17 0.18 0.20 0.26 0.33 0.39 0.43 0.51 0.65 0.79
0.01 0.02 0.04 0.05 0.07 0.08 0.10 0.12 0.13 0.14 0.13 0.10 0.07 0.06 0.07 0.10 0.11 0.12 0.14 0.19 0.18 0.14 0.12 0.13 0.14 0.17 0.17 0.16 0.16 0.15 0.15 0.15 0.14 0.16 0.16 0.17 0.21 0.30 0.34 0.37 0.44 0.54 0.70
0.01 0.03 0.06 0.07 0.08 0.09 0.11 0.14 0.16 0.17 0.17 0.15 0.12 0.11 0.16 0.20 0.19 0.14 0.13 0.16 0.18 0.16 0.14 0.15 0.15 0.16 0.17 0.18 0.17 0.17 0.17 0.15 0.14 0.15 0.15 0.16 0.18 0.24 0.29 0.32 0.39 0.47 0.58
0.03 0.04 0.05 0.07 0.09 0.12 0.16 0.19 0.21 0.24 0.23 0.18 0.13 0.12 0.28 0.37 0.27 0.18 0.16 0.17 0.20 0.20 0.19 0.18 0.17 0.17 0.17 0.18 0.18 0.18 0.17 0.14 0.12 0.13 0.14 0.14 0.16 0.19 0.21 0.26 0.33 0.40 0.49
0.05 0.06 0.07 0.10 0.13 0.16 0.20 0.22 0.24 0.25 0.22 0.20 0.15 0.11 0.18 0.20 0.19 0.19 0.17 0.16 0.17 0.19 0.21 0.24 0.22 0.19 0.20 0.21 0.22 0.21 0.18 0.14 0.12 0.13 0.14 0.13 0.14 0.15 0.17 0.21 0.26 0.33 0.41
0.07 0.10 0.11 0.12 0.14 0.18 0.20 0.19 0.22 0.24 0.23 0.20 0.19 0.17 0.17 0.18 0.18 0.19 0.19 0.18 0.18 0.18 0.18 0.21 0.23 0.20 0.18 0.18 0.19 0.22 0.22 0.17 0.13 0.15 0.18 0.16 0.14 0.14 0.15 0.19 0.22 0.29 0.38
0.10 0.13 0.16 0.17 0.18 0.20 0.23 0.23 0.23 0.24 0.24 0.23 0.21 0.19 0.19 0.18 0.17 0.17 0.16 0.16 0.17 0.17 0.17 0.21 0.22 0.20 0.19 0.18 0.17 0.16 0.16 0.16 0.18 0.21 0.20 0.21 0.19 0.16 0.17 0.20 0.21 0.26 0.35
0.12 0.15 0.18 0.21 0.25 0.26 0.27 0.25 0.24 0.23 0.23 0.22 0.20 0.19 0.18 0.17 0.16 0.14 0.13 0.14 0.15 0.15 0.15 0.18 0.21 0.22 0.19 0.17 0.16 0.15 0.14 0.16 0.23 0.32 0.39 0.37 0.28 0.21 0.21 0.23 0.23 0.26 0.33
0.12 0.15 0.20 0.24 0.28 0.29 0.31 0.31 0.27 0.25 0.25 0.22 0.21 0.20 0.20 0.19 0.17 0.16 0.15 0.16 0.18 0.16 0.15 0.16 0.19 0.21 0.19 0.17 0.16 0.15 0.16 0.20 0.26 0.33 0.46 0.52 0.40 0.27 0.24 0.27 0.26 0.28 0.33

GEFSGL_prec_meanprecacc_126.txt.gz
Total_Precipitation_Accumulation
0.00 0.00 0.00 0.00 0.00 0.00 0.01 0.01 0.01 0.02 0.01 0.02 0.03 0.06 0.08 0.12 0.13 0.15 0.17 0.22 0.25 0.27 0.32 0.39 0.43 0.46 0.50 0.48 0.46 0.42 0.40 0.45 0.43 0.11 0.03 0.06 0.14 0.20 0.21 0.21 0.23 0.22 0.19
0.00 0.00 0.00 0.00 0.00 0.00 0.01 0.01 0.01 0.01 0.01 0.02 0.06 0.12 0.15 0.19 0.18 0.19 0.22 0.32 0.44 0.44 0.42 0.44 0.46 0.50 0.56 0.58 0.59 0.53 0.43 0.37 0.41 0.26 0.07 0.06 0.11 0.21 0.27 0.26 0.25 0.23 0.20
0.00 0.00 0.00 0.00 0.00 0.00 0.01 0.01 0.01 0.01 0.02 0.03 0.09 0.19 0.26 0.30 0.31 0.29 0.31 0.38 0.52 0.65 0.68 0.68 0.63 0.58 0.60 0.60 0.63 0.61 0.52 0.42 0.38 0.36 0.20 0.10 0.12 0.21 0.33 0.36 0.32 0.28 0.24
0.00 0.00 0.00 0.00 0.00 0.00 0.00 0.00 0.01 0.01 0.03 0.05 0.09 0.19 0.29 0.42 0.53 0.56 0.58 0.55 0.58 0.67 0.74 0.79 0.80 0.83 0.78 0.73 0.71 0.67 0.62 0.58 0.51 0.48 0.36 0.23 0.19 0.24 0.40 0.49 0.43 0.35 0.31
0.00 0.00 0.00 0.00 0.00 0.00 0.00 0.00 0.00 0.01 0.03 0.05 0.07 0.11 0.21 0.48 0.88 0.91 0.82 0.75 0.62 0.54 0.54 0.57 0.67 0.83 0.92 0.97 1.01 0.92 0.87 0.91 0.82 0.74 0.61 0.46 0.36 0.39 0.50 0.56 0.63 0.53 0.44
0.00 0.00 0.00 0.00 0.00 0.00 0.00 0.00 0.00 0.01 0.02 0.04 0.04 0.06 0.14 0.42 0.85 0.91 0.70 0.52 0.38 0.36 0.37 0.36 0.39 0.56 0.67 0.79 0.94 0.98 1.04 1.19 1.24 1.13 0.92 0.74 0.52 0.47 0.53 0.69 0.81 0.86 0.72
0.00 0.00 0.00 0.00 0.00 0.00 0.00 0.00 0.01 0.01 0.02 0.04 0.03 0.03 0.06 0.26 0.65 0.75 0.53 0.31 0.21 0.20 0.21 0.22 0.23 0.32 0.43 0.48 0.58 0.68 0.79 0.96 1.19 1.30 1.24 0.91 0.64 0.51 0.64 0.81 0.86 0.93 0.82
0.00 0.00 0.00 0.00 0.00 0.00 0.00 0.01 0.01 0.01 0.02 0.03 0.03 0.02 0.03 0.12 0.50 0.67 0.49 0.24 0.15 0.14 0.16 0.15 0.12 0.17 0.31 0.44 0.54 0.57 0.58 0.70 0.98 1.23 1.37 1.18 0.93 0.80 0.92 1.13 1.23 1.22 1.04
0.00 0.00 0.00 0.00 0.00 0.01 0.01 0.01 0.01 0.01 0.02 0.02 0.02 0.02 0.02 0.04 0.33 0.66 0.58 0.26 0.15 0.12 0.14 0.16 0.12 0.11 0.26 0.43 0.48 0.44 0.40 0.47 0.63 0.92 1.15 1.20 1.17 1.20 1.30 1.55 1.69 1.63 1.47
0.00 0.00 0.00 0.00 0.00 0.01 0.01 0.01 0.01 0.02 0.02 0.02 0.02 0.01 0.01 0.02 0.17 0.58 0.73 0.34 0.17 0.13 0.12 0.13 0.18 0.22 0.32 0.40 0.38 0.39 0.45 0.41 0.41 0.49 0.59 0.69 0.78 0.85 1.07 1.37 1.55 1.61 1.59
0.00 0.00 0.00 0.00 0.00 0.01 0.01 0.01 0.01 0.01 0.02 0.01 0.01 0.01 0.01 0.02 0.07 0.35 0.74 0.56 0.29 0.21 0.19 0.18 0.17 0.24 0.30 0.34 0.38 0.39 0.48 0.47 0.45 0.53 0.55 0.53 0.57 0.68 0.82 1.07 1.34 1.53 1.65
0.00 0.00 0.00 0.00 0.01 0.01 0.01 0.02 0.02 0.02 0.02 0.02 0.02 0.02 0.02 0.02 0.07 0.23 0.45 0.56 0.44 0.26 0.21 0.17 0.17 0.21 0.27 0.33 0.34 0.36 0.40 0.43 0.46 0.46 0.43 0.43 0.49 0.60 0.73 0.91 1.12 1.30 1.38
0.00 0.00 0.00 0.00 0.00 0.01 0.02 0.02 0.02 0.02 0.04 0.05 0.05 0.04 0.03 0.04 0.10 0.23 0.25 0.27 0.33 0.30 0.29 0.27 0.22 0.24 0.25 0.20 0.20 0.26 0.30 0.32 0.40 0.43 0.37 0.34 0.41 0.54 0.62 0.73 0.87 1.06 1.18
0.00 0.00 0.00 0.01 0.01 0.02 0.02 0.02 0.03 0.05 0.14 0.17 0.14 0.10 0.09 0.11 0.25 0.40 0.28 0.18 0.22 0.28 0.29 0.26 0.22 0.21 0.17 0.13 0.12 0.14 0.17 0.23 0.32 0.37 0.33 0.29 0.31 0.42 0.54 0.67 0.83 0.97 1.15
0.00 0.00 0.00 0.01 0.02 0.02 0.02 0.03 0.05 0.07 0.20 0.30 0.23 0.23 0.29 0.41 0.46 0.52 0.44 0.37 0.39 0.43 0.40 0.36 0.27 0.21 0.19 0.16 0.12 0.10 0.11 0.17 0.23 0.26 0.28 0.29 0.32 0.39 0.48 0.60 0.80 0.96 1.11
0.00 0.00 0.01 0.02 0.02 0.03 0.03 0.03 0.04 0.06 0.12 0.14 0.15 0.21 0.24 0.42 0.43 0.35 0.33 0.32 0.38 0.43 0.42 0.40 0.25 0.18 0.17 0.16 0.15 0.12 0.10 0.13 0.15 0.20 0.26 0.29 0.34 0.40 0.47 0.54 0.71 0.91 1.02
0.01 0.01 0.02 0.03 0.03 0.03 0.04 0.07 0.08 0.06 0.06 0.06 0.08 0.11 0.19 0.29 0.29 0.25 0.24 0.22 0.23 0.25 0.30 0.25 0.17 0.15 0.14 0.14 0.14 0.13 0.12 0.10 0.13 0.19 0.23 0.26 0.31 0.37 0.44 0.50 0.61 0.76 0.89
0.01 0.02 0.03 0.04 0.05 0.06 0.08 0.10 0.13 0.14 0.11 0.06 0.04 0.06 0.12 0.17 0.20 0.19 0.19 0.21 0.17 0.13 0.15 0.16 0.16 0.15 0.15 0.16 0.15 0.15 0.14 0.13 0.15 0.17 0.18 0.20 0.26 0.34 0.39 0.44 0.51 0.66 0.79
0.01 0.02 0.04 0.05 0.07 0.08 0.10 0.12 0.13 0.14 0.13 0.10 0.07 0.06 0.07 0.10 0.11 0.12 0.14 0.19 0.18 0.14 0.12 0.13 0.14 0.17 0.17 0.16 0.16 0.15 0.15 0.15 0.14 0.16 0.17 0.18 0.22 0.30 0.35 0.37 0.44 0.55 0.71
0.01 0.03 0.06 0.07 0.08 0.09 0.11 0.14 0.16 0.17 0.17 0.15 0.12 0.11 0.16 0.20 0.19 0.14 0.13 0.16 0.18 0.16 0.14 0.15 0.15 0.16 0.17 0.18 0.18 0.17 0.17 0.15 0.14 0.15 0.15 0.16 0.19 0.25 0.30 0.33 0.40 0.48 0.58
0.03 0.04 0.05 0.07 0.09 0.12 0.16 0.19 0.21 0.24 0.23 0.18 0.13 0.12 0.28 0.37 0.27 0.18 0.16 0.17 0.20 0.20 0.19 0.18 0.17 0.17 0.17 0.18 0.19 0.18 0.17 0.14 0.12 0.13 0.14 0.14 0.16 0.20 0.22 0.27 0.33 0.40 0.50
0.05 0.06 0.07 0.10 0.13 0.16 0.20 0.22 0.24 0.25 0.22 0.20 0.15 0.11 0.18 0.20 0.19 0.19 0.17 0.16 0.17 0.19 0.21 0.24 0.22 0.19 0.20 0.21 0.22 0.22 0.18 0.14 0.12 0.13 0.14 0.14 0.15 0.16 0.18 0.22 0.27 0.33 0.42
0.07 0.10 0.11 0.12 0.14 0.18 0.20 0.19 0.22 0.24 0.23 0.20 0.19 0.17 0.17 0.18 0.18 0.19 0.19 0.18 0.18 0.18 0.18 0.21 0.23 0.20 0.18 0.18 0.19 0.22 0.22 0.17 0.14 0.16 0.19 0.17 0.15 0.14 0.16 0.19 0.22 0.29 0.38
0.10 0.13 0.16 0.17 0.18 0.20 0.23 0.23 0.23 0.24 0.24 0.23 0.21 0.19 0.19 0.18 0.17 0.17 0.16 0.16 0.17 0.17 0.17 0.21 0.22 0.20 0.19 0.18 0.17 0.16 0.16 0.16 0.19 0.21 0.21 0.22 0.19 0.16 0.18 0.21 0.22 0.26 0.35
0.12 0.15 0.18 0.21 0.25 0.26 0.27 0.25 0.24 0.23 0.23 0.22 0.20 0.19 0.18 0.17 0.16 0.14 0.13 0.14 0.15 0.15 0.15 0.18 0.21 0.22 0.19 0.17 0.16 0.15 0.14 0.17 0.23 0.33 0.40 0.38 0.29 0.21 0.22 0.24 0.24 0.26 0.33
0.12 0.15 0.20 0.24 0.28 0.29 0.31 0.31 0.28 0.25 0.25 0.22 0.21 0.20 0.20 0.19 0.17 0.16 0.15 0.16 0.18 0.16 0.15 0.16 0.19 0.21 0.19 0.17 0.16 0.16 0.17 0.21 0.27 0.35 0.48 0.54 0.41 0.28 0.25 0.28 0.26 0.28 0.33

GEFSGL_prec_meanprecacc_132.txt.gz
Total_Precipitation_Accumulation
0.00 0.00 0.00 0.00 0.00 0.01 0.01 0.02 0.02 0.02 0.02 0.02 0.04 0.06 0.09 0.12 0.13 0.15 0.18 0.23 0.26 0.27 0.32 0.39 0.43 0.46 0.50 0.48 0.46 0.42 0.40 0.45 0.43 0.11 0.03 0.06 0.14 0.20 0.21 0.21 0.23 0.22 0.19
0.00 0.00 0.00 0.00 0.00 0.01 0.01 0.01 0.01 0.02 0.01 0.03 0.07 0.12 0.16 0.19 0.19 0.19 0.23 0.33 0.44 0.45 0.42 0.44 0.46 0.50 0.56 0.58 0.59 0.53 0.43 0.37 0.41 0.26 0.07 0.06 0.11 0.21 0.27 0.26 0.25 0.23 0.20
0.00 0.00 0.00 0.00 0.00 0.01 0.01 0.01 0.01 0.02 0.02 0.03 0.09 0.20 0.26 0.31 0.31 0.29 0.31 0.38 0.52 0.65 0.68 0.68 0.63 0.59 0.60 0.60 0.64 0.61 0.52 0.42 0.38 0.36 0.20 0.10 0.12 0.21 0.33 0.36 0.32 0.28 0.24
0.00 0.00 0.00 0.00 0.00 0.00 0.00 0.00 0.01 0.01 0.03 0.05 0.09 0.19 0.30 0.42 0.54 0.56 0.58 0.56 0.59 0.67 0.74 0.80 0.81 0.83 0.78 0.73 0.72 0.67 0.62 0.58 0.51 0.48 0.36 0.23 0.19 0.24 0.40 0.49 0.43 0.35 0.31
0.00 0.00 0.00 0.00 0.00 0.00 0.00 0.00 0.01 0.01 0.03 0.05 0.07 0.11 0.21 0.49 0.89 0.92 0.83 0.75 0.62 0.55 0.54 0.57 0.67 0.83 0.92 0.97 1.01 0.92 0.87 0.91 0.82 0.74 0.61 0.46 0.36 0.39 0.51 0.56 0.63 0.54 0.44
0.00 0.00 0.00 0.00 0.00 0.00 0.00 0.01 0.01 0.01 0.03 0.04 0.05 0.06 0.14 0.42 0.85 0.92 0.71 0.53 0.39 0.36 0.38 0.37 0.40 0.56 0.68 0.79 0.94 0.98 1.04 1.19 1.24 1.13 0.93 0.74 0.52 0.47 0.54 0.69 0.82 0.87 0.73
0.00 0.00 0.00 0.00 0.00 0.00 0.00 0.01 0.01 0.01 0.03 0.04 0.04 0.03 0.06 0.27 0.66 0.75 0.54 0.32 0.22 0.20 0.22 0.22 0.23 0.32 0.43 0.48 0.59 0.68 0.79 0.96 1.19 1.30 1.24 0.91 0.65 0.51 0.65 0.82 0.87 0.94 0.83
0.00 0.00 0.00 0.00 0.00 0.00 0.01 0.01 0.01 0.01 0.02 0.04 0.04 0.02 0.03 0.12 0.50 0.68 0.50 0.24 0.16 0.14 0.16 0.15 0.13 0.18 0.31 0.44 0.55 0.57 0.58 0.70 0.98 1.23 1.37 1.18 0.94 0.81 0.93 1.15 1.25 1.23 1.05
0.00 0.00 0.00 0.00 0.00 0.01 0.01 0.01 0.01 0.01 0.02 0.02 0.03 0.02 0.02 0.04 0.33 0.67 0.58 0.27 0.15 0.12 0.15 0.16 0.12 0.11 0.26 0.43 0.48 0.45 0.40 0.47 0.63 0.93 1.15 1.20 1.17 1.21 1.31 1.56 1.71 1.65 1.48
0.00 0.00 0.00 0.00 0.00 0.01 0.01 0.01 0.02 0.02 0.02 0.02 0.02 0.01 0.01 0.02 0.17 0.58 0.73 0.34 0.17 0.13 0.12 0.14 0.19 0.22 0.32 0.40 0.38 0.39 0.46 0.42 0.42 0.49 0.59 0.69 0.78 0.85 1.07 1.38 1.56 1.63 1.61
0.00 0.00 0.00 0.00 0.00 0.01 0.01 0.01 0.01 0.01 0.02 0.01 0.01 0.01 0.01 0.02 0.07 0.36 0.74 0.56 0.29 0.21 0.19 0.18 0.18 0.24 0.30 0.34 0.38 0.39 0.48 0.47 0.45 0.53 0.55 0.53 0.58 0.69 0.82 1.07 1.35 1.54 1.66
0.00 0.00 0.00 0.00 0.01 0.01 0.01 0.02 0.02 0.02 0.02 0.02 0.02 0.02 0.02 0.02 0.07 0.23 0.46 0.56 0.44 0.26 0.21 0.17 0.17 0.21 0.27 0.33 0.34 0.36 0.40 0.43 0.46 0.46 0.43 0.43 0.50 0.60 0.73 0.91 1.13 1.30 1.39
0.00 0.00 0.00 0.00 0.01 0.01 0.02 0.02 0.02 0.03 0.04 0.05 0.05 0.04 0.03 0.04 0.10 0.23 0.25 0.28 0.33 0.30 0.29 0.27 0.22 0.24 0.25 0.20 0.20 0.26 0.30 0.32 0.40 0.43 0.37 0.34 0.41 0.54 0.63 0.73 0.87 1.06 1.19
0.00 0.00 0.00 0.01 0.01 0.02 0.02 0.03 0.03 0.05 0.14 0.17 0.14 0.10 0.09 0.12 0.25 0.40 0.29 0.18 0.22 0.28 0.29 0.26 0.22 0.21 0.17 0.13 0.12 0.14 0.17 0.23 0.32 0.38 0.33 0.29 0.31 0.42 0.54 0.68 0.83 0.98 1.15
0.00 0.00 0.00 0.01 0.02 0.02 0.02 0.03 0.05 0.07 0.20 0.30 0.23 0.23 0.29 0.41 0.46 0.52 0.44 0.37 0.39 0.43 0.40 0.36 0.27 0.21 0.19 0.16 0.12 0.10 0.11 0.17 0.23 0.26 0.28 0.29 0.32 0.39 0.48 0.60 0.81 0.96 1.11
0.00 0.00 0.01 0.02 0.02 0.03 0.03 0.03 0.04 0.06 0.12 0.14 0.15 0.21 0.24 0.42 0.43 0.35 0.33 0.32 0.38 0.43 0.43 0.40 0.25 0.18 0.17 0.16 0.15 0.12 0.10 0.13 0.15 0.20 0.26 0.30 0.34 0.41 0.47 0.55 0.72 0.92 1.02
0.01 0.01 0.02 0.03 0.03 0.03 0.04 0.07 0.09 0.06 0.06 0.06 0.08 0.11 0.19 0.29 0.29 0.25 0.25 0.22 0.23 0.25 0.30 0.25 0.17 0.15 0.14 0.14 0.14 0.13 0.12 0.10 0.13 0.20 0.23 0.26 0.31 0.37 0.44 0.51 0.61 0.76 0.90
0.01 0.02 0.03 0.04 0.05 0.06 0.08 0.10 0.13 0.14 0.11 0.06 0.04 0.06 0.12 0.17 0.20 0.19 0.19 0.21 0.17 0.13 0.15 0.16 0.16 0.15 0.15 0.16 0.15 0.15 0.14 0.13 0.15 0.17 0.18 0.21 0.26 0.34 0.40 0.44 0.51 0.66 0.80
0.01 0.02 0.04 0.05 0.07 0.08 0.10 0.12 0.13 0.14 0.13 0.10 0.07 0.06 0.07 0.10 0.11 0.12 0.14 0.19 0.18 0.14 0.12 0.13 0.15 0.17 0.17 0.16 0.16 0.15 0.16 0.15 0.14 0.16 0.17 0.18 0.22 0.30 0.35 0.38 0.45 0.55 0.71
0.01 0.03 0.06 0.07 0.08 0.09 0.11 0.14 0.16 0.17 0.17 0.15 0.12 0.11 0.16 0.20 0.19 0.14 0.13 0.16 0.18 0.16 0.14 0.15 0.15 0.16 0.17 0.18 0.18 0.17 0.17 0.15 0.14 0.15 0.16 0.16 0.19 0.26 0.31 0.34 0.40 0.49 0.59
0.03 0.04 0.05 0.07 0.09 0.12 0.16 0.19 0.21 0.24 0.23 0.18 0.13 0.12 0.28 0.37 0.27 0.18 0.16 0.17 0.20 0.20 0.19 0.18 0.17 0.17 0.17 0.18 0.19 0.18 0.17 0.14 0.12 0.14 0.14 0.14 0.16 0.20 0.22 0.28 0.34 0.41 0.50
0.05 0.06 0.07 0.10 0.13 0.16 0.20 0.22 0.24 0.25 0.22 0.20 0.15 0.11 0.18 0.20 0.19 0.19 0.17 0.16 0.17 0.19 0.21 0.24 0.22 0.19 0.20 0.21 0.22 0.22 0.19 0.14 0.12 0.13 0.15 0.14 0.15 0.17 0.18 0.22 0.27 0.34 0.42
0.07 0.10 0.11 0.12 0.14 0.18 0.20 0.19 0.22 0.24 0.23 0.20 0.19 0.17 0.17 0.18 0.18 0.19 0.19 0.18 0.18 0.18 0.18 0.21 0.23 0.20 0.18 0.18 0.19 0.22 0.23 0.17 0.14 0.16 0.19 0.18 0.15 0.15 0.16 0.20 0.23 0.30 0.39
0.10 0.13 0.16 0.17 0.18 0.20 0.23 0.23 0.23 0.24 0.24 0.23 0.21 0.19 0.19 0.18 0.17 0.17 0.16 0.16 0.17 0.17 0.17 0.21 0.22 0.20 0.19 0.18 0.17 0.16 0.16 0.16 0.19 0.22 0.21 0.22 0.20 0.17 0.18 0.21 0.22 0.27 0.36
0.13 0.15 0.18 0.21 0.25 0.26 0.27 0.25 0.24 0.23 0.23 0.22 0.20 0.19 0.18 0.17 0.16 0.14 0.13 0.14 0.15 0.15 0.15 0.18 0.21 0.22 0.20 0.17 0.16 0.15 0.14 0.17 0.24 0.34 0.41 0.39 0.30 0.22 0.22 0.24 0.24 0.27 0.34
0.13 0.16 0.20 0.25 0.28 0.29 0.32 0.31 0.28 0.25 0.25 0.22 0.21 0.20 0.20 0.19 0.17 0.16 0.15 0.16 0.18 0.16 0.15 0.16 0.19 0.21 0.19 0.17 0.16 0.16 0.17 0.21 0.28 0.35 0.49 0.56 0.42 0.29 0.26 0.28 0.27 0.29 0.34

GEFSGL_prec_meanprecacc_138.txt.gz
Total_Precipitation_Accumulation
0.00 0.00 0.00 0.00 0.00 0.01 0.01 0.02 0.02 0.02 0.02 0.02 0.04 0.07 0.09 0.12 0.14 0.15 0.18 0.23 0.26 0.27 0.32 0.39 0.43 0.46 0.50 0.48 0.46 0.42 0.40 0.45 0.44 0.11 0.03 0.06 0.14 0.20 0.21 0.21 0.23 0.22 0.19
0.00 0.00 0.00 0.00 0.00 0.01 0.01 0.01 0.01 0.02 0.02 0.03 0.07 0.13 0.16 0.19 0.19 0.19 0.23 0.33 0.44 0.45 0.42 0.44 0.47 0.50 0.56 0.58 0.59 0.53 0.44 0.38 0.41 0.26 0.07 0.06 0.11 0.22 0.27 0.26 0.25 0.23 0.20
0.00 0.00 0.00 0.00 0.00 0.01 0.01 0.01 0.01 0.02 0.02 0.03 0.09 0.20 0.26 0.31 0.31 0.29 0.32 0.38 0.53 0.66 0.68 0.68 0.63 0.59 0.60 0.60 0.64 0.61 0.52 0.42 0.39 0.36 0.20 0.10 0.12 0.21 0.33 0.36 0.32 0.28 0.24
0.00 0.00 0.00 0.00 0.00 0.00 0.01 0.01 0.01 0.02 0.03 0.05 0.09 0.19 0.30 0.42 0.54 0.56 0.58 0.56 0.59 0.68 0.75 0.80 0.81 0.83 0.78 0.73 0.72 0.67 0.62 0.59 0.51 0.49 0.37 0.23 0.19 0.24 0.40 0.49 0.43 0.35 0.31
0.00 0.00 0.00 0.00 0.00 0.00 0.00 0.00 0.01 0.01 0.03 0.05 0.07 0.11 0.21 0.49 0.89 0.92 0.83 0.75 0.62 0.55 0.54 0.58 0.68 0.84 0.93 0.98 1.02 0.93 0.88 0.92 0.83 0.74 0.62 0.47 0.36 0.40 0.51 0.57 0.63 0.54 0.44
0.00 0.00 0.00 0.00 0.00 0.01 0.00 0.01 0.01 0.01 0.03 0.04 0.05 0.06 0.14 0.42 0.86 0.92 0.71 0.53 0.39 0.37 0.38 0.37 0.41 0.57 0.69 0.81 0.96 1.00 1.06 1.20 1.24 1.14 0.93 0.75 0.52 0.47 0.54 0.69 0.82 0.88 0.73
0.00 0.00 0.00 0.00 0.00 0.01 0.01 0.01 0.01 0.02 0.03 0.05 0.04 0.03 0.06 0.27 0.66 0.76 0.54 0.32 0.22 0.21 0.22 0.23 0.24 0.34 0.45 0.49 0.60 0.70 0.81 0.97 1.20 1.31 1.25 0.92 0.65 0.51 0.66 0.83 0.87 0.95 0.84
0.00 0.00 0.00 0.00 0.00 0.01 0.01 0.01 0.01 0.02 0.02 0.04 0.04 0.03 0.03 0.13 0.51 0.68 0.50 0.25 0.16 0.14 0.16 0.15 0.13 0.18 0.32 0.45 0.56 0.58 0.59 0.71 0.99 1.24 1.37 1.18 0.94 0.81 0.94 1.16 1.25 1.24 1.05
0.00 0.00 0.00 0.00 0.00 0.01 0.01 0.01 0.02 0.02 0.02 0.03 0.03 0.02 0.02 0.05 0.33 0.67 0.58 0.27 0.15 0.12 0.15 0.16 0.12 0.11 0.26 0.44 0.48 0.45 0.40 0.47 0.63 0.93 1.15 1.20 1.17 1.21 1.31 1.57 1.71 1.66 1.49
0.00 0.00 0.00 0.00 0.01 0.01 0.01 0.01 0.02 0.02 0.02 0.02 0.02 0.02 0.02 0.02 0.18 0.59 0.73 0.34 0.17 0.13 0.12 0.14 0.19 0.23 0.33 0.41 0.39 0.40 0.46 0.42 0.42 0.49 0.59 0.69 0.78 0.85 1.08 1.38 1.56 1.64 1.61
0.00 0.00 0.00 0.00 0.01 0.01 0.01 0.01 0.02 0.02 0.02 0.02 0.02 0.02 0.02 0.02 0.07 0.36 0.74 0.56 0.29 0.22 0.20 0.18 0.18 0.24 0.31 0.35 0.39 0.39 0.48 0.48 0.45 0.53 0.55 0.53 0.58 0.69 0.82 1.08 1.35 1.54 1.67
0.00 0.00 0.00 0.01 0.01 0.01 0.01 0.02 0.02 0.02 0.02 0.02 0.02 0.02 0.02 0.02 0.07 0.24 0.46 0.56 0.44 0.27 0.22 0.17 0.17 0.22 0.27 0.33 0.34 0.37 0.41 0.43 0.46 0.46 0.43 0.43 0.50 0.61 0.73 0.91 1.13 1.30 1.39
0.00 0.00 0.00 0.01 0.01 0.01 0.02 0.02 0.03 0.03 0.05 0.06 0.06 0.04 0.03 0.04 0.11 0.24 0.26 0.28 0.34 0.30 0.29 0.27 0.22 0.24 0.25 0.21 0.21 0.27 0.31 0.32 0.40 0.43 0.37 0.34 0.41 0.55 0.63 0.74 0.88 1.06 1.19
0.00 0.00 0.01 0.01 0.01 0.02 0.02 0.03 0.04 0.06 0.14 0.17 0.14 0.10 0.09 0.12 0.25 0.40 0.29 0.18 0.22 0.28 0.29 0.26 0.22 0.21 0.18 0.14 0.12 0.14 0.17 0.24 0.32 0.38 0.34 0.29 0.32 0.42 0.55 0.68 0.83 0.98 1.16
0.00 0.01 0.01 0.01 0.02 0.03 0.03 0.03 0.05 0.07 0.20 0.30 0.23 0.23 0.29 0.42 0.46 0.52 0.44 0.37 0.39 0.43 0.40 0.36 0.27 0.21 0.19 0.16 0.12 0.10 0.12 0.17 0.23 0.26 0.29 0.30 0.32 0.40 0.48 0.60 0.81 0.97 1.12
0.00 0.01 0.01 0.02 0.03 0.03 0.03 0.03 0.04 0.07 0.12 0.14 0.15 0.21 0.24 0.42 0.43 0.35 0.33 0.32 0.38 0.43 0.43 0.40 0.25 0.18 0.18 0.16 0.15 0.12 0.10 0.13 0.16 0.20 0.26 0.30 0.34 0.41 0.48 0.55 0.72 0.92 1.03
0.01 0.02 0.03 0.03 0.03 0.04 0.05 0.07 0.09 0.07 0.06 0.06 0.08 0.11 0.19 0.29 0.29 0.25 0.25 0.22 0.23 0.25 0.30 0.25 0.18 0.15 0.15 0.14 0.14 0.14 0.12 0.10 0.14 0.20 0.23 0.26 0.31 0.37 0.44 0.51 0.61 0.77 0.90
0.01 0.02 0.03 0.04 0.05 0.07 0.08 0.10 0.13 0.14 0.11 0.06 0.04 0.06 0.12 0.18 0.20 0.19 0.19 0.21 0.18 0.13 0.16 0.16 0.16 0.16 0.16 0.17 0.16 0.15 0.14 0.13 0.16 0.18 0.19 0.21 0.27 0.34 0.40 0.44 0.52 0.67 0.80
0.01 0.02 0.04 0.06 0.07 0.08 0.10 0.12 0.13 0.14 0.13 0.10 0.07 0.06 0.07 0.10 0.11 0.12 0.15 0.19 0.18 0.14 0.13 0.14 0.15 0.17 0.17 0.17 0.17 0.16 0.16 0.15 0.14 0.16 0.17 0.18 0.22 0.31 0.36 0.38 0.45 0.55 0.72
0.01 0.03 0.06 0.07 0.08 0.09 0.11 0.14 0.16 0.18 0.17 0.15 0.12 0.11 0.16 0.21 0.19 0.14 0.13 0.16 0.19 0.16 0.14 0.15 0.15 0.16 0.18 0.18 0.18 0.18 0.18 0.16 0.15 0.16 0.16 0.16 0.19 0.26 0.31 0.34 0.41 0.49 0.60
0.03 0.04 0.06 0.07 0.09 0.12 0.16 0.19 0.21 0.24 0.23 0.18 0.13 0.12 0.28 0.37 0.27 0.18 0.16 0.17 0.20 0.20 0.19 0.18 0.17 0.17 0.17 0.18 0.19 0.19 0.18 0.15 0.13 0.14 0.15 0.15 0.17 0.20 0.22 0.28 0.34 0.41 0.51
0.06 0.06 0.07 0.10 0.13 0.16 0.20 0.22 0.24 0.25 0.23 0.20 0.15 0.11 0.18 0.21 0.19 0.19 0.18 0.16 0.17 0.19 0.21 0.24 0.22 0.19 0.20 0.21 0.22 0.22 0.19 0.15 0.12 0.14 0.15 0.14 0.15 0.17 0.19 0.23 0.27 0.34 0.42
0.08 0.10 0.11 0.12 0.14 0.18 0.20 0.20 0.22 0.24 0.23 0.20 0.19 0.18 0.17 0.18 0.18 0.19 0.19 0.18 0.18 0.18 0.18 0.21 0.24 0.20 0.18 0.18 0.20 0.23 0.23 0.17 0.14 0.16 0.19 0.18 0.16 0.15 0.17 0.20 0.23 0.30 0.39
0.11 0.13 0.16 0.17 0.18 0.20 0.23 0.23 0.23 0.24 0.24 0.23 0.21 0.19 0.19 0.18 0.18 0.17 0.17 0.17 0.17 0.18 0.18 0.21 0.23 0.21 0.19 0.18 0.17 0.17 0.17 0.16 0.19 0.22 0.22 0.23 0.20 0.17 0.19 0.22 0.22 0.27 0.36
0.13 0.16 0.18 0.21 0.25 0.27 0.27 0.26 0.25 0.24 0.24 0.22 0.20 0.20 0.18 0.17 0.16 0.15 0.14 0.15 0.16 0.16 0.15 0.19 0.22 0.22 0.20 0.17 0.16 0.15 0.15 0.17 0.25 0.35 0.42 0.40 0.30 0.22 0.23 0.25 0.25 0.27 0.34
0.14 0.17 0.21 0.25 0.28 0.30 0.32 0.32 0.28 0.26 0.25 0.23 0.21 0.21 0.20 0.19 0.18 0.16 0.15 0.17 0.18 0.16 0.15 0.17 0.19 0.22 0.20 0.17 0.16 0.16 0.17 0.22 0.28 0.36 0.50 0.57 0.43 0.30 0.26 0.29 0.27 0.29 0.34

GEFSGL_prec_meanprecacc_144.txt.gz
Total_Precipitation_Accumulation
0.01 0.02 0.02 0.01 0.01 0.01 0.02 0.02 0.02 0.02 0.02 0.02 0.04 0.07 0.09 0.13 0.14 0.16 0.19 0.23 0.27 0.28 0.32 0.39 0.43 0.46 0.51 0.48 0.46 0.43 0.40 0.46 0.44 0.11 0.03 0.06 0.14 0.20 0.21 0.21 0.23 0.22 0.19
0.01 0.01 0.01 0.02 0.02 0.02 0.02 0.01 0.01 0.02 0.02 0.03 0.07 0.13 0.16 0.19 0.19 0.20 0.24 0.33 0.44 0.45 0.42 0.44 0.47 0.50 0.56 0.58 0.59 0.54 0.44 0.38 0.42 0.27 0.07 0.06 0.11 0.22 0.27 0.26 0.25 0.23 0.20
0.01 0.01 0.01 0.02 0.02 0.02 0.02 0.01 0.02 0.02 0.02 0.03 0.09 0.20 0.26 0.31 0.32 0.30 0.32 0.38 0.53 0.66 0.68 0.69 0.63 0.59 0.61 0.60 0.64 0.61 0.52 0.42 0.39 0.37 0.20 0.11 0.12 0.22 0.34 0.37 0.32 0.28 0.24
0.01 0.01 0.01 0.01 0.01 0.01 0.01 0.02 0.02 0.02 0.03 0.05 0.10 0.20 0.30 0.42 0.54 0.57 0.59 0.56 0.59 0.68 0.75 0.80 0.81 0.83 0.78 0.73 0.72 0.67 0.63 0.59 0.52 0.50 0.37 0.23 0.19 0.24 0.41 0.49 0.43 0.35 0.31
0.00 0.01 0.01 0.01 0.01 0.01 0.01 0.01 0.02 0.02 0.03 0.06 0.07 0.11 0.21 0.49 0.89 0.92 0.83 0.76 0.63 0.56 0.55 0.58 0.68 0.84 0.93 0.98 1.03 0.94 0.89 0.93 0.85 0.76 0.63 0.48 0.37 0.40 0.51 0.57 0.64 0.54 0.44
0.00 0.00 0.00 0.01 0.01 0.01 0.01 0.01 0.01 0.02 0.03 0.04 0.05 0.07 0.14 0.42 0.86 0.93 0.71 0.54 0.40 0.38 0.39 0.38 0.42 0.58 0.70 0.82 0.97 1.01 1.07 1.22 1.26 1.16 0.95 0.76 0.53 0.48 0.55 0.70 0.83 0.88 0.73
0.00 0.00 0.00 0.01 0.01 0.01 0.01 0.01 0.02 0.02 0.03 0.05 0.04 0.03 0.07 0.27 0.67 0.77 0.55 0.33 0.23 0.21 0.23 0.24 0.25 0.34 0.46 0.50 0.62 0.72 0.82 0.99 1.22 1.32 1.26 0.93 0.67 0.52 0.67 0.83 0.88 0.95 0.84
0.00 0.00 0.00 0.00 0.01 0.01 0.01 0.01 0.02 0.02 0.03 0.04 0.04 0.03 0.03 0.13 0.52 0.69 0.51 0.25 0.16 0.15 0.17 0.16 0.14 0.19 0.32 0.46 0.56 0.59 0.59 0.71 1.00 1.25 1.39 1.19 0.95 0.82 0.94 1.16 1.26 1.24 1.06
0.00 0.00 0.00 0.00 0.01 0.01 0.01 0.02 0.02 0.02 0.02 0.03 0.03 0.03 0.03 0.05 0.34 0.68 0.59 0.27 0.16 0.13 0.15 0.17 0.13 0.12 0.27 0.45 0.49 0.45 0.41 0.48 0.64 0.94 1.16 1.20 1.18 1.22 1.32 1.57 1.72 1.66 1.49
0.00 0.00 0.00 0.00 0.01 0.01 0.02 0.02 0.02 0.02 0.02 0.02 0.02 0.02 0.02 0.03 0.19 0.59 0.74 0.35 0.18 0.14 0.13 0.14 0.19 0.23 0.34 0.42 0.39 0.40 0.47 0.43 0.43 0.49 0.59 0.69 0.78 0.85 1.08 1.38 1.57 1.64 1.62
0.00 0.00 0.00 0.01 0.01 0.01 0.01 0.02 0.02 0.02 0.02 0.02 0.02 0.02 0.02 0.03 0.08 0.37 0.75 0.57 0.30 0.22 0.20 0.19 0.18 0.25 0.31 0.35 0.39 0.40 0.49 0.48 0.46 0.54 0.56 0.54 0.58 0.69 0.83 1.08 1.35 1.55 1.68
0.00 0.00 0.00 0.01 0.01 0.01 0.02 0.02 0.02 0.03 0.03 0.03 0.03 0.03 0.03 0.03 0.08 0.25 0.47 0.57 0.45 0.27 0.22 0.17 0.17 0.22 0.28 0.34 0.35 0.37 0.41 0.44 0.46 0.47 0.43 0.43 0.50 0.61 0.73 0.91 1.13 1.30 1.39
0.00 0.00 0.01 0.01 0.01 0.01 0.02 0.03 0.03 0.04 0.05 0.06 0.06 0.05 0.04 0.05 0.12 0.26 0.27 0.30 0.35 0.31 0.30 0.28 0.23 0.25 0.26 0.21 0.21 0.27 0.31 0.32 0.40 0.43 0.38 0.35 0.42 0.55 0.63 0.74 0.88 1.07 1.19
0.01 0.01 0.01 0.01 0.02 0.02 0.03 0.03 0.04 0.06 0.15 0.17 0.14 0.11 0.10 0.12 0.26 0.41 0.30 0.20 0.24 0.29 0.29 0.27 0.23 0.22 0.19 0.14 0.13 0.15 0.18 0.24 0.32 0.38 0.34 0.30 0.32 0.43 0.55 0.69 0.84 0.98 1.16
0.02 0.01 0.01 0.02 0.03 0.03 0.03 0.03 0.05 0.07 0.21 0.30 0.23 0.23 0.29 0.42 0.46 0.53 0.45 0.38 0.40 0.44 0.41 0.36 0.27 0.21 0.20 0.16 0.12 0.10 0.12 0.17 0.23 0.26 0.29 0.30 0.33 0.40 0.49 0.61 0.82 0.97 1.12
0.02 0.01 0.02 0.03 0.03 0.04 0.04 0.04 0.05 0.07 0.13 0.15 0.16 0.21 0.24 0.42 0.43 0.36 0.34 0.33 0.39 0.44 0.44 0.41 0.25 0.18 0.18 0.16 0.15 0.12 0.11 0.13 0.16 0.21 0.27 0.30 0.35 0.41 0.48 0.55 0.72 0.92 1.03
0.03 0.02 0.03 0.04 0.04 0.04 0.05 0.08 0.10 0.08 0.08 0.08 0.09 0.13 0.21 0.30 0.30 0.26 0.25 0.23 0.24 0.26 0.30 0.25 0.18 0.15 0.15 0.14 0.14 0.14 0.12 0.10 0.14 0.20 0.24 0.27 0.32 0.38 0.45 0.52 0.62 0.77 0.90
0.02 0.03 0.04 0.04 0.06 0.07 0.09 0.11 0.13 0.14 0.12 0.07 0.06 0.08 0.14 0.20 0.21 0.21 0.20 0.21 0.18 0.13 0.16 0.16 0.16 0.16 0.16 0.17 0.16 0.15 0.14 0.13 0.16 0.18 0.19 0.21 0.27 0.35 0.41 0.45 0.52 0.67 0.81
0.01 0.02 0.04 0.06 0.07 0.09 0.10 0.12 0.13 0.14 0.14 0.11 0.08 0.09 0.11 0.12 0.13 0.13 0.16 0.20 0.18 0.14 0.13 0.14 0.15 0.17 0.17 0.17 0.17 0.16 0.16 0.16 0.14 0.16 0.17 0.18 0.22 0.31 0.36 0.38 0.45 0.56 0.72
0.02 0.04 0.07 0.08 0.09 0.10 0.12 0.15 0.17 0.18 0.18 0.15 0.13 0.12 0.18 0.22 0.20 0.15 0.14 0.17 0.19 0.16 0.14 0.15 0.15 0.16 0.18 0.18 0.18 0.18 0.18 0.16 0.15 0.17 0.17 0.17 0.20 0.26 0.32 0.34 0.41 0.50 0.60
0.04 0.05 0.07 0.08 0.09 0.12 0.16 0.19 0.22 0.25 0.24 0.19 0.13 0.12 0.29 0.37 0.27 0.18 0.16 0.17 0.20 0.20 0.19 0.18 0.17 0.17 0.18 0.19 0.19 0.19 0.18 0.15 0.14 0.15 0.16 0.16 0.18 0.21 0.23 0.29 0.35 0.42 0.51
0.07 0.07 0.08 0.10 0.13 0.16 0.20 0.22 0.25 0.26 0.23 0.21 0.15 0.12 0.18 0.21 0.19 0.19 0.18 0.16 0.17 0.19 0.21 0.24 0.22 0.19 0.20 0.22 0.23 0.23 0.20 0.15 0.13 0.14 0.16 0.15 0.16 0.18 0.19 0.23 0.28 0.35 0.43
0.09 0.11 0.12 0.13 0.15 0.19 0.22 0.20 0.23 0.24 0.23 0.21 0.20 0.18 0.17 0.18 0.18 0.19 0.19 0.18 0.18 0.18 0.18 0.21 0.24 0.20 0.18 0.19 0.21 0.24 0.24 0.19 0.15 0.17 0.20 0.18 0.16 0.16 0.17 0.21 0.24 0.30 0.40
0.12 0.15 0.17 0.18 0.19 0.21 0.24 0.24 0.24 0.25 0.25 0.23 0.21 0.20 0.19 0.19 0.18 0.17 0.17 0.17 0.18 0.18 0.18 0.22 0.23 0.21 0.20 0.19 0.18 0.18 0.18 0.17 0.20 0.24 0.23 0.24 0.21 0.18 0.19 0.22 0.23 0.28 0.36
0.15 0.18 0.20 0.22 0.26 0.27 0.28 0.27 0.25 0.24 0.24 0.23 0.21 0.20 0.19 0.18 0.16 0.15 0.14 0.15 0.16 0.16 0.16 0.19 0.22 0.23 0.21 0.19 0.17 0.16 0.16 0.19 0.26 0.36 0.43 0.41 0.31 0.23 0.23 0.25 0.25 0.27 0.35
0.16 0.19 0.22 0.26 0.29 0.31 0.33 0.33 0.29 0.27 0.26 0.23 0.22 0.22 0.21 0.20 0.18 0.17 0.16 0.17 0.19 0.17 0.16 0.17 0.20 0.23 0.21 0.19 0.17 0.17 0.19 0.23 0.29 0.37 0.51 0.58 0.44 0.30 0.27 0.30 0.28 0.30 0.35

GEFSGL_prec_meanprecacc_150.txt.gz
Total_Precipitation_Accumulation
0.06 0.08 0.09 0.10 0.09 0.07 0.07 0.07 0.07 0.05 0.03 0.03 0.04 0.07 0.09 0.13 0.14 0.16 0.20 0.25 0.28 0.29 0.33 0.40 0.43 0.46 0.51 0.48 0.46 0.43 0.41 0.46 0.44 0.12 0.04 0.06 0.15 0.20 0.21 0.21 0.23 0.22 0.19
0.04 0.07 0.09 0.11 0.12 0.08 0.06 0.06 0.06 0.06 0.05 0.04 0.08 0.13 0.16 0.19 0.19 0.20 0.24 0.34 0.45 0.46 0.43 0.45 0.47 0.50 0.56 0.58 0.60 0.54 0.44 0.38 0.42 0.27 0.08 0.06 0.11 0.22 0.27 0.26 0.25 0.23 0.20
0.05 0.06 0.08 0.12 0.14 0.11 0.06 0.04 0.06 0.07 0.07 0.07 0.10 0.20 0.26 0.31 0.32 0.30 0.33 0.39 0.54 0.67 0.69 0.69 0.64 0.59 0.61 0.60 0.64 0.62 0.53 0.43 0.40 0.37 0.21 0.11 0.13 0.22 0.34 0.37 0.32 0.28 0.24
0.04 0.05 0.05 0.07 0.10 0.10 0.07 0.05 0.05 0.05 0.06 0.10 0.13 0.20 0.30 0.43 0.54 0.57 0.59 0.57 0.60 0.68 0.75 0.80 0.81 0.83 0.79 0.74 0.73 0.68 0.63 0.60 0.53 0.50 0.38 0.24 0.20 0.25 0.41 0.49 0.43 0.35 0.31
0.03 0.04 0.04 0.04 0.05 0.08 0.08 0.06 0.05 0.06 0.06 0.08 0.10 0.14 0.22 0.49 0.89 0.92 0.84 0.76 0.63 0.56 0.55 0.59 0.69 0.86 0.94 0.99 1.03 0.94 0.90 0.94 0.86 0.78 0.65 0.49 0.38 0.41 0.52 0.58 0.64 0.54 0.45
0.02 0.02 0.02 0.04 0.05 0.05 0.07 0.07 0.05 0.05 0.07 0.08 0.07 0.09 0.16 0.43 0.86 0.93 0.72 0.54 0.41 0.38 0.40 0.39 0.43 0.60 0.71 0.83 0.99 1.02 1.08 1.23 1.27 1.17 0.96 0.77 0.55 0.49 0.55 0.70 0.83 0.88 0.73
0.01 0.02 0.02 0.03 0.04 0.04 0.04 0.06 0.07 0.06 0.06 0.08 0.07 0.06 0.09 0.29 0.68 0.77 0.56 0.33 0.23 0.22 0.24 0.25 0.26 0.35 0.47 0.51 0.63 0.73 0.83 1.00 1.23 1.34 1.28 0.95 0.68 0.53 0.67 0.84 0.88 0.95 0.84
0.01 0.01 0.02 0.02 0.03 0.03 0.04 0.05 0.05 0.06 0.06 0.06 0.06 0.05 0.06 0.15 0.54 0.71 0.53 0.26 0.17 0.16 0.17 0.17 0.14 0.19 0.33 0.47 0.57 0.60 0.60 0.73 1.02 1.26 1.40 1.20 0.95 0.82 0.94 1.16 1.26 1.24 1.06
0.01 0.01 0.01 0.02 0.02 0.03 0.03 0.03 0.04 0.05 0.05 0.05 0.05 0.04 0.04 0.06 0.36 0.70 0.62 0.29 0.17 0.14 0.16 0.18 0.13 0.12 0.29 0.47 0.50 0.47 0.42 0.49 0.65 0.95 1.17 1.21 1.18 1.22 1.32 1.57 1.72 1.66 1.49
0.01 0.01 0.01 0.02 0.02 0.02 0.02 0.03 0.04 0.04 0.04 0.04 0.05 0.04 0.03 0.04 0.20 0.61 0.76 0.37 0.19 0.15 0.14 0.15 0.21 0.25 0.36 0.44 0.40 0.41 0.48 0.44 0.44 0.50 0.60 0.70 0.79 0.86 1.08 1.38 1.57 1.64 1.63
0.01 0.01 0.02 0.02 0.02 0.02 0.03 0.03 0.04 0.04 0.04 0.04 0.04 0.04 0.04 0.04 0.10 0.39 0.77 0.58 0.31 0.23 0.21 0.20 0.19 0.27 0.33 0.37 0.40 0.40 0.50 0.49 0.46 0.54 0.56 0.54 0.59 0.70 0.83 1.09 1.36 1.55 1.69
0.01 0.01 0.02 0.02 0.02 0.03 0.04 0.04 0.04 0.05 0.05 0.05 0.05 0.05 0.04 0.05 0.10 0.27 0.49 0.59 0.46 0.28 0.23 0.18 0.18 0.24 0.29 0.35 0.35 0.38 0.42 0.44 0.46 0.47 0.44 0.44 0.51 0.61 0.74 0.92 1.13 1.31 1.40
0.01 0.01 0.02 0.02 0.02 0.03 0.04 0.05 0.05 0.06 0.07 0.08 0.08 0.07 0.06 0.07 0.14 0.28 0.30 0.33 0.38 0.34 0.32 0.30 0.25 0.27 0.27 0.22 0.22 0.28 0.31 0.32 0.40 0.43 0.38 0.35 0.42 0.55 0.64 0.75 0.88 1.07 1.19
0.02 0.01 0.02 0.02 0.03 0.03 0.03 0.04 0.06 0.07 0.16 0.18 0.15 0.11 0.10 0.13 0.26 0.42 0.32 0.22 0.27 0.32 0.33 0.30 0.26 0.25 0.20 0.15 0.14 0.15 0.18 0.24 0.33 0.38 0.34 0.30 0.33 0.43 0.56 0.69 0.84 0.99 1.16
0.03 0.02 0.02 0.03 0.03 0.04 0.04 0.04 0.06 0.08 0.21 0.31 0.23 0.23 0.29 0.42 0.47 0.53 0.45 0.38 0.42 0.46 0.43 0.38 0.29 0.23 0.21 0.17 0.13 0.10 0.12 0.18 0.24 0.27 0.29 0.30 0.33 0.41 0.49 0.61 0.82 0.97 1.13
0.04 0.03 0.04 0.04 0.04 0.04 0.05 0.05 0.06 0.08 0.13 0.15 0.16 0.22 0.25 0.43 0.44 0.37 0.35 0.34 0.41 0.46 0.45 0.42 0.27 0.19 0.18 0.16 0.15 0.13 0.11 0.13 0.16 0.21 0.27 0.30 0.35 0.42 0.48 0.55 0.73 0.93 1.04
0.05 0.05 0.05 0.05 0.05 0.05 0.06 0.09 0.10 0.09 0.09 0.09 0.10 0.13 0.21 0.31 0.31 0.27 0.27 0.25 0.26 0.27 0.31 0.26 0.19 0.16 0.15 0.14 0.14 0.14 0.12 0.10 0.14 0.20 0.24 0.27 0.32 0.38 0.45 0.52 0.62 0.77 0.91
0.05 0.06 0.07 0.06 0.07 0.08 0.09 0.11 0.14 0.15 0.13 0.09 0.08 0.10 0.15 0.21 0.23 0.22 0.23 0.24 0.21 0.16 0.17 0.17 0.17 0.16 0.16 0.17 0.16 0.15 0.14 0.13 0.16 0.18 0.19 0.21 0.27 0.35 0.41 0.45 0.53 0.68 0.81
0.06 0.06 0.07 0.08 0.09 0.09 0.11 0.13 0.14 0.15 0.14 0.12 0.09 0.11 0.15 0.17 0.17 0.17 0.19 0.22 0.20 0.15 0.14 0.14 0.15 0.17 0.17 0.17 0.17 0.16 0.16 0.16 0.14 0.16 0.18 0.18 0.22 0.31 0.36 0.39 0.46 0.56 0.73
0.07 0.09 0.10 0.10 0.10 0.11 0.13 0.15 0.17 0.19 0.18 0.16 0.14 0.13 0.21 0.26 0.24 0.18 0.16 0.18 0.20 0.17 0.15 0.16 0.16 0.16 0.18 0.18 0.18 0.18 0.18 0.17 0.15 0.17 0.17 0.17 0.20 0.27 0.32 0.35 0.42 0.50 0.61
0.09 0.09 0.10 0.11 0.11 0.13 0.17 0.20 0.22 0.25 0.24 0.20 0.14 0.13 0.31 0.39 0.29 0.19 0.17 0.18 0.21 0.21 0.19 0.19 0.18 0.18 0.18 0.19 0.19 0.19 0.18 0.16 0.14 0.15 0.16 0.16 0.18 0.21 0.23 0.29 0.35 0.43 0.52
0.11 0.11 0.11 0.13 0.15 0.18 0.21 0.23 0.25 0.27 0.25 0.22 0.16 0.13 0.20 0.22 0.21 0.20 0.18 0.18 0.18 0.20 0.21 0.24 0.22 0.19 0.20 0.23 0.24 0.23 0.20 0.15 0.13 0.14 0.16 0.15 0.16 0.18 0.20 0.24 0.28 0.35 0.44
0.13 0.14 0.15 0.15 0.17 0.21 0.23 0.22 0.24 0.26 0.25 0.23 0.21 0.19 0.18 0.19 0.19 0.19 0.20 0.19 0.19 0.19 0.19 0.22 0.24 0.20 0.18 0.19 0.21 0.24 0.24 0.19 0.15 0.17 0.20 0.19 0.16 0.16 0.18 0.21 0.24 0.31 0.40
0.16 0.18 0.20 0.20 0.21 0.23 0.25 0.26 0.25 0.26 0.27 0.25 0.23 0.21 0.20 0.20 0.19 0.18 0.17 0.17 0.18 0.18 0.19 0.22 0.23 0.21 0.20 0.19 0.19 0.18 0.18 0.17 0.20 0.24 0.23 0.24 0.22 0.18 0.19 0.22 0.23 0.28 0.37
0.18 0.20 0.22 0.24 0.28 0.29 0.30 0.29 0.27 0.26 0.26 0.25 0.23 0.22 0.20 0.18 0.17 0.16 0.15 0.15 0.16 0.16 0.16 0.19 0.23 0.23 0.21 0.19 0.17 0.17 0.16 0.19 0.26 0.36 0.44 0.41 0.32 0.23 0.24 0.26 0.26 0.28 0.35
0.18 0.21 0.24 0.28 0.31 0.33 0.35 0.35 0.31 0.29 0.29 0.26 0.24 0.24 0.23 0.21 0.19 0.17 0.17 0.18 0.19 0.18 0.17 0.18 0.20 0.23 0.21 0.19 0.17 0.17 0.19 0.23 0.30 0.38 0.52 0.58 0.45 0.31 0.27 0.30 0.28 0.30 0.35

GEFSGL_prec_meanprecacc_156.txt.gz
Total_Precipitation_Accumulation
0.13 0.13 0.17 0.21 0.24 0.20 0.15 0.13 0.12 0.11 0.10 0.10 0.10 0.10 0.12 0.14 0.16 0.18 0.20 0.25 0.28 0.29 0.34 0.40 0.44 0.47 0.51 0.49 0.47 0.43 0.41 0.46 0.45 0.12 0.04 0.06 0.15 0.20 0.21 0.21 0.23 0.22 0.19
0.11 0.12 0.14 0.18 0.25 0.25 0.17 0.11 0.11 0.11 0.11 0.10 0.13 0.17 0.19 0.21 0.20 0.21 0.24 0.34 0.46 0.46 0.44 0.45 0.47 0.51 0.56 0.59 0.60 0.54 0.44 0.38 0.43 0.28 0.08 0.06 0.12 0.22 0.28 0.26 0.25 0.23 0.20
0.12 0.11 0.12 0.17 0.22 0.27 0.25 0.14 0.10 0.10 0.11 0.12 0.16 0.26 0.30 0.33 0.33 0.30 0.33 0.39 0.54 0.67 0.69 0.69 0.64 0.59 0.61 0.61 0.64 0.62 0.53 0.44 0.40 0.38 0.21 0.11 0.13 0.22 0.34 0.37 0.33 0.28 0.24
0.09 0.12 0.10 0.12 0.15 0.20 0.26 0.22 0.14 0.09 0.09 0.14 0.17 0.25 0.34 0.46 0.56 0.58 0.59 0.57 0.60 0.68 0.76 0.81 0.82 0.83 0.79 0.74 0.73 0.68 0.64 0.60 0.53 0.51 0.39 0.25 0.20 0.25 0.41 0.50 0.44 0.36 0.32
0.06 0.09 0.09 0.08 0.10 0.15 0.21 0.23 0.20 0.14 0.09 0.11 0.14 0.17 0.25 0.52 0.92 0.94 0.84 0.76 0.64 0.57 0.56 0.60 0.70 0.86 0.95 1.00 1.04 0.95 0.90 0.94 0.86 0.78 0.65 0.50 0.39 0.42 0.53 0.58 0.64 0.54 0.45
0.04 0.05 0.07 0.08 0.09 0.11 0.15 0.21 0.22 0.19 0.16 0.12 0.10 0.12 0.19 0.46 0.89 0.95 0.73 0.55 0.41 0.39 0.41 0.40 0.44 0.60 0.72 0.85 1.00 1.03 1.09 1.24 1.28 1.17 0.97 0.78 0.55 0.49 0.56 0.71 0.83 0.88 0.74
0.02 0.03 0.06 0.07 0.08 0.09 0.09 0.14 0.20 0.20 0.19 0.17 0.12 0.10 0.12 0.31 0.71 0.79 0.57 0.34 0.24 0.23 0.25 0.26 0.27 0.37 0.49 0.52 0.64 0.74 0.84 1.01 1.24 1.34 1.28 0.95 0.68 0.54 0.68 0.84 0.88 0.96 0.84
0.02 0.03 0.04 0.06 0.06 0.08 0.09 0.11 0.13 0.17 0.19 0.18 0.14 0.10 0.09 0.18 0.57 0.74 0.56 0.27 0.18 0.16 0.18 0.17 0.15 0.20 0.34 0.47 0.58 0.60 0.61 0.74 1.03 1.27 1.40 1.21 0.96 0.82 0.95 1.17 1.26 1.24 1.06
0.02 0.03 0.03 0.04 0.05 0.07 0.08 0.09 0.11 0.13 0.15 0.16 0.15 0.11 0.09 0.10 0.39 0.74 0.66 0.31 0.18 0.14 0.17 0.18 0.14 0.13 0.30 0.48 0.51 0.48 0.43 0.50 0.67 0.96 1.17 1.22 1.19 1.22 1.32 1.57 1.72 1.66 1.49
0.01 0.02 0.03 0.04 0.04 0.05 0.06 0.07 0.09 0.11 0.12 0.13 0.14 0.12 0.11 0.09 0.24 0.66 0.82 0.42 0.23 0.16 0.15 0.16 0.23 0.26 0.38 0.45 0.42 0.44 0.50 0.46 0.45 0.51 0.61 0.70 0.79 0.86 1.08 1.38 1.57 1.65 1.63
0.01 0.02 0.03 0.03 0.03 0.04 0.06 0.07 0.09 0.11 0.11 0.11 0.12 0.11 0.11 0.11 0.15 0.44 0.83 0.65 0.36 0.26 0.23 0.21 0.21 0.29 0.34 0.38 0.42 0.42 0.53 0.51 0.48 0.56 0.57 0.55 0.59 0.70 0.83 1.09 1.36 1.55 1.69
0.02 0.02 0.03 0.03 0.04 0.05 0.07 0.08 0.09 0.11 0.12 0.11 0.11 0.12 0.10 0.10 0.16 0.33 0.56 0.66 0.52 0.33 0.26 0.20 0.20 0.27 0.32 0.37 0.38 0.41 0.44 0.46 0.47 0.48 0.44 0.44 0.51 0.61 0.74 0.92 1.14 1.31 1.40
0.03 0.03 0.03 0.04 0.05 0.06 0.06 0.08 0.09 0.11 0.14 0.14 0.14 0.12 0.11 0.12 0.19 0.34 0.36 0.40 0.45 0.39 0.37 0.35 0.29 0.31 0.31 0.25 0.25 0.31 0.33 0.33 0.41 0.44 0.38 0.35 0.42 0.55 0.64 0.75 0.88 1.07 1.19
0.04 0.03 0.04 0.05 0.06 0.07 0.07 0.07 0.09 0.11 0.21 0.23 0.20 0.16 0.14 0.17 0.31 0.47 0.37 0.28 0.34 0.39 0.41 0.39 0.35 0.32 0.25 0.18 0.17 0.17 0.19 0.25 0.33 0.38 0.34 0.30 0.33 0.43 0.56 0.69 0.84 0.99 1.17
0.05 0.05 0.06 0.06 0.08 0.09 0.09 0.08 0.09 0.10 0.23 0.33 0.26 0.26 0.32 0.44 0.50 0.57 0.50 0.42 0.46 0.52 0.50 0.45 0.34 0.28 0.25 0.20 0.15 0.12 0.13 0.19 0.24 0.27 0.29 0.30 0.33 0.41 0.49 0.61 0.82 0.97 1.13
0.07 0.07 0.08 0.09 0.09 0.09 0.11 0.12 0.13 0.13 0.16 0.17 0.19 0.25 0.28 0.46 0.47 0.40 0.39 0.38 0.45 0.51 0.50 0.46 0.31 0.23 0.21 0.19 0.17 0.14 0.12 0.14 0.16 0.21 0.27 0.31 0.35 0.42 0.48 0.55 0.73 0.93 1.04
0.08 0.10 0.12 0.11 0.10 0.10 0.11 0.14 0.16 0.16 0.16 0.14 0.14 0.17 0.24 0.34 0.34 0.30 0.31 0.30 0.31 0.32 0.35 0.29 0.21 0.19 0.17 0.16 0.16 0.15 0.13 0.10 0.14 0.20 0.24 0.27 0.32 0.38 0.45 0.52 0.62 0.77 0.91
0.10 0.13 0.15 0.13 0.13 0.13 0.14 0.16 0.17 0.18 0.18 0.15 0.13 0.14 0.19 0.24 0.25 0.26 0.28 0.31 0.27 0.20 0.19 0.19 0.19 0.18 0.18 0.18 0.17 0.16 0.15 0.14 0.16 0.18 0.19 0.22 0.28 0.36 0.41 0.45 0.53 0.68 0.81
0.13 0.15 0.17 0.16 0.16 0.16 0.16 0.17 0.17 0.17 0.17 0.15 0.13 0.17 0.21 0.22 0.21 0.21 0.23 0.25 0.23 0.18 0.16 0.16 0.17 0.19 0.19 0.18 0.17 0.17 0.16 0.16 0.15 0.17 0.18 0.18 0.23 0.32 0.36 0.39 0.46 0.57 0.73
0.15 0.20 0.21 0.20 0.19 0.19 0.18 0.19 0.20 0.21 0.20 0.18 0.16 0.16 0.26 0.31 0.27 0.22 0.20 0.21 0.22 0.19 0.16 0.17 0.17 0.18 0.19 0.19 0.19 0.19 0.19 0.17 0.15 0.17 0.17 0.17 0.20 0.27 0.32 0.35 0.42 0.51 0.61
0.18 0.19 0.22 0.22 0.20 0.21 0.22 0.23 0.25 0.27 0.26 0.21 0.15 0.15 0.33 0.40 0.30 0.21 0.20 0.21 0.23 0.22 0.21 0.20 0.20 0.20 0.20 0.20 0.20 0.19 0.18 0.16 0.14 0.15 0.16 0.16 0.18 0.22 0.24 0.30 0.36 0.43 0.52
0.20 0.21 0.23 0.23 0.24 0.25 0.27 0.26 0.28 0.29 0.26 0.24 0.18 0.16 0.23 0.24 0.21 0.20 0.20 0.19 0.20 0.22 0.23 0.26 0.24 0.21 0.22 0.24 0.24 0.24 0.20 0.16 0.13 0.15 0.16 0.16 0.17 0.19 0.20 0.24 0.29 0.36 0.44
0.22 0.25 0.27 0.26 0.25 0.29 0.30 0.26 0.27 0.28 0.27 0.24 0.23 0.21 0.20 0.21 0.20 0.20 0.20 0.20 0.21 0.21 0.21 0.24 0.26 0.22 0.19 0.20 0.22 0.25 0.25 0.19 0.16 0.18 0.21 0.19 0.17 0.17 0.18 0.22 0.24 0.32 0.41
0.25 0.28 0.30 0.30 0.30 0.30 0.31 0.31 0.29 0.29 0.29 0.27 0.25 0.23 0.22 0.21 0.20 0.19 0.18 0.18 0.19 0.20 0.20 0.24 0.25 0.23 0.21 0.21 0.20 0.19 0.19 0.18 0.21 0.24 0.24 0.25 0.22 0.19 0.20 0.23 0.24 0.29 0.37
0.27 0.29 0.32 0.34 0.36 0.36 0.35 0.34 0.31 0.30 0.29 0.27 0.25 0.24 0.22 0.21 0.19 0.17 0.16 0.16 0.17 0.17 0.17 0.20 0.24 0.25 0.22 0.20 0.18 0.17 0.17 0.21 0.27 0.37 0.44 0.42 0.32 0.24 0.24 0.27 0.27 0.29 0.36
0.27 0.29 0.33 0.37 0.39 0.40 0.41 0.40 0.36 0.33 0.32 0.28 0.26 0.26 0.25 0.24 0.21 0.19 0.18 0.19 0.21 0.19 0.18 0.19 0.21 0.24 0.22 0.20 0.18 0.18 0.20 0.24 0.31 0.39 0.53 0.60 0.46 0.32 0.28 0.31 0.29 0.31 0.36

GEFSGL_prec_meanprecacc_162.txt.gz
Total_Precipitation_Accumulation
0.36 0.33 0.35 0.41 0.43 0.41 0.37 0.30 0.25 0.25 0.23 0.23 0.27 0.28 0.28 0.29 0.27 0.25 0.24 0.27 0.30 0.30 0.35 0.41 0.44 0.47 0.52 0.49 0.47 0.44 0.42 0.47 0.45 0.12 0.04 0.06 0.15 0.20 0.22 0.21 0.23 0.22 0.19
0.33 0.35 0.34 0.37 0.44 0.44 0.36 0.29 0.26 0.25 0.24 0.20 0.24 0.33 0.36 0.36 0.34 0.32 0.31 0.37 0.47 0.47 0.44 0.45 0.48 0.51 0.57 0.59 0.60 0.55 0.45 0.39 0.43 0.28 0.09 0.06 0.12 0.22 0.28 0.26 0.25 0.23 0.20
0.29 0.33 0.34 0.36 0.41 0.45 0.41 0.31 0.27 0.27 0.26 0.23 0.24 0.34 0.43 0.48 0.47 0.43 0.42 0.45 0.56 0.68 0.70 0.70 0.64 0.60 0.62 0.61 0.65 0.62 0.53 0.44 0.40 0.38 0.21 0.11 0.13 0.22 0.34 0.37 0.33 0.29 0.24
0.22 0.31 0.31 0.31 0.33 0.37 0.39 0.37 0.31 0.27 0.27 0.27 0.25 0.31 0.42 0.55 0.68 0.69 0.70 0.64 0.63 0.70 0.76 0.82 0.83 0.84 0.80 0.75 0.73 0.69 0.64 0.60 0.53 0.51 0.39 0.25 0.21 0.25 0.42 0.50 0.44 0.36 0.32
0.15 0.21 0.27 0.26 0.27 0.29 0.34 0.36 0.38 0.35 0.29 0.27 0.25 0.24 0.32 0.60 1.00 1.02 0.93 0.84 0.69 0.59 0.57 0.61 0.71 0.87 0.96 1.01 1.05 0.96 0.91 0.95 0.87 0.79 0.66 0.50 0.39 0.42 0.53 0.59 0.65 0.55 0.45
0.10 0.12 0.18 0.24 0.27 0.25 0.26 0.33 0.35 0.38 0.38 0.32 0.24 0.20 0.25 0.52 0.97 1.04 0.81 0.61 0.46 0.42 0.43 0.41 0.45 0.62 0.74 0.86 1.01 1.04 1.10 1.25 1.29 1.18 0.97 0.79 0.56 0.50 0.56 0.71 0.84 0.89 0.74
0.07 0.09 0.13 0.18 0.23 0.25 0.22 0.25 0.32 0.34 0.39 0.39 0.29 0.20 0.17 0.35 0.76 0.87 0.65 0.41 0.29 0.26 0.27 0.27 0.28 0.38 0.50 0.53 0.65 0.75 0.85 1.02 1.25 1.34 1.29 0.95 0.69 0.54 0.68 0.84 0.89 0.96 0.85
0.07 0.08 0.09 0.13 0.18 0.22 0.24 0.23 0.25 0.29 0.34 0.36 0.33 0.26 0.19 0.23 0.60 0.80 0.63 0.35 0.24 0.20 0.21 0.19 0.16 0.21 0.34 0.48 0.58 0.61 0.61 0.74 1.03 1.27 1.40 1.21 0.96 0.83 0.95 1.17 1.26 1.24 1.06
0.07 0.07 0.07 0.09 0.13 0.18 0.19 0.19 0.21 0.24 0.26 0.29 0.29 0.26 0.21 0.18 0.44 0.78 0.72 0.38 0.25 0.19 0.19 0.20 0.15 0.13 0.30 0.49 0.51 0.48 0.44 0.51 0.67 0.97 1.18 1.22 1.19 1.23 1.32 1.57 1.72 1.66 1.49
0.05 0.05 0.06 0.08 0.09 0.13 0.16 0.15 0.18 0.21 0.22 0.23 0.25 0.23 0.20 0.17 0.30 0.69 0.87 0.48 0.29 0.21 0.18 0.18 0.24 0.27 0.38 0.46 0.42 0.44 0.51 0.47 0.45 0.52 0.62 0.72 0.80 0.87 1.09 1.39 1.57 1.65 1.63
0.05 0.06 0.05 0.06 0.08 0.09 0.14 0.16 0.17 0.18 0.21 0.23 0.22 0.21 0.18 0.18 0.23 0.50 0.88 0.70 0.43 0.32 0.27 0.23 0.22 0.30 0.36 0.39 0.43 0.42 0.53 0.52 0.49 0.57 0.59 0.57 0.61 0.71 0.84 1.09 1.37 1.56 1.69
0.06 0.06 0.06 0.06 0.07 0.10 0.14 0.16 0.17 0.18 0.21 0.23 0.22 0.23 0.20 0.18 0.24 0.41 0.62 0.71 0.58 0.38 0.31 0.23 0.23 0.29 0.33 0.39 0.39 0.42 0.46 0.48 0.49 0.50 0.47 0.46 0.52 0.62 0.75 0.92 1.14 1.31 1.40
0.06 0.06 0.07 0.08 0.08 0.10 0.12 0.15 0.19 0.18 0.21 0.23 0.23 0.21 0.20 0.20 0.27 0.43 0.44 0.48 0.53 0.46 0.43 0.41 0.35 0.35 0.33 0.27 0.27 0.33 0.36 0.35 0.43 0.45 0.40 0.36 0.43 0.56 0.64 0.75 0.89 1.07 1.20
0.07 0.07 0.07 0.09 0.11 0.11 0.12 0.12 0.16 0.19 0.26 0.30 0.28 0.23 0.21 0.24 0.39 0.56 0.46 0.37 0.44 0.50 0.49 0.47 0.43 0.40 0.31 0.22 0.20 0.20 0.21 0.27 0.35 0.40 0.35 0.30 0.33 0.44 0.56 0.69 0.85 0.99 1.17
0.08 0.08 0.09 0.10 0.12 0.14 0.14 0.13 0.13 0.15 0.28 0.38 0.32 0.32 0.38 0.51 0.56 0.64 0.57 0.51 0.55 0.62 0.59 0.53 0.43 0.38 0.36 0.27 0.20 0.15 0.16 0.21 0.26 0.28 0.30 0.31 0.34 0.41 0.49 0.61 0.82 0.98 1.13
0.10 0.11 0.12 0.13 0.13 0.15 0.17 0.18 0.19 0.18 0.22 0.23 0.23 0.30 0.35 0.55 0.55 0.46 0.44 0.45 0.53 0.61 0.60 0.54 0.37 0.29 0.29 0.26 0.22 0.18 0.16 0.17 0.18 0.22 0.28 0.31 0.35 0.42 0.49 0.56 0.73 0.93 1.04
0.12 0.14 0.16 0.15 0.15 0.15 0.17 0.19 0.21 0.23 0.25 0.23 0.21 0.23 0.32 0.45 0.45 0.40 0.40 0.37 0.39 0.40 0.43 0.36 0.26 0.23 0.21 0.21 0.20 0.18 0.16 0.14 0.17 0.23 0.26 0.28 0.33 0.39 0.46 0.53 0.63 0.78 0.92
0.14 0.18 0.20 0.17 0.17 0.18 0.20 0.21 0.22 0.23 0.26 0.26 0.24 0.24 0.28 0.34 0.37 0.38 0.40 0.43 0.38 0.30 0.26 0.25 0.24 0.22 0.21 0.21 0.20 0.18 0.17 0.16 0.18 0.20 0.21 0.23 0.29 0.37 0.42 0.46 0.54 0.69 0.82
0.18 0.20 0.22 0.22 0.21 0.22 0.23 0.24 0.23 0.23 0.23 0.22 0.22 0.28 0.33 0.34 0.34 0.35 0.37 0.37 0.32 0.25 0.22 0.21 0.22 0.24 0.23 0.21 0.19 0.18 0.18 0.17 0.16 0.18 0.19 0.20 0.24 0.33 0.38 0.40 0.47 0.58 0.74
0.20 0.26 0.27 0.27 0.26 0.26 0.27 0.27 0.27 0.28 0.27 0.24 0.22 0.23 0.35 0.43 0.39 0.36 0.33 0.31 0.30 0.26 0.22 0.22 0.21 0.22 0.23 0.22 0.21 0.20 0.20 0.18 0.17 0.18 0.18 0.18 0.21 0.27 0.33 0.36 0.43 0.52 0.62
0.24 0.26 0.30 0.30 0.28 0.30 0.31 0.32 0.33 0.34 0.32 0.27 0.20 0.20 0.39 0.46 0.36 0.28 0.30 0.31 0.31 0.29 0.27 0.26 0.24 0.23 0.22 0.22 0.22 0.21 0.21 0.17 0.15 0.16 0.17 0.17 0.19 0.22 0.25 0.30 0.37 0.44 0.53
0.26 0.28 0.31 0.33 0.34 0.35 0.37 0.36 0.36 0.36 0.32 0.29 0.24 0.23 0.30 0.29 0.25 0.24 0.26 0.27 0.27 0.29 0.29 0.30 0.28 0.24 0.25 0.26 0.26 0.25 0.22 0.17 0.15 0.16 0.17 0.16 0.17 0.19 0.21 0.25 0.29 0.36 0.45
0.29 0.33 0.37 0.37 0.37 0.40 0.41 0.35 0.34 0.34 0.32 0.30 0.29 0.28 0.27 0.26 0.24 0.23 0.25 0.25 0.26 0.27 0.26 0.29 0.30 0.25 0.22 0.22 0.23 0.26 0.26 0.20 0.17 0.19 0.22 0.20 0.18 0.17 0.19 0.22 0.25 0.32 0.42
0.32 0.36 0.41 0.43 0.41 0.39 0.41 0.40 0.36 0.35 0.35 0.33 0.31 0.29 0.29 0.28 0.25 0.23 0.22 0.23 0.24 0.24 0.24 0.28 0.28 0.25 0.23 0.22 0.21 0.20 0.20 0.19 0.23 0.26 0.25 0.26 0.23 0.19 0.21 0.24 0.25 0.30 0.39
0.35 0.38 0.44 0.47 0.46 0.45 0.45 0.43 0.39 0.36 0.36 0.34 0.32 0.31 0.29 0.27 0.25 0.22 0.19 0.19 0.21 0.21 0.20 0.23 0.26 0.27 0.24 0.22 0.20 0.19 0.19 0.22 0.28 0.38 0.45 0.43 0.33 0.25 0.25 0.27 0.27 0.30 0.37
0.36 0.39 0.45 0.49 0.49 0.49 0.50 0.50 0.45 0.41 0.39 0.36 0.33 0.33 0.32 0.30 0.26 0.23 0.21 0.21 0.23 0.22 0.20 0.21 0.23 0.26 0.24 0.23 0.21 0.20 0.21 0.25 0.32 0.40 0.54 0.60 0.47 0.33 0.30 0.32 0.30 0.32 0.37

GEFSGL_prec_meanprecacc_168.txt.gz
Total_Precipitation_Accumulation
0.49 0.46 0.50 0.60 0.63 0.63 0.59 0.50 0.44 0.44 0.44 0.48 0.55 0.55 0.52 0.52 0.47 0.41 0.38 0.38 0.39 0.38 0.40 0.45 0.47 0.49 0.53 0.50 0.47 0.44 0.42 0.47 0.46 0.13 0.04 0.06 0.15 0.21 0.22 0.21 0.24 0.22 0.19
0.47 0.54 0.52 0.58 0.67 0.67 0.55 0.46 0.43 0.42 0.42 0.43 0.48 0.58 0.60 0.58 0.54 0.49 0.46 0.50 0.58 0.56 0.51 0.51 0.52 0.54 0.59 0.60 0.61 0.55 0.45 0.39 0.44 0.29 0.09 0.07 0.12 0.22 0.28 0.27 0.25 0.23 0.20
0.39 0.50 0.58 0.62 0.67 0.70 0.63 0.50 0.43 0.42 0.41 0.41 0.46 0.55 0.64 0.68 0.66 0.58 0.55 0.57 0.67 0.77 0.78 0.77 0.70 0.64 0.64 0.63 0.66 0.63 0.54 0.45 0.41 0.38 0.22 0.12 0.13 0.22 0.34 0.37 0.33 0.29 0.25
0.28 0.42 0.50 0.59 0.63 0.65 0.63 0.58 0.50 0.40 0.39 0.41 0.43 0.49 0.59 0.71 0.83 0.84 0.82 0.75 0.75 0.80 0.85 0.89 0.89 0.89 0.83 0.77 0.75 0.70 0.66 0.62 0.54 0.52 0.40 0.26 0.21 0.25 0.42 0.50 0.44 0.36 0.32
0.19 0.30 0.42 0.48 0.55 0.61 0.61 0.58 0.57 0.50 0.39 0.39 0.40 0.41 0.48 0.74 1.13 1.15 1.04 0.95 0.80 0.71 0.67 0.69 0.79 0.95 1.01 1.05 1.08 0.98 0.93 0.97 0.89 0.81 0.67 0.51 0.40 0.43 0.54 0.59 0.65 0.55 0.45
0.15 0.19 0.30 0.40 0.49 0.56 0.58 0.59 0.56 0.54 0.49 0.42 0.38 0.36 0.42 0.66 1.09 1.15 0.90 0.69 0.56 0.53 0.53 0.50 0.53 0.70 0.82 0.92 1.05 1.07 1.12 1.26 1.31 1.19 0.98 0.79 0.56 0.50 0.57 0.72 0.84 0.89 0.74
0.11 0.14 0.22 0.29 0.38 0.47 0.53 0.56 0.57 0.52 0.51 0.49 0.39 0.32 0.30 0.46 0.87 0.96 0.75 0.50 0.38 0.36 0.36 0.37 0.39 0.47 0.59 0.61 0.71 0.79 0.87 1.04 1.26 1.35 1.29 0.96 0.69 0.55 0.69 0.85 0.89 0.96 0.85
0.11 0.11 0.15 0.20 0.27 0.37 0.49 0.53 0.53 0.51 0.49 0.48 0.43 0.35 0.30 0.33 0.70 0.88 0.71 0.43 0.32 0.29 0.29 0.28 0.26 0.32 0.44 0.56 0.64 0.64 0.63 0.75 1.04 1.27 1.40 1.21 0.96 0.83 0.96 1.17 1.27 1.25 1.06
0.10 0.10 0.11 0.13 0.19 0.28 0.38 0.47 0.48 0.49 0.45 0.44 0.41 0.35 0.30 0.28 0.54 0.87 0.81 0.46 0.32 0.27 0.27 0.28 0.24 0.21 0.39 0.56 0.57 0.52 0.46 0.52 0.68 0.97 1.19 1.23 1.20 1.24 1.33 1.58 1.72 1.67 1.50
0.08 0.08 0.08 0.10 0.13 0.19 0.27 0.35 0.42 0.44 0.43 0.40 0.40 0.36 0.30 0.25 0.39 0.79 0.97 0.56 0.36 0.28 0.25 0.26 0.33 0.36 0.47 0.53 0.48 0.49 0.53 0.48 0.46 0.52 0.63 0.72 0.81 0.88 1.11 1.39 1.58 1.66 1.64
0.08 0.08 0.07 0.08 0.10 0.14 0.21 0.28 0.37 0.42 0.42 0.40 0.37 0.34 0.30 0.27 0.31 0.57 0.96 0.77 0.48 0.37 0.33 0.30 0.30 0.39 0.43 0.47 0.49 0.48 0.57 0.54 0.50 0.58 0.60 0.58 0.62 0.73 0.86 1.10 1.37 1.56 1.70
0.08 0.08 0.08 0.07 0.09 0.13 0.19 0.26 0.32 0.38 0.42 0.39 0.37 0.36 0.33 0.30 0.32 0.48 0.70 0.78 0.63 0.43 0.36 0.29 0.30 0.38 0.42 0.46 0.46 0.49 0.52 0.51 0.51 0.52 0.49 0.48 0.54 0.64 0.75 0.93 1.14 1.31 1.40
0.09 0.09 0.09 0.09 0.10 0.12 0.16 0.22 0.31 0.33 0.39 0.38 0.35 0.34 0.33 0.32 0.36 0.51 0.53 0.56 0.60 0.52 0.50 0.49 0.43 0.44 0.43 0.36 0.37 0.42 0.42 0.39 0.45 0.48 0.42 0.38 0.44 0.57 0.65 0.75 0.89 1.07 1.20
0.09 0.09 0.10 0.12 0.14 0.14 0.15 0.18 0.26 0.30 0.38 0.42 0.37 0.32 0.32 0.35 0.48 0.64 0.54 0.46 0.54 0.59 0.59 0.58 0.54 0.50 0.40 0.31 0.28 0.27 0.27 0.31 0.38 0.42 0.37 0.32 0.34 0.44 0.56 0.69 0.85 0.99 1.17
0.11 0.11 0.12 0.14 0.16 0.17 0.18 0.18 0.21 0.23 0.35 0.46 0.39 0.39 0.46 0.58 0.65 0.74 0.67 0.61 0.65 0.71 0.68 0.63 0.52 0.46 0.44 0.35 0.26 0.21 0.20 0.24 0.29 0.30 0.31 0.32 0.34 0.42 0.50 0.61 0.82 0.98 1.13
0.14 0.14 0.16 0.17 0.18 0.19 0.22 0.24 0.28 0.26 0.30 0.29 0.29 0.37 0.42 0.62 0.64 0.56 0.55 0.56 0.64 0.73 0.71 0.63 0.45 0.37 0.36 0.33 0.29 0.24 0.19 0.19 0.20 0.24 0.29 0.32 0.36 0.43 0.49 0.56 0.74 0.93 1.05
0.16 0.17 0.19 0.19 0.19 0.21 0.23 0.25 0.29 0.32 0.34 0.32 0.30 0.32 0.41 0.54 0.56 0.51 0.50 0.47 0.49 0.50 0.51 0.43 0.33 0.29 0.27 0.27 0.27 0.24 0.20 0.16 0.19 0.24 0.27 0.29 0.34 0.40 0.46 0.53 0.64 0.79 0.92
0.18 0.22 0.23 0.21 0.22 0.24 0.26 0.28 0.29 0.31 0.34 0.36 0.37 0.38 0.40 0.45 0.48 0.49 0.51 0.54 0.51 0.41 0.34 0.32 0.31 0.28 0.27 0.26 0.25 0.24 0.21 0.19 0.21 0.22 0.22 0.24 0.30 0.38 0.43 0.47 0.55 0.70 0.84
0.21 0.24 0.26 0.26 0.26 0.28 0.29 0.31 0.31 0.30 0.29 0.30 0.35 0.44 0.49 0.47 0.46 0.48 0.48 0.46 0.41 0.34 0.31 0.29 0.29 0.31 0.29 0.26 0.24 0.22 0.22 0.21 0.18 0.20 0.20 0.21 0.25 0.34 0.39 0.41 0.48 0.60 0.77
0.23 0.29 0.31 0.31 0.31 0.32 0.34 0.35 0.35 0.36 0.34 0.31 0.32 0.35 0.49 0.57 0.52 0.49 0.45 0.41 0.39 0.34 0.30 0.29 0.28 0.29 0.29 0.27 0.26 0.24 0.24 0.21 0.19 0.19 0.19 0.20 0.23 0.29 0.34 0.37 0.45 0.54 0.64
0.26 0.29 0.34 0.34 0.33 0.36 0.39 0.40 0.40 0.42 0.40 0.34 0.29 0.30 0.49 0.55 0.45 0.38 0.41 0.41 0.39 0.36 0.33 0.32 0.31 0.30 0.29 0.27 0.25 0.24 0.23 0.20 0.17 0.18 0.18 0.18 0.20 0.24 0.27 0.33 0.39 0.46 0.55
0.28 0.31 0.34 0.37 0.39 0.41 0.44 0.44 0.44 0.43 0.40 0.37 0.33 0.33 0.41 0.38 0.33 0.32 0.34 0.36 0.37 0.36 0.35 0.37 0.36 0.31 0.31 0.30 0.29 0.28 0.24 0.19 0.17 0.18 0.19 0.18 0.18 0.20 0.22 0.27 0.32 0.39 0.46
0.31 0.35 0.40 0.42 0.43 0.47 0.49 0.44 0.43 0.42 0.40 0.38 0.37 0.37 0.37 0.36 0.32 0.30 0.32 0.34 0.36 0.36 0.35 0.37 0.38 0.32 0.28 0.27 0.27 0.29 0.28 0.22 0.18 0.20 0.24 0.22 0.19 0.19 0.20 0.23 0.26 0.34 0.43
0.35 0.39 0.45 0.48 0.47 0.47 0.49 0.48 0.45 0.44 0.44 0.42 0.39 0.36 0.37 0.37 0.34 0.30 0.29 0.30 0.33 0.32 0.32 0.36 0.36 0.31 0.28 0.26 0.24 0.23 0.22 0.21 0.24 0.27 0.27 0.28 0.25 0.21 0.22 0.25 0.26 0.31 0.40
0.39 0.42 0.48 0.52 0.53 0.52 0.52 0.51 0.49 0.47 0.46 0.43 0.39 0.38 0.36 0.36 0.34 0.30 0.27 0.27 0.29 0.28 0.27 0.30 0.33 0.32 0.28 0.26 0.23 0.21 0.21 0.24 0.31 0.40 0.47 0.45 0.35 0.27 0.27 0.29 0.29 0.31 0.38
0.40 0.43 0.50 0.54 0.55 0.56 0.57 0.58 0.55 0.51 0.49 0.45 0.42 0.40 0.39 0.38 0.35 0.32 0.29 0.29 0.31 0.29 0.26 0.26 0.28 0.30 0.28 0.27 0.24 0.23 0.24 0.28 0.34 0.42 0.55 0.62 0.49 0.35 0.32 0.34 0.32 0.34 0.39

GEFSGL_prec_meanprecacc_174.txt.gz
Total_Precipitation_Accumulation
0.55 0.53 0.58 0.71 0.77 0.80 0.78 0.68 0.61 0.58 0.59 0.65 0.75 0.76 0.72 0.69 0.64 0.60 0.56 0.54 0.52 0.49 0.51 0.55 0.55 0.57 0.62 0.58 0.54 0.49 0.47 0.52 0.50 0.15 0.06 0.08 0.16 0.21 0.22 0.22 0.24 0.22 0.19
0.51 0.58 0.58 0.66 0.78 0.80 0.72 0.67 0.66 0.60 0.57 0.58 0.66 0.77 0.79 0.75 0.69 0.65 0.64 0.68 0.73 0.69 0.62 0.61 0.61 0.62 0.67 0.68 0.67 0.61 0.50 0.43 0.47 0.32 0.12 0.09 0.14 0.23 0.29 0.28 0.26 0.23 0.20
0.43 0.55 0.64 0.69 0.76 0.81 0.75 0.65 0.66 0.67 0.61 0.57 0.62 0.74 0.84 0.85 0.80 0.72 0.70 0.73 0.83 0.91 0.89 0.87 0.78 0.72 0.73 0.71 0.73 0.69 0.59 0.48 0.45 0.42 0.26 0.15 0.16 0.24 0.36 0.38 0.33 0.29 0.25
0.31 0.46 0.56 0.65 0.70 0.77 0.79 0.74 0.71 0.67 0.63 0.59 0.58 0.64 0.76 0.89 0.97 0.96 0.95 0.88 0.88 0.92 0.97 0.99 0.97 0.97 0.91 0.84 0.82 0.77 0.72 0.68 0.60 0.57 0.45 0.29 0.24 0.28 0.44 0.51 0.45 0.36 0.32
0.22 0.33 0.46 0.54 0.62 0.72 0.78 0.78 0.79 0.77 0.67 0.60 0.55 0.55 0.62 0.90 1.28 1.27 1.15 1.06 0.92 0.81 0.76 0.79 0.87 1.02 1.07 1.11 1.14 1.05 1.01 1.04 0.96 0.86 0.72 0.55 0.43 0.44 0.54 0.59 0.66 0.56 0.46
0.16 0.20 0.33 0.46 0.56 0.65 0.72 0.80 0.79 0.78 0.77 0.68 0.56 0.52 0.56 0.79 1.22 1.27 1.01 0.80 0.67 0.64 0.62 0.57 0.60 0.78 0.88 0.99 1.12 1.14 1.19 1.33 1.37 1.25 1.02 0.82 0.58 0.51 0.57 0.72 0.85 0.89 0.74
0.13 0.16 0.24 0.33 0.46 0.56 0.64 0.72 0.80 0.77 0.74 0.73 0.62 0.50 0.45 0.57 0.96 1.05 0.85 0.59 0.47 0.45 0.46 0.45 0.45 0.53 0.65 0.67 0.78 0.87 0.96 1.12 1.33 1.40 1.33 0.98 0.71 0.56 0.69 0.85 0.89 0.97 0.85
0.12 0.13 0.16 0.23 0.34 0.46 0.59 0.65 0.71 0.77 0.74 0.68 0.61 0.54 0.47 0.45 0.79 0.96 0.79 0.52 0.41 0.37 0.38 0.36 0.34 0.38 0.51 0.64 0.73 0.73 0.72 0.83 1.10 1.32 1.44 1.24 0.98 0.84 0.96 1.18 1.28 1.26 1.07
0.11 0.12 0.12 0.15 0.23 0.36 0.47 0.57 0.62 0.69 0.70 0.66 0.57 0.49 0.46 0.41 0.62 0.94 0.89 0.55 0.43 0.36 0.35 0.35 0.31 0.29 0.47 0.66 0.66 0.61 0.54 0.59 0.74 1.02 1.22 1.26 1.23 1.26 1.35 1.59 1.74 1.68 1.51
0.10 0.10 0.10 0.11 0.15 0.26 0.36 0.45 0.56 0.62 0.64 0.62 0.57 0.47 0.42 0.37 0.48 0.85 1.05 0.66 0.47 0.38 0.34 0.33 0.40 0.43 0.55 0.62 0.57 0.58 0.62 0.55 0.52 0.58 0.67 0.76 0.84 0.91 1.13 1.42 1.60 1.68 1.66
0.10 0.11 0.09 0.09 0.12 0.18 0.30 0.39 0.52 0.60 0.63 0.59 0.52 0.47 0.39 0.35 0.38 0.64 1.04 0.87 0.59 0.48 0.43 0.38 0.36 0.46 0.50 0.54 0.57 0.56 0.65 0.61 0.57 0.65 0.65 0.62 0.65 0.75 0.89 1.13 1.40 1.59 1.72
0.11 0.11 0.10 0.10 0.11 0.16 0.27 0.37 0.46 0.55 0.62 0.58 0.50 0.49 0.44 0.38 0.39 0.55 0.78 0.88 0.73 0.54 0.46 0.38 0.37 0.46 0.49 0.55 0.54 0.57 0.62 0.62 0.60 0.61 0.55 0.53 0.58 0.68 0.79 0.96 1.17 1.34 1.43
0.11 0.11 0.11 0.12 0.13 0.16 0.23 0.33 0.45 0.50 0.57 0.57 0.48 0.46 0.46 0.42 0.44 0.59 0.60 0.66 0.71 0.63 0.62 0.60 0.52 0.53 0.51 0.45 0.46 0.50 0.51 0.50 0.56 0.58 0.50 0.44 0.48 0.61 0.68 0.79 0.92 1.10 1.21
0.12 0.12 0.13 0.15 0.16 0.17 0.21 0.28 0.39 0.45 0.53 0.57 0.50 0.43 0.43 0.46 0.57 0.71 0.62 0.56 0.65 0.70 0.71 0.70 0.65 0.61 0.51 0.42 0.39 0.36 0.36 0.42 0.47 0.49 0.43 0.37 0.39 0.49 0.60 0.73 0.88 1.01 1.18
0.13 0.13 0.14 0.17 0.19 0.21 0.24 0.27 0.31 0.36 0.48 0.59 0.50 0.48 0.56 0.68 0.75 0.84 0.76 0.73 0.79 0.83 0.80 0.74 0.63 0.58 0.56 0.45 0.35 0.30 0.29 0.35 0.38 0.37 0.38 0.38 0.39 0.46 0.54 0.65 0.85 1.00 1.14
0.15 0.16 0.18 0.20 0.21 0.23 0.27 0.31 0.36 0.37 0.40 0.41 0.42 0.47 0.50 0.72 0.74 0.67 0.66 0.68 0.78 0.88 0.83 0.74 0.56 0.47 0.45 0.41 0.37 0.33 0.29 0.28 0.28 0.30 0.36 0.38 0.41 0.47 0.53 0.59 0.76 0.95 1.05
0.18 0.19 0.21 0.22 0.23 0.25 0.28 0.32 0.37 0.40 0.42 0.41 0.40 0.42 0.48 0.62 0.66 0.62 0.62 0.60 0.62 0.63 0.63 0.52 0.41 0.35 0.34 0.33 0.33 0.30 0.27 0.24 0.26 0.30 0.32 0.34 0.38 0.43 0.49 0.55 0.65 0.80 0.93
0.20 0.23 0.25 0.24 0.25 0.28 0.31 0.34 0.37 0.40 0.42 0.42 0.45 0.47 0.48 0.53 0.57 0.60 0.64 0.68 0.66 0.55 0.45 0.40 0.38 0.34 0.32 0.32 0.31 0.31 0.28 0.27 0.28 0.28 0.28 0.29 0.34 0.41 0.46 0.49 0.56 0.71 0.84
0.23 0.26 0.28 0.29 0.30 0.32 0.34 0.37 0.38 0.38 0.37 0.36 0.41 0.54 0.59 0.58 0.57 0.60 0.61 0.58 0.52 0.46 0.41 0.38 0.36 0.38 0.36 0.33 0.31 0.30 0.31 0.29 0.27 0.27 0.27 0.27 0.29 0.37 0.41 0.43 0.49 0.61 0.77
0.25 0.31 0.33 0.35 0.36 0.37 0.39 0.40 0.41 0.43 0.41 0.38 0.38 0.43 0.58 0.67 0.64 0.63 0.58 0.51 0.47 0.42 0.38 0.37 0.35 0.37 0.38 0.36 0.35 0.33 0.33 0.30 0.28 0.26 0.25 0.24 0.26 0.31 0.36 0.39 0.46 0.54 0.65
0.28 0.32 0.37 0.38 0.38 0.41 0.44 0.46 0.46 0.49 0.47 0.41 0.36 0.38 0.57 0.62 0.54 0.49 0.52 0.51 0.47 0.43 0.40 0.38 0.37 0.37 0.37 0.35 0.35 0.35 0.33 0.29 0.25 0.24 0.22 0.21 0.22 0.26 0.28 0.34 0.40 0.47 0.56
0.31 0.34 0.38 0.40 0.43 0.47 0.50 0.50 0.50 0.51 0.47 0.43 0.40 0.43 0.51 0.45 0.40 0.40 0.43 0.45 0.45 0.44 0.42 0.43 0.41 0.37 0.38 0.38 0.38 0.37 0.34 0.29 0.24 0.23 0.22 0.19 0.20 0.22 0.24 0.28 0.33 0.40 0.48
0.33 0.38 0.43 0.45 0.47 0.53 0.55 0.50 0.50 0.50 0.48 0.45 0.45 0.46 0.47 0.45 0.40 0.38 0.40 0.42 0.45 0.44 0.42 0.43 0.43 0.38 0.35 0.35 0.36 0.37 0.36 0.29 0.25 0.25 0.27 0.24 0.21 0.21 0.22 0.25 0.27 0.35 0.44
0.37 0.41 0.48 0.51 0.52 0.52 0.56 0.55 0.52 0.52 0.52 0.49 0.46 0.45 0.47 0.45 0.42 0.38 0.38 0.40 0.43 0.42 0.40 0.42 0.42 0.38 0.35 0.33 0.31 0.29 0.28 0.27 0.29 0.32 0.30 0.30 0.27 0.23 0.24 0.27 0.27 0.32 0.41
0.41 0.45 0.51 0.56 0.57 0.59 0.60 0.59 0.56 0.55 0.55 0.51 0.48 0.46 0.45 0.44 0.43 0.40 0.38 0.39 0.40 0.39 0.36 0.38 0.41 0.40 0.36 0.32 0.28 0.26 0.27 0.30 0.35 0.44 0.51 0.48 0.37 0.29 0.29 0.31 0.31 0.33 0.40
0.42 0.46 0.53 0.58 0.60 0.63 0.65 0.65 0.62 0.59 0.58 0.54 0.50 0.49 0.49 0.48 0.45 0.43 0.41 0.42 0.44 0.42 0.38 0.37 0.37 0.38 0.35 0.32 0.29 0.28 0.30 0.33 0.38 0.46 0.59 0.65 0.51 0.37 0.34 0.36 0.34 0.36 0.40

GEFSGL_prec_meanprecacc_180.txt.gz
Total_Precipitation_Accumulation
0.58 0.56 0.63 0.75 0.80 0.85 0.83 0.75 0.69 0.67 0.68 0.75 0.86 0.86 0.84 0.82 0.77 0.73 0.68 0.66 0.66 0.64 0.66 0.70 0.69 0.69 0.74 0.68 0.62 0.56 0.53 0.57 0.55 0.19 0.09 0.11 0.19 0.24 0.25 0.24 0.26 0.25 0.22
0.53 0.61 0.60 0.69 0.81 0.84 0.77 0.73 0.74 0.69 0.67 0.69 0.79 0.91 0.91 0.87 0.82 0.78 0.76 0.81 0.87 0.82 0.75 0.74 0.73 0.74 0.77 0.77 0.75 0.67 0.55 0.47 0.51 0.36 0.15 0.12 0.17 0.26 0.32 0.30 0.28 0.26 0.22
0.45 0.57 0.66 0.72 0.79 0.85 0.80 0.72 0.74 0.75 0.71 0.68 0.74 0.89 0.97 0.97 0.92 0.83 0.81 0.85 0.95 1.03 1.01 0.98 0.88 0.82 0.82 0.79 0.80 0.75 0.63 0.53 0.49 0.46 0.28 0.18 0.19 0.28 0.40 0.41 0.36 0.31 0.26
0.33 0.48 0.58 0.67 0.74 0.80 0.83 0.81 0.78 0.75 0.74 0.72 0.71 0.77 0.89 1.00 1.08 1.07 1.06 1.00 1.00 1.04 1.09 1.10 1.06 1.05 0.97 0.90 0.87 0.82 0.77 0.73 0.64 0.61 0.48 0.33 0.28 0.32 0.48 0.55 0.47 0.38 0.33
0.23 0.34 0.48 0.57 0.66 0.76 0.82 0.86 0.88 0.87 0.77 0.73 0.70 0.69 0.75 1.02 1.38 1.37 1.26 1.17 1.03 0.94 0.89 0.91 0.98 1.10 1.14 1.17 1.18 1.09 1.05 1.10 1.01 0.91 0.75 0.59 0.47 0.49 0.58 0.62 0.68 0.58 0.47
0.19 0.22 0.35 0.48 0.60 0.70 0.77 0.86 0.90 0.91 0.89 0.81 0.72 0.66 0.69 0.91 1.33 1.37 1.09 0.89 0.76 0.74 0.73 0.70 0.73 0.89 0.97 1.06 1.17 1.17 1.22 1.37 1.41 1.29 1.06 0.86 0.62 0.56 0.62 0.76 0.88 0.92 0.76
0.17 0.19 0.26 0.35 0.49 0.60 0.69 0.79 0.91 0.91 0.89 0.87 0.77 0.65 0.58 0.68 1.07 1.15 0.94 0.68 0.56 0.54 0.56 0.56 0.57 0.64 0.75 0.74 0.85 0.93 1.00 1.15 1.35 1.43 1.36 1.02 0.75 0.60 0.74 0.89 0.92 0.99 0.87
0.17 0.17 0.20 0.26 0.36 0.50 0.65 0.73 0.82 0.91 0.89 0.83 0.79 0.70 0.61 0.56 0.89 1.06 0.89 0.61 0.50 0.45 0.46 0.45 0.43 0.47 0.59 0.72 0.79 0.79 0.77 0.86 1.13 1.35 1.47 1.27 1.02 0.88 1.00 1.22 1.31 1.29 1.09
0.16 0.16 0.16 0.18 0.27 0.41 0.53 0.65 0.73 0.83 0.86 0.83 0.75 0.66 0.61 0.55 0.75 1.05 1.00 0.64 0.51 0.44 0.43 0.43 0.39 0.36 0.55 0.74 0.75 0.68 0.60 0.63 0.78 1.07 1.27 1.31 1.29 1.33 1.41 1.64 1.79 1.72 1.54
0.14 0.13 0.13 0.15 0.19 0.31 0.43 0.54 0.67 0.75 0.81 0.81 0.77 0.66 0.58 0.52 0.63 0.99 1.15 0.73 0.54 0.45 0.41 0.40 0.46 0.49 0.62 0.69 0.65 0.66 0.68 0.59 0.57 0.64 0.74 0.83 0.91 0.99 1.22 1.47 1.65 1.73 1.70
0.14 0.13 0.11 0.12 0.15 0.22 0.36 0.49 0.65 0.74 0.79 0.78 0.71 0.66 0.56 0.52 0.54 0.79 1.14 0.93 0.63 0.53 0.49 0.43 0.41 0.51 0.56 0.60 0.63 0.63 0.72 0.66 0.61 0.70 0.72 0.68 0.72 0.82 0.96 1.19 1.46 1.64 1.77
0.13 0.13 0.12 0.11 0.13 0.19 0.34 0.47 0.59 0.71 0.79 0.79 0.70 0.68 0.63 0.55 0.56 0.70 0.89 0.94 0.78 0.57 0.50 0.42 0.42 0.51 0.56 0.62 0.61 0.64 0.69 0.68 0.65 0.67 0.62 0.59 0.64 0.74 0.85 1.02 1.23 1.40 1.48
0.14 0.13 0.13 0.13 0.14 0.19 0.29 0.43 0.59 0.65 0.74 0.78 0.67 0.62 0.63 0.59 0.60 0.74 0.72 0.73 0.76 0.67 0.65 0.66 0.59 0.61 0.61 0.56 0.57 0.60 0.59 0.57 0.62 0.64 0.56 0.49 0.53 0.66 0.74 0.85 0.98 1.16 1.27
0.14 0.13 0.14 0.16 0.18 0.21 0.27 0.37 0.51 0.60 0.69 0.77 0.68 0.56 0.56 0.60 0.71 0.84 0.74 0.65 0.71 0.75 0.76 0.77 0.74 0.70 0.61 0.55 0.53 0.47 0.44 0.49 0.54 0.55 0.49 0.43 0.44 0.54 0.66 0.78 0.92 1.06 1.23
0.15 0.15 0.16 0.19 0.21 0.25 0.31 0.37 0.42 0.49 0.62 0.75 0.67 0.60 0.66 0.79 0.86 0.94 0.86 0.82 0.85 0.89 0.86 0.81 0.72 0.68 0.67 0.57 0.49 0.42 0.40 0.44 0.47 0.43 0.44 0.44 0.46 0.52 0.59 0.69 0.89 1.04 1.18
0.17 0.18 0.20 0.22 0.24 0.27 0.34 0.41 0.46 0.48 0.52 0.52 0.56 0.59 0.59 0.79 0.83 0.74 0.74 0.76 0.86 0.95 0.90 0.82 0.65 0.56 0.56 0.52 0.48 0.44 0.40 0.38 0.37 0.38 0.43 0.45 0.48 0.53 0.59 0.65 0.80 0.98 1.08
0.20 0.21 0.24 0.25 0.25 0.27 0.32 0.40 0.47 0.51 0.53 0.51 0.52 0.54 0.57 0.69 0.73 0.69 0.69 0.68 0.69 0.71 0.71 0.60 0.49 0.45 0.43 0.43 0.43 0.39 0.36 0.33 0.35 0.39 0.40 0.40 0.44 0.49 0.55 0.61 0.69 0.83 0.96
0.22 0.26 0.28 0.28 0.28 0.30 0.35 0.40 0.46 0.51 0.56 0.57 0.57 0.59 0.59 0.61 0.65 0.68 0.71 0.77 0.75 0.63 0.52 0.48 0.46 0.43 0.42 0.42 0.40 0.39 0.37 0.36 0.38 0.38 0.37 0.36 0.40 0.47 0.52 0.54 0.60 0.74 0.86
0.25 0.28 0.31 0.33 0.32 0.34 0.38 0.43 0.46 0.49 0.50 0.53 0.57 0.70 0.74 0.69 0.68 0.70 0.68 0.64 0.59 0.54 0.49 0.45 0.44 0.46 0.45 0.42 0.39 0.38 0.38 0.37 0.35 0.36 0.35 0.34 0.36 0.44 0.48 0.49 0.54 0.65 0.80
0.27 0.34 0.36 0.38 0.37 0.39 0.42 0.46 0.49 0.53 0.53 0.53 0.53 0.58 0.73 0.79 0.73 0.73 0.67 0.58 0.54 0.50 0.46 0.45 0.44 0.46 0.46 0.44 0.42 0.40 0.40 0.38 0.36 0.35 0.33 0.32 0.33 0.39 0.43 0.45 0.51 0.58 0.67
0.31 0.34 0.40 0.41 0.40 0.43 0.47 0.51 0.54 0.59 0.57 0.53 0.48 0.49 0.67 0.72 0.62 0.56 0.61 0.60 0.56 0.51 0.47 0.48 0.47 0.46 0.45 0.44 0.43 0.42 0.41 0.37 0.34 0.33 0.30 0.28 0.30 0.33 0.34 0.39 0.45 0.50 0.57
0.34 0.36 0.41 0.43 0.46 0.49 0.53 0.56 0.59 0.61 0.57 0.53 0.50 0.53 0.60 0.54 0.48 0.48 0.52 0.54 0.54 0.53 0.50 0.52 0.51 0.46 0.45 0.46 0.46 0.46 0.44 0.38 0.34 0.32 0.31 0.28 0.27 0.28 0.29 0.33 0.37 0.43 0.50
0.36 0.41 0.46 0.48 0.50 0.55 0.58 0.55 0.57 0.60 0.58 0.53 0.54 0.55 0.57 0.54 0.49 0.45 0.48 0.51 0.54 0.54 0.50 0.51 0.51 0.46 0.41 0.41 0.43 0.47 0.47 0.40 0.35 0.34 0.36 0.33 0.29 0.27 0.27 0.28 0.30 0.37 0.47
0.39 0.44 0.51 0.54 0.55 0.55 0.59 0.59 0.58 0.61 0.61 0.58 0.55 0.53 0.55 0.54 0.51 0.46 0.45 0.48 0.52 0.51 0.48 0.50 0.49 0.44 0.41 0.39 0.37 0.37 0.37 0.37 0.39 0.41 0.38 0.37 0.33 0.29 0.30 0.31 0.30 0.35 0.44
0.44 0.48 0.54 0.59 0.61 0.61 0.63 0.62 0.62 0.63 0.64 0.59 0.55 0.54 0.53 0.53 0.53 0.49 0.45 0.46 0.49 0.47 0.44 0.46 0.49 0.47 0.42 0.38 0.34 0.32 0.35 0.40 0.45 0.52 0.59 0.55 0.43 0.34 0.33 0.34 0.34 0.35 0.42
0.46 0.49 0.56 0.61 0.63 0.66 0.68 0.69 0.67 0.66 0.65 0.60 0.56 0.55 0.56 0.56 0.55 0.52 0.49 0.49 0.51 0.49 0.46 0.46 0.47 0.46 0.42 0.38 0.35 0.34 0.37 0.40 0.46 0.53 0.65 0.71 0.56 0.41 0.38 0.40 0.37 0.38 0.42

GEFSGL_prec_meanprecacc_186.txt.gz
Total_Precipitation_Accumulation
0.61 0.61 0.67 0.77 0.82 0.87 0.86 0.78 0.72 0.71 0.73 0.80 0.91 0.91 0.89 0.89 0.84 0.80 0.77 0.74 0.74 0.74 0.77 0.80 0.78 0.78 0.82 0.78 0.71 0.66 0.64 0.68 0.66 0.28 0.18 0.18 0.26 0.32 0.33 0.31 0.32 0.31 0.27
0.58 0.68 0.67 0.72 0.84 0.86 0.79 0.75 0.77 0.74 0.72 0.75 0.84 0.96 0.97 0.94 0.90 0.86 0.85 0.89 0.94 0.89 0.84 0.84 0.83 0.83 0.86 0.86 0.85 0.76 0.65 0.57 0.60 0.44 0.24 0.21 0.24 0.33 0.38 0.37 0.34 0.31 0.28
0.48 0.62 0.72 0.77 0.82 0.87 0.82 0.73 0.76 0.79 0.77 0.75 0.82 0.96 1.03 1.04 1.00 0.92 0.90 0.93 1.03 1.10 1.08 1.05 0.96 0.91 0.92 0.88 0.90 0.85 0.74 0.63 0.57 0.55 0.37 0.26 0.27 0.34 0.47 0.49 0.41 0.36 0.31
0.36 0.52 0.62 0.72 0.78 0.83 0.85 0.83 0.79 0.78 0.80 0.80 0.80 0.86 0.97 1.08 1.17 1.16 1.15 1.08 1.09 1.13 1.16 1.18 1.14 1.13 1.06 0.99 0.97 0.93 0.88 0.83 0.74 0.71 0.58 0.42 0.36 0.39 0.55 0.63 0.55 0.45 0.39
0.26 0.37 0.51 0.61 0.71 0.80 0.85 0.88 0.90 0.90 0.82 0.81 0.81 0.79 0.84 1.11 1.47 1.45 1.34 1.26 1.13 1.04 0.99 1.00 1.07 1.19 1.23 1.27 1.29 1.19 1.15 1.21 1.12 1.01 0.84 0.67 0.55 0.57 0.67 0.71 0.78 0.66 0.54
0.20 0.24 0.37 0.51 0.64 0.74 0.81 0.90 0.92 0.94 0.94 0.88 0.83 0.78 0.81 1.00 1.42 1.46 1.18 0.97 0.85 0.83 0.83 0.79 0.81 0.98 1.06 1.16 1.27 1.27 1.32 1.47 1.51 1.39 1.14 0.93 0.68 0.62 0.69 0.85 0.98 1.02 0.86
0.18 0.20 0.27 0.37 0.52 0.63 0.73 0.83 0.95 0.96 0.95 0.94 0.85 0.78 0.72 0.79 1.16 1.24 1.03 0.76 0.64 0.62 0.64 0.64 0.66 0.74 0.85 0.84 0.95 1.03 1.09 1.25 1.45 1.52 1.45 1.09 0.81 0.66 0.80 0.97 1.01 1.08 0.95
0.19 0.18 0.21 0.27 0.38 0.52 0.67 0.76 0.87 0.97 0.97 0.91 0.86 0.80 0.75 0.69 0.99 1.14 0.98 0.69 0.57 0.52 0.53 0.52 0.51 0.56 0.69 0.81 0.89 0.89 0.85 0.95 1.22 1.42 1.54 1.33 1.07 0.93 1.06 1.31 1.41 1.39 1.19
0.17 0.17 0.17 0.20 0.29 0.43 0.56 0.68 0.78 0.90 0.94 0.91 0.84 0.76 0.74 0.69 0.87 1.15 1.09 0.73 0.59 0.52 0.51 0.51 0.46 0.44 0.63 0.83 0.83 0.76 0.67 0.71 0.87 1.14 1.33 1.37 1.35 1.39 1.48 1.75 1.90 1.84 1.67
0.15 0.15 0.15 0.17 0.22 0.33 0.45 0.57 0.72 0.82 0.89 0.89 0.85 0.76 0.70 0.65 0.76 1.10 1.26 0.83 0.63 0.55 0.52 0.50 0.55 0.57 0.70 0.76 0.71 0.73 0.75 0.66 0.63 0.71 0.80 0.88 0.97 1.06 1.32 1.57 1.73 1.81 1.79
0.16 0.15 0.13 0.14 0.17 0.25 0.40 0.53 0.69 0.80 0.88 0.87 0.81 0.77 0.68 0.64 0.66 0.91 1.28 1.04 0.73 0.61 0.58 0.54 0.51 0.60 0.64 0.67 0.69 0.68 0.78 0.72 0.67 0.77 0.78 0.74 0.78 0.90 1.05 1.29 1.54 1.72 1.84
0.16 0.15 0.14 0.13 0.16 0.23 0.38 0.51 0.63 0.77 0.88 0.89 0.82 0.81 0.79 0.71 0.68 0.83 1.04 1.09 0.89 0.65 0.58 0.50 0.50 0.60 0.64 0.69 0.67 0.71 0.76 0.75 0.72 0.72 0.67 0.65 0.70 0.80 0.92 1.09 1.30 1.47 1.55
0.15 0.15 0.15 0.15 0.17 0.22 0.33 0.48 0.66 0.74 0.84 0.90 0.80 0.77 0.82 0.80 0.78 0.91 0.90 0.92 0.92 0.76 0.73 0.73 0.66 0.68 0.68 0.62 0.64 0.67 0.66 0.63 0.69 0.70 0.61 0.54 0.58 0.71 0.79 0.91 1.05 1.24 1.35
0.16 0.15 0.16 0.19 0.22 0.24 0.31 0.42 0.59 0.71 0.80 0.90 0.82 0.71 0.75 0.81 0.93 1.05 0.96 0.86 0.88 0.86 0.84 0.85 0.82 0.77 0.68 0.61 0.59 0.55 0.51 0.56 0.61 0.61 0.54 0.47 0.49 0.60 0.71 0.83 0.99 1.14 1.32
0.18 0.17 0.18 0.22 0.26 0.29 0.35 0.42 0.49 0.59 0.74 0.88 0.81 0.74 0.82 0.97 1.06 1.15 1.05 0.96 0.97 0.99 0.94 0.89 0.80 0.76 0.74 0.64 0.55 0.49 0.48 0.53 0.54 0.49 0.49 0.49 0.51 0.57 0.64 0.74 0.95 1.11 1.26
0.21 0.20 0.22 0.26 0.27 0.30 0.38 0.46 0.53 0.57 0.62 0.64 0.70 0.75 0.75 0.95 0.99 0.91 0.88 0.86 0.94 1.02 0.96 0.87 0.71 0.62 0.61 0.58 0.55 0.52 0.48 0.46 0.43 0.44 0.48 0.51 0.54 0.59 0.65 0.71 0.87 1.06 1.15
0.24 0.24 0.27 0.28 0.28 0.30 0.36 0.45 0.55 0.60 0.63 0.62 0.64 0.68 0.72 0.85 0.88 0.84 0.82 0.78 0.78 0.78 0.75 0.65 0.54 0.49 0.47 0.48 0.49 0.47 0.44 0.41 0.41 0.45 0.46 0.46 0.50 0.55 0.62 0.68 0.77 0.90 1.02
0.27 0.30 0.33 0.32 0.31 0.33 0.38 0.45 0.54 0.61 0.67 0.68 0.70 0.73 0.75 0.77 0.80 0.81 0.84 0.88 0.87 0.73 0.59 0.54 0.51 0.47 0.46 0.47 0.47 0.46 0.44 0.42 0.44 0.44 0.43 0.42 0.45 0.52 0.57 0.61 0.66 0.79 0.92
0.28 0.32 0.35 0.37 0.36 0.36 0.41 0.47 0.53 0.58 0.61 0.64 0.70 0.86 0.93 0.90 0.86 0.85 0.82 0.75 0.70 0.62 0.56 0.51 0.50 0.51 0.50 0.47 0.45 0.45 0.46 0.44 0.41 0.42 0.41 0.40 0.42 0.49 0.53 0.54 0.60 0.71 0.84
0.29 0.37 0.41 0.42 0.40 0.41 0.45 0.50 0.56 0.61 0.62 0.64 0.66 0.73 0.90 0.98 0.92 0.89 0.81 0.69 0.62 0.56 0.52 0.51 0.50 0.52 0.53 0.51 0.48 0.48 0.48 0.45 0.42 0.41 0.38 0.37 0.38 0.44 0.48 0.50 0.56 0.63 0.71
0.33 0.36 0.43 0.43 0.43 0.46 0.50 0.55 0.59 0.66 0.66 0.63 0.59 0.62 0.82 0.87 0.77 0.69 0.71 0.68 0.63 0.58 0.54 0.54 0.53 0.53 0.53 0.51 0.50 0.49 0.48 0.44 0.40 0.39 0.37 0.35 0.36 0.39 0.41 0.45 0.50 0.53 0.60
0.37 0.39 0.43 0.45 0.48 0.52 0.57 0.59 0.63 0.68 0.65 0.64 0.63 0.67 0.74 0.65 0.59 0.57 0.60 0.62 0.62 0.59 0.56 0.58 0.57 0.53 0.53 0.53 0.53 0.53 0.50 0.45 0.40 0.39 0.38 0.36 0.35 0.36 0.36 0.38 0.42 0.47 0.53
0.39 0.44 0.48 0.50 0.52 0.58 0.62 0.58 0.62 0.66 0.66 0.64 0.65 0.66 0.69 0.65 0.58 0.54 0.55 0.58 0.62 0.61 0.56 0.57 0.58 0.53 0.49 0.49 0.51 0.54 0.53 0.46 0.42 0.42 0.44 0.40 0.36 0.34 0.33 0.34 0.34 0.41 0.49
0.42 0.47 0.54 0.57 0.57 0.58 0.61 0.63 0.63 0.68 0.71 0.69 0.65 0.64 0.66 0.66 0.61 0.55 0.53 0.55 0.59 0.59 0.55 0.56 0.55 0.50 0.47 0.45 0.44 0.44 0.43 0.44 0.47 0.48 0.45 0.44 0.40 0.35 0.36 0.37 0.34 0.37 0.46
0.46 0.50 0.57 0.62 0.64 0.64 0.65 0.66 0.66 0.70 0.73 0.69 0.65 0.64 0.63 0.63 0.62 0.58 0.53 0.54 0.56 0.54 0.50 0.52 0.54 0.53 0.47 0.43 0.40 0.37 0.41 0.47 0.52 0.59 0.65 0.62 0.50 0.40 0.39 0.39 0.37 0.38 0.45
0.48 0.51 0.58 0.64 0.66 0.68 0.71 0.72 0.71 0.71 0.72 0.68 0.65 0.64 0.64 0.64 0.64 0.61 0.57 0.57 0.59 0.56 0.52 0.52 0.52 0.51 0.46 0.42 0.39 0.40 0.43 0.47 0.53 0.60 0.72 0.78 0.63 0.48 0.44 0.44 0.40 0.42 0.46

GEFSGL_prec_meanprecacc_192.txt.gz
Total_Precipitation_Accumulation
0.65 0.64 0.71 0.81 0.87 0.92 0.91 0.83 0.77 0.75 0.77 0.84 0.95 0.95 0.93 0.91 0.87 0.84 0.81 0.79 0.78 0.78 0.80 0.85 0.84 0.84 0.89 0.84 0.78 0.73 0.72 0.78 0.75 0.38 0.29 0.31 0.43 0.51 0.52 0.48 0.48 0.45 0.38
0.60 0.71 0.70 0.75 0.86 0.89 0.83 0.80 0.82 0.79 0.77 0.80 0.89 1.00 1.00 0.97 0.92 0.90 0.90 0.94 0.99 0.95 0.88 0.88 0.89 0.90 0.93 0.93 0.92 0.83 0.72 0.65 0.67 0.52 0.35 0.36 0.42 0.52 0.57 0.54 0.50 0.46 0.40
0.50 0.64 0.74 0.78 0.84 0.90 0.84 0.77 0.80 0.83 0.81 0.80 0.88 1.01 1.07 1.08 1.04 0.95 0.94 0.99 1.09 1.15 1.13 1.10 1.01 0.98 1.00 0.96 0.97 0.93 0.82 0.70 0.64 0.62 0.46 0.38 0.42 0.50 0.62 0.63 0.55 0.50 0.45
0.37 0.54 0.65 0.74 0.81 0.85 0.87 0.84 0.82 0.82 0.83 0.83 0.83 0.91 1.01 1.11 1.20 1.21 1.20 1.14 1.15 1.19 1.22 1.23 1.19 1.18 1.13 1.07 1.06 1.01 0.96 0.93 0.84 0.81 0.68 0.53 0.49 0.52 0.67 0.76 0.69 0.57 0.51
0.28 0.39 0.54 0.64 0.75 0.83 0.88 0.90 0.92 0.92 0.85 0.84 0.84 0.82 0.88 1.13 1.50 1.49 1.40 1.32 1.19 1.10 1.05 1.06 1.13 1.25 1.29 1.35 1.38 1.28 1.23 1.28 1.21 1.12 0.95 0.78 0.65 0.68 0.77 0.81 0.88 0.77 0.64
0.26 0.28 0.41 0.57 0.70 0.78 0.84 0.93 0.94 0.96 0.96 0.91 0.87 0.82 0.84 1.04 1.46 1.51 1.24 1.03 0.91 0.89 0.89 0.84 0.86 1.04 1.13 1.23 1.35 1.35 1.39 1.53 1.57 1.47 1.24 1.02 0.76 0.70 0.77 0.93 1.07 1.13 0.98
0.21 0.23 0.30 0.40 0.57 0.68 0.77 0.87 0.99 1.00 0.98 0.97 0.89 0.81 0.75 0.82 1.20 1.29 1.08 0.82 0.71 0.68 0.70 0.70 0.72 0.80 0.93 0.92 1.05 1.11 1.18 1.33 1.51 1.58 1.51 1.15 0.88 0.73 0.89 1.07 1.11 1.18 1.06
0.19 0.19 0.22 0.28 0.41 0.56 0.71 0.80 0.91 1.01 1.01 0.95 0.90 0.83 0.78 0.73 1.04 1.20 1.05 0.76 0.65 0.59 0.58 0.57 0.56 0.62 0.75 0.89 0.98 0.97 0.93 1.02 1.29 1.48 1.60 1.40 1.15 1.01 1.15 1.40 1.52 1.52 1.32
0.18 0.18 0.17 0.20 0.30 0.44 0.58 0.71 0.81 0.93 0.97 0.94 0.87 0.80 0.78 0.75 0.93 1.23 1.17 0.81 0.67 0.58 0.56 0.56 0.51 0.49 0.70 0.90 0.91 0.85 0.76 0.79 0.96 1.23 1.42 1.46 1.46 1.51 1.60 1.86 2.02 1.97 1.80
0.16 0.15 0.15 0.17 0.22 0.33 0.46 0.59 0.74 0.86 0.92 0.92 0.90 0.82 0.76 0.72 0.85 1.20 1.35 0.91 0.71 0.62 0.57 0.55 0.61 0.63 0.77 0.83 0.79 0.82 0.84 0.75 0.73 0.81 0.90 0.98 1.06 1.16 1.41 1.66 1.83 1.92 1.90
0.16 0.15 0.13 0.14 0.18 0.26 0.40 0.53 0.70 0.82 0.91 0.91 0.86 0.85 0.76 0.72 0.73 1.00 1.36 1.11 0.80 0.68 0.64 0.60 0.57 0.68 0.72 0.74 0.77 0.77 0.87 0.81 0.76 0.85 0.86 0.82 0.86 0.98 1.11 1.35 1.62 1.80 1.92
0.16 0.15 0.14 0.14 0.16 0.24 0.39 0.52 0.65 0.79 0.92 0.93 0.87 0.89 0.87 0.79 0.77 0.92 1.14 1.17 0.96 0.73 0.64 0.55 0.56 0.67 0.72 0.77 0.75 0.79 0.85 0.83 0.79 0.80 0.76 0.73 0.78 0.87 0.98 1.15 1.37 1.54 1.62
0.16 0.15 0.15 0.16 0.18 0.23 0.34 0.49 0.68 0.78 0.88 0.94 0.86 0.85 0.91 0.90 0.88 1.02 1.01 1.03 1.02 0.86 0.81 0.80 0.73 0.75 0.77 0.72 0.73 0.75 0.73 0.71 0.76 0.77 0.69 0.63 0.66 0.78 0.87 0.98 1.13 1.32 1.45
0.17 0.16 0.16 0.19 0.23 0.25 0.33 0.44 0.62 0.77 0.86 0.95 0.88 0.79 0.83 0.92 1.05 1.17 1.08 0.98 1.01 0.99 0.96 0.95 0.90 0.86 0.77 0.71 0.69 0.63 0.58 0.63 0.67 0.67 0.61 0.55 0.57 0.67 0.79 0.91 1.06 1.22 1.42
0.19 0.18 0.18 0.22 0.26 0.30 0.37 0.45 0.55 0.65 0.81 0.96 0.88 0.81 0.90 1.07 1.18 1.29 1.18 1.07 1.09 1.10 1.05 1.00 0.90 0.87 0.85 0.75 0.64 0.56 0.54 0.59 0.60 0.55 0.56 0.57 0.58 0.65 0.72 0.82 1.02 1.18 1.34
0.22 0.21 0.23 0.27 0.28 0.31 0.40 0.50 0.59 0.63 0.70 0.72 0.78 0.83 0.82 1.02 1.09 1.03 0.99 0.95 1.02 1.11 1.05 0.97 0.80 0.71 0.71 0.67 0.62 0.58 0.54 0.53 0.50 0.49 0.55 0.58 0.61 0.67 0.73 0.79 0.95 1.13 1.23
0.26 0.26 0.28 0.30 0.29 0.31 0.37 0.49 0.61 0.67 0.73 0.73 0.73 0.77 0.80 0.92 0.96 0.95 0.93 0.87 0.86 0.86 0.84 0.74 0.64 0.57 0.54 0.54 0.55 0.52 0.49 0.47 0.48 0.51 0.52 0.52 0.56 0.62 0.68 0.75 0.84 0.97 1.09
0.29 0.32 0.35 0.34 0.32 0.34 0.40 0.49 0.60 0.70 0.78 0.81 0.82 0.84 0.85 0.86 0.89 0.92 0.95 0.97 0.96 0.83 0.70 0.65 0.61 0.56 0.53 0.52 0.52 0.51 0.49 0.48 0.51 0.52 0.50 0.48 0.52 0.59 0.64 0.67 0.73 0.86 0.98
0.31 0.34 0.38 0.40 0.37 0.38 0.43 0.52 0.60 0.66 0.71 0.76 0.82 0.97 1.04 1.01 0.98 0.99 0.95 0.84 0.77 0.70 0.64 0.60 0.59 0.60 0.59 0.55 0.51 0.50 0.51 0.50 0.49 0.51 0.49 0.46 0.48 0.56 0.59 0.60 0.67 0.78 0.90
0.31 0.39 0.43 0.44 0.43 0.44 0.48 0.54 0.61 0.68 0.70 0.73 0.75 0.82 1.00 1.08 1.04 1.03 0.95 0.80 0.70 0.63 0.59 0.59 0.57 0.60 0.62 0.60 0.56 0.55 0.55 0.53 0.50 0.51 0.47 0.43 0.44 0.50 0.54 0.56 0.62 0.69 0.75
0.35 0.38 0.45 0.45 0.45 0.49 0.54 0.59 0.65 0.72 0.72 0.71 0.68 0.71 0.91 0.96 0.87 0.81 0.84 0.80 0.72 0.66 0.61 0.61 0.60 0.60 0.61 0.60 0.59 0.58 0.57 0.53 0.49 0.48 0.45 0.40 0.41 0.45 0.47 0.51 0.54 0.57 0.63
0.39 0.41 0.45 0.47 0.50 0.55 0.60 0.63 0.68 0.73 0.71 0.70 0.70 0.75 0.83 0.73 0.67 0.66 0.70 0.73 0.71 0.67 0.63 0.65 0.64 0.60 0.60 0.62 0.62 0.63 0.61 0.55 0.49 0.47 0.45 0.41 0.39 0.40 0.40 0.42 0.45 0.49 0.56
0.41 0.46 0.51 0.52 0.54 0.61 0.65 0.62 0.66 0.71 0.72 0.71 0.71 0.73 0.76 0.73 0.66 0.62 0.65 0.68 0.70 0.69 0.64 0.64 0.65 0.60 0.56 0.56 0.58 0.63 0.64 0.57 0.50 0.48 0.50 0.46 0.41 0.38 0.37 0.37 0.37 0.43 0.52
0.44 0.49 0.56 0.59 0.59 0.60 0.64 0.66 0.67 0.72 0.76 0.75 0.72 0.71 0.74 0.73 0.68 0.62 0.61 0.63 0.68 0.67 0.62 0.63 0.62 0.57 0.53 0.52 0.51 0.52 0.53 0.54 0.55 0.55 0.52 0.49 0.45 0.40 0.40 0.40 0.37 0.40 0.48
0.48 0.51 0.58 0.64 0.66 0.66 0.68 0.69 0.70 0.74 0.78 0.75 0.73 0.72 0.70 0.71 0.70 0.65 0.60 0.61 0.64 0.62 0.56 0.58 0.60 0.58 0.52 0.48 0.44 0.43 0.49 0.56 0.61 0.67 0.72 0.68 0.55 0.44 0.43 0.42 0.40 0.41 0.47
0.49 0.52 0.60 0.66 0.68 0.70 0.73 0.75 0.74 0.75 0.77 0.74 0.72 0.72 0.72 0.73 0.72 0.68 0.64 0.64 0.66 0.63 0.58 0.56 0.56 0.55 0.50 0.46 0.43 0.44 0.48 0.53 0.60 0.68 0.78 0.83 0.68 0.52 0.48 0.47 0.43 0.44 0.48

GEFSGL_prec_meanprecacc_198.txt.gz
Total_Precipitation_Accumulation
0.65 0.65 0.71 0.82 0.87 0.92 0.92 0.83 0.78 0.76 0.78 0.86 0.97 0.99 0.97 0.96 0.92 0.90 0.86 0.83 0.82 0.82 0.85 0.90 0.88 0.86 0.91 0.86 0.80 0.76 0.77 0.84 0.82 0.42 0.32 0.34 0.50 0.64 0.67 0.66 0.68 0.65 0.58
0.62 0.72 0.70 0.75 0.87 0.90 0.84 0.81 0.83 0.81 0.79 0.82 0.92 1.05 1.07 1.04 0.99 0.96 0.95 0.98 1.04 0.99 0.92 0.93 0.94 0.94 0.97 0.96 0.95 0.87 0.76 0.70 0.75 0.60 0.40 0.41 0.50 0.65 0.74 0.75 0.74 0.71 0.64
0.52 0.66 0.75 0.79 0.85 0.91 0.85 0.78 0.82 0.86 0.85 0.84 0.92 1.07 1.14 1.15 1.11 1.01 0.99 1.03 1.13 1.20 1.17 1.14 1.06 1.03 1.05 1.01 1.02 0.97 0.86 0.75 0.71 0.70 0.53 0.44 0.51 0.63 0.78 0.83 0.78 0.76 0.72
0.38 0.55 0.66 0.76 0.82 0.87 0.89 0.86 0.84 0.84 0.87 0.87 0.88 0.96 1.09 1.19 1.27 1.26 1.26 1.20 1.20 1.24 1.27 1.28 1.24 1.23 1.18 1.13 1.12 1.07 1.02 0.98 0.91 0.90 0.78 0.62 0.58 0.63 0.83 0.97 0.93 0.82 0.77
0.29 0.40 0.55 0.65 0.76 0.84 0.89 0.91 0.93 0.94 0.88 0.88 0.88 0.87 0.95 1.21 1.56 1.54 1.45 1.37 1.24 1.15 1.10 1.11 1.17 1.30 1.35 1.40 1.43 1.33 1.28 1.33 1.28 1.22 1.05 0.88 0.76 0.80 0.92 0.97 1.09 1.01 0.89
0.30 0.31 0.43 0.59 0.71 0.80 0.86 0.94 0.95 0.97 0.97 0.94 0.90 0.86 0.89 1.09 1.51 1.56 1.28 1.08 0.95 0.94 0.93 0.88 0.89 1.08 1.17 1.27 1.39 1.40 1.45 1.58 1.63 1.55 1.33 1.11 0.87 0.80 0.89 1.07 1.24 1.35 1.21
0.22 0.24 0.32 0.44 0.61 0.74 0.81 0.89 1.01 1.02 1.00 0.98 0.91 0.85 0.79 0.86 1.25 1.34 1.13 0.86 0.75 0.72 0.73 0.74 0.75 0.84 0.97 0.96 1.09 1.17 1.24 1.39 1.59 1.66 1.60 1.23 0.97 0.82 0.99 1.19 1.24 1.34 1.23
0.20 0.19 0.23 0.30 0.44 0.60 0.75 0.85 0.95 1.05 1.04 0.99 0.93 0.86 0.81 0.76 1.08 1.26 1.12 0.81 0.69 0.62 0.62 0.60 0.60 0.66 0.80 0.94 1.03 1.05 1.01 1.11 1.37 1.56 1.68 1.49 1.24 1.10 1.25 1.52 1.65 1.66 1.49
0.18 0.18 0.18 0.21 0.30 0.46 0.60 0.74 0.83 0.95 0.98 0.97 0.92 0.83 0.81 0.79 0.98 1.29 1.26 0.90 0.74 0.62 0.60 0.60 0.55 0.53 0.75 0.96 0.97 0.94 0.85 0.88 1.05 1.31 1.51 1.57 1.57 1.63 1.71 1.98 2.16 2.11 1.95
0.16 0.16 0.16 0.17 0.22 0.34 0.47 0.60 0.76 0.88 0.94 0.94 0.94 0.86 0.79 0.75 0.90 1.26 1.43 1.01 0.80 0.68 0.63 0.60 0.66 0.68 0.83 0.89 0.85 0.90 0.93 0.84 0.80 0.88 0.98 1.08 1.17 1.28 1.52 1.77 1.94 2.02 1.99
0.17 0.15 0.14 0.15 0.18 0.26 0.41 0.54 0.72 0.85 0.94 0.93 0.89 0.88 0.80 0.76 0.78 1.06 1.44 1.21 0.89 0.76 0.72 0.67 0.63 0.74 0.78 0.81 0.84 0.86 0.97 0.89 0.83 0.93 0.95 0.91 0.95 1.07 1.21 1.44 1.71 1.87 1.98
0.16 0.16 0.15 0.14 0.16 0.24 0.39 0.53 0.66 0.82 0.94 0.96 0.89 0.92 0.90 0.83 0.81 0.97 1.21 1.26 1.05 0.81 0.72 0.63 0.63 0.75 0.79 0.84 0.83 0.89 0.95 0.93 0.88 0.89 0.85 0.82 0.85 0.95 1.06 1.23 1.45 1.62 1.68
0.16 0.15 0.16 0.16 0.18 0.23 0.34 0.50 0.69 0.80 0.91 0.97 0.89 0.88 0.94 0.93 0.93 1.08 1.10 1.12 1.11 0.94 0.90 0.90 0.82 0.85 0.86 0.80 0.82 0.84 0.83 0.80 0.86 0.86 0.77 0.70 0.72 0.84 0.93 1.05 1.20 1.39 1.50
0.17 0.16 0.16 0.19 0.24 0.26 0.34 0.45 0.64 0.79 0.89 0.99 0.92 0.83 0.87 0.96 1.11 1.25 1.18 1.07 1.10 1.08 1.06 1.06 1.01 0.96 0.85 0.78 0.76 0.71 0.68 0.72 0.76 0.75 0.68 0.61 0.62 0.72 0.84 0.96 1.13 1.29 1.48
0.19 0.18 0.19 0.22 0.27 0.31 0.38 0.46 0.57 0.68 0.86 1.02 0.95 0.87 0.96 1.13 1.24 1.38 1.28 1.17 1.19 1.20 1.14 1.09 0.99 0.96 0.93 0.81 0.71 0.65 0.63 0.67 0.67 0.61 0.61 0.62 0.63 0.70 0.77 0.88 1.08 1.23 1.39
0.22 0.21 0.23 0.27 0.29 0.31 0.40 0.51 0.61 0.66 0.75 0.78 0.86 0.90 0.88 1.09 1.17 1.12 1.10 1.05 1.11 1.20 1.13 1.04 0.87 0.78 0.77 0.72 0.67 0.64 0.60 0.59 0.55 0.55 0.60 0.63 0.65 0.71 0.77 0.83 1.00 1.18 1.27
0.27 0.26 0.29 0.30 0.29 0.31 0.38 0.51 0.63 0.70 0.76 0.77 0.79 0.84 0.87 1.00 1.06 1.05 1.04 0.97 0.94 0.95 0.92 0.81 0.70 0.64 0.60 0.58 0.59 0.56 0.54 0.51 0.53 0.56 0.57 0.57 0.60 0.66 0.72 0.79 0.89 1.02 1.14
0.30 0.33 0.35 0.34 0.32 0.35 0.41 0.52 0.63 0.73 0.81 0.84 0.86 0.90 0.93 0.95 0.99 1.04 1.08 1.07 1.03 0.91 0.76 0.70 0.68 0.63 0.59 0.57 0.56 0.55 0.52 0.52 0.56 0.57 0.55 0.53 0.56 0.64 0.68 0.71 0.77 0.90 1.02
0.32 0.35 0.39 0.41 0.39 0.39 0.45 0.54 0.62 0.70 0.75 0.81 0.88 1.04 1.12 1.10 1.08 1.10 1.07 0.94 0.84 0.77 0.71 0.66 0.65 0.67 0.64 0.60 0.56 0.54 0.55 0.54 0.53 0.56 0.53 0.51 0.53 0.60 0.63 0.64 0.71 0.83 0.95
0.33 0.40 0.45 0.46 0.45 0.46 0.50 0.57 0.64 0.71 0.75 0.78 0.82 0.90 1.08 1.17 1.13 1.14 1.06 0.91 0.79 0.70 0.65 0.64 0.63 0.65 0.67 0.65 0.61 0.60 0.59 0.57 0.55 0.55 0.51 0.48 0.49 0.54 0.58 0.61 0.66 0.72 0.79
0.37 0.40 0.46 0.47 0.47 0.51 0.56 0.62 0.68 0.76 0.77 0.76 0.75 0.80 0.99 1.04 0.96 0.90 0.93 0.92 0.83 0.73 0.67 0.66 0.64 0.64 0.66 0.65 0.64 0.63 0.63 0.58 0.54 0.52 0.48 0.44 0.45 0.49 0.51 0.56 0.59 0.60 0.67
0.40 0.43 0.46 0.48 0.52 0.57 0.62 0.66 0.71 0.77 0.75 0.75 0.76 0.82 0.91 0.81 0.75 0.74 0.79 0.84 0.83 0.76 0.69 0.71 0.68 0.63 0.64 0.66 0.67 0.68 0.68 0.61 0.54 0.51 0.49 0.44 0.43 0.44 0.44 0.46 0.48 0.52 0.58
0.42 0.47 0.52 0.53 0.55 0.63 0.67 0.64 0.70 0.75 0.76 0.75 0.76 0.78 0.83 0.80 0.74 0.71 0.73 0.77 0.80 0.78 0.71 0.70 0.69 0.64 0.60 0.61 0.63 0.68 0.71 0.63 0.55 0.53 0.54 0.49 0.45 0.42 0.42 0.41 0.39 0.45 0.54
0.45 0.51 0.58 0.61 0.61 0.62 0.67 0.69 0.70 0.76 0.80 0.79 0.76 0.75 0.79 0.80 0.76 0.71 0.69 0.71 0.76 0.75 0.69 0.69 0.67 0.61 0.57 0.56 0.56 0.56 0.58 0.59 0.61 0.60 0.57 0.54 0.49 0.44 0.43 0.43 0.39 0.41 0.50
0.49 0.54 0.60 0.66 0.68 0.69 0.71 0.71 0.72 0.77 0.82 0.79 0.77 0.76 0.75 0.77 0.76 0.72 0.68 0.68 0.71 0.68 0.62 0.64 0.65 0.63 0.57 0.53 0.50 0.48 0.55 0.62 0.66 0.72 0.77 0.73 0.60 0.49 0.47 0.45 0.42 0.43 0.49
0.51 0.54 0.62 0.68 0.70 0.73 0.75 0.77 0.76 0.78 0.81 0.79 0.77 0.77 0.77 0.78 0.78 0.74 0.70 0.69 0.72 0.68 0.62 0.61 0.61 0.60 0.55 0.51 0.49 0.50 0.54 0.58 0.65 0.72 0.83 0.89 0.73 0.57 0.52 0.50 0.46 0.47 0.51

GEFSGL_prec_meanprecacc_204.txt.gz
Total_Precipitation_Accumulation
0.65 0.65 0.71 0.82 0.87 0.92 0.92 0.84 0.78 0.76 0.78 0.86 0.98 1.00 0.98 0.98 0.94 0.92 0.88 0.86 0.86 0.85 0.88 0.93 0.91 0.89 0.94 0.89 0.83 0.78 0.79 0.87 0.85 0.45 0.35 0.38 0.55 0.73 0.77 0.73 0.74 0.72 0.66
0.62 0.72 0.70 0.75 0.87 0.90 0.84 0.81 0.83 0.81 0.80 0.83 0.92 1.05 1.07 1.05 1.00 0.97 0.97 1.01 1.07 1.02 0.96 0.97 0.98 0.98 1.01 0.99 0.97 0.89 0.78 0.73 0.79 0.64 0.45 0.47 0.58 0.74 0.82 0.81 0.78 0.76 0.70
0.52 0.66 0.76 0.79 0.85 0.91 0.86 0.78 0.82 0.87 0.85 0.85 0.92 1.07 1.15 1.16 1.12 1.03 1.01 1.06 1.16 1.22 1.20 1.17 1.10 1.07 1.08 1.03 1.04 1.00 0.89 0.77 0.74 0.75 0.60 0.52 0.59 0.72 0.85 0.90 0.83 0.82 0.82
0.38 0.55 0.66 0.76 0.82 0.87 0.89 0.87 0.84 0.85 0.87 0.88 0.89 0.97 1.09 1.20 1.28 1.27 1.27 1.22 1.22 1.26 1.29 1.31 1.28 1.27 1.21 1.16 1.14 1.10 1.05 1.02 0.95 0.94 0.84 0.71 0.67 0.73 0.90 1.03 1.00 0.90 0.88
0.29 0.40 0.56 0.66 0.76 0.84 0.89 0.91 0.94 0.94 0.88 0.88 0.89 0.88 0.96 1.22 1.57 1.56 1.47 1.40 1.27 1.18 1.13 1.14 1.21 1.35 1.39 1.44 1.46 1.36 1.31 1.37 1.33 1.26 1.11 0.96 0.85 0.89 1.00 1.05 1.19 1.12 1.03
0.30 0.31 0.43 0.59 0.71 0.80 0.86 0.95 0.96 0.98 0.97 0.94 0.91 0.87 0.90 1.10 1.53 1.58 1.31 1.11 0.99 0.98 0.97 0.91 0.93 1.12 1.20 1.32 1.44 1.44 1.49 1.62 1.68 1.61 1.38 1.17 0.94 0.89 0.97 1.15 1.33 1.47 1.39
0.22 0.24 0.32 0.44 0.62 0.75 0.81 0.90 1.02 1.03 1.01 0.99 0.92 0.86 0.81 0.88 1.26 1.37 1.17 0.91 0.79 0.76 0.78 0.78 0.79 0.86 0.99 0.99 1.13 1.21 1.28 1.44 1.63 1.71 1.65 1.28 1.01 0.89 1.08 1.27 1.35 1.48 1.39
0.20 0.19 0.23 0.30 0.45 0.61 0.77 0.86 0.96 1.06 1.07 1.02 0.95 0.87 0.83 0.78 1.10 1.29 1.16 0.84 0.71 0.65 0.65 0.63 0.63 0.68 0.82 0.96 1.07 1.08 1.04 1.14 1.40 1.60 1.72 1.53 1.29 1.18 1.33 1.61 1.75 1.80 1.66
0.18 0.18 0.18 0.21 0.30 0.46 0.61 0.75 0.85 0.96 1.00 0.99 0.94 0.86 0.83 0.81 0.99 1.32 1.29 0.92 0.76 0.64 0.62 0.62 0.57 0.56 0.78 0.99 1.01 0.98 0.89 0.92 1.09 1.36 1.56 1.63 1.64 1.71 1.80 2.09 2.27 2.24 2.11
0.16 0.16 0.16 0.17 0.22 0.34 0.47 0.61 0.77 0.88 0.95 0.96 0.96 0.88 0.83 0.79 0.92 1.30 1.47 1.04 0.84 0.72 0.66 0.63 0.70 0.72 0.86 0.93 0.89 0.94 0.98 0.88 0.85 0.93 1.03 1.14 1.22 1.35 1.61 1.86 2.04 2.13 2.12
0.17 0.15 0.14 0.15 0.18 0.27 0.41 0.54 0.72 0.85 0.94 0.94 0.90 0.90 0.82 0.78 0.80 1.09 1.49 1.25 0.94 0.82 0.77 0.72 0.67 0.78 0.83 0.86 0.89 0.91 1.02 0.93 0.87 0.97 0.98 0.95 0.99 1.12 1.26 1.51 1.79 1.98 2.10
0.16 0.16 0.15 0.14 0.17 0.24 0.39 0.53 0.66 0.82 0.95 0.97 0.90 0.93 0.92 0.85 0.83 1.00 1.26 1.29 1.09 0.86 0.78 0.68 0.68 0.80 0.84 0.90 0.88 0.94 1.00 0.98 0.93 0.93 0.89 0.86 0.89 0.98 1.10 1.28 1.52 1.71 1.79
0.16 0.15 0.16 0.16 0.18 0.24 0.35 0.50 0.70 0.80 0.92 0.98 0.90 0.90 0.96 0.95 0.95 1.12 1.15 1.16 1.14 0.99 0.95 0.96 0.88 0.91 0.91 0.85 0.87 0.89 0.88 0.86 0.91 0.91 0.82 0.74 0.76 0.87 0.96 1.09 1.26 1.46 1.60
0.17 0.16 0.16 0.20 0.24 0.26 0.34 0.45 0.65 0.80 0.91 1.01 0.94 0.86 0.90 0.98 1.13 1.29 1.22 1.12 1.15 1.13 1.11 1.11 1.07 1.03 0.93 0.85 0.83 0.78 0.75 0.79 0.82 0.80 0.72 0.65 0.65 0.75 0.87 1.00 1.18 1.35 1.56
0.19 0.18 0.19 0.23 0.28 0.31 0.38 0.46 0.58 0.70 0.90 1.07 0.99 0.91 1.00 1.16 1.28 1.43 1.34 1.23 1.24 1.26 1.20 1.15 1.06 1.03 1.01 0.88 0.77 0.71 0.69 0.72 0.72 0.65 0.65 0.65 0.66 0.73 0.80 0.91 1.13 1.29 1.45
0.23 0.22 0.23 0.28 0.29 0.32 0.41 0.51 0.61 0.68 0.77 0.81 0.90 0.96 0.94 1.15 1.22 1.18 1.16 1.11 1.17 1.27 1.20 1.11 0.94 0.85 0.84 0.78 0.72 0.69 0.65 0.63 0.60 0.58 0.63 0.66 0.69 0.75 0.81 0.87 1.05 1.24 1.32
0.28 0.27 0.29 0.31 0.30 0.31 0.39 0.51 0.64 0.71 0.77 0.80 0.82 0.89 0.93 1.06 1.11 1.11 1.10 1.03 1.00 1.01 0.97 0.86 0.76 0.70 0.66 0.64 0.64 0.60 0.58 0.55 0.56 0.60 0.62 0.61 0.63 0.69 0.76 0.83 0.94 1.08 1.19
0.31 0.34 0.36 0.35 0.33 0.35 0.42 0.53 0.64 0.75 0.82 0.86 0.89 0.95 0.98 1.00 1.05 1.10 1.15 1.13 1.09 0.97 0.81 0.75 0.73 0.69 0.65 0.62 0.61 0.59 0.56 0.55 0.59 0.61 0.60 0.57 0.60 0.67 0.71 0.74 0.80 0.94 1.07
0.33 0.36 0.40 0.41 0.40 0.40 0.45 0.54 0.64 0.72 0.77 0.83 0.91 1.08 1.17 1.15 1.13 1.16 1.14 1.01 0.91 0.84 0.77 0.71 0.70 0.73 0.71 0.65 0.60 0.58 0.59 0.58 0.56 0.59 0.58 0.57 0.58 0.64 0.67 0.67 0.74 0.86 0.98
0.33 0.41 0.46 0.48 0.46 0.47 0.51 0.58 0.66 0.74 0.77 0.81 0.85 0.94 1.13 1.21 1.19 1.20 1.12 0.97 0.85 0.76 0.71 0.69 0.68 0.71 0.73 0.70 0.65 0.64 0.64 0.61 0.59 0.59 0.55 0.54 0.56 0.60 0.62 0.64 0.69 0.75 0.81
0.37 0.41 0.47 0.49 0.48 0.52 0.57 0.63 0.70 0.78 0.79 0.79 0.79 0.84 1.04 1.09 1.02 0.96 1.01 0.99 0.90 0.80 0.73 0.72 0.70 0.70 0.72 0.70 0.68 0.67 0.67 0.63 0.59 0.56 0.52 0.49 0.51 0.56 0.58 0.60 0.61 0.63 0.69
0.41 0.44 0.47 0.50 0.53 0.58 0.64 0.68 0.74 0.80 0.78 0.78 0.79 0.86 0.95 0.85 0.80 0.80 0.85 0.90 0.89 0.83 0.76 0.77 0.74 0.69 0.70 0.71 0.71 0.71 0.71 0.65 0.58 0.56 0.53 0.49 0.48 0.50 0.51 0.52 0.52 0.54 0.60
0.43 0.48 0.53 0.54 0.57 0.64 0.68 0.66 0.72 0.78 0.79 0.78 0.79 0.82 0.87 0.85 0.80 0.76 0.78 0.82 0.85 0.84 0.78 0.77 0.76 0.69 0.65 0.65 0.67 0.72 0.74 0.67 0.58 0.57 0.58 0.53 0.49 0.47 0.47 0.46 0.44 0.48 0.55
0.46 0.52 0.59 0.62 0.63 0.64 0.68 0.70 0.72 0.78 0.82 0.82 0.79 0.79 0.83 0.85 0.82 0.77 0.75 0.76 0.80 0.80 0.75 0.75 0.73 0.67 0.61 0.60 0.60 0.61 0.62 0.63 0.63 0.63 0.60 0.58 0.53 0.47 0.47 0.47 0.43 0.45 0.52
0.51 0.56 0.62 0.68 0.70 0.71 0.73 0.74 0.74 0.79 0.84 0.82 0.81 0.80 0.79 0.81 0.82 0.79 0.74 0.74 0.75 0.73 0.67 0.68 0.71 0.69 0.61 0.56 0.54 0.53 0.60 0.66 0.69 0.74 0.80 0.76 0.63 0.51 0.49 0.48 0.46 0.47 0.52
0.52 0.56 0.63 0.70 0.72 0.75 0.78 0.80 0.79 0.80 0.83 0.81 0.79 0.80 0.80 0.82 0.83 0.80 0.76 0.75 0.77 0.73 0.67 0.65 0.65 0.64 0.59 0.56 0.54 0.55 0.58 0.62 0.67 0.75 0.85 0.92 0.77 0.60 0.54 0.53 0.49 0.49 0.53

GEFSGL_prec_meanprecacc_210.txt.gz
Total_Precipitation_Accumulation
0.65 0.65 0.71 0.82 0.87 0.92 0.92 0.84 0.78 0.77 0.78 0.87 0.98 1.00 0.99 0.98 0.95 0.93 0.89 0.88 0.88 0.87 0.91 0.96 0.93 0.90 0.95 0.90 0.84 0.81 0.82 0.90 0.88 0.46 0.36 0.40 0.59 0.79 0.82 0.78 0.79 0.77 0.70
0.62 0.72 0.70 0.75 0.87 0.90 0.84 0.81 0.84 0.81 0.80 0.83 0.92 1.05 1.08 1.06 1.02 1.01 0.99 1.02 1.09 1.05 0.99 0.99 1.00 1.00 1.03 1.01 1.00 0.92 0.81 0.76 0.82 0.67 0.47 0.50 0.63 0.79 0.85 0.84 0.82 0.80 0.74
0.52 0.66 0.76 0.79 0.85 0.91 0.86 0.78 0.83 0.87 0.85 0.85 0.93 1.07 1.15 1.16 1.13 1.05 1.04 1.08 1.18 1.25 1.22 1.19 1.12 1.09 1.11 1.06 1.07 1.03 0.92 0.81 0.78 0.78 0.63 0.56 0.64 0.77 0.89 0.93 0.87 0.87 0.87
0.38 0.55 0.66 0.76 0.82 0.87 0.89 0.87 0.84 0.85 0.87 0.88 0.89 0.97 1.09 1.20 1.28 1.28 1.29 1.23 1.24 1.28 1.30 1.32 1.29 1.28 1.23 1.18 1.17 1.13 1.09 1.06 0.99 0.98 0.88 0.75 0.72 0.78 0.95 1.09 1.07 0.96 0.95
0.29 0.40 0.56 0.66 0.76 0.84 0.89 0.91 0.94 0.94 0.88 0.88 0.89 0.88 0.96 1.22 1.57 1.56 1.47 1.41 1.29 1.20 1.14 1.15 1.22 1.36 1.41 1.47 1.49 1.39 1.35 1.42 1.37 1.30 1.14 1.00 0.90 0.94 1.04 1.10 1.25 1.19 1.10
0.30 0.31 0.43 0.59 0.71 0.80 0.86 0.95 0.96 0.98 0.98 0.94 0.91 0.88 0.90 1.11 1.54 1.59 1.32 1.13 1.01 0.99 0.98 0.92 0.94 1.13 1.23 1.35 1.47 1.48 1.53 1.67 1.73 1.64 1.41 1.21 0.98 0.92 1.00 1.19 1.39 1.53 1.46
0.22 0.24 0.32 0.44 0.62 0.75 0.81 0.90 1.02 1.03 1.01 0.99 0.92 0.86 0.82 0.89 1.28 1.39 1.19 0.93 0.80 0.77 0.79 0.79 0.80 0.88 1.01 1.01 1.16 1.25 1.32 1.48 1.67 1.75 1.69 1.32 1.05 0.93 1.12 1.32 1.41 1.54 1.46
0.20 0.19 0.23 0.30 0.45 0.61 0.77 0.86 0.96 1.06 1.07 1.02 0.95 0.87 0.84 0.79 1.12 1.31 1.18 0.86 0.73 0.67 0.66 0.65 0.65 0.70 0.84 0.99 1.10 1.12 1.08 1.18 1.44 1.63 1.76 1.57 1.33 1.22 1.37 1.66 1.81 1.87 1.73
0.18 0.18 0.18 0.21 0.31 0.46 0.61 0.75 0.85 0.97 1.01 1.00 0.95 0.86 0.84 0.82 1.01 1.33 1.31 0.94 0.77 0.66 0.64 0.64 0.60 0.58 0.81 1.02 1.05 1.02 0.94 0.97 1.13 1.40 1.60 1.68 1.70 1.76 1.85 2.14 2.33 2.32 2.19
0.16 0.16 0.16 0.17 0.22 0.34 0.47 0.61 0.77 0.88 0.95 0.96 0.96 0.89 0.84 0.80 0.94 1.32 1.50 1.07 0.86 0.75 0.68 0.66 0.73 0.75 0.90 0.97 0.93 0.98 1.03 0.93 0.90 0.98 1.08 1.20 1.28 1.40 1.67 1.91 2.10 2.21 2.22
0.17 0.15 0.14 0.15 0.19 0.27 0.41 0.54 0.72 0.85 0.94 0.94 0.90 0.90 0.82 0.79 0.82 1.11 1.52 1.27 0.97 0.86 0.81 0.75 0.71 0.82 0.87 0.90 0.94 0.96 1.07 0.98 0.92 1.02 1.03 1.00 1.03 1.15 1.30 1.55 1.85 2.06 2.21
0.16 0.16 0.15 0.14 0.17 0.24 0.39 0.53 0.67 0.82 0.95 0.97 0.90 0.94 0.92 0.85 0.84 1.02 1.28 1.32 1.12 0.90 0.82 0.72 0.71 0.83 0.88 0.94 0.93 0.99 1.06 1.03 0.98 0.99 0.93 0.91 0.93 1.01 1.13 1.33 1.57 1.79 1.89
0.16 0.15 0.16 0.16 0.18 0.24 0.35 0.50 0.70 0.81 0.92 0.99 0.91 0.91 0.97 0.97 0.97 1.14 1.17 1.18 1.16 1.02 0.99 0.99 0.92 0.94 0.95 0.89 0.92 0.94 0.93 0.92 0.97 0.96 0.86 0.78 0.79 0.90 1.00 1.14 1.31 1.53 1.68
0.18 0.16 0.16 0.20 0.24 0.26 0.34 0.46 0.65 0.81 0.92 1.01 0.95 0.87 0.91 1.00 1.15 1.30 1.23 1.14 1.17 1.16 1.13 1.13 1.10 1.06 0.96 0.89 0.88 0.82 0.78 0.84 0.87 0.85 0.76 0.68 0.68 0.78 0.91 1.04 1.23 1.41 1.64
0.19 0.19 0.19 0.23 0.28 0.32 0.38 0.47 0.58 0.71 0.91 1.09 1.01 0.93 1.02 1.19 1.31 1.46 1.36 1.25 1.27 1.28 1.23 1.17 1.08 1.05 1.04 0.92 0.81 0.75 0.73 0.77 0.77 0.70 0.69 0.69 0.70 0.76 0.84 0.95 1.18 1.35 1.52
0.23 0.22 0.24 0.28 0.30 0.32 0.41 0.51 0.62 0.69 0.79 0.83 0.92 0.99 0.97 1.18 1.26 1.21 1.19 1.14 1.20 1.29 1.22 1.13 0.96 0.87 0.87 0.81 0.76 0.73 0.69 0.68 0.64 0.62 0.67 0.69 0.72 0.78 0.84 0.91 1.11 1.30 1.38
0.28 0.27 0.30 0.31 0.30 0.32 0.39 0.52 0.64 0.72 0.79 0.81 0.84 0.91 0.96 1.09 1.14 1.14 1.13 1.06 1.03 1.03 1.00 0.89 0.79 0.73 0.69 0.67 0.67 0.64 0.62 0.60 0.61 0.63 0.65 0.63 0.66 0.73 0.79 0.87 0.99 1.14 1.23
0.31 0.34 0.37 0.35 0.33 0.36 0.42 0.53 0.65 0.76 0.84 0.87 0.91 0.98 1.01 1.04 1.08 1.13 1.18 1.16 1.12 0.99 0.84 0.78 0.77 0.72 0.68 0.66 0.65 0.64 0.61 0.60 0.63 0.64 0.63 0.60 0.63 0.70 0.75 0.78 0.85 0.99 1.10
0.33 0.36 0.40 0.42 0.40 0.41 0.46 0.55 0.65 0.73 0.78 0.85 0.92 1.09 1.19 1.18 1.17 1.19 1.17 1.04 0.94 0.87 0.80 0.75 0.74 0.77 0.75 0.70 0.65 0.64 0.64 0.62 0.60 0.63 0.61 0.60 0.61 0.67 0.70 0.71 0.78 0.91 1.01
0.34 0.42 0.47 0.48 0.47 0.47 0.52 0.59 0.67 0.75 0.78 0.83 0.87 0.96 1.15 1.24 1.22 1.23 1.16 1.00 0.89 0.81 0.75 0.74 0.73 0.76 0.78 0.75 0.71 0.69 0.68 0.65 0.63 0.62 0.59 0.57 0.59 0.63 0.67 0.69 0.73 0.79 0.84
0.38 0.41 0.48 0.49 0.49 0.53 0.58 0.64 0.71 0.79 0.80 0.80 0.81 0.87 1.07 1.12 1.05 1.00 1.05 1.03 0.94 0.84 0.77 0.76 0.75 0.75 0.76 0.75 0.72 0.71 0.70 0.66 0.62 0.60 0.56 0.53 0.54 0.60 0.62 0.65 0.66 0.66 0.71
0.42 0.44 0.48 0.50 0.54 0.59 0.65 0.69 0.75 0.81 0.79 0.79 0.81 0.88 0.97 0.88 0.83 0.84 0.89 0.94 0.93 0.87 0.80 0.81 0.79 0.74 0.74 0.76 0.75 0.75 0.74 0.68 0.61 0.59 0.56 0.52 0.51 0.54 0.55 0.57 0.56 0.58 0.62
0.44 0.49 0.54 0.55 0.57 0.65 0.69 0.67 0.73 0.79 0.80 0.79 0.81 0.84 0.89 0.87 0.83 0.80 0.84 0.87 0.89 0.88 0.82 0.82 0.81 0.74 0.69 0.70 0.71 0.76 0.78 0.70 0.61 0.60 0.61 0.56 0.53 0.52 0.51 0.50 0.47 0.50 0.58
0.47 0.53 0.60 0.63 0.63 0.65 0.69 0.72 0.73 0.79 0.84 0.83 0.81 0.81 0.85 0.87 0.85 0.81 0.80 0.80 0.84 0.83 0.79 0.80 0.78 0.72 0.66 0.64 0.64 0.65 0.66 0.67 0.67 0.65 0.62 0.61 0.56 0.51 0.50 0.50 0.46 0.47 0.55
0.52 0.56 0.63 0.69 0.71 0.72 0.74 0.75 0.76 0.81 0.86 0.84 0.82 0.82 0.81 0.83 0.85 0.82 0.79 0.78 0.79 0.76 0.70 0.72 0.76 0.74 0.66 0.61 0.58 0.57 0.65 0.70 0.73 0.77 0.82 0.79 0.66 0.54 0.51 0.51 0.48 0.49 0.55
0.53 0.57 0.65 0.71 0.73 0.76 0.79 0.81 0.81 0.82 0.85 0.83 0.81 0.82 0.82 0.85 0.87 0.84 0.80 0.79 0.81 0.78 0.71 0.69 0.70 0.69 0.63 0.60 0.58 0.60 0.62 0.65 0.71 0.78 0.89 0.95 0.79 0.62 0.56 0.55 0.51 0.52 0.56

GEFSGL_prec_meanprecacc_216.txt.gz
Total_Precipitation_Accumulation
0.65 0.65 0.71 0.82 0.87 0.93 0.92 0.84 0.78 0.77 0.78 0.87 0.98 1.00 0.99 0.98 0.95 0.93 0.89 0.88 0.88 0.88 0.92 0.98 0.96 0.93 0.98 0.93 0.87 0.84 0.85 0.93 0.92 0.48 0.37 0.41 0.60 0.80 0.85 0.85 0.88 0.83 0.76
0.62 0.72 0.70 0.75 0.87 0.90 0.84 0.81 0.84 0.81 0.80 0.83 0.92 1.05 1.08 1.06 1.02 1.01 0.99 1.03 1.09 1.05 0.99 1.01 1.04 1.04 1.07 1.05 1.03 0.94 0.83 0.78 0.85 0.68 0.48 0.51 0.64 0.80 0.87 0.89 0.91 0.87 0.81
0.52 0.66 0.76 0.79 0.85 0.91 0.86 0.78 0.83 0.87 0.85 0.85 0.93 1.07 1.15 1.16 1.13 1.05 1.04 1.08 1.18 1.26 1.23 1.21 1.15 1.14 1.15 1.09 1.09 1.04 0.93 0.82 0.79 0.80 0.64 0.58 0.66 0.78 0.90 0.97 0.94 0.93 0.95
0.38 0.55 0.66 0.76 0.82 0.87 0.89 0.87 0.85 0.85 0.87 0.88 0.89 0.97 1.09 1.20 1.28 1.28 1.29 1.24 1.24 1.28 1.31 1.32 1.30 1.30 1.26 1.20 1.19 1.14 1.09 1.07 1.00 1.00 0.90 0.77 0.75 0.79 0.97 1.12 1.12 1.01 1.02
0.29 0.40 0.56 0.66 0.76 0.84 0.89 0.91 0.94 0.94 0.88 0.88 0.89 0.88 0.96 1.22 1.57 1.56 1.48 1.41 1.29 1.20 1.15 1.15 1.22 1.37 1.43 1.49 1.52 1.41 1.36 1.44 1.40 1.33 1.17 1.03 0.93 0.96 1.07 1.13 1.28 1.23 1.15
0.30 0.31 0.43 0.59 0.71 0.80 0.87 0.95 0.96 0.98 0.98 0.94 0.91 0.88 0.90 1.11 1.54 1.60 1.33 1.13 1.01 1.00 0.99 0.93 0.94 1.14 1.24 1.36 1.50 1.51 1.55 1.69 1.76 1.67 1.44 1.23 1.01 0.96 1.04 1.23 1.42 1.58 1.51
0.22 0.24 0.32 0.44 0.62 0.75 0.81 0.90 1.02 1.03 1.01 0.99 0.92 0.86 0.82 0.89 1.28 1.40 1.20 0.93 0.81 0.77 0.80 0.80 0.81 0.88 1.02 1.02 1.17 1.26 1.34 1.50 1.70 1.78 1.73 1.34 1.08 0.96 1.16 1.37 1.45 1.58 1.49
0.20 0.19 0.23 0.30 0.45 0.61 0.77 0.87 0.96 1.06 1.07 1.02 0.95 0.88 0.84 0.79 1.12 1.32 1.19 0.87 0.74 0.67 0.67 0.66 0.66 0.71 0.85 1.01 1.12 1.14 1.10 1.20 1.46 1.65 1.79 1.59 1.35 1.25 1.41 1.70 1.87 1.92 1.77
0.18 0.18 0.18 0.21 0.31 0.46 0.61 0.75 0.85 0.97 1.01 1.00 0.95 0.86 0.84 0.82 1.02 1.35 1.32 0.95 0.78 0.67 0.65 0.65 0.60 0.59 0.83 1.04 1.07 1.04 0.96 0.99 1.17 1.45 1.66 1.73 1.75 1.81 1.91 2.20 2.40 2.38 2.26
0.16 0.16 0.16 0.18 0.23 0.34 0.47 0.61 0.77 0.88 0.95 0.96 0.97 0.90 0.85 0.81 0.95 1.33 1.51 1.08 0.87 0.75 0.69 0.66 0.74 0.76 0.92 0.99 0.94 1.00 1.05 0.95 0.93 1.02 1.14 1.25 1.33 1.45 1.73 1.97 2.17 2.28 2.29
0.17 0.15 0.14 0.15 0.19 0.27 0.41 0.55 0.73 0.85 0.94 0.95 0.91 0.91 0.83 0.80 0.82 1.12 1.53 1.29 0.98 0.87 0.82 0.76 0.72 0.84 0.88 0.92 0.96 0.97 1.10 1.02 0.96 1.06 1.09 1.06 1.09 1.21 1.37 1.62 1.92 2.15 2.28
0.16 0.16 0.15 0.14 0.17 0.25 0.40 0.53 0.67 0.83 0.96 0.97 0.90 0.94 0.92 0.86 0.84 1.03 1.29 1.33 1.13 0.92 0.83 0.73 0.72 0.85 0.90 0.96 0.95 1.02 1.10 1.07 1.01 1.03 0.98 0.95 0.99 1.08 1.20 1.39 1.65 1.86 1.96
0.16 0.16 0.16 0.16 0.19 0.25 0.35 0.51 0.70 0.81 0.93 0.99 0.91 0.91 0.97 0.97 0.97 1.14 1.18 1.20 1.17 1.03 1.00 1.00 0.93 0.96 0.97 0.92 0.95 0.97 0.96 0.94 1.00 1.00 0.90 0.82 0.84 0.96 1.06 1.21 1.38 1.60 1.76
0.18 0.16 0.17 0.20 0.24 0.27 0.35 0.46 0.65 0.81 0.92 1.02 0.95 0.88 0.92 1.01 1.16 1.31 1.24 1.15 1.18 1.17 1.15 1.15 1.11 1.07 0.98 0.92 0.91 0.85 0.81 0.86 0.90 0.88 0.80 0.73 0.72 0.83 0.98 1.12 1.30 1.48 1.72
0.20 0.19 0.19 0.23 0.28 0.32 0.38 0.47 0.58 0.71 0.92 1.10 1.03 0.95 1.04 1.21 1.33 1.48 1.38 1.26 1.28 1.30 1.25 1.19 1.09 1.07 1.05 0.94 0.83 0.77 0.75 0.79 0.80 0.73 0.73 0.73 0.74 0.81 0.90 1.02 1.26 1.42 1.59
0.23 0.22 0.24 0.28 0.30 0.32 0.41 0.51 0.62 0.69 0.79 0.84 0.94 1.00 0.98 1.20 1.28 1.23 1.21 1.16 1.21 1.31 1.24 1.15 0.97 0.89 0.88 0.82 0.78 0.75 0.71 0.70 0.67 0.66 0.70 0.73 0.77 0.83 0.90 0.97 1.17 1.36 1.44
0.28 0.28 0.30 0.31 0.30 0.32 0.39 0.52 0.64 0.72 0.79 0.82 0.85 0.92 0.97 1.10 1.16 1.15 1.15 1.07 1.04 1.05 1.02 0.91 0.81 0.75 0.71 0.68 0.68 0.66 0.64 0.62 0.63 0.67 0.68 0.67 0.71 0.78 0.85 0.92 1.05 1.19 1.28
0.32 0.34 0.37 0.35 0.34 0.36 0.43 0.53 0.65 0.76 0.84 0.88 0.91 0.98 1.02 1.05 1.09 1.14 1.19 1.17 1.12 1.01 0.86 0.81 0.79 0.74 0.69 0.67 0.66 0.65 0.63 0.62 0.66 0.68 0.67 0.64 0.67 0.75 0.80 0.83 0.90 1.03 1.14
0.34 0.37 0.41 0.42 0.41 0.41 0.46 0.56 0.65 0.74 0.79 0.86 0.93 1.10 1.20 1.20 1.18 1.20 1.18 1.05 0.95 0.89 0.82 0.77 0.77 0.79 0.77 0.72 0.67 0.66 0.67 0.65 0.64 0.67 0.65 0.64 0.65 0.71 0.75 0.76 0.82 0.94 1.04
0.34 0.42 0.48 0.49 0.47 0.48 0.53 0.60 0.68 0.76 0.79 0.83 0.88 0.97 1.16 1.25 1.23 1.24 1.17 1.03 0.91 0.83 0.78 0.77 0.75 0.78 0.81 0.78 0.74 0.72 0.72 0.69 0.66 0.66 0.63 0.61 0.63 0.68 0.71 0.73 0.77 0.82 0.86
0.38 0.42 0.49 0.50 0.50 0.54 0.59 0.65 0.72 0.80 0.81 0.81 0.82 0.88 1.09 1.13 1.07 1.02 1.07 1.06 0.97 0.87 0.80 0.80 0.78 0.78 0.79 0.78 0.76 0.74 0.74 0.70 0.66 0.64 0.60 0.57 0.58 0.65 0.66 0.68 0.69 0.68 0.73
0.42 0.45 0.49 0.51 0.55 0.60 0.66 0.70 0.76 0.82 0.80 0.81 0.82 0.90 0.99 0.89 0.85 0.86 0.92 0.97 0.97 0.91 0.83 0.84 0.83 0.78 0.78 0.79 0.79 0.78 0.77 0.72 0.65 0.62 0.60 0.56 0.56 0.59 0.59 0.60 0.58 0.59 0.64
0.45 0.50 0.55 0.56 0.58 0.66 0.70 0.68 0.74 0.80 0.82 0.81 0.82 0.85 0.90 0.88 0.85 0.83 0.87 0.91 0.94 0.92 0.87 0.87 0.84 0.78 0.73 0.73 0.75 0.79 0.82 0.74 0.65 0.63 0.65 0.60 0.57 0.56 0.54 0.52 0.49 0.52 0.59
0.48 0.54 0.61 0.64 0.64 0.66 0.71 0.73 0.74 0.80 0.85 0.84 0.82 0.82 0.87 0.89 0.87 0.84 0.83 0.85 0.89 0.89 0.84 0.84 0.82 0.76 0.70 0.68 0.67 0.68 0.70 0.70 0.70 0.68 0.66 0.65 0.60 0.53 0.53 0.52 0.47 0.48 0.55
0.52 0.57 0.64 0.70 0.72 0.73 0.75 0.76 0.77 0.82 0.87 0.85 0.84 0.84 0.83 0.86 0.87 0.85 0.82 0.82 0.84 0.81 0.75 0.76 0.80 0.78 0.70 0.64 0.61 0.61 0.68 0.74 0.76 0.80 0.86 0.82 0.69 0.56 0.53 0.52 0.50 0.50 0.55
0.53 0.57 0.65 0.72 0.74 0.77 0.81 0.83 0.82 0.83 0.87 0.85 0.83 0.84 0.84 0.87 0.89 0.87 0.84 0.84 0.87 0.83 0.76 0.74 0.74 0.73 0.68 0.64 0.62 0.64 0.66 0.68 0.74 0.81 0.92 0.98 0.82 0.63 0.58 0.56 0.52 0.53 0.56

GEFSGL_prec_meanprecacc_222.txt.gz
Total_Precipitation_Accumulation
0.65 0.65 0.71 0.82 0.87 0.93 0.92 0.84 0.78 0.77 0.78 0.87 0.98 1.00 0.99 0.98 0.95 0.93 0.89 0.88 0.88 0.88 0.92 0.98 0.96 0.94 1.00 0.95 0.89 0.85 0.86 0.95 0.94 0.49 0.38 0.42 0.61 0.80 0.85 0.86 0.90 0.86 0.79
0.62 0.72 0.70 0.75 0.87 0.90 0.84 0.81 0.84 0.81 0.80 0.83 0.92 1.05 1.08 1.06 1.02 1.01 0.99 1.03 1.09 1.05 0.99 1.01 1.04 1.05 1.08 1.07 1.05 0.96 0.85 0.80 0.87 0.71 0.50 0.52 0.65 0.81 0.87 0.90 0.96 0.93 0.85
0.52 0.67 0.76 0.79 0.85 0.91 0.86 0.78 0.83 0.87 0.85 0.85 0.93 1.07 1.15 1.16 1.13 1.05 1.04 1.08 1.18 1.26 1.23 1.21 1.15 1.14 1.16 1.11 1.11 1.07 0.96 0.85 0.81 0.82 0.66 0.59 0.67 0.79 0.92 0.99 1.01 1.00 0.99
0.39 0.55 0.66 0.76 0.83 0.87 0.89 0.87 0.85 0.85 0.87 0.88 0.89 0.97 1.09 1.20 1.28 1.28 1.29 1.24 1.24 1.29 1.31 1.33 1.30 1.31 1.27 1.22 1.21 1.17 1.12 1.11 1.05 1.03 0.92 0.78 0.76 0.81 0.98 1.15 1.21 1.07 1.05
0.29 0.40 0.56 0.66 0.76 0.84 0.89 0.91 0.94 0.94 0.88 0.88 0.89 0.88 0.96 1.22 1.57 1.56 1.48 1.42 1.29 1.20 1.15 1.15 1.23 1.38 1.44 1.51 1.55 1.44 1.39 1.47 1.43 1.36 1.19 1.04 0.94 0.99 1.09 1.18 1.36 1.28 1.20
0.30 0.31 0.43 0.59 0.72 0.80 0.87 0.95 0.97 0.98 0.98 0.94 0.91 0.88 0.90 1.11 1.54 1.60 1.34 1.13 1.01 1.00 0.99 0.93 0.95 1.15 1.25 1.38 1.52 1.54 1.59 1.73 1.79 1.71 1.48 1.25 1.03 0.98 1.07 1.28 1.47 1.63 1.56
0.22 0.25 0.32 0.44 0.62 0.75 0.82 0.90 1.02 1.03 1.01 0.99 0.92 0.86 0.82 0.89 1.28 1.40 1.20 0.94 0.81 0.78 0.80 0.81 0.81 0.89 1.03 1.04 1.19 1.29 1.37 1.53 1.73 1.80 1.75 1.36 1.10 1.00 1.21 1.42 1.50 1.62 1.53
0.20 0.19 0.23 0.30 0.45 0.61 0.77 0.87 0.97 1.07 1.07 1.02 0.95 0.88 0.84 0.79 1.13 1.33 1.20 0.87 0.74 0.67 0.67 0.66 0.66 0.71 0.86 1.03 1.14 1.16 1.13 1.23 1.49 1.67 1.80 1.61 1.38 1.29 1.48 1.76 1.92 1.97 1.81
0.18 0.18 0.18 0.21 0.31 0.46 0.61 0.75 0.85 0.97 1.01 1.00 0.95 0.87 0.84 0.82 1.02 1.35 1.33 0.95 0.78 0.67 0.65 0.65 0.61 0.60 0.84 1.07 1.10 1.07 0.98 1.02 1.19 1.47 1.68 1.76 1.78 1.86 1.98 2.27 2.46 2.44 2.31
0.16 0.16 0.16 0.18 0.23 0.34 0.47 0.61 0.77 0.89 0.95 0.96 0.97 0.90 0.85 0.81 0.95 1.34 1.52 1.08 0.88 0.76 0.69 0.67 0.74 0.77 0.93 1.01 0.97 1.03 1.07 0.98 0.96 1.05 1.16 1.27 1.35 1.49 1.78 2.03 2.24 2.35 2.35
0.17 0.16 0.14 0.15 0.19 0.27 0.42 0.55 0.73 0.85 0.95 0.95 0.91 0.91 0.83 0.80 0.83 1.13 1.55 1.30 0.99 0.88 0.82 0.76 0.73 0.85 0.90 0.94 0.99 1.00 1.13 1.05 0.99 1.10 1.11 1.07 1.11 1.24 1.41 1.68 1.99 2.22 2.35
0.16 0.16 0.15 0.14 0.17 0.25 0.40 0.54 0.67 0.83 0.96 0.97 0.91 0.94 0.93 0.86 0.85 1.04 1.31 1.35 1.14 0.93 0.84 0.74 0.73 0.86 0.92 0.98 0.98 1.05 1.13 1.10 1.04 1.05 1.00 0.97 1.01 1.11 1.24 1.44 1.70 1.91 2.00
0.16 0.16 0.17 0.17 0.19 0.25 0.36 0.51 0.71 0.82 0.93 0.99 0.91 0.91 0.97 0.97 0.98 1.16 1.19 1.21 1.19 1.04 1.01 1.02 0.94 0.97 0.99 0.93 0.96 0.99 0.99 0.97 1.03 1.03 0.93 0.84 0.87 0.99 1.10 1.25 1.43 1.64 1.80
0.18 0.17 0.17 0.20 0.24 0.27 0.35 0.46 0.66 0.82 0.93 1.03 0.96 0.88 0.92 1.01 1.17 1.32 1.25 1.16 1.19 1.18 1.16 1.16 1.12 1.09 1.00 0.94 0.93 0.87 0.83 0.89 0.93 0.91 0.83 0.75 0.75 0.86 1.01 1.15 1.34 1.52 1.76
0.20 0.19 0.20 0.24 0.28 0.32 0.39 0.47 0.59 0.71 0.93 1.12 1.04 0.96 1.05 1.22 1.34 1.50 1.40 1.28 1.29 1.31 1.26 1.20 1.10 1.08 1.07 0.97 0.86 0.79 0.78 0.82 0.82 0.75 0.75 0.75 0.77 0.84 0.93 1.05 1.29 1.45 1.63
0.24 0.23 0.24 0.29 0.30 0.32 0.41 0.52 0.62 0.70 0.80 0.85 0.95 1.01 1.00 1.22 1.30 1.25 1.23 1.17 1.22 1.32 1.26 1.16 0.98 0.90 0.89 0.85 0.81 0.77 0.74 0.73 0.70 0.69 0.73 0.75 0.79 0.87 0.93 1.00 1.20 1.40 1.48
0.29 0.28 0.30 0.32 0.31 0.32 0.40 0.52 0.65 0.72 0.79 0.82 0.86 0.93 0.98 1.12 1.18 1.18 1.17 1.08 1.05 1.06 1.03 0.92 0.82 0.76 0.72 0.69 0.71 0.69 0.67 0.64 0.67 0.70 0.71 0.70 0.74 0.81 0.88 0.95 1.08 1.23 1.33
0.33 0.35 0.38 0.36 0.34 0.36 0.43 0.54 0.66 0.76 0.85 0.88 0.91 0.99 1.03 1.06 1.11 1.17 1.21 1.18 1.13 1.01 0.87 0.82 0.80 0.75 0.71 0.69 0.68 0.68 0.65 0.65 0.70 0.72 0.70 0.67 0.70 0.78 0.83 0.86 0.93 1.07 1.18
0.34 0.38 0.41 0.43 0.41 0.42 0.47 0.56 0.66 0.74 0.80 0.86 0.93 1.10 1.21 1.20 1.19 1.21 1.19 1.06 0.97 0.90 0.84 0.79 0.78 0.81 0.79 0.74 0.69 0.69 0.70 0.68 0.67 0.70 0.69 0.67 0.68 0.75 0.78 0.79 0.86 0.98 1.08
0.35 0.43 0.48 0.50 0.48 0.48 0.53 0.60 0.68 0.76 0.80 0.84 0.88 0.98 1.17 1.26 1.23 1.25 1.18 1.03 0.92 0.84 0.80 0.79 0.77 0.80 0.83 0.81 0.76 0.75 0.75 0.71 0.69 0.70 0.66 0.64 0.67 0.71 0.75 0.76 0.81 0.86 0.90
0.39 0.42 0.49 0.50 0.50 0.54 0.60 0.66 0.73 0.81 0.82 0.82 0.83 0.89 1.10 1.14 1.08 1.03 1.08 1.07 0.99 0.88 0.82 0.82 0.80 0.80 0.82 0.81 0.78 0.77 0.77 0.73 0.70 0.68 0.63 0.60 0.62 0.69 0.71 0.72 0.72 0.72 0.76
0.43 0.46 0.49 0.52 0.55 0.61 0.66 0.70 0.77 0.83 0.81 0.81 0.83 0.91 1.00 0.90 0.86 0.88 0.94 0.99 0.99 0.93 0.86 0.87 0.86 0.81 0.82 0.83 0.82 0.81 0.80 0.75 0.69 0.66 0.63 0.60 0.60 0.63 0.64 0.64 0.62 0.62 0.66
0.45 0.51 0.55 0.56 0.59 0.67 0.71 0.69 0.74 0.80 0.83 0.82 0.84 0.86 0.91 0.89 0.86 0.84 0.89 0.93 0.96 0.95 0.89 0.89 0.87 0.81 0.76 0.76 0.78 0.83 0.85 0.78 0.68 0.67 0.69 0.64 0.61 0.60 0.58 0.55 0.51 0.54 0.61
0.49 0.55 0.61 0.64 0.65 0.67 0.71 0.73 0.75 0.81 0.86 0.85 0.84 0.83 0.88 0.91 0.89 0.86 0.86 0.88 0.92 0.91 0.87 0.87 0.85 0.79 0.73 0.71 0.71 0.72 0.74 0.74 0.73 0.72 0.70 0.69 0.63 0.56 0.55 0.54 0.49 0.50 0.57
0.53 0.58 0.65 0.71 0.73 0.74 0.76 0.77 0.78 0.83 0.88 0.86 0.85 0.85 0.84 0.87 0.89 0.88 0.85 0.85 0.87 0.84 0.78 0.79 0.83 0.82 0.74 0.68 0.65 0.64 0.72 0.77 0.79 0.83 0.89 0.85 0.71 0.58 0.54 0.53 0.51 0.51 0.56
0.54 0.58 0.66 0.72 0.75 0.78 0.82 0.84 0.83 0.84 0.88 0.86 0.84 0.85 0.85 0.88 0.91 0.89 0.86 0.86 0.89 0.86 0.79 0.77 0.78 0.77 0.72 0.68 0.66 0.67 0.69 0.71 0.76 0.84 0.94 1.00 0.83 0.65 0.59 0.58 0.53 0.54 0.57

GEFSGL_prec_meanprecacc_228.txt.gz
Total_Precipitation_Accumulation
0.66 0.65 0.71 0.82 0.87 0.93 0.92 0.84 0.78 0.77 0.78 0.87 0.98 1.00 0.99 0.99 0.95 0.93 0.89 0.88 0.88 0.88 0.92 0.98 0.96 0.94 1.00 0.96 0.89 0.86 0.86 0.96 0.96 0.50 0.38 0.42 0.61 0.81 0.86 0.87 0.91 0.86 0.80
0.62 0.72 0.70 0.75 0.87 0.90 0.84 0.81 0.84 0.81 0.80 0.83 0.92 1.05 1.08 1.06 1.02 1.01 0.99 1.03 1.09 1.05 0.99 1.01 1.04 1.05 1.09 1.07 1.05 0.96 0.85 0.80 0.88 0.72 0.50 0.53 0.65 0.82 0.88 0.91 0.97 0.95 0.87
0.52 0.67 0.76 0.79 0.85 0.91 0.86 0.78 0.83 0.87 0.85 0.85 0.93 1.07 1.15 1.16 1.13 1.05 1.04 1.08 1.18 1.26 1.23 1.21 1.15 1.15 1.16 1.11 1.12 1.07 0.96 0.86 0.83 0.84 0.67 0.61 0.69 0.80 0.92 1.00 1.03 1.03 1.02
0.39 0.55 0.66 0.76 0.83 0.87 0.89 0.87 0.85 0.85 0.87 0.88 0.89 0.97 1.09 1.20 1.28 1.28 1.29 1.24 1.25 1.29 1.31 1.33 1.30 1.31 1.27 1.23 1.22 1.17 1.13 1.12 1.06 1.05 0.93 0.80 0.78 0.82 0.99 1.17 1.24 1.11 1.09
0.30 0.40 0.56 0.66 0.77 0.85 0.89 0.92 0.94 0.95 0.88 0.88 0.89 0.88 0.96 1.22 1.58 1.56 1.48 1.42 1.29 1.20 1.15 1.16 1.23 1.38 1.44 1.51 1.55 1.45 1.41 1.49 1.45 1.38 1.21 1.05 0.96 1.01 1.11 1.20 1.40 1.33 1.22
0.30 0.32 0.43 0.59 0.72 0.80 0.87 0.95 0.97 0.98 0.98 0.94 0.91 0.88 0.90 1.11 1.54 1.61 1.34 1.14 1.01 1.00 0.99 0.93 0.95 1.15 1.25 1.38 1.52 1.55 1.61 1.75 1.81 1.74 1.50 1.28 1.04 1.00 1.11 1.32 1.52 1.68 1.60
0.22 0.25 0.32 0.45 0.63 0.75 0.82 0.90 1.02 1.03 1.01 1.00 0.92 0.87 0.82 0.89 1.28 1.40 1.21 0.94 0.81 0.78 0.80 0.81 0.81 0.89 1.03 1.04 1.20 1.30 1.38 1.54 1.74 1.83 1.78 1.39 1.13 1.03 1.27 1.47 1.54 1.66 1.57
0.20 0.19 0.23 0.31 0.45 0.61 0.77 0.87 0.97 1.07 1.07 1.02 0.95 0.88 0.84 0.79 1.13 1.33 1.20 0.88 0.74 0.67 0.67 0.66 0.66 0.72 0.86 1.03 1.15 1.18 1.13 1.23 1.50 1.68 1.82 1.63 1.41 1.34 1.55 1.83 1.98 2.02 1.84
0.18 0.18 0.18 0.21 0.31 0.47 0.62 0.75 0.85 0.97 1.01 1.00 0.95 0.87 0.84 0.82 1.02 1.36 1.34 0.96 0.79 0.67 0.65 0.65 0.61 0.60 0.85 1.08 1.11 1.08 0.99 1.02 1.20 1.48 1.69 1.78 1.82 1.91 2.04 2.33 2.52 2.50 2.35
0.16 0.16 0.16 0.18 0.23 0.35 0.47 0.61 0.77 0.89 0.95 0.96 0.97 0.90 0.85 0.81 0.95 1.34 1.53 1.09 0.88 0.76 0.69 0.67 0.74 0.78 0.95 1.02 0.98 1.05 1.09 0.99 0.97 1.06 1.17 1.29 1.38 1.53 1.83 2.08 2.29 2.42 2.40
0.17 0.16 0.14 0.15 0.19 0.27 0.42 0.55 0.73 0.85 0.95 0.95 0.91 0.91 0.83 0.80 0.83 1.13 1.55 1.31 1.00 0.88 0.83 0.76 0.73 0.86 0.91 0.96 1.00 1.02 1.16 1.07 1.01 1.11 1.12 1.09 1.14 1.28 1.46 1.72 2.04 2.28 2.41
0.16 0.17 0.15 0.15 0.17 0.25 0.40 0.54 0.67 0.83 0.96 0.97 0.91 0.94 0.93 0.86 0.85 1.04 1.32 1.36 1.15 0.93 0.85 0.74 0.74 0.87 0.93 0.99 0.99 1.07 1.15 1.12 1.05 1.07 1.02 1.00 1.05 1.15 1.29 1.49 1.75 1.96 2.06
0.16 0.16 0.17 0.17 0.19 0.25 0.36 0.52 0.71 0.82 0.94 1.00 0.91 0.91 0.97 0.97 0.98 1.16 1.20 1.22 1.19 1.05 1.02 1.03 0.95 0.98 1.00 0.94 0.98 1.01 1.01 0.98 1.04 1.04 0.95 0.88 0.92 1.04 1.15 1.30 1.47 1.68 1.83
0.19 0.17 0.18 0.21 0.25 0.27 0.36 0.47 0.66 0.82 0.93 1.03 0.96 0.89 0.92 1.02 1.17 1.33 1.26 1.16 1.20 1.18 1.16 1.16 1.12 1.09 1.01 0.95 0.94 0.88 0.84 0.90 0.94 0.93 0.86 0.79 0.79 0.91 1.06 1.20 1.37 1.55 1.80
0.20 0.20 0.20 0.24 0.29 0.33 0.39 0.48 0.59 0.72 0.94 1.12 1.04 0.97 1.06 1.23 1.35 1.51 1.41 1.29 1.30 1.32 1.26 1.20 1.10 1.08 1.07 0.98 0.87 0.80 0.79 0.83 0.84 0.78 0.78 0.79 0.81 0.89 0.98 1.10 1.32 1.48 1.66
0.24 0.23 0.25 0.30 0.31 0.33 0.42 0.52 0.63 0.70 0.80 0.86 0.96 1.02 1.00 1.23 1.31 1.26 1.24 1.18 1.23 1.33 1.26 1.17 0.98 0.90 0.90 0.86 0.83 0.79 0.75 0.74 0.72 0.72 0.77 0.80 0.84 0.91 0.96 1.03 1.23 1.42 1.51
0.30 0.29 0.32 0.33 0.31 0.33 0.40 0.52 0.65 0.72 0.79 0.83 0.86 0.94 0.99 1.13 1.19 1.19 1.18 1.10 1.06 1.06 1.03 0.92 0.82 0.77 0.73 0.71 0.73 0.71 0.69 0.67 0.70 0.75 0.76 0.74 0.78 0.85 0.91 0.97 1.10 1.24 1.34
0.33 0.36 0.39 0.37 0.35 0.37 0.44 0.54 0.66 0.77 0.85 0.88 0.92 0.99 1.04 1.08 1.12 1.18 1.22 1.20 1.16 1.04 0.89 0.84 0.82 0.77 0.72 0.70 0.70 0.71 0.68 0.68 0.73 0.76 0.75 0.71 0.73 0.81 0.85 0.88 0.95 1.08 1.20
0.35 0.38 0.42 0.44 0.42 0.42 0.47 0.56 0.66 0.74 0.80 0.86 0.93 1.11 1.21 1.21 1.20 1.22 1.20 1.07 0.98 0.91 0.86 0.82 0.82 0.85 0.83 0.78 0.73 0.72 0.74 0.72 0.71 0.76 0.74 0.70 0.71 0.77 0.80 0.81 0.87 1.00 1.10
0.35 0.44 0.49 0.50 0.48 0.49 0.53 0.61 0.69 0.77 0.80 0.84 0.89 0.98 1.17 1.27 1.24 1.26 1.18 1.04 0.93 0.86 0.82 0.81 0.80 0.83 0.87 0.85 0.82 0.80 0.80 0.77 0.76 0.77 0.72 0.68 0.69 0.73 0.77 0.78 0.83 0.87 0.91
0.40 0.43 0.50 0.51 0.51 0.55 0.60 0.66 0.73 0.81 0.82 0.82 0.83 0.90 1.11 1.15 1.08 1.04 1.09 1.08 1.00 0.90 0.84 0.84 0.82 0.83 0.85 0.84 0.82 0.81 0.82 0.79 0.75 0.74 0.69 0.64 0.65 0.72 0.73 0.74 0.74 0.74 0.78
0.43 0.46 0.50 0.52 0.56 0.62 0.67 0.71 0.78 0.83 0.82 0.82 0.84 0.91 1.01 0.90 0.86 0.88 0.95 1.00 1.00 0.95 0.87 0.89 0.87 0.83 0.84 0.85 0.85 0.84 0.84 0.79 0.73 0.70 0.67 0.63 0.63 0.67 0.67 0.66 0.64 0.64 0.69
0.46 0.51 0.56 0.57 0.59 0.68 0.72 0.69 0.75 0.81 0.83 0.83 0.84 0.87 0.91 0.90 0.87 0.85 0.90 0.94 0.97 0.96 0.91 0.91 0.89 0.83 0.79 0.79 0.82 0.87 0.89 0.82 0.72 0.70 0.72 0.67 0.64 0.63 0.61 0.58 0.54 0.56 0.63
0.49 0.55 0.62 0.65 0.66 0.67 0.72 0.74 0.76 0.82 0.87 0.86 0.84 0.84 0.89 0.91 0.90 0.87 0.87 0.89 0.93 0.93 0.88 0.89 0.88 0.81 0.76 0.74 0.74 0.76 0.77 0.77 0.75 0.74 0.73 0.72 0.66 0.59 0.57 0.56 0.51 0.52 0.59
0.54 0.58 0.65 0.71 0.74 0.75 0.77 0.78 0.79 0.84 0.89 0.87 0.86 0.85 0.85 0.88 0.90 0.89 0.86 0.86 0.88 0.86 0.80 0.81 0.86 0.85 0.76 0.71 0.68 0.68 0.75 0.79 0.81 0.85 0.91 0.88 0.73 0.59 0.56 0.55 0.53 0.53 0.58
0.55 0.59 0.67 0.73 0.76 0.79 0.83 0.85 0.84 0.85 0.88 0.86 0.85 0.86 0.86 0.89 0.92 0.90 0.87 0.87 0.91 0.87 0.80 0.79 0.80 0.79 0.74 0.71 0.69 0.70 0.72 0.73 0.79 0.87 0.97 1.02 0.85 0.67 0.61 0.59 0.55 0.56 0.59

GEFSGL_prec_meanprecacc_234.txt.gz
Total_Precipitation_Accumulation
0.67 0.66 0.72 0.82 0.87 0.93 0.92 0.84 0.78 0.77 0.79 0.87 0.99 1.00 0.99 0.99 0.95 0.93 0.89 0.88 0.88 0.88 0.92 0.98 0.96 0.94 1.00 0.96 0.90 0.86 0.87 0.97 0.97 0.51 0.39 0.42 0.62 0.81 0.86 0.88 0.92 0.87 0.81
0.63 0.73 0.71 0.76 0.88 0.90 0.84 0.81 0.84 0.81 0.80 0.83 0.93 1.06 1.08 1.06 1.03 1.01 0.99 1.03 1.09 1.05 0.99 1.01 1.04 1.05 1.09 1.07 1.06 0.97 0.86 0.81 0.90 0.73 0.51 0.53 0.66 0.82 0.89 0.92 0.98 0.96 0.88
0.53 0.67 0.77 0.80 0.85 0.91 0.86 0.78 0.83 0.87 0.85 0.85 0.93 1.08 1.16 1.17 1.13 1.05 1.04 1.08 1.18 1.26 1.23 1.21 1.16 1.15 1.16 1.11 1.12 1.07 0.97 0.86 0.84 0.85 0.68 0.62 0.69 0.80 0.92 1.00 1.04 1.03 1.03
0.39 0.56 0.67 0.77 0.83 0.87 0.89 0.87 0.85 0.85 0.87 0.88 0.89 0.98 1.10 1.21 1.29 1.29 1.30 1.25 1.25 1.29 1.31 1.33 1.30 1.31 1.27 1.23 1.22 1.18 1.14 1.13 1.07 1.06 0.95 0.81 0.78 0.82 1.00 1.17 1.25 1.12 1.10
0.30 0.40 0.56 0.66 0.77 0.85 0.89 0.92 0.94 0.95 0.88 0.88 0.89 0.88 0.96 1.23 1.58 1.57 1.49 1.43 1.30 1.21 1.15 1.16 1.23 1.38 1.44 1.52 1.56 1.46 1.42 1.50 1.47 1.40 1.23 1.06 0.96 1.01 1.12 1.21 1.42 1.36 1.24
0.30 0.32 0.43 0.59 0.72 0.81 0.87 0.95 0.97 0.98 0.98 0.94 0.91 0.88 0.91 1.11 1.56 1.62 1.35 1.14 1.02 1.01 1.00 0.93 0.95 1.15 1.25 1.39 1.53 1.56 1.62 1.76 1.84 1.77 1.52 1.29 1.06 1.01 1.12 1.34 1.55 1.71 1.63
0.23 0.25 0.33 0.45 0.63 0.75 0.82 0.90 1.02 1.03 1.01 1.00 0.93 0.87 0.82 0.89 1.29 1.42 1.22 0.95 0.82 0.78 0.81 0.81 0.82 0.89 1.04 1.04 1.20 1.31 1.39 1.55 1.76 1.85 1.81 1.41 1.15 1.05 1.30 1.50 1.57 1.69 1.60
0.20 0.20 0.23 0.31 0.45 0.62 0.77 0.87 0.97 1.07 1.07 1.02 0.96 0.89 0.85 0.80 1.13 1.34 1.22 0.89 0.75 0.68 0.68 0.66 0.67 0.72 0.87 1.04 1.16 1.18 1.13 1.24 1.51 1.70 1.84 1.65 1.43 1.37 1.58 1.87 2.01 2.04 1.86
0.18 0.19 0.19 0.21 0.31 0.47 0.62 0.76 0.86 0.98 1.02 1.01 0.96 0.87 0.85 0.83 1.03 1.36 1.35 0.97 0.80 0.68 0.66 0.66 0.62 0.61 0.85 1.09 1.12 1.08 0.99 1.02 1.20 1.49 1.70 1.79 1.84 1.94 2.08 2.37 2.56 2.52 2.37
0.16 0.16 0.16 0.18 0.23 0.35 0.48 0.62 0.78 0.90 0.96 0.97 0.97 0.90 0.85 0.81 0.96 1.35 1.54 1.10 0.90 0.77 0.70 0.68 0.75 0.79 0.96 1.03 0.99 1.05 1.10 1.00 0.98 1.07 1.18 1.30 1.39 1.54 1.85 2.11 2.33 2.46 2.43
0.17 0.16 0.15 0.16 0.19 0.28 0.42 0.55 0.73 0.86 0.95 0.95 0.91 0.91 0.83 0.81 0.83 1.14 1.56 1.31 1.01 0.90 0.84 0.77 0.74 0.87 0.92 0.96 1.01 1.03 1.17 1.09 1.02 1.12 1.13 1.10 1.15 1.29 1.47 1.75 2.08 2.33 2.46
0.17 0.17 0.16 0.15 0.18 0.25 0.40 0.54 0.68 0.84 0.96 0.98 0.91 0.94 0.93 0.86 0.85 1.05 1.32 1.36 1.16 0.94 0.86 0.75 0.75 0.88 0.94 1.00 1.00 1.08 1.16 1.13 1.06 1.08 1.03 1.01 1.06 1.16 1.31 1.51 1.77 1.99 2.10
0.18 0.17 0.17 0.17 0.20 0.25 0.36 0.52 0.71 0.82 0.94 1.00 0.92 0.92 0.98 0.98 0.98 1.17 1.20 1.22 1.20 1.06 1.03 1.04 0.96 0.99 1.00 0.95 0.99 1.02 1.02 0.99 1.05 1.05 0.96 0.89 0.93 1.06 1.16 1.31 1.48 1.70 1.87
0.19 0.18 0.19 0.21 0.25 0.28 0.36 0.47 0.66 0.82 0.94 1.03 0.96 0.89 0.93 1.02 1.18 1.33 1.26 1.17 1.21 1.19 1.17 1.17 1.13 1.09 1.01 0.96 0.95 0.89 0.85 0.90 0.95 0.95 0.87 0.80 0.81 0.92 1.07 1.21 1.39 1.58 1.83
0.21 0.20 0.21 0.25 0.30 0.33 0.40 0.48 0.60 0.72 0.94 1.13 1.05 0.97 1.07 1.24 1.37 1.52 1.42 1.30 1.31 1.33 1.27 1.20 1.10 1.08 1.08 0.98 0.88 0.81 0.79 0.84 0.85 0.79 0.80 0.81 0.83 0.90 0.99 1.11 1.34 1.51 1.70
0.25 0.24 0.26 0.30 0.32 0.34 0.43 0.53 0.63 0.71 0.81 0.86 0.96 1.03 1.02 1.25 1.32 1.27 1.25 1.19 1.25 1.34 1.27 1.17 0.98 0.90 0.91 0.87 0.83 0.80 0.76 0.76 0.74 0.75 0.79 0.82 0.87 0.93 0.99 1.05 1.26 1.46 1.54
0.30 0.30 0.32 0.33 0.32 0.33 0.41 0.53 0.66 0.73 0.80 0.83 0.86 0.95 1.01 1.15 1.21 1.20 1.19 1.11 1.07 1.08 1.04 0.93 0.83 0.77 0.73 0.71 0.74 0.72 0.70 0.69 0.72 0.77 0.78 0.77 0.81 0.87 0.93 1.01 1.13 1.28 1.38
0.34 0.37 0.39 0.37 0.35 0.38 0.44 0.54 0.66 0.77 0.86 0.89 0.92 1.00 1.06 1.09 1.13 1.19 1.24 1.21 1.17 1.05 0.90 0.84 0.82 0.78 0.74 0.72 0.72 0.73 0.70 0.70 0.76 0.80 0.78 0.74 0.77 0.85 0.89 0.92 0.99 1.12 1.23
0.35 0.39 0.43 0.44 0.43 0.43 0.48 0.57 0.66 0.75 0.81 0.87 0.93 1.11 1.22 1.22 1.20 1.23 1.21 1.08 0.98 0.92 0.87 0.82 0.83 0.86 0.84 0.80 0.76 0.76 0.78 0.77 0.76 0.81 0.79 0.75 0.75 0.81 0.85 0.85 0.91 1.04 1.13
0.36 0.45 0.50 0.51 0.49 0.49 0.54 0.61 0.69 0.77 0.80 0.85 0.89 0.99 1.18 1.27 1.24 1.26 1.19 1.04 0.94 0.86 0.83 0.82 0.81 0.85 0.89 0.87 0.84 0.83 0.84 0.82 0.81 0.83 0.77 0.73 0.74 0.78 0.81 0.82 0.86 0.91 0.95
0.41 0.44 0.51 0.52 0.51 0.55 0.61 0.67 0.74 0.82 0.83 0.83 0.84 0.91 1.11 1.15 1.09 1.04 1.09 1.09 1.01 0.91 0.85 0.85 0.83 0.84 0.86 0.86 0.84 0.84 0.85 0.83 0.81 0.79 0.73 0.67 0.69 0.75 0.76 0.77 0.77 0.76 0.81
0.44 0.47 0.50 0.53 0.57 0.62 0.68 0.72 0.78 0.84 0.83 0.83 0.85 0.92 1.01 0.91 0.87 0.89 0.95 1.01 1.01 0.96 0.88 0.90 0.89 0.84 0.86 0.88 0.88 0.88 0.87 0.83 0.77 0.73 0.70 0.65 0.65 0.69 0.69 0.68 0.65 0.66 0.70
0.47 0.52 0.56 0.57 0.60 0.68 0.72 0.70 0.76 0.82 0.84 0.84 0.85 0.87 0.92 0.90 0.87 0.86 0.91 0.95 0.98 0.97 0.92 0.92 0.90 0.84 0.80 0.81 0.84 0.89 0.93 0.85 0.75 0.72 0.74 0.70 0.66 0.64 0.62 0.59 0.55 0.58 0.65
0.50 0.56 0.63 0.66 0.67 0.68 0.73 0.75 0.77 0.83 0.88 0.87 0.85 0.85 0.90 0.92 0.90 0.88 0.87 0.89 0.94 0.93 0.89 0.90 0.89 0.83 0.77 0.76 0.76 0.78 0.80 0.80 0.78 0.76 0.75 0.73 0.67 0.60 0.59 0.58 0.53 0.53 0.61
0.54 0.59 0.66 0.72 0.75 0.76 0.78 0.79 0.80 0.85 0.90 0.88 0.86 0.86 0.86 0.88 0.90 0.89 0.87 0.87 0.89 0.86 0.80 0.82 0.87 0.86 0.78 0.73 0.70 0.69 0.77 0.82 0.83 0.87 0.93 0.89 0.75 0.61 0.58 0.57 0.55 0.55 0.60
0.56 0.60 0.68 0.74 0.76 0.80 0.84 0.86 0.85 0.86 0.89 0.87 0.85 0.87 0.87 0.90 0.93 0.91 0.88 0.88 0.91 0.88 0.81 0.80 0.81 0.80 0.75 0.72 0.70 0.71 0.73 0.75 0.80 0.88 0.98 1.03 0.87 0.68 0.62 0.61 0.57 0.58 0.61

GEFSGL_prec_meanprecacc_240.txt.gz
Total_Precipitation_Accumulation
0.69 0.68 0.73 0.83 0.88 0.93 0.92 0.84 0.78 0.77 0.79 0.87 0.99 1.01 0.99 0.99 0.96 0.94 0.90 0.88 0.88 0.88 0.92 0.98 0.96 0.94 1.00 0.96 0.90 0.86 0.87 0.97 0.98 0.51 0.39 0.42 0.62 0.82 0.87 0.88 0.92 0.87 0.81
0.65 0.75 0.73 0.77 0.88 0.91 0.85 0.81 0.84 0.81 0.80 0.83 0.93 1.06 1.09 1.07 1.03 1.01 1.00 1.03 1.10 1.05 0.99 1.01 1.04 1.05 1.09 1.07 1.06 0.97 0.86 0.81 0.91 0.75 0.51 0.53 0.66 0.83 0.89 0.92 0.98 0.96 0.88
0.54 0.69 0.79 0.82 0.86 0.92 0.86 0.79 0.83 0.87 0.85 0.85 0.93 1.08 1.16 1.18 1.14 1.06 1.05 1.09 1.19 1.27 1.24 1.21 1.16 1.15 1.16 1.11 1.12 1.08 0.97 0.87 0.85 0.86 0.69 0.62 0.69 0.80 0.93 1.00 1.04 1.04 1.03
0.41 0.58 0.69 0.79 0.84 0.88 0.90 0.87 0.85 0.85 0.88 0.89 0.90 0.98 1.11 1.22 1.31 1.31 1.31 1.25 1.25 1.29 1.32 1.33 1.31 1.31 1.27 1.23 1.23 1.18 1.15 1.14 1.08 1.07 0.96 0.81 0.79 0.82 1.00 1.18 1.25 1.12 1.11
0.30 0.41 0.57 0.68 0.78 0.86 0.90 0.92 0.94 0.95 0.89 0.89 0.89 0.88 0.96 1.24 1.60 1.60 1.52 1.45 1.32 1.22 1.16 1.16 1.23 1.38 1.45 1.52 1.57 1.47 1.43 1.52 1.49 1.42 1.24 1.07 0.97 1.02 1.13 1.23 1.43 1.36 1.25
0.31 0.32 0.44 0.60 0.73 0.82 0.88 0.96 0.97 0.99 0.98 0.95 0.91 0.88 0.91 1.12 1.56 1.64 1.38 1.17 1.05 1.02 1.01 0.94 0.95 1.15 1.26 1.39 1.54 1.57 1.63 1.78 1.86 1.79 1.55 1.31 1.07 1.02 1.13 1.36 1.56 1.73 1.64
0.24 0.25 0.33 0.45 0.64 0.76 0.83 0.91 1.02 1.03 1.01 1.00 0.93 0.87 0.83 0.90 1.30 1.42 1.24 0.97 0.84 0.81 0.83 0.83 0.83 0.90 1.05 1.05 1.21 1.32 1.39 1.56 1.78 1.88 1.83 1.43 1.17 1.07 1.32 1.53 1.59 1.71 1.62
0.22 0.21 0.23 0.31 0.46 0.63 0.79 0.88 0.97 1.07 1.08 1.03 0.96 0.89 0.85 0.80 1.14 1.34 1.22 0.90 0.76 0.70 0.70 0.69 0.69 0.73 0.88 1.05 1.17 1.19 1.14 1.24 1.51 1.71 1.85 1.67 1.45 1.38 1.61 1.91 2.04 2.06 1.87
0.21 0.20 0.19 0.22 0.32 0.48 0.63 0.76 0.86 0.98 1.02 1.01 0.96 0.88 0.86 0.83 1.03 1.37 1.35 0.98 0.81 0.70 0.68 0.68 0.64 0.63 0.88 1.12 1.14 1.10 1.00 1.03 1.21 1.49 1.71 1.80 1.85 1.95 2.10 2.39 2.58 2.55 2.39
0.18 0.18 0.18 0.19 0.24 0.36 0.49 0.63 0.79 0.90 0.97 0.98 0.98 0.90 0.85 0.82 0.96 1.35 1.54 1.11 0.91 0.79 0.72 0.69 0.78 0.81 0.98 1.07 1.02 1.08 1.13 1.02 0.99 1.07 1.18 1.30 1.40 1.55 1.87 2.13 2.37 2.49 2.46
0.19 0.17 0.17 0.17 0.20 0.28 0.42 0.56 0.74 0.87 0.96 0.96 0.92 0.92 0.84 0.81 0.84 1.14 1.57 1.32 1.02 0.91 0.86 0.79 0.76 0.89 0.95 0.99 1.04 1.06 1.20 1.11 1.03 1.12 1.14 1.11 1.15 1.30 1.48 1.77 2.10 2.36 2.50
0.18 0.18 0.18 0.17 0.19 0.26 0.41 0.54 0.68 0.84 0.98 0.99 0.93 0.95 0.93 0.87 0.86 1.05 1.33 1.37 1.18 0.96 0.88 0.77 0.77 0.90 0.96 1.02 1.02 1.10 1.18 1.15 1.07 1.09 1.04 1.01 1.06 1.17 1.31 1.52 1.79 2.01 2.13
0.18 0.18 0.19 0.19 0.21 0.26 0.37 0.52 0.72 0.83 0.95 1.01 0.93 0.93 0.98 0.98 0.99 1.17 1.21 1.23 1.21 1.07 1.04 1.05 0.97 1.00 1.02 0.97 1.00 1.04 1.03 1.00 1.06 1.07 0.97 0.90 0.94 1.06 1.17 1.31 1.49 1.71 1.88
0.20 0.19 0.20 0.23 0.27 0.29 0.37 0.48 0.67 0.83 0.94 1.04 0.97 0.90 0.93 1.03 1.18 1.34 1.27 1.17 1.21 1.20 1.18 1.17 1.13 1.10 1.01 0.96 0.96 0.90 0.86 0.92 0.97 0.97 0.89 0.82 0.82 0.93 1.08 1.22 1.40 1.59 1.84
0.22 0.21 0.22 0.26 0.31 0.35 0.41 0.49 0.61 0.73 0.95 1.14 1.06 0.99 1.08 1.25 1.38 1.54 1.44 1.31 1.32 1.34 1.28 1.21 1.11 1.09 1.08 0.98 0.88 0.82 0.80 0.85 0.87 0.81 0.81 0.82 0.84 0.91 1.00 1.12 1.36 1.53 1.72
0.25 0.24 0.26 0.31 0.33 0.35 0.44 0.54 0.65 0.72 0.82 0.87 0.97 1.05 1.03 1.27 1.34 1.28 1.26 1.21 1.26 1.36 1.28 1.18 0.99 0.91 0.91 0.87 0.84 0.80 0.77 0.77 0.76 0.77 0.82 0.84 0.89 0.96 1.01 1.07 1.28 1.49 1.58
0.31 0.30 0.33 0.34 0.33 0.35 0.42 0.55 0.68 0.75 0.81 0.84 0.87 0.96 1.03 1.16 1.22 1.21 1.20 1.12 1.09 1.10 1.07 0.95 0.85 0.79 0.75 0.72 0.75 0.73 0.72 0.71 0.74 0.79 0.80 0.79 0.83 0.90 0.96 1.03 1.16 1.31 1.41
0.34 0.37 0.40 0.38 0.36 0.38 0.45 0.55 0.68 0.79 0.87 0.90 0.93 1.01 1.07 1.10 1.14 1.20 1.25 1.23 1.19 1.07 0.91 0.86 0.85 0.80 0.76 0.74 0.74 0.75 0.72 0.72 0.78 0.82 0.81 0.77 0.80 0.88 0.93 0.96 1.02 1.16 1.27
0.36 0.39 0.43 0.45 0.43 0.44 0.49 0.58 0.67 0.76 0.82 0.87 0.94 1.12 1.23 1.23 1.21 1.24 1.22 1.09 1.00 0.94 0.88 0.84 0.84 0.88 0.86 0.82 0.78 0.78 0.79 0.78 0.78 0.83 0.81 0.77 0.78 0.85 0.88 0.88 0.94 1.07 1.16
0.37 0.45 0.50 0.52 0.50 0.50 0.55 0.62 0.70 0.78 0.81 0.85 0.90 0.99 1.18 1.28 1.25 1.27 1.19 1.05 0.95 0.88 0.84 0.84 0.83 0.86 0.90 0.88 0.85 0.84 0.85 0.84 0.83 0.85 0.80 0.76 0.77 0.81 0.85 0.85 0.89 0.93 0.97
0.42 0.45 0.51 0.52 0.52 0.56 0.61 0.67 0.75 0.83 0.84 0.83 0.84 0.91 1.12 1.16 1.09 1.05 1.10 1.09 1.02 0.92 0.86 0.87 0.85 0.85 0.88 0.87 0.85 0.85 0.86 0.84 0.82 0.81 0.75 0.69 0.71 0.77 0.78 0.80 0.79 0.78 0.82
0.45 0.48 0.51 0.53 0.57 0.63 0.68 0.72 0.79 0.85 0.83 0.83 0.85 0.92 1.02 0.91 0.87 0.89 0.96 1.02 1.02 0.97 0.90 0.92 0.90 0.86 0.87 0.89 0.90 0.89 0.88 0.84 0.79 0.75 0.72 0.67 0.67 0.71 0.71 0.70 0.68 0.68 0.72
0.47 0.53 0.57 0.58 0.61 0.69 0.73 0.71 0.77 0.83 0.85 0.84 0.85 0.88 0.92 0.91 0.87 0.86 0.91 0.96 0.99 0.98 0.93 0.93 0.92 0.86 0.81 0.83 0.86 0.91 0.95 0.87 0.77 0.75 0.77 0.71 0.67 0.67 0.65 0.62 0.57 0.60 0.67
0.51 0.57 0.63 0.66 0.67 0.69 0.73 0.76 0.77 0.84 0.88 0.87 0.86 0.85 0.90 0.92 0.91 0.88 0.88 0.90 0.94 0.94 0.90 0.91 0.90 0.84 0.78 0.77 0.77 0.79 0.82 0.82 0.80 0.78 0.77 0.75 0.69 0.62 0.61 0.60 0.55 0.56 0.63
0.55 0.60 0.67 0.73 0.75 0.76 0.79 0.80 0.81 0.86 0.90 0.88 0.87 0.86 0.86 0.89 0.91 0.90 0.87 0.87 0.89 0.87 0.81 0.83 0.88 0.87 0.78 0.73 0.71 0.71 0.79 0.83 0.85 0.88 0.94 0.90 0.76 0.63 0.60 0.59 0.57 0.57 0.62
0.56 0.60 0.68 0.75 0.77 0.81 0.84 0.87 0.86 0.86 0.90 0.88 0.86 0.87 0.87 0.91 0.93 0.92 0.88 0.89 0.92 0.88 0.82 0.80 0.81 0.80 0.76 0.72 0.71 0.72 0.75 0.76 0.81 0.89 0.99 1.04 0.88 0.70 0.64 0.63 0.59 0.59 0.63